# Wetter Temperatur Luftdruck Luftfeuchtigkeit Sichtweite Windgeschwindigkeit Windrichtung Zeit
1 Clouds 1 1023 87 0 3.13 289 22:25 24.01.2020
2 Clouds 1 1023 87 0 1.34 276 21:56 24.01.2020
3 Clouds 1 1023 87 0 0.89 254 21:37 24.01.2020
4 Clouds 1 1023 87 0 6.26 278 21:18 24.01.2020
5 Clouds 1 1023 86 0 1.79 279 20:42 24.01.2020
6 Clouds 0 1022 86 0 1.79 323 20:21 24.01.2020
7 Clouds 0 1023 86 0 0.89 317 19:57 24.01.2020
8 Clouds 0 1023 86 0 1.79 289 19:39 24.01.2020
9 Clouds 0 1022 87 0 4.47 300 19:21 24.01.2020
10 Clouds 0 1022 90 0 1.88 288 18:43 24.01.2020
11 Clouds 0 1022 90 0 1.88 288 18:25 24.01.2020
12 Clouds 1 1022 89 0 1.88 288 17:56 24.01.2020
13 Clouds 1 1022 88 0 1.88 288 17:38 24.01.2020
14 Clear 1 1022 87 0 2.08 280 17:20 24.01.2020
15 Clear 1 1022 87 0 1.34 247 16:39 24.01.2020
16 Clear 1 1022 86 0 2.08 280 16:21 24.01.2020
17 Clear 2 1022 82 0 0.89 256 15:56 24.01.2020
18 Clear 2 1022 82 0 1.79 295 15:38 24.01.2020
19 Clear 2 1022 82 0 0.89 285 15:19 24.01.2020
20 Clear 3 1022 81 0 1.34 293 14:41 24.01.2020
21 Clear 2 1022 81 0 1.79 230 14:22 24.01.2020
22 Clear 3 1023 78 0 1.79 224 13:45 24.01.2020
23 Clear 3 1023 78 0 2.68 258 13:24 24.01.2020
24 Clear 3 1023 81 0 1.79 359 12:55 24.01.2020
25 Clear 3 1023 81 0 3.13 287 12:36 24.01.2020
26 Clear 3 1023 82 0 3.13 287 12:18 24.01.2020
27 Clear 2 1023 86 0 2.04 277 11:42 24.01.2020
28 Clear 2 1023 88 0 1.04 274 11:19 24.01.2020
29 Clear 0 1023 90 0 1.04 274 10:43 24.01.2020
30 Clear -1 1023 91 0 1.04 274 10:22 24.01.2020
31 Clear -1 1023 91 0 1.04 274 09:56 24.01.2020
32 Clear -1 1023 91 0 1.04 274 09:38 24.01.2020
33 Clear -2 1023 91 0 1.04 274 09:20 24.01.2020
34 Clear -3 1023 90 0 1.04 274 08:40 24.01.2020
35 Clear -3 1023 91 0 1.59 267 08:19 24.01.2020
36 Clear -3 1023 90 0 1.59 267 07:50 24.01.2020
37 Clear -4 1023 90 0 1.59 267 07:28 24.01.2020
38 Clear -3 1023 90 0 1.59 267 06:48 24.01.2020
39 Clear -4 1023 90 0 1.59 267 06:29 24.01.2020
40 Clear -4 1023 90 0 1.59 267 05:58 24.01.2020
41 Clear -3 1024 90 0 0.53 166 04:57 24.01.2020
42 Clear -3 1025 90 0 0.53 166 02:53 24.01.2020
43 Clear -3 1025 90 0 1.44 188 02:25 24.01.2020
44 Clear -3 1026 90 0 1.44 188 01:46 24.01.2020
45 Clear -3 1026 90 0 1.44 188 01:28 24.01.2020
46 Clear -2 1026 90 0 0.92 181 00:25 24.01.2020
47 Clear -2 1027 90 0 0.92 181 23:49 23.01.2020
48 Clear -1 1027 90 0 0.92 181 23:31 23.01.2020
49 Clear -1 1027 89 0 1.75 179 22:59 23.01.2020
50 Clear -2 1027 89 0 1.75 179 22:38 23.01.2020
51 Clear -2 1027 89 0 1.75 179 22:38 23.01.2020
52 Clear -1 1027 89 0 1.75 179 22:19 23.01.2020
53 Clear -1 1028 89 0 1.75 179 21:58 23.01.2020
54 Clear -1 1028 89 0 1.75 179 21:39 23.01.2020
55 Clear 0 1028 89 0 1.75 179 21:20 23.01.2020
56 Clear 0 1028 88 0 1.75 179 20:59 23.01.2020
57 Clear -1 1028 87 0 1.75 179 20:39 23.01.2020
58 Clouds 1 1028 87 0 1.24 136 20:20 23.01.2020
59 Clouds 1 1028 87 0 1.24 136 19:56 23.01.2020
60 Clouds 1 1028 86 0 1.24 136 19:38 23.01.2020
61 Clouds 1 1005 86 0 1.24 136 19:19 23.01.2020
62 Clouds 2 1029 85 0 1.24 136 18:55 23.01.2020
63 Clouds 2 1029 85 0 1.24 136 18:37 23.01.2020
64 Clouds 3 1029 83 0 1.24 136 18:18 23.01.2020
65 Clouds 4 1029 82 0 1.24 136 17:43 23.01.2020
66 Clouds 4 1029 80 0 0.7 60 17:20 23.01.2020
67 Clouds 5 1029 76 0 0.7 60 16:58 23.01.2020
68 Clouds 5 1029 74 0 0.7 60 16:37 23.01.2020
69 Clouds 5 1030 72 0 1.79 152 16:18 23.01.2020
70 Clouds 6 1030 70 0 0.7 60 15:57 23.01.2020
71 Clouds 6 1031 69 0 0.7 60 15:37 23.01.2020
72 Clouds 6 1026 73 0 0.7 60 15:18 23.01.2020
73 Clouds 6 1026 73 0 0.7 60 14:56 23.01.2020
74 Clouds 6 1031 68 0 0.89 145 14:38 23.01.2020
75 Clouds 6 1031 68 0 0.89 146 14:20 23.01.2020
76 Clouds 6 1032 68 0 1.21 232 13:44 23.01.2020
77 Clouds 6 1028 73 0 1.26 194 13:21 23.01.2020
78 Clouds 6 1028 71 0 1.26 194 12:55 23.01.2020
79 Clouds 6 1033 67 0 1.54 175 12:36 23.01.2020
80 Clouds 6 1033 67 0 1.54 175 12:18 23.01.2020
81 Clouds 6 1034 70 0 1.26 194 11:43 23.01.2020
82 Clouds 5 1034 73 0 1.26 194 11:24 23.01.2020
83 Clouds 4 1035 93 0 1.1 223 10:58 23.01.2020
84 Clouds 4 1035 93 0 1.48 238 10:40 23.01.2020
85 Clouds 5 1034 83 0 1.48 238 10:18 23.01.2020
86 Clouds 4 1034 86 0 1.48 238 09:41 23.01.2020
87 Clouds 4 1034 86 0 1.48 238 09:40 23.01.2020
88 Clouds 4 1034 86 0 1.48 238 09:21 23.01.2020
89 Clouds 4 1035 87 0 1.48 238 08:56 23.01.2020
90 Clouds 4 1035 87 0 1.48 238 08:37 23.01.2020
91 Clouds 4 1035 87 0 1.26 282 08:18 23.01.2020
92 Clouds 4 1035 88 0 1.26 282 07:37 23.01.2020
93 Clouds 3 1035 95 0 1.26 282 07:18 23.01.2020
94 Clouds 3 1030 10 0 1.26 282 06:44 23.01.2020
95 Clouds 3 1030 10 0 1.26 282 06:18 23.01.2020
96 Clouds 4 1034 88 0 0.45 186 04:25 23.01.2020
97 Clouds 4 1030 10 0 2.34 268 03:23 23.01.2020
98 Clouds 4 1035 88 0 1.34 239 01:55 23.01.2020
99 Clouds 5 1036 88 0 2.88 282 00:44 23.01.2020
100 Clouds 4 1036 89 0 2.88 282 00:24 23.01.2020
101 Clouds 5 1035 88 0 2.88 282 23:46 22.01.2020
102 Clouds 5 1035 88 0 2.88 282 23:28 22.01.2020
103 Clouds 5 1035 88 0 3.37 279 22:54 22.01.2020
104 Clouds 5 1035 88 0 1.79 262 22:36 22.01.2020
105 Clouds 5 1035 88 0 3.37 279 22:18 22.01.2020
106 Clouds 5 1035 87 0 0.89 261 21:38 22.01.2020
107 Clouds 5 1035 88 0 0.45 186 21:19 22.01.2020
108 Clouds 5 1035 88 0 3.37 279 20:55 22.01.2020
109 Clouds 5 1035 88 0 1.34 201 20:36 22.01.2020
110 Clouds 5 1034 87 0 3.58 248 20:18 22.01.2020
111 Clouds 5 1034 86 0 2.24 271 19:54 22.01.2020
112 Clouds 5 1034 86 0 3.73 285 19:36 22.01.2020
113 Clouds 5 1034 86 0 0.45 303 19:18 22.01.2020
114 Clouds 5 1034 86 0 0.89 278 18:54 22.01.2020
115 Clouds 5 1034 86 0 3.73 285 18:36 22.01.2020
116 Clouds 5 1034 85 0 3.73 285 18:18 22.01.2020
117 Clouds 5 1033 86 0 3.73 285 17:39 22.01.2020
118 Clouds 5 1033 86 0 2.68 245 17:20 22.01.2020
119 Clouds 5 1033 86 0 1.34 310 16:57 22.01.2020
120 Clouds 5 1033 85 0 0.45 279 16:39 22.01.2020
121 Clouds 5 1033 85 0 2.68 268 16:20 22.01.2020
122 Clouds 5 1032 84 0 1.34 272 15:55 22.01.2020
123 Clouds 5 1032 84 0 3.13 269 15:37 22.01.2020
124 Clouds 5 1032 83 0 2.68 304 15:18 22.01.2020
125 Clouds 5 1032 84 0 2.24 275 14:39 22.01.2020
126 Clouds 5 1033 84 0 5.36 292 14:20 22.01.2020
127 Clouds 5 1033 85 0 5.81 280 13:57 22.01.2020
128 Clouds 5 1033 84 0 3.13 280 13:37 22.01.2020
129 Clouds 5 1033 85 0 0.45 282 13:19 22.01.2020
130 Clouds 4 1033 85 0 3.13 269 12:57 22.01.2020
131 Clouds 4 1033 85 0 3.58 300 12:38 22.01.2020
132 Clouds 4 1033 84 0 5.81 289 12:19 22.01.2020
133 Clouds 4 1033 84 0 2.68 304 11:57 22.01.2020
134 Clouds 4 1033 85 0 1.34 230 11:39 22.01.2020
135 Clouds 4 1033 84 0 2.24 280 11:19 22.01.2020
136 Clouds 4 1033 84 0 3.58 280 10:46 22.01.2020
137 Clouds 3 1033 84 0 3.13 304 10:21 22.01.2020
138 Clouds 3 1033 84 0 1.79 272 09:59 22.01.2020
139 Clouds 3 1033 84 0 1.34 247 09:40 22.01.2020
140 Clouds 3 1033 85 0 1.34 239 09:22 22.01.2020
141 Clouds 3 1033 85 0 2.68 280 08:56 22.01.2020
142 Clouds 2 1033 86 0 0.89 221 08:37 22.01.2020
143 Clouds 2 1033 86 0 2.24 196 08:19 22.01.2020
144 Clouds 2 1033 86 0 0.45 179 07:44 22.01.2020
145 Clouds 2 1033 86 0 2.24 227 07:26 22.01.2020
146 Clouds 3 1033 84 0 0.45 214 06:36 22.01.2020
147 Clouds 2 1033 84 0 0.89 190 05:57 22.01.2020
148 Clouds 2 1034 84 0 4.02 276 04:26 22.01.2020
149 Clouds 2 1034 84 0 3.13 283 03:27 22.01.2020
150 Clouds 2 1035 84 0 2.24 287 02:48 22.01.2020
151 Clouds 0 1035 89 0 4.2 289 00:48 22.01.2020
152 Clouds 0 1036 90 0 3.13 248 00:28 22.01.2020
153 Clouds 0 1037 89 0 4.2 289 23:59 21.01.2020
154 Clouds 0 1037 89 0 4.2 289 23:37 21.01.2020
155 Clear -1 1037 89 0 2.47 305 23:19 21.01.2020
156 Clear -1 1037 89 0 2.47 305 22:42 21.01.2020
157 Clear -1 1037 89 0 2.47 305 22:23 21.01.2020
158 Clear -1 1037 88 0 2.47 305 21:58 21.01.2020
159 Clear 0 1037 88 0 2.47 305 21:39 21.01.2020
160 Clear 0 1037 88 0 2.47 305 21:21 21.01.2020
161 Clear 0 1037 87 0 2.47 305 20:58 21.01.2020
162 Clear 0 1037 86 0 2.47 305 20:39 21.01.2020
163 Clouds 0 1037 86 0 0.45 186 20:20 21.01.2020
164 Clouds 1 1037 85 0 3.67 256 19:58 21.01.2020
165 Clouds 1 1037 84 0 0.45 156 19:39 21.01.2020
166 Clouds 1 1037 83 0 1.34 124 19:21 21.01.2020
167 Clouds 2 1037 84 0 3.67 256 18:57 21.01.2020
168 Clouds 2 1037 84 0 2.24 221 18:39 21.01.2020
169 Clouds 2 1038 84 0 4.47 252 18:39 21.01.2020
170 Clouds 2 1038 84 0 1.79 254 18:20 21.01.2020
171 Clouds 2 1037 83 0 4.47 259 17:56 21.01.2020
172 Clouds 2 1038 85 0 3.58 262 17:38 21.01.2020
173 Clear 3 1038 83 0 1.34 251 17:18 21.01.2020
174 Clear 4 1038 82 0 1.79 273 16:38 21.01.2020
175 Clear 4 1039 80 0 0.89 241 16:19 21.01.2020
176 Clear 5 1039 80 0 2.78 282 15:59 21.01.2020
177 Clear 5 1039 79 0 0.89 203 15:38 21.01.2020
178 Clear 5 1039 78 0 1.34 272 15:19 21.01.2020
179 Clear 6 1039 77 0 2.24 201 14:40 21.01.2020
180 Clear 6 1040 79 0 3.29 278 14:21 21.01.2020
181 Clear 6 1040 80 0 0.45 268 13:55 21.01.2020
182 Clear 5 1040 80 0 0.89 80 13:37 21.01.2020
183 Clear 5 1040 81 0 3.58 194 13:18 21.01.2020
184 Clear 5 1041 82 0 0.89 73 12:42 21.01.2020
185 Clear 4 1041 82 0 4.47 191 12:24 21.01.2020
186 Clear 4 1041 83 0 1.79 220 11:56 21.01.2020
187 Clear 4 1041 84 0 0.45 151 11:38 21.01.2020
188 Clear 3 1041 86 0 1.79 180 11:19 21.01.2020
189 Clear 2 1042 92 0 1.34 134 10:43 21.01.2020
190 Clear 1 1042 91 0 2.25 256 10:23 21.01.2020
191 Clear 0 1042 91 0 2.25 256 09:56 21.01.2020
192 Clear 0 1042 91 0 2.25 256 09:56 21.01.2020
193 Clear -1 1042 91 0 2.25 256 09:38 21.01.2020
194 Clear -1 1042 91 0 2.25 256 09:20 21.01.2020
195 Clear -2 1041 90 0 2.25 256 08:44 21.01.2020
196 Clear -2 1041 90 0 2.01 256 08:26 21.01.2020
197 Clear -2 1041 90 0 1.86 251 07:44 21.01.2020
198 Clear -2 1041 90 0 0.45 95 07:25 21.01.2020
199 Clear -2 1042 90 0 1.86 251 06:58 21.01.2020
200 Clear -2 1042 90 0 1.86 251 06:38 21.01.2020
201 Clear -2 1042 90 0 1.86 251 06:20 21.01.2020
202 Clear -2 1042 90 0 1.86 251 05:40 21.01.2020
203 Clear -2 1042 91 0 1.86 252 04:38 21.01.2020
204 Clear -2 1043 92 0 1.86 252 02:29 21.01.2020
205 Clouds -1 1044 92 0 1.58 211 01:37 21.01.2020
206 Clouds -1 1044 91 0 1.39 213 00:52 21.01.2020
207 Clouds -1 1044 92 0 1.79 213 00:29 21.01.2020
208 Clouds -1 1045 92 0 1.39 213 23:56 20.01.2020
209 Clouds -1 1045 91 0 1.39 213 23:36 20.01.2020
210 Clouds -1 1045 91 0 1.39 213 23:36 20.01.2020
211 Clouds -1 1045 91 0 2.23 235 23:18 20.01.2020
212 Clouds -1 1045 91 0 2.23 235 22:55 20.01.2020
213 Clouds -1 1045 91 0 2.23 235 22:36 20.01.2020
214 Clouds -1 1045 91 0 2.23 235 22:18 20.01.2020
215 Clouds 0 1045 91 0 0.89 183 21:55 20.01.2020
216 Clouds 0 1045 91 0 2.23 235 21:36 20.01.2020
217 Clouds 0 1045 91 0 2.23 235 21:18 20.01.2020
218 Clouds 0 1046 90 0 2.23 235 20:54 20.01.2020
219 Clouds 0 1046 91 0 2.06 242 20:36 20.01.2020
220 Clouds 0 1045 90 0 0.45 87 20:18 20.01.2020
221 Clouds 0 1046 90 0 2.25 285 19:54 20.01.2020
222 Clouds 1 1046 89 0 2.25 285 19:36 20.01.2020
223 Clouds 1 1045 90 0 2.25 285 19:18 20.01.2020
224 Clouds 1 1045 90 0 1.79 156 18:42 20.01.2020
225 Clouds 2 1045 89 0 2.25 285 18:21 20.01.2020
226 Clouds 3 1041 97 0 2.25 285 17:39 20.01.2020
227 Clouds 3 1046 84 0 2.39 281 17:19 20.01.2020
228 Clouds 3 1046 84 0 2.39 281 16:55 20.01.2020
229 Clouds 4 1046 83 0 2.39 281 16:36 20.01.2020
230 Clouds 4 1046 81 0 2.39 281 16:18 20.01.2020
231 Clouds 5 1046 78 0 0.45 261 15:41 20.01.2020
232 Clouds 5 1046 75 0 0.89 271 15:22 20.01.2020
233 Clouds 5 1046 75 0 2.39 281 14:59 20.01.2020
234 Clouds 5 1046 76 0 2.24 245 14:41 20.01.2020
235 Clouds 4 1046 74 0 0.89 313 14:21 20.01.2020
236 Clouds 4 1046 76 0 0.89 307 13:57 20.01.2020
237 Clouds 4 1046 77 0 0.45 265 13:38 20.01.2020
238 Clear 4 1042 95 0 2.23 277 13:20 20.01.2020
239 Clear 3 1042 99 0 2.23 277 12:44 20.01.2020
240 Clear 3 1042 99 0 2.23 277 12:25 20.01.2020
241 Clear 3 1042 99 0 2.23 277 12:25 20.01.2020
242 Clear 3 1042 10 0 2.23 277 11:56 20.01.2020
243 Clear 2 1048 97 0 0.45 34 11:37 20.01.2020
244 Clouds 2 1042 10 0 2.57 284 11:19 20.01.2020
245 Clouds 2 1042 10 0 2.57 284 10:47 20.01.2020
246 Clouds 1 1042 10 0 2.57 284 10:21 20.01.2020
247 Clouds 1 1042 10 0 2.57 284 09:42 20.01.2020
248 Clouds 1 1042 10 0 2.57 284 09:24 20.01.2020
249 Clouds 0 1042 10 0 2.57 284 08:59 20.01.2020
250 Clouds 0 1041 10 0 2.57 284 08:39 20.01.2020
251 Clear 0 1041 10 0 2.13 276 08:20 20.01.2020
252 Clear 0 1041 10 0 2.13 276 07:42 20.01.2020
253 Clear 0 1041 10 0 2.13 276 07:42 20.01.2020
254 Clear 0 1046 95 0 0.89 282 07:22 20.01.2020
255 Clear 0 1040 10 0 2.13 276 06:45 20.01.2020
256 Clear 0 1040 10 0 2.13 276 06:25 20.01.2020
257 Clear 0 1040 10 0 2.13 276 05:41 20.01.2020
258 Clear 0 1040 10 0 2.89 295 05:21 20.01.2020
259 Clear 0 1040 10 0 2.89 295 04:33 20.01.2020
260 Clear 2 1041 85 0 2.89 295 02:55 20.01.2020
261 Clouds 2 1039 10 0 3.31 300 01:42 20.01.2020
262 Clouds 2 1039 10 0 3.15 296 01:23 20.01.2020
263 Clouds 2 1038 10 0 3.15 296 00:43 20.01.2020
264 Clouds 2 1038 10 0 3.15 296 00:22 20.01.2020
265 Clouds 2 1038 10 0 3.15 296 23:39 19.01.2020
266 Clouds 2 1038 10 0 2.81 294 23:19 19.01.2020
267 Clouds 3 1038 99 0 2.81 294 22:56 19.01.2020
268 Clouds 3 1037 97 0 2.81 294 22:37 19.01.2020
269 Clouds 4 1037 95 0 2.81 294 22:19 19.01.2020
270 Clouds 4 1042 91 0 2.81 294 21:56 19.01.2020
271 Clouds 4 1036 88 0 2.81 294 21:38 19.01.2020
272 Clouds 4 1036 88 0 2.81 294 21:19 19.01.2020
273 Clouds 4 1036 88 0 2.81 294 20:57 19.01.2020
274 Clouds 4 1036 88 0 2.81 294 20:38 19.01.2020
275 Clouds 5 1041 90 0 3.19 298 20:20 19.01.2020
276 Clouds 5 1035 90 0 3.19 298 19:56 19.01.2020
277 Clouds 5 1035 91 0 3.19 298 19:38 19.01.2020
278 Clouds 5 1035 91 0 3.19 298 19:19 19.01.2020
279 Clouds 4 1034 91 0 3.19 298 18:56 19.01.2020
280 Clouds 5 1034 92 0 3.19 298 18:37 19.01.2020
281 Clouds 4 1034 91 0 3.19 298 18:19 19.01.2020
282 Clouds 4 1039 89 0 0.89 359 17:58 19.01.2020
283 Clouds 4 1039 89 0 0.89 359 17:58 19.01.2020
284 Clouds 5 1038 83 0 3.19 298 17:39 19.01.2020
285 Clear 5 1038 83 0 0.45 245 17:20 19.01.2020
286 Clear 5 1037 83 0 3.13 359 16:57 19.01.2020
287 Clear 5 1037 83 0 3.25 300 16:38 19.01.2020
288 Clear 5 1037 85 0 3.25 300 16:19 19.01.2020
289 Clear 5 1036 86 0 3.25 300 15:58 19.01.2020
290 Clear 5 1036 84 0 3.25 300 15:37 19.01.2020
291 Clear 6 1036 82 0 3.25 300 15:19 19.01.2020
292 Clear 6 1035 81 0 3.25 300 14:57 19.01.2020
293 Clear 6 1035 79 0 3.25 300 14:38 19.01.2020
294 Clear 6 1035 79 0 3.25 300 14:38 19.01.2020
295 Clear 6 1035 80 0 4.53 305 14:18 19.01.2020
296 Clear 6 1035 80 0 4.53 305 14:18 19.01.2020
297 Clear 5 1036 86 0 0.45 336 13:56 19.01.2020
298 Clear 6 1035 79 0 4.53 305 13:37 19.01.2020
299 Clear 6 1035 80 0 4.4 302 13:19 19.01.2020
300 Clear 5 1035 82 0 4.4 302 12:55 19.01.2020
301 Clear 5 1035 84 0 4.4 302 12:36 19.01.2020
302 Clear 5 1034 83 0 2.68 292 12:18 19.01.2020
303 Clear 4 1034 85 0 3.58 276 11:42 19.01.2020
304 Clear 4 1034 87 0 0.45 297 11:20 19.01.2020
305 Clear 4 1034 88 0 0.89 289 10:56 19.01.2020
306 Clear 4 1034 87 0 2.24 286 10:38 19.01.2020
307 Clear 4 1033 86 0 0.45 227 10:19 19.01.2020
308 Clear 3 1033 86 0 2.24 263 09:55 19.01.2020
309 Clear 3 1033 86 0 1.34 292 09:36 19.01.2020
310 Clear 3 1032 87 0 1.79 306 09:18 19.01.2020
311 Clear 3 1031 88 0 1.79 283 08:44 19.01.2020
312 Clouds 3 1031 87 0 0.89 197 08:26 19.01.2020
313 Clouds 3 1030 89 0 1.34 300 07:42 19.01.2020
314 Clouds 3 1030 88 0 3.7 287 07:22 19.01.2020
315 Clouds 3 1030 88 0 0.89 290 06:53 19.01.2020
316 Clouds 3 1029 88 0 3.7 287 06:21 19.01.2020
317 Clouds 3 1027 89 0 4.32 283 02:47 19.01.2020
318 Clouds 3 1027 89 0 4.32 283 02:24 19.01.2020
319 Clouds 3 1026 91 0 0.89 251 01:25 19.01.2020
320 Clouds 2 1026 90 0 3.57 265 00:54 19.01.2020
321 Clouds 2 1026 90 0 2.24 258 00:29 19.01.2020
322 Clouds 2 1026 89 0 3.57 265 23:59 18.01.2020
323 Clouds 3 1026 89 0 3.57 265 23:41 18.01.2020
324 Clouds 3 1025 88 0 0.45 252 23:23 18.01.2020
325 Clouds 3 1025 87 0 2.9 275 22:55 18.01.2020
326 Clouds 3 1020 92 0 2.9 275 22:37 18.01.2020
327 Clouds 3 1025 88 0 1.34 279 22:19 18.01.2020
328 Clouds 3 1025 89 0 1.79 283 21:57 18.01.2020
329 Clouds 3 1025 89 0 1.79 261 21:38 18.01.2020
330 Clouds 3 1025 89 0 0.45 177 21:19 18.01.2020
331 Clouds 4 1025 88 0 0.89 266 20:43 18.01.2020
332 Clouds 4 1024 87 0 3.03 238 20:21 18.01.2020
333 Clouds 4 1024 87 0 3.03 238 20:21 18.01.2020
334 Clouds 4 1024 86 0 3.03 238 19:59 18.01.2020
335 Clouds 4 1024 86 0 3.03 238 19:59 18.01.2020
336 Clouds 5 1024 84 0 0.89 254 19:41 18.01.2020
337 Clouds 4 1024 85 0 3.03 238 19:22 18.01.2020
338 Clouds 5 1019 86 0 3.03 238 18:43 18.01.2020
339 Clouds 4 1024 86 0 0.89 199 18:24 18.01.2020
340 Clouds 5 1024 87 0 3.03 238 17:56 18.01.2020
341 Clouds 5 1024 86 0 3.03 238 17:38 18.01.2020
342 Clouds 5 1024 86 0 0.89 187 17:19 18.01.2020
343 Clouds 5 1023 83 0 4.37 274 16:55 18.01.2020
344 Clouds 6 1023 82 0 3.13 247 16:36 18.01.2020
345 Clouds 6 1023 80 0 2.68 321 16:18 18.01.2020
346 Clouds 7 1023 71 0 0.89 215 15:42 18.01.2020
347 Clouds 7 1023 69 0 3.13 235 15:24 18.01.2020
348 Clouds 7 1023 70 0 3.13 182 14:58 18.01.2020
349 Clouds 7 1022 72 0 4.37 274 14:39 18.01.2020
350 Clouds 7 1022 70 0 5.19 250 14:18 18.01.2020
351 Clouds 7 1023 69 0 5.36 259 13:45 18.01.2020
352 Clouds 7 1022 70 0 6.26 255 13:27 18.01.2020
353 Clouds 7 1023 72 0 0.45 107 12:59 18.01.2020
354 Clouds 7 1023 72 0 0.89 103 12:40 18.01.2020
355 Clouds 7 1023 73 0 1.79 172 12:21 18.01.2020
356 Clouds 7 1023 75 0 2.24 83 11:44 18.01.2020
357 Clouds 7 1023 75 0 1.34 183 11:24 18.01.2020
358 Clouds 6 1022 76 0 0.89 304 10:57 18.01.2020
359 Clouds 5 1023 80 0 0.45 199 10:38 18.01.2020
360 Clouds 5 1022 81 0 3.77 233 10:20 18.01.2020
361 Clouds 5 1022 81 0 3.77 233 09:48 18.01.2020
362 Clouds 4 1022 82 0 3.77 233 09:30 18.01.2020
363 Clouds 4 1022 83 0 0.89 175 08:57 18.01.2020
364 Clouds 4 1022 85 0 0.45 194 08:39 18.01.2020
365 Clouds 4 1022 85 0 3.58 238 08:19 18.01.2020
366 Clouds 4 1022 85 0 3.5 241 07:50 18.01.2020
367 Clouds 4 1021 85 0 3.5 241 07:31 18.01.2020
368 Clouds 4 1021 85 0 3.5 241 06:48 18.01.2020
369 Clouds 5 1021 86 0 1.34 263 05:59 18.01.2020
370 Clouds 5 1020 82 0 3.5 241 05:24 18.01.2020
371 Clouds 6 1020 92 0 0.89 263 03:25 18.01.2020
372 Rain 6 1018 82 0 4.68 267 01:59 18.01.2020
373 Rain 6 1018 85 0 5.36 259 01:35 18.01.2020
374 Rain 7 1017 86 0 0.89 272 00:38 18.01.2020
375 Rain 7 1017 86 0 0.45 258 00:19 18.01.2020
376 Rain 7 1016 88 0 4.02 273 23:44 17.01.2020
377 Clouds 7 1016 89 0 0.45 249 23:20 17.01.2020
378 Clouds 7 1016 89 0 0.45 249 23:20 17.01.2020
379 Clouds 7 1016 88 0 4.23 239 22:59 17.01.2020
380 Clouds 7 1016 86 0 4.23 239 22:40 17.01.2020
381 Clouds 7 1016 86 0 4.23 239 22:19 17.01.2020
382 Clouds 6 1015 86 0 0.45 247 21:42 17.01.2020
383 Clouds 6 1015 85 0 4.23 239 21:24 17.01.2020
384 Clouds 6 1015 85 0 4.23 239 20:59 17.01.2020
385 Clouds 6 1015 86 0 4.23 239 20:40 17.01.2020
386 Clouds 5 1015 87 0 4.04 224 20:20 17.01.2020
387 Clouds 5 1015 87 0 3.87 227 19:57 17.01.2020
388 Clouds 5 1015 87 0 3.87 227 19:38 17.01.2020
389 Clouds 5 1015 88 0 3.87 227 19:19 17.01.2020
390 Clouds 5 1014 89 0 3.87 227 18:57 17.01.2020
391 Clouds 5 1015 90 0 3.87 227 18:37 17.01.2020
392 Clouds 5 1015 90 0 3.87 227 18:19 17.01.2020
393 Clouds 5 1014 90 0 0.89 156 17:40 17.01.2020
394 Clouds 5 1014 90 0 0.89 156 17:40 17.01.2020
395 Clear 5 1013 89 0 1.79 127 17:21 17.01.2020
396 Clear 6 1014 88 0 3.49 177 16:57 17.01.2020
397 Clear 6 1014 87 0 3.49 177 16:38 17.01.2020
398 Clear 7 1014 84 0 1.79 143 16:18 17.01.2020
399 Clear 7 1015 83 0 2.24 66 15:44 17.01.2020
400 Clear 8 1015 82 0 2.24 88 15:26 17.01.2020
401 Clear 8 1015 80 0 2.24 110 14:44 17.01.2020
402 Clear 8 1015 80 0 4.02 132 14:26 17.01.2020
403 Clear 8 1015 80 0 4.92 108 13:56 17.01.2020
404 Clear 9 1016 80 0 4.02 129 13:37 17.01.2020
405 Clear 9 1016 80 0 4.02 105 13:18 17.01.2020
406 Clear 9 1016 80 0 4.02 105 13:18 17.01.2020
407 Clear 7 1017 81 0 1.79 149 12:42 17.01.2020
408 Clear 7 1017 81 0 2.24 138 12:21 17.01.2020
409 Clear 7 1018 84 0 4.92 134 11:38 17.01.2020
410 Clear 6 1018 86 0 1.79 177 11:18 17.01.2020
411 Clear 4 1019 88 0 2.24 153 10:44 17.01.2020
412 Clear 4 1019 90 0 4.92 167 10:23 17.01.2020
413 Clear 3 1019 91 0 0.89 141 09:58 17.01.2020
414 Clear 3 1020 91 0 0.45 26 09:40 17.01.2020
415 Clear 3 1020 92 0 0.89 69 09:20 17.01.2020
416 Clear 2 1020 93 0 1.79 108 08:46 17.01.2020
417 Clear 1 1021 93 0 4.02 127 08:25 17.01.2020
418 Clear 2 1021 93 0 2.68 152 08:25 17.01.2020
419 Clear 1 1021 93 0 1.79 145 07:56 17.01.2020
420 Clear 1 1021 93 0 1.79 145 07:56 17.01.2020
421 Clear 1 1021 93 0 3.61 144 07:34 17.01.2020
422 Clear 1 1021 93 0 3.61 144 06:59 17.01.2020
423 Clear 1 1021 93 0 1.34 151 06:41 17.01.2020
424 Clear 2 1022 92 0 3.61 144 05:57 17.01.2020
425 Clear 2 1023 92 0 0.45 50 03:44 17.01.2020
426 Clear 2 1023 92 0 2.91 161 02:55 17.01.2020
427 Clear 2 1023 92 0 3.13 122 02:28 17.01.2020
428 Clear 2 1024 92 0 0.45 175 01:32 17.01.2020
429 Clear 3 1024 92 0 3.71 155 00:55 17.01.2020
430 Clear 3 1024 92 0 0.45 183 00:28 17.01.2020
431 Clear 3 1025 92 0 1.79 77 23:54 16.01.2020
432 Clear 3 1025 92 0 1.79 151 23:36 16.01.2020
433 Clear 4 1025 92 0 0.45 105 23:18 16.01.2020
434 Clear 4 1025 92 0 1.79 121 22:40 16.01.2020
435 Clear 4 1025 92 0 0.89 170 22:21 16.01.2020
436 Clear 4 1026 91 0 0.89 98 21:56 16.01.2020
437 Clear 4 1026 91 0 3.16 171 21:37 16.01.2020
438 Clear 4 1026 91 0 1.34 108 21:18 16.01.2020
439 Clear 5 1026 91 0 3.16 171 20:56 16.01.2020
440 Clear 5 1026 91 0 1.79 159 20:37 16.01.2020
441 Clouds 5 1026 91 0 2.24 124 20:18 16.01.2020
442 Clouds 5 1026 91 0 1.34 136 19:54 16.01.2020
443 Clouds 6 1026 91 0 0.89 114 19:36 16.01.2020
444 Clouds 6 1026 91 0 1.79 132 19:18 16.01.2020
445 Clouds 6 1026 91 0 1.34 129 18:54 16.01.2020
446 Clouds 7 1026 90 0 0.89 112 18:36 16.01.2020
447 Clouds 7 1026 90 0 2.24 28 18:18 16.01.2020
448 Clouds 7 1026 89 0 1.34 103 17:41 16.01.2020
449 Clouds 7 1026 89 0 0.89 115 17:21 16.01.2020
450 Clouds 8 1026 87 0 0.45 134 16:56 16.01.2020
451 Clouds 8 1027 85 0 0.89 134 16:37 16.01.2020
452 Clouds 9 1027 83 0 3.23 157 16:19 16.01.2020
453 Clouds 10 1027 81 0 1.79 105 15:44 16.01.2020
454 Clouds 10 1027 79 0 0.89 149 15:22 16.01.2020
455 Clouds 10 1027 76 0 2.24 79 14:56 16.01.2020
456 Clouds 10 1027 73 0 3.13 19 14:37 16.01.2020
457 Clear 10 1027 74 0 4.02 160 14:19 16.01.2020
458 Clear 10 1027 72 0 0.89 101 13:44 16.01.2020
459 Clear 10 1027 69 0 2.24 163 13:25 16.01.2020
460 Clear 11 1028 72 0 2.23 174 12:46 16.01.2020
461 Clear 10 1028 72 0 1.34 200 12:28 16.01.2020
462 Clear 10 1028 76 0 0.45 162 11:58 16.01.2020
463 Clear 9 1028 80 0 0.89 155 11:39 16.01.2020
464 Clear 8 1028 81 0 2.11 206 11:21 16.01.2020
465 Clear 6 1028 85 0 1.34 153 10:40 16.01.2020
466 Clear 6 1028 88 0 0.89 151 10:21 16.01.2020
467 Clear 5 1028 89 0 2.11 206 09:58 16.01.2020
468 Clear 4 1028 89 0 2.11 206 09:40 16.01.2020
469 Clear 4 1027 90 0 0.45 132 09:22 16.01.2020
470 Clear 4 1027 90 0 1.79 98 08:53 16.01.2020
471 Clear 4 1027 89 0 2.11 206 08:35 16.01.2020
472 Clouds 4 1027 90 0 1.79 183 07:59 16.01.2020
473 Clouds 4 1027 89 0 0.45 103 07:41 16.01.2020
474 Clouds 4 1027 89 0 2.54 228 07:23 16.01.2020
475 Clouds 4 1026 89 0 2.54 228 06:46 16.01.2020
476 Clouds 4 1026 89 0 2.54 228 06:28 16.01.2020
477 Clouds 5 1026 89 0 2.54 228 05:46 16.01.2020
478 Clouds 6 1025 88 0 2.44 280 04:46 16.01.2020
479 Clouds 8 1024 86 0 2.44 280 03:29 16.01.2020
480 Clouds 9 1023 83 0 0.45 262 02:44 16.01.2020
481 Clouds 10 1021 78 0 0.89 300 01:28 16.01.2020
482 Clouds 10 1020 74 0 0.45 269 00:42 16.01.2020
483 Clouds 10 1020 74 0 4.54 236 00:22 16.01.2020
484 Clouds 10 1019 71 0 4.54 236 23:40 15.01.2020
485 -273 0 0 0 0 0 23:21 15.01.2020
486 Clouds 10 1019 71 0 4.47 359 23:19 15.01.2020
487 Clouds 10 1018 70 0 0.89 121 22:56 15.01.2020
488 Clouds 10 1018 69 0 2.68 359 22:37 15.01.2020
489 Clouds 10 1017 69 0 2.24 165 22:18 15.01.2020
490 Clouds 10 1017 70 0 1.34 224 21:55 15.01.2020
491 Clouds 10 1017 69 0 4.92 359 21:36 15.01.2020
492 Clouds 10 1017 69 0 1.79 142 21:18 15.01.2020
493 Clouds 10 1016 71 0 2.24 177 20:54 15.01.2020
494 Clouds 9 1016 70 0 2.68 213 20:36 15.01.2020
495 Clouds 10 1016 69 0 4.92 169 20:18 15.01.2020
496 Clouds 10 1016 69 0 4.92 169 20:18 15.01.2020
497 Clouds 10 1016 68 0 4.92 201 19:54 15.01.2020
498 Clouds 10 1016 68 0 4.47 183 19:36 15.01.2020
499 Clouds 10 1016 68 0 2.24 158 19:18 15.01.2020
500 Clouds 10 1016 67 0 1.34 211 18:55 15.01.2020
501 Clouds 10 1015 66 0 1.79 214 18:37 15.01.2020
502 Clouds 10 1014 66 0 2.68 176 18:19 15.01.2020
503 Clouds 10 1014 68 0 2.68 170 17:41 15.01.2020
504 Clear 10 1014 65 0 0.45 165 17:22 15.01.2020
505 Clear 10 1014 65 0 2.68 201 16:59 15.01.2020
506 Clear 11 1014 65 0 3.58 201 16:38 15.01.2020
507 Clear 12 1013 63 0 2.24 170 16:20 15.01.2020
508 Clear 12 1013 63 0 2.24 170 16:20 15.01.2020
509 Clear 12 1013 63 0 2.24 170 16:20 15.01.2020
510 Clear 12 1013 62 0 4.02 187 15:43 15.01.2020
511 Clear 13 1013 61 0 3.58 210 15:21 15.01.2020
512 Clear 13 1013 58 0 2.24 170 14:58 15.01.2020
513 Clear 13 1013 56 0 2.68 172 14:39 15.01.2020
514 Clouds 13 1013 58 0 0.89 213 14:18 15.01.2020
515 Clouds 13 1013 58 0 0.89 213 14:18 15.01.2020
516 Clouds 13 1013 58 0 3.58 156 13:45 15.01.2020
517 Clouds 13 1013 60 0 4.02 180 13:24 15.01.2020
518 Clouds 13 1013 61 0 3.13 180 12:58 15.01.2020
519 Clouds 13 1013 60 0 2.24 268 12:39 15.01.2020
520 Clouds 13 1013 59 0 1.34 119 12:19 15.01.2020
521 Clouds 13 1013 61 0 3.13 132 11:56 15.01.2020
522 Clouds 13 1014 63 0 2.68 149 11:37 15.01.2020
523 Clouds 12 1014 66 0 2.24 136 11:18 15.01.2020
524 Clouds 12 1014 68 0 3.13 208 10:42 15.01.2020
525 Clouds 11 1014 69 0 5.81 213 10:24 15.01.2020
526 Clouds 11 1014 69 0 7.15 159 09:42 15.01.2020
527 Clouds 11 1014 68 0 0.45 203 09:23 15.01.2020
528 Clouds 10 1013 69 0 3.13 182 08:56 15.01.2020
529 Clouds 11 1013 69 0 4.02 200 08:38 15.01.2020
530 Clouds 11 1013 68 0 3.13 143 08:19 15.01.2020
531 Clouds 10 1013 68 0 2.68 215 07:51 15.01.2020
532 Clouds 11 1013 69 0 4.92 177 07:31 15.01.2020
533 Clouds 11 1013 69 0 1.34 204 06:45 15.01.2020
534 Clouds 11 1012 68 0 2.68 162 06:19 15.01.2020
535 Clouds 11 1011 71 0 1.79 206 04:42 15.01.2020
536 Clouds 10 1011 73 0 8.74 223 02:38 15.01.2020
537 Clouds 10 1011 72 0 2.24 359 01:28 15.01.2020
538 Clouds 9 1011 74 0 2.24 103 00:46 15.01.2020
539 Clouds 9 1011 74 0 5.36 359 00:27 15.01.2020
540 Clouds 10 1010 75 0 1.34 359 23:57 14.01.2020
541 Clouds 10 1010 74 0 2.68 359 23:38 14.01.2020
542 Clouds 10 1010 74 0 1.34 359 23:19 14.01.2020
543 Clouds 10 1010 72 0 3.58 359 22:41 14.01.2020
544 Clouds 10 1010 72 0 0.89 359 22:19 14.01.2020
545 Clouds 10 1010 71 0 3.58 158 21:59 14.01.2020
546 Clouds 10 1010 71 0 3.13 359 21:40 14.01.2020
547 Clouds 10 1010 71 0 6.71 359 21:22 14.01.2020
548 Clouds 10 1010 72 0 3.13 359 20:59 14.01.2020
549 Clouds 10 1010 72 0 5.81 359 20:40 14.01.2020
550 Clouds 9 1010 73 0 4.92 359 20:20 14.01.2020
551 Clouds 9 1010 75 0 8.7 208 19:56 14.01.2020
552 Clouds 9 1010 75 0 8.7 208 19:38 14.01.2020
553 Clouds 10 1010 74 0 8.7 208 19:19 14.01.2020
554 Clouds 10 1010 73 0 5.36 359 18:56 14.01.2020
555 Clouds 10 1010 73 0 8.7 208 18:37 14.01.2020
556 Clouds 10 1010 73 0 5.81 359 18:19 14.01.2020
557 Clouds 10 1010 73 0 8.7 208 17:39 14.01.2020
558 Clouds 10 1010 73 0 5.81 8 17:19 14.01.2020
559 Clouds 10 1010 73 0 5.76 210 16:56 14.01.2020
560 Clouds 10 1010 72 0 4.47 359 16:38 14.01.2020
561 Clouds 10 1010 69 0 5.76 210 16:19 14.01.2020
562 Clouds 10 1010 70 0 5.76 210 15:54 14.01.2020
563 Clouds 10 1010 70 0 3.13 359 15:36 14.01.2020
564 Clouds 10 1010 70 0 3.13 359 15:18 14.01.2020
565 Clouds 10 1010 70 0 5.76 210 14:41 14.01.2020
566 Clouds 11 1009 70 0 1.79 359 14:20 14.01.2020
567 Clouds 11 1009 69 0 8.25 221 13:42 14.01.2020
568 Clouds 10 1010 69 0 4.92 359 13:20 14.01.2020
569 Clouds 10 1010 69 0 8.34 222 12:57 14.01.2020
570 Clouds 10 1009 69 0 8.34 222 12:39 14.01.2020
571 Clouds 10 1009 69 0 8.34 222 12:20 14.01.2020
572 Clouds 10 1009 69 0 8.34 222 12:20 14.01.2020
573 Clouds 9 1009 70 0 8.34 222 11:42 14.01.2020
574 Clouds 9 1009 69 0 8.34 222 11:23 14.01.2020
575 Clouds 9 1009 72 0 8.79 205 10:58 14.01.2020
576 Clouds 8 1009 73 0 6.26 359 10:39 14.01.2020
577 Clouds 8 1009 73 0 4.47 359 10:19 14.01.2020
578 Clouds 8 1009 74 0 8.79 205 10:19 14.01.2020
579 Clouds 7 1009 75 0 4.92 359 09:57 14.01.2020
580 Clouds 7 1009 76 0 8.79 205 09:39 14.01.2020
581 Clouds 7 1009 79 0 2.24 359 09:20 14.01.2020
582 Clouds 7 1009 82 0 8.79 205 08:44 14.01.2020
583 Clouds 7 1009 82 0 8.5 199 08:23 14.01.2020
584 Clouds 6 1009 84 0 5.81 359 07:53 14.01.2020
585 Clouds 6 1009 85 0 0.89 359 07:31 14.01.2020
586 Clouds 6 1009 86 0 8.5 199 06:51 14.01.2020
587 Clouds 5 1009 87 0 1.79 359 06:23 14.01.2020
588 Clouds 4 1010 91 0 2.68 359 05:25 14.01.2020
589 Clouds 4 1010 92 0 3.58 359 03:51 14.01.2020
590 Clouds 3 1012 92 0 2.24 59 02:42 14.01.2020
591 Clouds 3 1012 92 0 2.24 359 01:53 14.01.2020
592 Clouds 2 1013 92 0 5.81 124 00:51 14.01.2020
593 Clouds 2 1013 92 0 4.47 100 00:32 14.01.2020
594 Clouds 2 1013 92 0 4.47 100 00:32 14.01.2020
595 Clouds 2 1014 93 0 0.89 42 23:55 13.01.2020
596 Clouds 3 1014 92 0 2.24 182 23:37 13.01.2020
597 Clouds 3 1014 93 0 2.68 153 23:18 13.01.2020
598 Clouds 3 1010 10 0 5.56 192 22:42 13.01.2020
599 Clouds 3 1014 92 0 5.56 192 22:21 13.01.2020
600 Clouds 3 1015 91 0 1.34 131 21:57 13.01.2020
601 Clouds 3 1015 91 0 5.56 192 21:38 13.01.2020
602 Clouds 3 1015 91 0 5.56 192 21:38 13.01.2020
603 Clouds 3 1015 91 0 1.34 148 21:19 13.01.2020
604 Clouds 3 1015 91 0 1.34 148 21:19 13.01.2020
605 Clouds 3 1015 91 0 1.34 139 20:59 13.01.2020
606 Clouds 3 1015 91 0 1.79 151 20:41 13.01.2020
607 Clear 3 1016 91 0 2.68 131 20:22 13.01.2020
608 Clouds 3 1016 91 0 2.68 131 20:22 13.01.2020
609 Clear 3 1016 90 0 2.68 118 19:59 13.01.2020
610 Clear 3 1016 90 0 1.34 131 19:39 13.01.2020
611 Clear 4 1017 90 0 0.45 132 19:20 13.01.2020
612 Clear 4 1017 90 0 0.89 107 19:20 13.01.2020
613 Clear 4 1016 90 0 1.79 210 18:56 13.01.2020
614 Clear 4 1017 90 0 4.92 179 18:37 13.01.2020
615 Clear 4 1017 90 0 4.14 197 18:19 13.01.2020
616 Clear 5 1017 89 0 1.34 129 17:44 13.01.2020
617 Clear 5 1017 89 0 2.68 359 17:25 13.01.2020
618 Clear 6 1017 88 0 0.89 93 16:58 13.01.2020
619 Clear 6 1017 87 0 1.34 114 16:38 13.01.2020
620 Clear 7 1017 86 0 1.34 105 16:20 13.01.2020
621 Clear 8 1018 83 0 0.89 359 15:54 13.01.2020
622 Clear 8 1018 82 0 0.45 77 15:36 13.01.2020
623 Clear 8 1018 80 0 2.68 359 15:18 13.01.2020
624 Clear 8 1018 78 0 1.34 119 14:40 13.01.2020
625 Clouds 8 1018 77 0 1.34 122 14:22 13.01.2020
626 Clouds 9 1019 75 0 2.68 138 13:56 13.01.2020
627 Clouds 9 1019 76 0 0.89 359 13:38 13.01.2020
628 Clouds 9 1019 75 0 5.36 359 13:20 13.01.2020
629 Clouds 8 1020 77 0 0.89 170 12:43 13.01.2020
630 Clouds 8 1020 78 0 0.89 90 12:23 13.01.2020
631 Clouds 8 1020 79 0 5.02 224 11:59 13.01.2020
632 Clouds 7 1020 82 0 1.34 107 11:38 13.01.2020
633 Clouds 7 1021 83 0 2.68 186 11:19 13.01.2020
634 Clouds 7 1021 82 0 5.81 138 10:56 13.01.2020
635 Clouds 6 1018 84 0 4.21 239 10:38 13.01.2020
636 Clouds 6 1016 96 0 4.21 239 10:20 13.01.2020
637 Clouds 6 1016 95 0 4.21 239 09:55 13.01.2020
638 Clouds 5 1016 94 0 4.21 239 09:37 13.01.2020
639 Clouds 5 1020 89 0 2.24 359 09:19 13.01.2020
640 Clouds 5 1021 90 0 0.89 105 08:39 13.01.2020
641 Clouds 5 1021 91 0 0.45 14 08:20 13.01.2020
642 Clouds 5 1021 92 0 0.45 101 07:46 13.01.2020
643 Clouds 5 1021 92 0 0.89 127 07:27 13.01.2020
644 Clouds 5 1021 92 0 5 223 06:40 13.01.2020
645 Clouds 5 1021 92 0 5 223 06:18 13.01.2020
646 Clouds 6 1021 90 0 3.53 227 05:20 13.01.2020
647 Clouds 6 1021 89 0 3.53 227 03:47 13.01.2020
648 Clouds 7 1021 89 0 3.53 227 03:22 13.01.2020
649 Clouds 6 1021 88 0 0.45 143 02:38 13.01.2020
650 Clouds 6 1021 88 0 5.01 235 02:18 13.01.2020
651 Clouds 6 1020 84 0 4.71 234 00:59 13.01.2020
652 Clouds 6 1020 85 0 2.68 359 00:40 13.01.2020
653 Clouds 6 1020 85 0 4.71 234 00:21 13.01.2020
654 Clouds 6 1020 87 0 3.13 359 23:41 12.01.2020
655 Clouds 6 1020 86 0 5.81 359 23:23 12.01.2020
656 Clouds 6 1020 82 0 5.69 233 22:57 12.01.2020
657 Clouds 6 1020 82 0 5.69 233 22:39 12.01.2020
658 Clouds 6 1020 82 0 4.47 359 22:21 12.01.2020
659 Clouds 6 1020 82 0 0.89 359 21:55 12.01.2020
660 Clouds 6 1020 82 0 0.89 359 21:55 12.01.2020
661 Clouds 6 1020 82 0 0.45 359 21:37 12.01.2020
662 Clouds 6 1019 81 0 5.69 233 21:19 12.01.2020
663 Clouds 6 1019 81 0 2.68 359 20:56 12.01.2020
664 Clouds 6 1019 81 0 5.69 233 20:37 12.01.2020
665 Clouds 6 1019 81 0 4.47 28 20:19 12.01.2020
666 Clouds 6 1019 81 0 4.47 28 20:19 12.01.2020
667 Clouds 6 1019 80 0 2.68 359 19:55 12.01.2020
668 Clouds 6 1019 80 0 6.26 359 19:37 12.01.2020
669 Clouds 6 1019 79 0 1.34 107 19:18 12.01.2020
670 Clouds 5 1019 79 0 6.19 231 18:57 12.01.2020
671 Clouds 6 1019 79 0 3.13 359 18:39 12.01.2020
672 Clouds 5 1019 78 0 0.45 359 18:21 12.01.2020
673 Clouds 5 1019 78 0 6.19 231 17:43 12.01.2020
674 Clouds 5 1019 77 0 3.58 142 17:23 12.01.2020
675 Clouds 5 1019 77 0 2.68 166 16:59 12.01.2020
676 Clouds 5 1019 76 0 2.24 100 16:39 12.01.2020
677 Clouds 5 1019 76 0 3.13 359 16:20 12.01.2020
678 Clouds 5 1018 75 0 0.89 80 15:58 12.01.2020
679 Clouds 5 1018 76 0 1.79 213 15:39 12.01.2020
680 Clouds 5 1019 77 0 6.07 235 15:21 12.01.2020
681 Clouds 5 1019 77 0 0.45 97 14:44 12.01.2020
682 Clouds 5 1019 77 0 4.02 86 14:25 12.01.2020
683 Clouds 6 1019 77 0 0.45 93 13:58 12.01.2020
684 Clouds 6 1019 76 0 6.5 225 13:40 12.01.2020
685 Clouds 6 1020 76 0 2.68 359 13:22 12.01.2020
686 Clouds 5 1020 79 0 1.34 203 12:58 12.01.2020
687 Clouds 5 1020 78 0 6.45 226 12:38 12.01.2020
688 Clouds 5 1020 79 0 6.45 226 12:19 12.01.2020
689 Clouds 5 1021 79 0 1.79 119 11:43 12.01.2020
690 Clouds 5 1021 81 0 6.45 226 11:23 12.01.2020
691 Clouds 5 1021 81 0 0.89 156 10:59 12.01.2020
692 Clouds 4 1022 84 0 0.89 165 10:40 12.01.2020
693 Clouds 4 1022 84 0 0.89 101 10:21 12.01.2020
694 Clouds 3 1022 85 0 1.34 175 09:55 12.01.2020
695 Clouds 3 1019 87 0 1.79 158 09:37 12.01.2020
696 Clouds 2 1022 88 0 1.34 131 09:18 12.01.2020
697 Clouds 1 1022 90 0 0.45 125 08:42 12.01.2020
698 Clouds 1 1022 91 0 1.79 180 08:19 12.01.2020
699 Clouds 1 1022 91 0 1.34 128 07:39 12.01.2020
700 Clouds 1 1022 91 0 1.34 151 07:21 12.01.2020
701 Clouds 1 1023 92 0 1.79 169 06:43 12.01.2020
702 Clouds 1 1023 92 0 4.08 204 06:19 12.01.2020
703 Clouds 1 1023 91 0 4.08 204 05:23 12.01.2020
704 Clouds 1 1024 90 0 3.52 202 03:47 12.01.2020
705 Clouds 1 1024 90 0 3.52 202 03:22 12.01.2020
706 Clouds 1 1025 90 0 3.52 202 02:33 12.01.2020
707 Clouds 1 1025 88 0 0.45 165 01:43 12.01.2020
708 Clouds 2 1025 88 0 4.29 205 01:22 12.01.2020
709 Clouds 2 1025 86 0 0.45 170 00:41 12.01.2020
710 Clouds 2 1026 87 0 2.24 151 00:20 12.01.2020
711 Clouds 2 1026 86 0 1.34 167 23:42 11.01.2020
712 Clouds 2 1026 86 0 1.34 167 23:42 11.01.2020
713 Clouds 2 1026 86 0 3.13 83 23:19 11.01.2020
714 Clouds 2 1026 86 0 2.24 180 22:58 11.01.2020
715 Clouds 2 1026 86 0 1.34 191 22:40 11.01.2020
716 Clouds 2 1027 85 0 4.08 205 22:20 11.01.2020
717 Clouds 3 1027 85 0 2.68 138 21:58 11.01.2020
718 Clouds 3 1027 85 0 4.02 97 21:40 11.01.2020
719 Clouds 2 1027 85 0 0.89 189 21:18 11.01.2020
720 Clouds 3 1027 85 0 3.13 155 20:42 11.01.2020
721 Clouds 3 1027 86 0 1.79 155 20:22 11.01.2020
722 Clouds 3 1028 86 0 1.79 186 19:59 11.01.2020
723 Clouds 3 1028 85 0 0.89 193 19:39 11.01.2020
724 Clouds 3 1028 85 0 0.89 193 19:39 11.01.2020
725 Clouds 3 1028 84 0 0.89 211 19:21 11.01.2020
726 Clouds 3 1028 84 0 0.45 56 18:59 11.01.2020
727 Clouds 3 1028 84 0 1.34 69 18:39 11.01.2020
728 Clouds 4 1028 84 0 0.89 159 18:20 11.01.2020
729 Clouds 4 1028 84 0 1.79 183 17:58 11.01.2020
730 Clouds 4 1028 84 0 2.68 187 17:40 11.01.2020
731 Clouds 4 1028 83 0 0.45 145 17:20 11.01.2020
732 Clouds 5 1028 82 0 0.89 165 16:55 11.01.2020
733 Clouds 5 1028 82 0 0.89 160 16:55 11.01.2020
734 Clouds 5 1028 81 0 1.79 166 16:36 11.01.2020
735 Clouds 5 1028 81 0 1.79 166 16:36 11.01.2020
736 Clouds 5 1029 80 0 2.24 143 16:18 11.01.2020
737 Clouds 6 1029 78 0 2.68 155 15:41 11.01.2020
738 Clouds 6 1029 76 0 1.79 172 15:23 11.01.2020
739 Clouds 7 1029 74 0 1.34 42 14:58 11.01.2020
740 Clouds 7 1030 73 0 0.89 184 14:40 11.01.2020
741 Clouds 7 1030 71 0 3.13 169 14:21 11.01.2020
742 Clouds 7 1031 71 0 1.79 203 13:55 11.01.2020
743 Clouds 7 1031 70 0 2.68 296 13:36 11.01.2020
744 Clouds 7 1031 71 0 3.58 155 13:18 11.01.2020
745 Clouds 7 1031 73 0 0.45 148 12:42 11.01.2020
746 Clouds 7 1031 74 0 3.5 210 12:24 11.01.2020
747 Clouds 6 1031 76 0 0.45 201 11:54 11.01.2020
748 Clouds 6 1032 76 0 4.92 266 11:36 11.01.2020
749 Clear 6 1032 79 0 4.92 244 11:18 11.01.2020
750 Clear 6 1032 79 0 4.92 244 11:18 11.01.2020
751 Clear 5 1032 82 0 2.24 269 10:43 11.01.2020
752 Clear 5 1032 84 0 3.58 238 10:24 11.01.2020
753 Clear 5 1031 87 0 1.34 255 09:40 11.01.2020
754 Clear 5 1031 88 0 1.79 261 09:21 11.01.2020
755 Clear 4 1031 88 0 2.92 258 08:43 11.01.2020
756 Clouds 4 1031 87 0 2.68 238 08:23 11.01.2020
757 Clouds 5 1030 84 0 0.45 251 07:45 11.01.2020
758 Clouds 5 1030 83 0 4.58 289 07:26 11.01.2020
759 Clouds 5 1030 83 0 4.58 289 07:26 11.01.2020
760 Clouds 5 1030 80 0 1.79 249 06:56 11.01.2020
761 Clouds 5 1030 79 0 2.24 175 06:28 11.01.2020
762 Clouds 5 1029 83 0 0.45 224 05:18 11.01.2020
763 Clouds 5 1028 84 0 3.58 299 04:37 11.01.2020
764 Clouds 5 1028 85 0 4.32 285 04:19 11.01.2020
765 Clouds 5 1027 83 0 4.02 283 02:45 11.01.2020
766 Clouds 5 1027 83 0 2.24 265 01:45 11.01.2020
767 Clouds 5 1026 81 0 4.47 213 01:22 11.01.2020
768 Clouds 5 1026 80 0 5.81 279 00:51 11.01.2020
769 Clouds 5 1026 79 0 3.58 290 00:21 11.01.2020
770 Clouds 6 1025 78 0 1.79 317 23:56 10.01.2020
771 Clouds 5 1025 76 0 7.6 265 23:38 10.01.2020
772 Clouds 6 1025 76 0 5.36 314 23:20 10.01.2020
773 Clouds 6 1024 76 0 2.68 290 22:41 10.01.2020
774 Clouds 6 1023 77 0 5.81 280 22:22 10.01.2020
775 Clouds 6 1023 78 0 4.02 300 21:58 10.01.2020
776 Clouds 6 1022 76 0 3.58 287 21:40 10.01.2020
777 Clouds 6 1022 72 0 4.47 247 21:20 10.01.2020
778 Clouds 6 1022 73 0 3.13 320 20:57 10.01.2020
779 Clouds 6 1021 73 0 3.58 292 20:38 10.01.2020
780 Clouds 6 1021 73 0 3.58 292 20:38 10.01.2020
781 Rain 7 1021 74 0 7.6 276 20:20 10.01.2020
782 Rain 7 1020 75 0 4.02 271 19:41 10.01.2020
783 Rain 8 1019 78 0 5.81 295 19:21 10.01.2020
784 Rain 8 1019 81 0 1.34 359 18:56 10.01.2020
785 Rain 8 1018 85 0 3.58 275 18:37 10.01.2020
786 Rain 8 1018 86 0 0.45 242 18:18 10.01.2020
787 Rain 8 1017 83 0 0.89 276 17:56 10.01.2020
788 Rain 9 1017 82 0 4.02 299 17:38 10.01.2020
789 Rain 9 1017 84 0 0.45 293 17:19 10.01.2020
790 Rain 9 1017 84 0 0.45 293 17:19 10.01.2020
791 Rain 10 1016 84 0 1.79 266 16:43 10.01.2020
792 Rain 10 1016 84 0 2.68 258 16:22 10.01.2020
793 Rain 10 1016 82 0 3.13 261 15:58 10.01.2020
794 Rain 10 1015 81 0 2.24 245 15:39 10.01.2020
795 Rain 11 1015 80 0 1.79 199 15:20 10.01.2020
796 Rain 10 1015 80 0 2.24 217 14:59 10.01.2020
797 Rain 10 1015 82 0 5.3 272 14:41 10.01.2020
798 Clouds 10 1015 81 0 6.01 239 14:20 10.01.2020
799 Clouds 11 1015 79 0 1.34 251 13:58 10.01.2020
800 Clouds 11 1015 80 0 6.01 239 13:58 10.01.2020
801 Clouds 11 1015 79 0 6.01 239 13:40 10.01.2020
802 Clouds 11 1014 78 0 1.34 206 13:22 10.01.2020
803 Clouds 11 1014 76 0 1.79 251 12:57 10.01.2020
804 Clouds 11 1014 74 0 1.34 265 12:38 10.01.2020
805 Clouds 11 1014 74 0 4.02 247 12:18 10.01.2020
806 Clouds 11 1014 75 0 6.06 239 11:54 10.01.2020
807 Clouds 11 1014 77 0 0.89 197 11:36 10.01.2020
808 Clouds 10 1014 78 0 1.79 241 11:18 10.01.2020
809 Clouds 10 1014 82 0 4.92 254 10:42 10.01.2020
810 Clouds 10 1014 85 0 1.34 248 10:24 10.01.2020
811 Clouds 10 1013 85 0 5.06 251 09:56 10.01.2020
812 Clouds 10 1013 88 0 5.06 251 09:38 10.01.2020
813 Clouds 9 1013 87 0 0.89 204 09:20 10.01.2020
814 Clouds 9 1012 89 0 0.45 248 08:42 10.01.2020
815 Clouds 9 1012 88 0 5.06 251 08:23 10.01.2020
816 Clouds 9 1012 88 0 5.06 251 08:23 10.01.2020
817 Clouds 10 1012 87 0 1.34 331 07:46 10.01.2020
818 Clouds 10 1012 89 0 2.24 197 07:26 10.01.2020
819 Clouds 10 1011 89 0 0.45 176 06:46 10.01.2020
820 Clouds 10 1011 89 0 4.36 239 06:26 10.01.2020
821 Clouds 10 1011 89 0 4.36 239 05:51 10.01.2020
822 Clouds 10 1010 91 0 5.36 221 03:45 10.01.2020
823 Clouds 10 1010 92 0 0.89 177 03:22 10.01.2020
824 Clouds 10 1010 92 0 0.45 165 02:50 10.01.2020
825 Rain 10 1010 93 0 1.34 151 01:47 10.01.2020
826 Rain 10 1010 92 0 5.23 218 01:28 10.01.2020
827 Rain 10 1010 92 0 0.89 131 00:44 10.01.2020
828 Rain 10 1010 92 0 3.13 158 00:19 10.01.2020
829 Rain 10 1010 92 0 1.34 143 23:39 09.01.2020
830 Rain 10 1010 92 0 1.34 143 23:39 09.01.2020
831 Rain 10 1010 92 0 1.34 143 23:39 09.01.2020
832 Rain 10 1011 92 0 0.45 197 23:20 09.01.2020
833 Rain 10 1010 91 0 5.37 211 22:58 09.01.2020
834 Rain 10 1011 91 0 5.37 211 22:39 09.01.2020
835 Rain 10 1011 92 0 5.37 211 22:19 09.01.2020
836 Rain 10 1011 92 0 0.45 124 21:57 09.01.2020
837 Rain 10 1011 93 0 1.79 203 21:38 09.01.2020
838 Rain 10 1011 93 0 2.24 180 21:20 09.01.2020
839 Rain 10 1011 93 0 0.89 170 20:58 09.01.2020
840 Rain 10 1011 93 0 0.89 204 20:39 09.01.2020
841 Rain 10 1011 92 0 0.89 103 20:20 09.01.2020
842 Rain 10 1011 92 0 0.89 191 20:20 09.01.2020
843 Rain 10 1011 93 0 2.68 156 19:59 09.01.2020
844 Rain 10 1011 93 0 2.24 163 19:39 09.01.2020
845 Rain 10 1011 92 0 2.68 180 19:20 09.01.2020
846 Rain 10 1011 92 0 2.24 183 18:56 09.01.2020
847 Rain 10 1011 92 0 2.24 172 18:38 09.01.2020
848 Rain 10 1011 92 0 4.47 148 18:20 09.01.2020
849 Rain 10 1011 92 0 1.34 169 17:41 09.01.2020
850 Rain 10 1012 92 0 1.79 176 17:19 09.01.2020
851 Rain 9 1004 92 0 1.34 169 16:56 09.01.2020
852 Rain 9 1009 92 0 0.45 182 16:38 09.01.2020
853 Rain 9 1012 91 0 5.81 359 16:20 09.01.2020
854 Rain 9 1012 91 0 2.68 359 15:42 09.01.2020
855 Rain 9 1013 91 0 3.13 186 15:22 09.01.2020
856 Rain 9 1013 91 0 4.02 177 14:57 09.01.2020
857 Rain 9 1013 91 0 0.45 143 14:38 09.01.2020
858 Rain 9 1013 90 0 2.24 180 14:19 09.01.2020
859 Rain 9 1013 90 0 2.68 152 13:55 09.01.2020
860 Rain 9 1013 90 0 3.13 95 13:37 09.01.2020
861 Rain 9 1009 90 0 1.79 183 13:18 09.01.2020
862 Rain 9 1014 90 0 3.13 163 12:43 09.01.2020
863 Rain 9 1014 90 0 8.05 163 12:24 09.01.2020
864 Rain 9 1015 89 0 2.24 149 11:59 09.01.2020
865 Rain 9 1015 89 0 4.47 184 11:41 09.01.2020
866 Rain 9 1016 90 0 3.13 225 11:23 09.01.2020
867 Rain 8 1016 90 0 5.76 188 10:57 09.01.2020
868 Rain 8 1016 90 0 5.76 188 10:57 09.01.2020
869 Rain 8 1016 90 0 4.92 104 10:39 09.01.2020
870 Rain 8 1016 90 0 0.89 176 10:20 09.01.2020
871 Rain 8 1017 91 0 2.68 87 09:45 09.01.2020
872 Rain 8 1017 91 0 4.47 159 09:23 09.01.2020
873 Rain 8 1017 91 0 1.34 142 09:23 09.01.2020
874 Rain 7 1017 91 0 5.76 188 08:57 09.01.2020
875 Rain 7 1018 91 0 0.45 73 08:38 09.01.2020
876 Rain 7 1018 91 0 3.13 163 08:20 09.01.2020
877 Rain 8 1018 91 0 4.47 121 07:46 09.01.2020
878 Rain 8 1018 91 0 0.45 180 07:28 09.01.2020
879 Rain 7 1019 91 0 0.89 88 06:40 09.01.2020
880 Rain 8 1020 91 0 5.2 179 06:22 09.01.2020
881 Rain 8 1020 92 0 5.2 179 05:51 09.01.2020
882 Rain 8 1020 92 0 0.89 146 05:18 09.01.2020
883 Rain 8 1021 92 0 3.76 193 04:38 09.01.2020
884 Rain 8 1022 91 0 2.24 83 03:27 09.01.2020
885 Rain 8 1022 91 0 3.76 193 02:46 09.01.2020
886 Rain 8 1022 90 0 2.73 214 01:42 09.01.2020
887 Rain 8 1022 89 0 1.34 242 00:59 09.01.2020
888 Rain 8 1023 88 0 3.03 217 00:37 09.01.2020
889 Rain 8 1023 88 0 3.03 217 00:19 09.01.2020
890 Rain 8 1023 88 0 0.45 182 23:39 08.01.2020
891 Clouds 8 1023 88 0 3.63 223 23:20 08.01.2020
892 Clouds 8 1023 87 0 3.63 223 22:56 08.01.2020
893 Clouds 9 1023 87 0 1.34 194 22:37 08.01.2020
894 Clouds 8 1023 87 0 3.58 187 22:18 08.01.2020
895 Clouds 8 1023 87 0 3.63 223 21:55 08.01.2020
896 Clouds 8 1023 87 0 3.63 223 21:37 08.01.2020
897 Clouds 8 1023 86 0 3.63 223 21:18 08.01.2020
898 Clouds 8 1023 86 0 0.89 100 20:41 08.01.2020
899 Clouds 8 1023 86 0 0.45 199 20:21 08.01.2020
900 Clouds 8 1022 87 0 0.45 251 19:59 08.01.2020
901 Clouds 8 1022 86 0 2.76 240 19:38 08.01.2020
902 Clouds 8 1023 86 0 2.24 193 19:20 08.01.2020
903 Clouds 8 1023 86 0 2.76 240 18:58 08.01.2020
904 Clouds 9 1023 85 0 2.76 240 18:39 08.01.2020
905 Clouds 9 1023 85 0 2.76 240 18:39 08.01.2020
906 Clouds 9 1023 85 0 2.76 240 18:19 08.01.2020
907 Clouds 8 1023 85 0 2.76 240 17:57 08.01.2020
908 Clouds 8 1023 85 0 2.76 240 17:39 08.01.2020
909 Clouds 8 1022 85 0 2.97 237 17:20 08.01.2020
910 Clouds 8 1022 85 0 2.97 237 16:57 08.01.2020
911 Clouds 8 1022 85 0 2.97 237 16:57 08.01.2020
912 Clouds 8 1022 85 0 2.24 111 16:38 08.01.2020
913 Clouds 8 1022 85 0 2.97 237 16:19 08.01.2020
914 Clouds 9 1022 84 0 0.89 177 15:55 08.01.2020
915 Clouds 9 1022 84 0 1.79 127 15:37 08.01.2020
916 Clouds 9 1022 84 0 2.97 237 15:18 08.01.2020
917 Clouds 8 1021 83 0 4.02 359 14:40 08.01.2020
918 Clouds 8 1021 82 0 3.58 359 14:21 08.01.2020
919 Clouds 8 1021 82 0 0.89 16 13:42 08.01.2020
920 Clouds 8 1021 82 0 0.89 182 13:24 08.01.2020
921 Clouds 8 1022 83 0 0.45 107 12:59 08.01.2020
922 Clouds 8 1022 83 0 4.77 229 12:40 08.01.2020
923 Clouds 8 1022 83 0 4.77 229 12:18 08.01.2020
924 Clouds 8 1022 83 0 5.81 359 11:48 08.01.2020
925 Rain 7 1022 83 0 4.82 208 11:20 08.01.2020
926 Rain 7 1022 84 0 0.89 359 10:59 08.01.2020
927 Rain 7 1022 83 0 4.92 359 10:41 08.01.2020
928 Rain 7 1022 84 0 1.34 129 10:22 08.01.2020
929 Rain 6 1022 85 0 4.92 359 09:58 08.01.2020
930 Rain 6 1022 86 0 1.34 129 09:38 08.01.2020
931 Rain 6 1022 85 0 4.82 208 09:18 08.01.2020
932 Rain 6 1022 84 0 0.45 131 08:42 08.01.2020
933 Rain 6 1022 84 0 3.58 359 08:23 08.01.2020
934 Rain 6 1022 84 0 2.24 88 07:59 08.01.2020
935 Rain 6 1022 84 0 2.24 88 07:59 08.01.2020
936 Rain 6 1022 84 0 4.02 359 07:41 08.01.2020
937 Rain 6 1022 83 0 2.24 359 07:20 08.01.2020
938 Rain 6 1022 84 0 0.89 111 06:42 08.01.2020
939 Rain 6 1021 84 0 0.89 87 05:57 08.01.2020
940 Rain 6 1021 82 0 2.24 60 05:27 08.01.2020
941 Clouds 5 1022 81 0 4.18 199 04:39 08.01.2020
942 Clouds 5 1022 81 0 1.79 135 03:31 08.01.2020
943 Clouds 4 1023 84 0 0.45 359 02:36 08.01.2020
944 Clouds 4 1024 85 0 4.92 359 02:18 08.01.2020
945 Clouds 5 1024 84 0 1.34 197 02:18 08.01.2020
946 Clouds 4 1024 87 0 2.24 359 01:39 08.01.2020
947 Clouds 3 1024 89 0 1.79 84 00:53 08.01.2020
948 Clouds 3 1025 91 0 2.24 173 00:26 08.01.2020
949 Clouds 3 1025 92 0 4.02 139 23:46 07.01.2020
950 Clear 3 1025 92 0 4.03 212 23:22 07.01.2020
951 Clear 3 1025 91 0 0.89 63 22:58 07.01.2020
952 Clear 3 1025 91 0 1.34 95 22:39 07.01.2020
953 Clear 3 1026 91 0 2.68 359 22:19 07.01.2020
954 Clear 3 1026 91 0 0.89 359 21:54 07.01.2020
955 Clear 3 1026 92 0 5.81 359 21:36 07.01.2020
956 Clear 3 1026 92 0 4.03 212 21:18 07.01.2020
957 Clear 3 1026 91 0 4.03 212 20:42 07.01.2020
958 Clear 3 1026 91 0 2.33 211 20:23 07.01.2020
959 Clear 3 1026 91 0 1.34 91 19:59 07.01.2020
960 Clear 4 1027 90 0 2.33 211 19:38 07.01.2020
961 Clear 4 1027 89 0 0.45 112 19:19 07.01.2020
962 Clear 5 1027 90 0 2.33 211 18:58 07.01.2020
963 Clear 5 1027 90 0 0.45 84 18:39 07.01.2020
964 Clear 5 1027 90 0 2.33 211 18:18 07.01.2020
965 Clear 5 1027 89 0 2.24 141 17:58 07.01.2020
966 Clear 5 1027 88 0 2.33 211 17:38 07.01.2020
967 Clear 6 1027 85 0 2.29 246 17:20 07.01.2020
968 Clear 6 1027 84 0 2.24 359 16:55 07.01.2020
969 Clear 6 1027 83 0 0.89 196 16:37 07.01.2020
970 Clear 6 1027 83 0 2.29 246 16:18 07.01.2020
971 Clear 6 1027 82 0 0.45 359 15:55 07.01.2020
972 Clear 6 1027 81 0 4.47 237 15:36 07.01.2020
973 Clear 6 1026 83 0 3.13 359 15:18 07.01.2020
974 Clear 6 1026 83 0 1.34 193 14:41 07.01.2020
975 Clear 6 1026 83 0 1.79 177 14:22 07.01.2020
976 Clouds 6 1026 82 0 4.47 359 13:56 07.01.2020
977 Clouds 6 1026 83 0 1.34 359 13:37 07.01.2020
978 Clouds 6 1026 83 0 2.68 359 13:18 07.01.2020
979 Clouds 5 1026 84 0 0.45 359 12:40 07.01.2020
980 Clouds 5 1026 84 0 4.04 285 12:19 07.01.2020
981 Clouds 4 1025 85 0 1.34 182 11:44 07.01.2020
982 Clouds 4 1025 86 0 4.04 285 11:23 07.01.2020
983 Clouds 4 1025 87 0 0.89 218 10:59 07.01.2020
984 Clouds 4 1025 88 0 1.34 225 10:40 07.01.2020
985 Clouds 4 1025 89 0 2.24 247 10:22 07.01.2020
986 Clouds 3 1024 90 0 0.89 220 09:56 07.01.2020
987 Clouds 3 1024 90 0 0.89 279 09:38 07.01.2020
988 Clouds 3 1024 88 0 0.89 217 09:19 07.01.2020
989 Clouds 2 1023 88 0 2.24 187 08:42 07.01.2020
990 Clouds 2 1023 88 0 1.34 234 08:22 07.01.2020
991 Clouds 2 1022 89 0 2.69 243 07:54 07.01.2020
992 Clouds 2 1022 88 0 2.69 243 07:27 07.01.2020
993 Clouds 1 1022 88 0 0.89 238 06:53 07.01.2020
994 Clouds 1 1021 88 0 4.92 359 06:34 07.01.2020
995 Clouds 0 1021 91 0 2.69 243 05:54 07.01.2020
996 Clouds -1 1021 93 0 2.35 264 04:39 07.01.2020
997 Clouds -2 1020 91 0 2.35 264 03:26 07.01.2020
998 Clear -1 1020 91 0 2.01 206 02:22 07.01.2020
999 Clear -1 1020 91 0 2.01 206 01:52 07.01.2020
1000 Clear -1 1020 91 0 2.01 206 01:30 07.01.2020
1001 Clear 0 1019 91 0 2.01 209 00:37 07.01.2020
1002 Clear 0 1019 91 0 2.01 209 00:37 07.01.2020
1003 Clear 0 1019 91 0 2.01 209 00:18 07.01.2020
1004 Clear 0 1019 91 0 2.01 209 00:18 07.01.2020
1005 Clear 0 1019 90 0 2.01 209 23:54 06.01.2020
1006 Clear 0 1020 90 0 2.01 209 23:36 06.01.2020
1007 Clear 0 1020 90 0 2.82 188 23:18 06.01.2020
1008 Clear 1 1020 90 0 2.82 188 22:42 06.01.2020
1009 Clear 1 1021 89 0 2.82 188 22:22 06.01.2020
1010 Clear 2 1021 90 0 1.79 94 21:56 06.01.2020
1011 Clear 2 1021 89 0 1.79 359 21:38 06.01.2020
1012 Clear 2 1021 89 0 2.82 188 21:20 06.01.2020
1013 Clear 3 1022 88 0 2.68 19 20:56 06.01.2020
1014 Clear 3 1022 87 0 0.89 33 20:37 06.01.2020
1015 Clouds 3 1022 87 0 1.79 359 20:19 06.01.2020
1016 Clouds 4 1022 85 0 2.24 84 19:56 06.01.2020
1017 Clouds 4 1023 81 0 1.79 359 19:37 06.01.2020
1018 Clouds 5 1023 80 0 3.51 189 19:19 06.01.2020
1019 Clouds 5 1023 80 0 3.51 189 19:19 06.01.2020
1020 Clouds 5 1023 76 0 0.45 359 18:46 06.01.2020
1021 Clouds 5 1019 79 0 3.51 189 18:21 06.01.2020
1022 Clouds 5 1024 77 0 3.51 189 17:57 06.01.2020
1023 Clouds 5 1024 78 0 3.51 189 17:37 06.01.2020
1024 Clouds 5 1024 78 0 3.51 189 17:37 06.01.2020
1025 Clouds 5 1024 78 0 4.02 359 17:18 06.01.2020
1026 Clouds 5 1025 79 0 3.61 213 16:44 06.01.2020
1027 Clouds 5 1025 79 0 2.68 112 16:24 06.01.2020
1028 Clouds 5 1025 80 0 3.13 359 15:59 06.01.2020
1029 Clouds 6 1025 80 0 4.02 359 15:38 06.01.2020
1030 Clouds 6 1025 80 0 3.61 213 15:18 06.01.2020
1031 Clouds 6 1025 81 0 0.45 359 14:56 06.01.2020
1032 Clouds 6 1026 81 0 3.61 213 14:37 06.01.2020
1033 Clouds 6 1026 81 0 0.89 241 14:18 06.01.2020
1034 Clouds 6 1026 81 0 3.13 139 13:41 06.01.2020
1035 Clouds 6 1026 80 0 1.79 359 13:22 06.01.2020
1036 Clouds 6 1026 80 0 3.38 226 12:59 06.01.2020
1037 Clouds 6 1027 81 0 1.79 359 12:41 06.01.2020
1038 Clouds 6 1027 82 0 0.45 122 12:20 06.01.2020
1039 Clouds 6 1027 81 0 3.38 226 11:56 06.01.2020
1040 Clouds 6 1027 82 0 0.45 71 11:38 06.01.2020
1041 Clouds 6 1027 82 0 0.45 71 11:38 06.01.2020
1042 Clouds 6 1027 82 0 4.92 194 11:20 06.01.2020
1043 Clouds 6 1027 82 0 4.92 194 11:20 06.01.2020
1044 Clouds 5 1028 82 0 2.24 18 10:43 06.01.2020
1045 Clouds 5 1028 82 0 2.24 18 10:43 06.01.2020
1046 Clouds 5 1028 83 0 3.65 220 10:24 06.01.2020
1047 Clouds 5 1028 84 0 3.65 220 09:57 06.01.2020
1048 Clouds 5 1028 85 0 3.65 220 09:37 06.01.2020
1049 Clouds 5 1028 85 0 3.65 220 09:19 06.01.2020
1050 Clouds 5 1028 86 0 3.65 220 08:42 06.01.2020
1051 Clouds 5 1029 86 0 3.05 221 08:23 06.01.2020
1052 Clouds 5 1029 86 0 3.05 221 07:48 06.01.2020
1053 Clouds 5 1029 86 0 3.05 221 07:23 06.01.2020
1054 Clouds 5 1029 83 0 3.05 221 06:45 06.01.2020
1055 Clouds 5 1029 81 0 3.05 221 06:18 06.01.2020
1056 Clouds 5 1029 80 0 3.05 221 05:40 06.01.2020
1057 Clouds 5 1029 84 0 0.89 359 04:30 06.01.2020
1058 Clouds 5 1029 85 0 0.45 359 03:59 06.01.2020
1059 Clouds 5 1030 87 0 2.89 240 02:46 06.01.2020
1060 Clouds 5 1030 87 0 2.89 240 02:23 06.01.2020
1061 Clouds 5 1030 87 0 3.36 237 01:43 06.01.2020
1062 Clouds 5 1030 86 0 4.47 359 01:21 06.01.2020
1063 Clouds 5 1031 86 0 0.45 359 00:41 06.01.2020
1064 Clouds 5 1031 86 0 1.34 119 00:20 06.01.2020
1065 Clouds 5 1031 85 0 0.89 359 23:41 05.01.2020
1066 Clouds 5 1032 85 0 1.34 12 23:22 05.01.2020
1067 Clouds 5 1032 86 0 0.45 108 22:55 05.01.2020
1068 Clouds 5 1032 87 0 2.24 146 22:37 05.01.2020
1069 Clouds 5 1032 87 0 2.68 233 22:19 05.01.2020
1070 Clouds 5 1032 87 0 2.68 233 21:54 05.01.2020
1071 Clouds 4 1032 87 0 0.45 359 21:36 05.01.2020
1072 Clouds 4 1032 87 0 2.68 233 21:18 05.01.2020
1073 Clouds 4 1032 87 0 2.68 233 20:54 05.01.2020
1074 Clouds 4 1032 87 0 2.68 233 20:36 05.01.2020
1075 Clouds 4 1033 87 0 2.76 244 20:18 05.01.2020
1076 Clouds 4 1032 87 0 2.76 244 19:41 05.01.2020
1077 Clouds 4 1032 87 0 0.45 206 19:21 05.01.2020
1078 Clouds 4 1032 87 0 0.45 111 18:56 05.01.2020
1079 Clouds 4 1032 87 0 2.76 244 18:38 05.01.2020
1080 Clouds 4 1032 87 0 3.13 2 18:20 05.01.2020
1081 Clouds 4 1033 86 0 2.76 244 17:59 05.01.2020
1082 Clouds 4 1033 86 0 2.76 244 17:39 05.01.2020
1083 Clouds 4 1033 86 0 2.66 201 17:20 05.01.2020
1084 Clouds 4 1033 86 0 0.89 176 16:57 05.01.2020
1085 Clouds 4 1033 85 0 2.24 114 16:39 05.01.2020
1086 Clouds 5 1033 84 0 2.66 201 16:20 05.01.2020
1087 Clouds 5 1033 83 0 2.66 201 15:41 05.01.2020
1088 Clouds 5 1033 82 0 0.45 175 15:22 05.01.2020
1089 Clouds 5 1033 82 0 1.34 218 14:58 05.01.2020
1090 Clouds 5 1033 84 0 0.45 244 14:40 05.01.2020
1091 Clear 5 1033 82 0 2.58 229 14:22 05.01.2020
1092 Clear 5 1033 81 0 2.24 173 13:59 05.01.2020
1093 Clear 5 1033 82 0 1.34 218 13:39 05.01.2020
1094 Clear 5 1034 84 0 0.45 128 13:20 05.01.2020
1095 Clear 4 1034 86 0 2.24 201 12:57 05.01.2020
1096 Clear 4 1034 86 0 2.38 225 12:57 05.01.2020
1097 Clear 4 1034 86 0 2.38 225 12:38 05.01.2020
1098 Clear 4 1034 85 0 2.38 225 12:20 05.01.2020
1099 Clear 4 1034 89 0 2.38 225 11:55 05.01.2020
1100 Clear 3 1034 90 0 0.89 234 11:37 05.01.2020
1101 Clear 3 1034 90 0 0.89 234 11:37 05.01.2020
1102 Clear 3 1034 90 0 2.45 253 11:19 05.01.2020
1103 Clear 3 1034 90 0 2.45 253 11:19 05.01.2020
1104 Clear 3 1034 90 0 2.45 253 11:19 05.01.2020
1105 Clear 2 1034 91 0 2.45 253 10:42 05.01.2020
1106 Clear 2 1034 92 0 2.45 253 10:20 05.01.2020
1107 Clear 1 1034 92 0 2.45 253 09:59 05.01.2020
1108 Clear 1 1034 92 0 2.45 253 09:41 05.01.2020
1109 Clear 1 1034 92 0 0.89 187 09:41 05.01.2020
1110 Clear 0 1034 92 0 0.45 184 09:21 05.01.2020
1111 Clear 0 1034 92 0 1.34 235 08:45 05.01.2020
1112 Clear 0 1034 92 0 1.34 247 08:25 05.01.2020
1113 Clear -1 1033 92 0 1.79 248 07:55 05.01.2020
1114 Clear -1 1033 92 0 3.19 285 07:32 05.01.2020
1115 Clear -1 1033 91 0 3.19 285 06:57 05.01.2020
1116 Clear 0 1032 90 0 3.19 285 05:53 05.01.2020
1117 Clear 0 1032 90 0 3.19 285 05:28 05.01.2020
1118 Clear 1 1032 90 0 0.89 269 04:24 05.01.2020
1119 Clear 1 1032 91 0 0.45 271 03:47 05.01.2020
1120 Clear 1 1031 91 0 4.33 289 02:43 05.01.2020
1121 Clear 1 1031 90 0 5.87 297 02:20 05.01.2020
1122 Clear 1 1030 90 0 2.24 272 01:40 05.01.2020
1123 Clear 1 1030 83 0 1.79 290 01:18 05.01.2020
1124 Clear 2 1029 79 0 1.79 299 00:41 05.01.2020
1125 Clear 2 1029 79 0 1.79 283 00:22 05.01.2020
1126 Clear 2 1029 79 0 1.79 302 23:59 04.01.2020
1127 Clear 2 1028 79 0 5.99 294 23:39 04.01.2020
1128 Clear 2 1028 77 0 4.92 286 23:19 04.01.2020
1129 Clear 2 1027 76 0 4.47 279 22:39 04.01.2020
1130 Clear 2 1027 76 0 4.02 280 22:21 04.01.2020
1131 Clear 3 1027 76 0 5.81 282 21:57 04.01.2020
1132 Clear 3 1027 76 0 3.58 309 21:38 04.01.2020
1133 Clear 3 1026 78 0 5.81 311 21:19 04.01.2020
1134 Clear 3 1026 78 0 6.26 289 20:57 04.01.2020
1135 Clear 3 1026 80 0 5.36 263 20:38 04.01.2020
1136 Rain 3 1025 80 0 2.24 302 20:20 04.01.2020
1137 Rain 3 1024 81 0 1.79 268 19:56 04.01.2020
1138 Rain 3 1024 81 0 3.58 297 19:37 04.01.2020
1139 Rain 3 1024 82 0 1.34 228 19:18 04.01.2020
1140 Rain 3 1024 82 0 3.58 300 18:54 04.01.2020
1141 Rain 3 1023 81 0 7.6 287 18:36 04.01.2020
1142 Rain 3 1023 80 0 2.24 302 18:18 04.01.2020
1143 Rain 4 1022 82 0 6.26 309 17:41 04.01.2020
1144 Rain 4 1021 81 0 2.24 225 17:22 04.01.2020
1145 Rain 4 1021 82 0 10.72 305 16:57 04.01.2020
1146 Rain 4 1021 83 0 5.36 345 16:39 04.01.2020
1147 Rain 4 1021 83 0 1.79 275 16:21 04.01.2020
1148 Rain 5 1021 81 0 3.13 293 15:43 04.01.2020
1149 Rain 6 1020 88 0 0.89 359 15:20 04.01.2020
1150 Rain 6 1014 99 0 10.72 305 14:59 04.01.2020
1151 Rain 6 1019 84 0 0.45 359 14:41 04.01.2020
1152 Rain 6 1019 84 0 0.45 359 14:20 04.01.2020
1153 Rain 6 1019 84 0 3.13 359 13:58 04.01.2020
1154 Rain 6 1019 84 0 10.28 278 13:38 04.01.2020
1155 Rain 6 1019 85 0 10.33 278 13:19 04.01.2020
1156 Rain 6 1020 86 0 4.47 327 12:57 04.01.2020
1157 Rain 6 1020 86 0 10.33 278 12:38 04.01.2020
1158 Rain 6 1020 86 0 10.33 278 12:18 04.01.2020
1159 Rain 6 1021 84 0 2.24 359 11:55 04.01.2020
1160 Rain 6 1021 84 0 0.89 359 11:36 04.01.2020
1161 Clouds 6 1021 84 0 6.26 359 11:18 04.01.2020
1162 Clouds 5 1021 81 0 9.47 271 10:40 04.01.2020
1163 Clouds 5 1022 81 0 9.47 271 10:21 04.01.2020
1164 Clouds 5 1022 81 0 0.45 359 09:47 04.01.2020
1165 Clouds 5 1022 82 0 0.45 359 09:26 04.01.2020
1166 Clouds 5 1022 82 0 2.68 359 08:49 04.01.2020
1167 Clouds 5 1022 82 0 1.34 359 08:29 04.01.2020
1168 Clouds 5 1022 83 0 0.45 359 07:57 04.01.2020
1169 Clouds 5 1022 83 0 7.36 268 07:39 04.01.2020
1170 Clouds 4 1023 85 0 7.36 268 06:44 04.01.2020
1171 Clouds 4 1023 87 0 4.92 359 05:59 04.01.2020
1172 Clouds 4 1023 89 0 6.71 359 04:53 04.01.2020
1173 Clouds 4 1023 89 0 6.12 271 04:32 04.01.2020
1174 Clouds 5 1023 88 0 6.12 271 03:37 04.01.2020
1175 Clouds 5 1023 90 0 4.47 359 03:18 04.01.2020
1176 Clouds 5 1023 87 0 2.68 359 02:20 04.01.2020
1177 Clouds 5 1023 88 0 6.01 283 01:53 04.01.2020
1178 Clouds 5 1022 87 0 6.26 359 01:30 04.01.2020
1179 Clouds 5 1022 89 0 6.25 286 00:30 04.01.2020
1180 Clouds 5 1022 87 0 6.25 286 23:59 03.01.2020
1181 Clouds 5 1021 87 0 6.25 286 23:38 03.01.2020
1182 Rain 6 1021 85 0 0.45 359 23:20 03.01.2020
1183 Rain 6 1019 84 0 8.99 308 22:41 03.01.2020
1184 Rain 6 1019 86 0 8.99 308 22:20 03.01.2020
1185 Rain 7 1018 88 0 8.99 308 21:58 03.01.2020
1186 Rain 7 1016 90 0 8.99 308 21:38 03.01.2020
1187 Rain 7 1016 91 0 8.99 308 21:19 03.01.2020
1188 Rain 7 1015 89 0 6.26 162 20:58 03.01.2020
1189 Rain 7 1015 88 0 8.99 308 20:40 03.01.2020
1190 Rain 7 1015 90 0 7.16 225 20:18 03.01.2020
1191 Rain 7 1015 90 0 7.16 225 19:56 03.01.2020
1192 Rain 7 1015 90 0 7.16 225 19:37 03.01.2020
1193 Rain 7 1015 90 0 7.16 225 19:19 03.01.2020
1194 Rain 7 1015 89 0 7.16 225 18:43 03.01.2020
1195 Rain 7 1015 88 0 1.79 359 18:24 03.01.2020
1196 Rain 7 1015 86 0 7.16 225 17:56 03.01.2020
1197 Rain 7 1015 85 0 7.16 225 17:37 03.01.2020
1198 Rain 7 1015 87 0 6.92 233 17:19 03.01.2020
1199 Rain 7 1015 86 0 3.13 359 16:42 03.01.2020
1200 Rain 7 1015 85 0 5.36 359 16:24 03.01.2020
1201 Rain 7 1015 84 0 6.92 233 15:57 03.01.2020
1202 Rain 7 1015 83 0 1.34 359 15:39 03.01.2020
1203 Rain 7 1015 83 0 6.92 233 15:18 03.01.2020
1204 Rain 7 1016 83 0 6.92 233 14:39 03.01.2020
1205 Clouds 7 1016 84 0 2.68 359 14:19 03.01.2020
1206 Clouds 7 1016 84 0 7.04 218 13:56 03.01.2020
1207 Clouds 7 1016 82 0 7.04 218 13:37 03.01.2020
1208 Clouds 7 1016 82 0 7.01 220 13:19 03.01.2020
1209 Clouds 6 1016 83 0 3.13 359 12:39 03.01.2020
1210 Clouds 6 1016 82 0 2.68 359 12:21 03.01.2020
1211 Clouds 6 1017 84 0 7.01 220 11:48 03.01.2020
1212 Clouds 6 1017 85 0 7.31 211 11:29 03.01.2020
1213 Clouds 6 1018 87 0 7.31 211 10:47 03.01.2020
1214 Clouds 5 1018 88 0 7.31 211 10:28 03.01.2020
1215 Clouds 5 1018 89 0 3.13 359 09:59 03.01.2020
1216 Clouds 5 1018 90 0 4.02 359 09:41 03.01.2020
1217 Clouds 5 1018 90 0 7.31 211 09:22 03.01.2020
1218 Clouds 5 1018 91 0 7.31 211 08:57 03.01.2020
1219 Clouds 4 1019 91 0 7.31 211 08:39 03.01.2020
1220 Clouds 4 1019 91 0 5.36 359 08:20 03.01.2020
1221 Clouds 4 1019 91 0 7.17 216 07:42 03.01.2020
1222 Clouds 4 1019 92 0 7.17 216 07:19 03.01.2020
1223 Clouds 4 1019 92 0 2.24 359 06:56 03.01.2020
1224 Clouds 4 1019 93 0 4.02 359 06:37 03.01.2020
1225 Clouds 4 1020 93 0 6.26 359 06:18 03.01.2020
1226 Clear 2 1020 95 0 0.89 179 04:42 03.01.2020
1227 Clear 2 1021 95 0 6.27 213 03:37 03.01.2020
1228 Clear 2 1022 95 0 0.89 184 02:50 03.01.2020
1229 Clear 2 1022 95 0 6.23 209 01:48 03.01.2020
1230 Clear 2 1022 95 0 0.89 203 00:57 03.01.2020
1231 Clear 2 1022 94 0 1.34 124 00:33 03.01.2020
1232 Clear 2 1023 94 0 6.25 211 23:59 02.01.2020
1233 Clear 2 1023 94 0 6.25 211 23:39 02.01.2020
1234 Clear 2 1023 93 0 4.03 204 23:20 02.01.2020
1235 Clear 2 1023 92 0 4.03 204 22:58 02.01.2020
1236 Clear 2 1024 92 0 4.03 204 22:39 02.01.2020
1237 Clear 2 1019 94 0 4.03 204 22:19 02.01.2020
1238 Clear 1 1025 91 0 4.03 204 21:55 02.01.2020
1239 Clear 1 1025 91 0 4.03 204 21:37 02.01.2020
1240 Clear 1 1025 91 0 4.03 204 21:18 02.01.2020
1241 Clear 1 1025 91 0 4.03 204 20:56 02.01.2020
1242 Clear 1 1025 91 0 4.03 204 20:36 02.01.2020
1243 Clear 0 1025 91 0 1.4 235 20:18 02.01.2020
1244 Clear 0 1025 91 0 1.88 215 19:54 02.01.2020
1245 Clear 1 1025 92 0 1.34 196 19:36 02.01.2020
1246 Clear 1 1025 91 0 1.88 215 19:18 02.01.2020
1247 Clear 1 1014 91 0 1.88 215 18:42 02.01.2020
1248 Clear 1 1020 10 0 1.88 215 18:23 02.01.2020
1249 Clear 1 1020 10 0 1.88 215 17:58 02.01.2020
1250 Clear 1 1020 10 0 1.88 215 17:58 02.01.2020
1251 Clear 2 1020 10 0 1.88 215 17:39 02.01.2020
1252 Clear 2 1020 10 0 1 237 17:20 02.01.2020
1253 Clear 2 1020 10 0 1 237 16:58 02.01.2020
1254 Clear 2 1020 10 0 1 237 16:40 02.01.2020
1255 Clear 2 1020 96 0 1 237 16:20 02.01.2020
1256 Clear 2 1019 93 0 1 237 15:58 02.01.2020
1257 Clear 3 1019 90 0 1 237 15:40 02.01.2020
1258 Clear 3 1019 86 0 1 237 15:21 02.01.2020
1259 Clear 3 1019 83 0 1 237 14:57 02.01.2020
1260 Clear 4 1022 78 0 1 237 14:36 02.01.2020
1261 Clear 4 1022 78 0 1 237 14:36 02.01.2020
1262 Clear 4 1020 75 0 1.71 199 14:18 02.01.2020
1263 Clear 4 1023 80 0 1.71 199 13:49 02.01.2020
1264 Clear 4 1020 65 0 1.34 197 13:31 02.01.2020
1265 Clear 5 1021 65 0 1.34 197 12:46 02.01.2020
1266 Clear 5 1021 66 0 1.34 197 12:26 02.01.2020
1267 Clear 4 1022 73 0 1.34 197 11:59 02.01.2020
1268 Clear 3 1022 72 0 1.34 197 11:40 02.01.2020
1269 Clear 1 1023 86 0 2.29 218 11:20 02.01.2020
1270 Clear -1 1023 96 0 2.29 218 10:45 02.01.2020
1271 Clear -1 1023 96 0 2.29 218 10:26 02.01.2020
1272 Clear -2 1023 89 0 2.29 218 09:52 02.01.2020
1273 Clear -3 1023 90 0 2.29 218 09:33 02.01.2020
1274 Clear -4 1023 97 0 2.29 218 08:48 02.01.2020
1275 Clear -4 1023 95 0 2.26 211 08:28 02.01.2020
1276 Clear -4 1023 96 0 1.19 162 07:57 02.01.2020
1277 Clear -4 1025 99 0 0.45 0 07:31 02.01.2020
1278 Clear -4 1026 99 0 0.45 0 06:57 02.01.2020
1279 Clear -4 1026 99 0 0.45 0 06:57 02.01.2020
1280 Clear -4 1026 99 0 0.45 0 06:57 02.01.2020
1281 Clear -4 1024 98 0 1.19 162 06:39 02.01.2020
1282 Clear -4 1024 98 0 1.19 162 05:37 02.01.2020
1283 Clear -4 1025 99 0 1 76 04:34 02.01.2020
1284 Clear -4 1025 98 0 1 76 03:19 02.01.2020
1285 Clear -4 1025 10 0 0.24 124 02:20 02.01.2020
1286 Clear -3 1025 99 0 0.24 124 01:48 02.01.2020
1287 Clear -4 1025 98 0 0.24 124 01:23 02.01.2020
1288 Clear -3 1025 98 0 0.35 102 00:38 02.01.2020
1289 Clear -3 1026 99 0 0.35 102 00:19 02.01.2020
1290 Clear -3 1028 87 0 0.35 102 23:41 01.01.2020
1291 Clear -3 1026 99 0 1.84 225 23:21 01.01.2020
1292 Clear -3 1026 10 0 1.84 225 22:39 01.01.2020
1293 Clear -2 1028 99 0 0.45 0 22:20 01.01.2020
1294 Clear -2 1026 10 0 1.84 225 21:58 01.01.2020
1295 Clear -2 1026 10 0 1.84 225 21:39 01.01.2020
1296 Clear -2 1026 10 0 1.84 225 21:20 01.01.2020
1297 Clear -2 1026 10 0 1.84 225 20:56 01.01.2020
1298 Clear -2 1026 10 0 1.84 225 20:38 01.01.2020
1299 Clear -2 1026 10 0 1.84 225 20:38 01.01.2020
1300 Clear -2 1029 99 0 0.89 0 20:19 01.01.2020
1301 Clear -2 1027 10 0 2.16 190 19:56 01.01.2020
1302 Clear -2 1027 10 0 2.16 190 19:37 01.01.2020
1303 Clear -2 1027 10 0 2.16 190 19:19 01.01.2020
1304 Clear -1 1027 10 0 2.16 190 18:56 01.01.2020
1305 Clear -1 1027 10 0 2.16 190 18:37 01.01.2020
1306 Clear -1 1027 10 0 2.16 190 18:19 01.01.2020
1307 Clear -1 1027 10 0 2.16 190 17:57 01.01.2020
1308 Clear 0 1027 10 0 2.16 190 17:39 01.01.2020
1309 Clear 0 1028 10 0 2.29 162 17:19 01.01.2020
1310 Clear 0 1028 10 0 2.29 162 16:56 01.01.2020
1311 Clear 1 1030 99 0 2.29 162 16:37 01.01.2020
1312 Clear 2 1028 98 0 2.29 162 16:19 01.01.2020
1313 Clear 3 1030 99 0 2.29 162 15:54 01.01.2020
1314 Clear 3 1027 87 0 2.29 162 15:36 01.01.2020
1315 Clear 3 1028 88 0 2.29 162 15:18 01.01.2020
1316 Clear 3 1028 85 0 2.29 162 14:41 01.01.2020
1317 Clear 4 1030 99 0 0.45 0 14:22 01.01.2020
1318 Clear 4 1028 81 0 2.63 152 13:57 01.01.2020
1319 Clear 4 1028 76 0 2.63 152 13:38 01.01.2020
1320 Clear 4 1028 76 0 2.63 152 13:19 01.01.2020
1321 Clear 4 1029 74 0 2.27 142 12:57 01.01.2020
1322 Clear 4 1029 75 0 2.27 142 12:39 01.01.2020
1323 Clear 5 1029 76 0 2.27 142 12:19 01.01.2020
1324 Clear 4 1032 99 0 0.45 0 11:56 01.01.2020
1325 Clear 3 1030 80 0 2.27 142 11:37 01.01.2020
1326 Clear 3 1030 80 0 1.54 242 11:18 01.01.2020
1327 Clear 2 1030 89 0 1.54 242 10:54 01.01.2020
1328 Clear 0 1030 96 0 1.54 242 10:36 01.01.2020
1329 Clear 1 1030 96 0 1.54 242 10:18 01.01.2020
1330 Clear 0 1030 90 0 1.54 242 09:39 01.01.2020
1331 Clear -1 1030 10 0 1.54 242 09:19 01.01.2020
1332 Clear -1 1031 86 0 0.45 148 08:56 01.01.2020
1333 Clear -1 1031 86 0 0.45 61 08:37 01.01.2020
1334 Clear -1 1031 86 0 0.45 61 08:37 01.01.2020
1335 Clear -1 1031 86 0 0.45 92 08:19 01.01.2020
1336 Clear -1 1030 10 0 2.12 260 07:56 01.01.2020
1337 Clear -1 1032 99 0 0.45 0 07:38 01.01.2020
1338 Clear 0 1030 10 0 2.12 260 06:50 01.01.2020
1339 Clear 0 1030 10 0 2.12 260 06:32 01.01.2020
1340 Clear 0 1030 10 0 2.12 260 05:46 01.01.2020
1341 Clear 1 1030 10 0 2.5 260 04:20 01.01.2020
1342 Clear 1 1030 10 0 2.5 260 03:39 01.01.2020
1343 Clear 1 1030 10 0 2.5 260 03:21 01.01.2020
1344 Clear 1 1029 10 0 2.5 260 02:41 01.01.2020
1345 Clouds 1 1030 10 0 2.91 276 02:22 01.01.2020
1346 Clouds 1 1030 10 0 2.91 276 01:41 01.01.2020
1347 Clouds 1 1030 10 0 2.92 278 01:22 01.01.2020
1348 Clouds 1 1030 10 0 2.92 278 00:45 01.01.2020
1349 Clouds 1 1030 10 0 2.92 278 00:26 01.01.2020
1350 Clouds 1 1034 91 0 2.92 278 23:56 31.12.2019
1351 Clouds 2 1030 99 0 2.92 278 23:36 31.12.2019
1352 Clouds 2 1030 99 0 3.82 284 23:18 31.12.2019
1353 Clouds 3 1030 10 0 3.82 284 22:55 31.12.2019
1354 Clouds 3 1034 92 0 3.82 284 22:36 31.12.2019
1355 Clouds 2 1030 99 0 3.82 284 22:18 31.12.2019
1356 Clouds 3 1030 97 0 3.82 284 21:42 31.12.2019
1357 Clouds 3 1029 96 0 3.82 284 21:24 31.12.2019
1358 Clouds 3 1029 96 0 3.82 284 20:57 31.12.2019
1359 Clouds 3 1029 96 0 3.82 284 20:57 31.12.2019
1360 Clouds 3 1029 95 0 3.82 284 20:38 31.12.2019
1361 Clouds 4 1029 94 0 4.33 281 20:20 31.12.2019
1362 Clouds 4 1031 99 0 0.89 0 19:57 31.12.2019
1363 Clouds 4 1031 99 0 0.89 0 19:39 31.12.2019
1364 Clouds 4 1029 96 0 4.33 281 19:20 31.12.2019
1365 Clouds 4 1029 95 0 4.33 281 18:56 31.12.2019
1366 Clouds 4 1028 96 0 4.33 281 18:38 31.12.2019
1367 Clouds 5 1028 97 0 4.33 281 18:19 31.12.2019
1368 Clouds 5 1028 95 0 4.33 281 17:56 31.12.2019
1369 Clouds 5 1028 95 0 4.33 281 17:56 31.12.2019
1370 Clouds 5 1028 92 0 4.33 281 17:36 31.12.2019
1371 Clouds 6 1030 99 0 0.89 0 17:18 31.12.2019
1372 Clouds 6 1028 90 0 4.73 296 16:56 31.12.2019
1373 Clouds 6 1027 89 0 4.73 296 16:37 31.12.2019
1374 Clouds 7 1027 86 0 4.73 296 16:18 31.12.2019
1375 Clouds 7 1027 84 0 4.73 296 15:56 31.12.2019
1376 Clouds 7 1027 82 0 4.73 296 15:38 31.12.2019
1377 Clouds 7 1026 81 0 4.73 296 15:19 31.12.2019
1378 Clouds 7 1026 80 0 4.73 296 14:55 31.12.2019
1379 Clouds 7 1026 79 0 4.73 296 14:37 31.12.2019
1380 Clouds 8 1026 78 0 6.78 303 14:18 31.12.2019
1381 Clouds 8 1028 90 0 3.13 0 13:56 31.12.2019
1382 Clouds 8 1026 75 0 6.62 302 13:38 31.12.2019
1383 Clouds 7 1027 77 0 0.45 295 13:19 31.12.2019
1384 Clouds 7 1027 92 0 2.24 0 12:55 31.12.2019
1385 Clouds 7 1027 92 0 2.24 0 12:55 31.12.2019
1386 Clouds 7 1027 79 0 0.89 318 12:37 31.12.2019
1387 Clouds 7 1027 79 0 0.89 318 12:37 31.12.2019
1388 Clouds 7 1027 99 0 2.68 0 12:18 31.12.2019
1389 Clouds 6 1028 99 0 2.68 0 11:55 31.12.2019
1390 Clouds 6 1030 87 0 6.62 302 11:37 31.12.2019
1391 Clouds 6 1026 85 0 5.9 285 11:19 31.12.2019
1392 Clouds 6 1026 85 0 5.9 285 11:19 31.12.2019
1393 Clouds 6 1026 85 0 5.9 285 10:56 31.12.2019
1394 Clouds 6 1025 88 0 5.9 285 10:37 31.12.2019
1395 Clouds 5 1027 99 0 4.02 0 10:19 31.12.2019
1396 Clouds 5 1024 90 0 5.9 285 09:57 31.12.2019
1397 Clouds 5 1028 90 0 5.9 285 09:38 31.12.2019
1398 Clouds 5 1024 98 0 5.9 285 09:19 31.12.2019
1399 Clouds 5 1023 10 0 5.9 285 08:43 31.12.2019
1400 Clouds 5 1023 10 0 7.68 297 08:24 31.12.2019
1401 Clouds 5 1023 99 0 7.35 296 07:59 31.12.2019
1402 Clouds 5 1022 99 0 7.35 296 07:41 31.12.2019
1403 Clouds 5 1024 99 0 2.68 0 07:19 31.12.2019
1404 Clouds 5 1024 99 0 2.24 0 06:42 31.12.2019
1405 Clouds 5 1021 10 0 7.35 296 05:54 31.12.2019
1406 Clouds 5 1019 76 0 8.36 286 04:27 31.12.2019
1407 Clouds 5 1021 74 0 2.68 0 03:27 31.12.2019
1408 Clouds 4 1018 53 0 8.36 286 02:43 31.12.2019
1409 Clear 4 1020 54 0 5.21 275 01:53 31.12.2019
1410 Clear 4 1019 51 0 5.21 275 01:34 31.12.2019
1411 Clear 4 1020 44 0 4.33 273 00:58 31.12.2019
1412 Clear 4 1020 99 0 2.68 0 00:39 31.12.2019
1413 Clear 5 1020 99 0 2.68 0 00:21 31.12.2019
1414 Clear 4 1023 60 0 4.33 273 23:56 30.12.2019
1415 Clear 5 1019 33 0 4.33 273 23:37 30.12.2019
1416 Clear 5 1018 31 0 2.82 247 23:19 30.12.2019
1417 Clear 4 1019 58 0 2.82 247 22:56 30.12.2019
1418 Clear 4 1019 58 0 2.82 247 22:37 30.12.2019
1419 Clear 4 1019 51 0 2.82 247 22:18 30.12.2019
1420 Clear 5 1019 41 0 2.82 247 21:56 30.12.2019
1421 Clear 5 1019 35 0 2.82 247 21:38 30.12.2019
1422 Clear 5 1019 32 0 2.82 247 21:18 30.12.2019
1423 Clear 5 1019 31 0 2.82 247 20:56 30.12.2019
1424 Clear 5 1020 32 0 3.11 249 20:37 30.12.2019
1425 Clouds 5 1020 31 0 3.45 237 20:19 30.12.2019
1426 Clouds 5 1022 44 0 3.45 237 19:56 30.12.2019
1427 Clouds 5 1022 43 0 3.45 237 19:37 30.12.2019
1428 Clouds 5 1022 99 0 1.34 0 19:18 30.12.2019
1429 Clouds 5 1023 44 0 0.89 81 18:56 30.12.2019
1430 Clouds 6 1023 45 0 0.45 114 18:37 30.12.2019
1431 Clouds 5 1022 99 0 2.68 0 18:19 30.12.2019
1432 Clouds 5 1021 63 0 3.45 237 17:54 30.12.2019
1433 Clouds 5 1021 60 0 3.45 237 17:36 30.12.2019
1434 Clouds 6 1021 51 0 3.8 227 17:18 30.12.2019
1435 Clouds 7 1021 37 0 3.8 227 16:54 30.12.2019
1436 Clouds 7 1024 99 0 1.79 0 16:36 30.12.2019
1437 Clouds 7 1024 99 0 1.79 0 16:18 30.12.2019
1438 Clouds 7 1023 51 0 3.8 227 15:54 30.12.2019
1439 Clouds 7 1022 41 0 3.8 227 15:36 30.12.2019
1440 Clouds 8 1022 44 0 3.8 227 15:18 30.12.2019
1441 Clouds 8 1022 45 0 3.8 227 14:42 30.12.2019
1442 Clouds 8 1022 45 0 3.42 235 14:19 30.12.2019
1443 Clouds 8 1023 49 0 3.42 235 13:54 30.12.2019
1444 Clouds 7 1023 49 0 3.42 235 13:36 30.12.2019
1445 Clouds 8 1025 51 0 0.89 99 13:18 30.12.2019
1446 Clouds 7 1023 50 0 3.17 236 12:42 30.12.2019
1447 Clouds 7 1026 99 0 1.34 0 12:20 30.12.2019
1448 Clouds 6 1024 52 0 3.17 236 11:58 30.12.2019
1449 Clouds 6 1025 59 0 3.17 236 11:40 30.12.2019
1450 Clouds 4 1025 62 0 3.31 226 11:19 30.12.2019
1451 Clouds 5 1025 64 0 3.31 226 10:44 30.12.2019
1452 Clouds 4 1027 100 0 0.45 0 10:21 30.12.2019
1453 Clouds 4 1025 74 0 3.31 226 09:58 30.12.2019
1454 Clouds 3 1026 69 0 3.31 226 09:40 30.12.2019
1455 Clouds 3 1026 80 0 3.31 226 09:20 30.12.2019
1456 Clouds 3 1026 82 0 3.31 226 08:50 30.12.2019
1457 Clouds 3 1026 82 0 3.31 226 08:50 30.12.2019
1458 Clouds 2 1029 65 0 0.89 98 08:23 30.12.2019
1459 Clouds 2 1026 88 0 2.27 221 07:56 30.12.2019
1460 Clouds 2 1026 86 0 2.27 221 07:37 30.12.2019
1461 Clouds 2 1026 85 0 2.27 221 06:52 30.12.2019
1462 Clouds 1 1029 99 0 0.45 0 04:58 30.12.2019
1463 Clouds 2 1028 88 0 2.32 203 03:57 30.12.2019
1464 Clouds 2 1028 90 0 2.32 203 03:19 30.12.2019
1465 Clouds 1 1028 87 0 2.32 203 02:40 30.12.2019
1466 Clouds 1 1029 90 0 2.45 209 01:55 30.12.2019
1467 Clouds 1 1029 92 0 2.45 209 01:23 30.12.2019
1468 Clouds 1 1031 81 0 0.45 122 00:45 30.12.2019
1469 Clouds 1 1032 99 0 0.45 0 00:19 30.12.2019
1470 Clouds 1 1030 96 0 1.88 223 23:39 29.12.2019
1471 Clouds 1 1032 99 0 0.89 0 23:21 29.12.2019
1472 Clouds 1 1032 99 0 0.89 0 23:21 29.12.2019
1473 Clouds 1 1030 95 0 2.09 211 22:56 29.12.2019
1474 Clouds 1 1030 95 0 2.09 211 22:37 29.12.2019
1475 Clouds 1 1031 93 0 2.09 211 22:18 29.12.2019
1476 Clouds 1 1031 93 0 2.09 211 21:43 29.12.2019
1477 Clouds 1 1031 91 0 2.09 211 21:21 29.12.2019
1478 Clouds 1 1034 82 0 2.09 211 20:58 29.12.2019
1479 Clouds 1 1033 99 0 1.34 0 20:39 29.12.2019
1480 Clouds 1 1031 91 0 1.21 173 20:21 29.12.2019
1481 Clouds 1 1031 92 0 1.21 173 19:59 29.12.2019
1482 Clouds 1 1031 92 0 1.21 173 19:40 29.12.2019
1483 Clouds 0 1031 93 0 1.21 173 19:21 29.12.2019
1484 Clouds 0 1032 92 0 1.21 173 18:58 29.12.2019
1485 Clouds 0 1032 94 0 1.21 173 18:39 29.12.2019
1486 Clouds 0 1032 95 0 1.21 173 18:20 29.12.2019
1487 Clouds 0 1032 95 0 1.21 173 17:58 29.12.2019
1488 Clouds 0 1032 95 0 1.21 173 17:58 29.12.2019
1489 Clouds 0 1032 95 0 1.21 173 17:39 29.12.2019
1490 Clouds 0 1032 93 0 1.95 150 17:20 29.12.2019
1491 Clouds 0 1032 93 0 1.95 150 16:57 29.12.2019
1492 Clouds 1 1032 91 0 1.95 150 16:39 29.12.2019
1493 Clouds 1 1032 90 0 1.95 150 16:21 29.12.2019
1494 Clouds 1 1033 89 0 1.95 150 15:59 29.12.2019
1495 Clouds 1 1033 89 0 1.95 150 15:40 29.12.2019
1496 Clouds 1 1033 87 0 1.95 150 15:20 29.12.2019
1497 Clouds 2 1033 86 0 1.95 150 14:58 29.12.2019
1498 Clouds 2 1033 82 0 1.95 150 14:39 29.12.2019
1499 Clouds 2 1033 83 0 1.85 151 14:19 29.12.2019
1500 Clouds 2 1035 99 0 4.47 0 13:59 29.12.2019
1501 Clouds 2 1033 80 0 1.85 151 13:40 29.12.2019
1502 Clouds 2 1033 78 0 1.79 159 13:22 29.12.2019
1503 Clouds 2 1034 78 0 1.79 159 12:57 29.12.2019
1504 Clouds 2 1034 78 0 1.79 159 12:38 29.12.2019
1505 Clouds 2 1034 72 0 1.79 159 12:20 29.12.2019
1506 Clouds 0 1035 81 0 1.79 159 11:41 29.12.2019
1507 Clouds 0 1035 83 0 2.03 155 11:21 29.12.2019
1508 Clouds -1 1035 85 0 2.03 155 10:57 29.12.2019
1509 Clouds -1 1035 85 0 2.03 155 10:39 29.12.2019
1510 Clouds -1 1035 91 0 2.03 155 10:18 29.12.2019
1511 Clouds -2 1035 85 0 2.03 155 09:46 29.12.2019
1512 Clouds -3 1037 99 0 0.45 0 09:28 29.12.2019
1513 Clouds -4 1035 10 0 2.03 155 08:56 29.12.2019
1514 Clouds -4 1037 99 0 0.45 0 08:38 29.12.2019
1515 Clouds -4 1038 84 0 0.45 90 08:20 29.12.2019
1516 Clouds -4 1035 10 0 3.35 162 07:44 29.12.2019
1517 Clouds -4 1035 98 0 3.35 162 07:25 29.12.2019
1518 Clouds -4 1035 99 0 3.35 162 06:42 29.12.2019
1519 Clouds -4 1035 10 0 3.35 162 06:19 29.12.2019
1520 Clouds -4 1035 10 0 3.35 162 05:44 29.12.2019
1521 Clouds -4 1036 96 0 2.23 164 04:33 29.12.2019
1522 Clouds -4 1037 97 0 2.23 164 03:36 29.12.2019
1523 Clouds -3 1036 90 0 2.23 164 02:36 29.12.2019
1524 Clouds -3 1036 90 0 3.24 161 02:18 29.12.2019
1525 Clouds -3 1036 89 0 3.24 161 01:31 29.12.2019
1526 Clouds -2 1037 92 0 3.48 166 00:51 29.12.2019
1527 Clouds -2 1037 93 0 3.48 166 00:25 29.12.2019
1528 Clouds -2 1037 90 0 3.48 166 23:56 28.12.2019
1529 Clouds -2 1038 92 0 3.48 166 23:37 28.12.2019
1530 Clouds -2 1038 93 0 2.67 157 23:18 28.12.2019
1531 Clouds -2 1038 93 0 2.67 157 23:18 28.12.2019
1532 Clouds -2 1038 93 0 2.67 157 23:18 28.12.2019
1533 Clouds -2 1038 91 0 2.67 157 22:38 28.12.2019
1534 Clouds -2 1038 91 0 2.67 157 22:38 28.12.2019
1535 Clouds -2 1037 80 0 2.67 157 22:19 28.12.2019
1536 Clouds -1 1038 90 0 2.67 157 21:57 28.12.2019
1537 Clouds -1 1038 90 0 2.67 157 21:57 28.12.2019
1538 Clouds -2 1039 95 0 2.67 157 21:38 28.12.2019
1539 Clouds -2 1039 95 0 2.67 157 21:38 28.12.2019
1540 Clouds -1 1038 79 0 2.67 157 21:20 28.12.2019
1541 Clouds -1 1039 97 0 2.67 157 20:55 28.12.2019
1542 Clouds -1 1039 95 0 2.67 157 20:36 28.12.2019
1543 Clouds -1 1039 91 0 1.73 142 20:18 28.12.2019
1544 Clouds -1 1039 95 0 1.73 142 19:54 28.12.2019
1545 Clouds -1 1037 78 0 1.73 142 19:36 28.12.2019
1546 Clouds -1 1037 77 0 1.73 142 19:18 28.12.2019
1547 Clouds 0 1038 10 0 1.73 142 18:55 28.12.2019
1548 Clouds 0 1041 99 0 1.73 142 18:37 28.12.2019
1549 Clouds 0 1038 73 0 1.73 142 18:18 28.12.2019
1550 Clouds 0 1041 99 0 0.45 0 17:42 28.12.2019
1551 Clouds 0 1041 99 0 0.65 121 17:21 28.12.2019
1552 Clouds 1 1038 96 0 0.65 121 16:58 28.12.2019
1553 Clouds 1 1038 91 0 0.65 121 16:40 28.12.2019
1554 Clouds 1 1038 89 0 0.65 121 16:21 28.12.2019
1555 Clouds 2 1038 84 0 0.65 121 15:43 28.12.2019
1556 Clouds 2 1038 92 0 0.65 121 15:23 28.12.2019
1557 Clouds 2 1038 69 0 0.65 121 14:56 28.12.2019
1558 Clouds 2 1038 87 0 0.65 121 14:37 28.12.2019
1559 Clear 2 1038 90 0 1.2 33 14:19 28.12.2019
1560 Clear 2 1038 89 0 1.2 33 13:42 28.12.2019
1561 Clear 2 1038 89 0 1.2 33 13:21 28.12.2019
1562 Clear 2 1038 96 0 1.04 38 12:59 28.12.2019
1563 Clear 2 1039 95 0 1.04 38 12:40 28.12.2019
1564 Clear 2 1039 95 0 1.04 38 12:21 28.12.2019
1565 Clear 2 1038 94 0 1.04 38 11:54 28.12.2019
1566 Clear 1 1038 94 0 1.04 38 11:36 28.12.2019
1567 Clear 1 1038 98 0 0.96 356 11:18 28.12.2019
1568 Clear 0 1038 98 0 0.96 356 10:41 28.12.2019
1569 Clear 0 1038 98 0 0.96 356 10:20 28.12.2019
1570 Clear 0 1038 99 0 0.96 356 09:55 28.12.2019
1571 Clear 0 1038 99 0 0.96 356 09:55 28.12.2019
1572 Clear -1 1038 10 0 0.96 356 09:37 28.12.2019
1573 Clear -1 1038 10 0 0.96 356 09:18 28.12.2019
1574 Clear -1 1037 10 0 0.96 356 08:43 28.12.2019
1575 Clear -1 1037 10 0 0.96 356 08:25 28.12.2019
1576 Clear -1 1037 10 0 1.4 350 07:49 28.12.2019
1577 Clear -1 1037 10 0 1.4 350 07:25 28.12.2019
1578 Clear -1 1036 10 0 1.4 350 05:52 28.12.2019
1579 Clear -1 1036 10 0 2.01 334 03:52 28.12.2019
1580 Clear -1 1036 10 0 2.01 334 03:33 28.12.2019
1581 Clear -1 1038 99 0 0.45 0 02:43 28.12.2019
1582 Clouds -1 1035 10 0 1.81 25 01:59 28.12.2019
1583 Clouds -1 1034 10 0 2.04 12 01:25 28.12.2019
1584 Clouds 0 1033 87 0 2.04 12 00:54 28.12.2019
1585 Clouds 0 1036 99 0 0.45 0 00:36 28.12.2019
1586 Clouds 0 1034 10 0 2.04 12 00:18 28.12.2019
1587 Clouds 1 1034 10 0 2.04 12 23:42 27.12.2019
1588 Clouds 1 1034 10 0 2.07 7 23:19 27.12.2019
1589 Clouds 1 1033 10 0 2.07 7 22:57 27.12.2019
1590 Clouds 1 1033 10 0 2.07 7 22:38 27.12.2019
1591 Clouds 2 1033 86 0 2.07 7 22:20 27.12.2019
1592 Clouds 2 1033 10 0 2.07 7 21:55 27.12.2019
1593 Clouds 2 1033 10 0 2.07 7 21:36 27.12.2019
1594 Clouds 2 1032 10 0 2.07 7 21:18 27.12.2019
1595 Clouds 2 1032 86 0 2.07 7 20:41 27.12.2019
1596 Clouds 2 1032 10 0 1.98 345 20:22 27.12.2019
1597 Clouds 2 1031 10 0 1.98 345 19:42 27.12.2019
1598 Clouds 3 1033 99 0 0.45 0 19:21 27.12.2019
1599 Clouds 3 1030 10 0 1.98 345 18:59 27.12.2019
1600 Clouds 3 1030 99 0 1.98 345 18:39 27.12.2019
1601 Clouds 3 1032 99 0 0.45 0 18:20 27.12.2019
1602 Clouds 3 1029 96 0 1.98 345 17:57 27.12.2019
1603 Clouds 3 1029 96 0 1.98 345 17:39 27.12.2019
1604 Clear 3 1029 93 0 2.61 354 17:19 27.12.2019
1605 Clear 3 1029 93 0 2.61 354 16:58 27.12.2019
1606 Clear 3 1028 90 0 2.61 354 16:38 27.12.2019
1607 Clear 3 1028 89 0 2.61 354 16:19 27.12.2019
1608 Clear 3 1028 86 0 2.61 354 15:44 27.12.2019
1609 Clear 3 1028 83 0 2.61 354 15:22 27.12.2019
1610 Clear 4 1027 79 0 2.61 354 14:58 27.12.2019
1611 Clear 4 1027 79 0 2.61 354 14:39 27.12.2019
1612 Clouds 4 1027 85 0 3.26 8 14:20 27.12.2019
1613 Clouds 4 1027 88 0 3.26 8 13:55 27.12.2019
1614 Clouds 4 1026 89 0 3.26 8 13:37 27.12.2019
1615 Clouds 4 1026 76 0 2.95 18 13:18 27.12.2019
1616 Clouds 4 1026 89 0 2.95 18 12:40 27.12.2019
1617 Clouds 4 1026 89 0 2.95 18 12:22 27.12.2019
1618 Clouds 4 1025 90 0 2.95 18 11:46 27.12.2019
1619 Clouds 4 1026 82 0 0.45 270 11:26 27.12.2019
1620 Clouds 4 1026 82 0 0.45 270 11:26 27.12.2019
1621 Clear 4 1025 88 0 2.47 8 10:59 27.12.2019
1622 Clear 4 1027 99 0 2.47 8 10:40 27.12.2019
1623 Clear 3 1027 99 0 2.47 8 10:22 27.12.2019
1624 Clear 3 1023 10 0 2.47 8 09:46 27.12.2019
1625 Clear 3 1023 10 0 2.47 8 09:22 27.12.2019
1626 Clear 3 1023 87 0 2.47 8 08:59 27.12.2019
1627 Clear 3 1025 99 0 2.47 8 08:38 27.12.2019
1628 Clouds 2 1021 10 0 1.11 7 07:57 27.12.2019
1629 Clouds 2 1021 10 0 1.11 7 07:38 27.12.2019
1630 Clouds 2 1021 10 0 1.11 7 06:43 27.12.2019
1631 Clouds 2 1021 10 0 1.11 7 06:22 27.12.2019
1632 Clouds 2 1020 10 0 0.56 138 04:32 27.12.2019
1633 Clouds 3 1019 10 0 0.56 138 02:28 27.12.2019
1634 Clouds 3 1019 10 0 0.62 145 01:42 27.12.2019
1635 Clouds 3 1022 99 0 0.62 145 01:20 27.12.2019
1636 Clouds 4 1019 10 0 1.22 166 00:46 27.12.2019
1637 Clouds 4 1019 10 0 1.22 166 00:25 27.12.2019
1638 Clouds 4 1019 10 0 1.22 166 23:56 26.12.2019
1639 Clouds 4 1019 10 0 1.22 166 23:37 26.12.2019
1640 Clouds 4 1019 10 0 1.03 235 23:19 26.12.2019
1641 Clouds 4 1019 10 0 1.03 235 22:40 26.12.2019
1642 Clouds 4 1022 99 0 0.89 0 22:18 26.12.2019
1643 Clouds 4 1019 10 0 1.03 235 21:40 26.12.2019
1644 Clouds 4 1019 10 0 1.03 235 21:21 26.12.2019
1645 Clouds 4 1019 10 0 1.03 235 20:58 26.12.2019
1646 Clouds 4 1019 10 0 1.03 235 20:39 26.12.2019
1647 Clouds 4 1019 10 0 1.58 260 20:21 26.12.2019
1648 Clouds 4 1019 10 0 1.58 260 19:56 26.12.2019
1649 Clouds 4 1021 99 0 0.89 0 19:38 26.12.2019
1650 Clouds 4 1021 99 0 0.45 0 19:20 26.12.2019
1651 Clouds 4 1019 10 0 1.58 260 18:57 26.12.2019
1652 Clouds 4 1019 10 0 1.58 260 18:37 26.12.2019
1653 Clouds 5 1019 10 0 1.58 260 18:18 26.12.2019
1654 Clouds 5 1019 10 0 1.58 260 17:42 26.12.2019
1655 Clouds 5 1019 10 0 3 294 17:22 26.12.2019
1656 Clouds 5 1019 10 0 3 294 16:54 26.12.2019
1657 Clouds 5 1019 10 0 3 294 16:36 26.12.2019
1658 Clouds 6 1021 99 0 0.89 0 16:18 26.12.2019
1659 Clouds 6 1020 84 0 3 294 15:40 26.12.2019
1660 Clouds 6 1019 99 0 3 294 15:19 26.12.2019
1661 Clouds 6 1021 83 0 3 294 14:54 26.12.2019
1662 Clouds 6 1019 96 0 3 294 14:36 26.12.2019
1663 Clouds 6 1019 94 0 4.95 288 14:18 26.12.2019
1664 Clouds 6 1019 92 0 4.95 288 13:42 26.12.2019
1665 Clouds 7 1019 90 0 4.95 288 13:20 26.12.2019
1666 Clouds 7 1020 84 0 0.89 341 12:56 26.12.2019
1667 Clouds 7 1019 87 0 4.91 288 12:37 26.12.2019
1668 Clouds 6 1019 92 0 4.91 288 12:19 26.12.2019
1669 Clouds 6 1020 85 0 0.45 128 11:56 26.12.2019
1670 Clouds 6 1020 96 0 4.91 288 11:37 26.12.2019
1671 Clouds 6 1020 96 0 4.89 280 11:19 26.12.2019
1672 Clouds 5 1020 99 0 4.89 280 10:41 26.12.2019
1673 Clouds 5 1019 96 0 4.89 280 10:18 26.12.2019
1674 Clouds 5 1019 99 0 4.89 280 09:45 26.12.2019
1675 Clouds 4 1019 10 0 4.89 280 09:26 26.12.2019
1676 Clouds 4 1019 10 0 4.89 280 08:42 26.12.2019
1677 Clouds 4 1019 10 0 4.19 286 08:24 26.12.2019
1678 Clouds 4 1019 10 0 4.02 286 07:53 26.12.2019
1679 Clouds 4 1019 86 0 0.45 90 07:27 26.12.2019
1680 Clouds 4 1019 10 0 4.02 286 06:53 26.12.2019
1681 Clouds 4 1019 10 0 4.02 286 06:32 26.12.2019
1682 Clouds 4 1019 87 0 4.02 286 05:45 26.12.2019
1683 Clouds 4 1021 99 0 1.34 0 04:57 26.12.2019
1684 Clouds 4 1018 10 0 4.87 293 04:30 26.12.2019
1685 Clouds 4 1019 10 0 4.87 293 02:58 26.12.2019
1686 Clouds 5 1019 10 0 4.87 293 02:34 26.12.2019
1687 Clouds 5 1018 10 0 4 286 01:51 26.12.2019
1688 Clouds 5 1018 10 0 4.26 295 01:33 26.12.2019
1689 Clouds 5 1018 10 0 4.26 295 00:50 26.12.2019
1690 Clouds 5 1018 10 0 4.26 295 00:27 26.12.2019
1691 Clouds 5 1018 10 0 4.26 295 23:59 25.12.2019
1692 Clouds 5 1018 10 0 4.26 295 23:40 25.12.2019
1693 Rain 5 1020 99 0 1.79 0 23:21 25.12.2019
1694 Rain 5 1017 10 0 4.51 294 22:59 25.12.2019
1695 Rain 5 1017 10 0 4.51 294 22:40 25.12.2019
1696 Rain 5 1017 10 0 4.51 294 22:22 25.12.2019
1697 Rain 5 1017 10 0 4.51 294 21:59 25.12.2019
1698 Rain 5 1017 10 0 4.51 294 21:40 25.12.2019
1699 Rain 5 1017 10 0 4.51 294 21:21 25.12.2019
1700 Rain 5 1017 10 0 4.51 294 21:21 25.12.2019
1701 Rain 6 1016 10 0 4.51 294 20:57 25.12.2019
1702 Clouds 6 1019 99 0 0.89 0 20:39 25.12.2019
1703 Rain 6 1017 86 0 4.9 290 20:18 25.12.2019
1704 Rain 6 1019 99 0 0.89 0 20:18 25.12.2019
1705 Rain 6 1017 86 0 4.9 290 20:18 25.12.2019
1706 Rain 6 1016 10 0 4.9 290 19:44 25.12.2019
1707 Rain 6 1016 10 0 4.9 290 19:25 25.12.2019
1708 Rain 6 1015 10 0 4.9 290 18:59 25.12.2019
1709 Rain 6 1016 87 0 4.9 290 18:38 25.12.2019
1710 Rain 6 1015 10 0 4.9 290 18:20 25.12.2019
1711 Rain 6 1015 10 0 4.9 290 17:43 25.12.2019
1712 Clouds 6 1015 10 0 3.85 298 17:21 25.12.2019
1713 Clouds 6 1014 10 0 3.85 298 16:59 25.12.2019
1714 Clouds 6 1014 10 0 3.85 298 16:39 25.12.2019
1715 Clouds 6 1014 10 0 3.85 298 16:19 25.12.2019
1716 Clouds 6 1014 10 0 3.85 298 15:57 25.12.2019
1717 Clouds 6 1014 10 0 3.85 298 15:57 25.12.2019
1718 Clouds 6 1013 10 0 3.85 298 15:39 25.12.2019
1719 Clouds 6 1015 99 0 2.24 0 15:20 25.12.2019
1720 Clouds 6 1013 10 0 3.85 298 14:58 25.12.2019
1721 Clouds 6 1012 10 0 3.85 298 14:40 25.12.2019
1722 Clouds 6 1013 85 0 2.74 329 14:21 25.12.2019
1723 Clouds 6 1013 85 0 2.74 329 14:21 25.12.2019
1724 Clouds 6 1012 10 0 2.74 329 13:57 25.12.2019
1725 Clouds 6 1011 10 0 2.74 329 13:38 25.12.2019
1726 Rain 6 1011 99 0 3.64 312 13:19 25.12.2019
1727 Rain 6 1011 99 0 3.64 312 12:40 25.12.2019
1728 Rain 6 1010 99 0 3.64 312 12:20 25.12.2019
1729 Rain 6 1010 10 0 3.64 312 11:56 25.12.2019
1730 Rain 6 1010 10 0 3.64 312 11:38 25.12.2019
1731 Rain 6 1010 10 0 3.63 342 11:18 25.12.2019
1732 Rain 6 1009 10 0 3.63 342 10:38 25.12.2019
1733 Rain 6 1009 10 0 3.63 342 10:20 25.12.2019
1734 Rain 5 1008 10 0 3.63 342 09:51 25.12.2019
1735 Rain 5 1008 10 0 3.63 342 09:32 25.12.2019
1736 Rain 5 1007 10 0 3.63 342 08:51 25.12.2019
1737 Rain 5 1007 10 0 3.74 310 08:31 25.12.2019
1738 Rain 5 1007 10 0 4.1 340 07:52 25.12.2019
1739 Rain 5 1006 10 0 4.1 340 07:34 25.12.2019
1740 Rain 6 1006 10 0 4.1 340 06:58 25.12.2019
1741 Rain 6 1005 10 0 4.1 340 06:23 25.12.2019
1742 Rain 6 1008 99 0 0.89 0 05:31 25.12.2019
1743 Rain 6 1006 87 0 4.95 293 04:39 25.12.2019
1744 Rain 6 1005 10 0 4.95 293 04:20 25.12.2019
1745 Rain 6 1004 10 0 4.95 293 03:43 25.12.2019
1746 Rain 7 1004 10 0 4.95 293 02:56 25.12.2019
1747 Rain 7 1003 10 0 6.39 281 02:28 25.12.2019
1748 Rain 7 1003 10 0 6.2 278 01:26 25.12.2019
1749 Rain 7 1002 10 0 6.2 278 00:56 25.12.2019
1750 Rain 7 1003 86 0 6.2 278 00:33 25.12.2019
1751 Rain 7 1004 99 0 0.89 0 23:59 24.12.2019
1752 Rain 7 1002 10 0 6.2 278 23:39 24.12.2019
1753 Rain 7 1002 10 0 6.2 278 23:39 24.12.2019
1754 Rain 7 1002 10 0 5.54 263 23:20 24.12.2019
1755 Rain 7 1001 10 0 5.54 263 22:42 24.12.2019
1756 Rain 7 1001 10 0 5.54 263 22:23 24.12.2019
1757 Rain 7 1001 10 0 5.54 263 21:57 24.12.2019
1758 Rain 6 1001 10 0 5.54 263 21:37 24.12.2019
1759 Rain 6 1001 10 0 5.54 263 21:19 24.12.2019
1760 Rain 6 1000 10 0 5.54 263 20:41 24.12.2019
1761 Rain 6 1000 10 0 6.82 264 20:22 24.12.2019
1762 Rain 6 1000 10 0 6.82 264 19:47 24.12.2019
1763 Rain 5 1000 10 0 6.82 264 19:22 24.12.2019
1764 Rain 5 1000 10 0 6.82 264 18:59 24.12.2019
1765 Rain 6 1000 10 0 6.82 264 18:40 24.12.2019
1766 Rain 6 1000 10 0 6.82 264 18:18 24.12.2019
1767 Rain 6 1001 10 0 6.82 264 17:43 24.12.2019
1768 Rain 6 1001 10 0 6.08 178 17:22 24.12.2019
1769 Rain 6 1001 10 0 6.08 178 16:58 24.12.2019
1770 Rain 6 1001 10 0 6.08 178 16:39 24.12.2019
1771 Rain 6 1001 10 0 6.08 178 16:39 24.12.2019
1772 Rain 6 1001 10 0 6.08 178 16:21 24.12.2019
1773 Rain 7 1001 10 0 6.08 178 15:57 24.12.2019
1774 Rain 7 1001 99 0 6.08 178 15:37 24.12.2019
1775 Rain 7 1004 99 0 0.89 0 15:19 24.12.2019
1776 Rain 7 1003 81 0 0.89 102 14:58 24.12.2019
1777 Rain 7 1002 85 0 6.08 178 14:40 24.12.2019
1778 Rain 7 1002 85 0 6.08 178 14:40 24.12.2019
1779 Clouds 7 1005 99 0 0.89 0 14:21 24.12.2019
1780 Clouds 8 1003 83 0 4.88 209 13:56 24.12.2019
1781 Clouds 8 1003 83 0 4.88 209 13:38 24.12.2019
1782 Clouds 8 1003 82 0 4.99 213 13:20 24.12.2019
1783 Clouds 8 1004 76 0 4.99 213 12:56 24.12.2019
1784 Clouds 8 1004 76 0 4.99 213 12:56 24.12.2019
1785 Clouds 8 1004 76 0 4.99 213 12:38 24.12.2019
1786 Clouds 7 1005 81 0 4.99 213 12:19 24.12.2019
1787 Clouds 7 1005 84 0 4.99 213 11:56 24.12.2019
1788 Clouds 7 1005 83 0 4.99 213 11:37 24.12.2019
1789 Clouds 7 1006 78 0 4.54 225 11:19 24.12.2019
1790 Clouds 6 1006 84 0 4.54 225 10:56 24.12.2019
1791 Clouds 6 1007 85 0 4.54 225 10:38 24.12.2019
1792 Clouds 6 1009 85 0 0.89 115 10:19 24.12.2019
1793 Clouds 6 1007 87 0 4.54 225 09:56 24.12.2019
1794 Clouds 5 1007 80 0 4.54 225 09:38 24.12.2019
1795 Clouds 5 1010 99 0 0.89 0 09:20 24.12.2019
1796 Clouds 5 1010 99 0 0.45 0 08:47 24.12.2019
1797 Clouds 5 1008 99 0 4.54 225 08:24 24.12.2019
1798 Clouds 5 1008 96 0 4.13 230 07:56 24.12.2019
1799 Clouds 5 1008 94 0 4.13 230 07:38 24.12.2019
1800 Clouds 5 1008 93 0 4.13 230 07:20 24.12.2019
1801 Clouds 5 1010 99 0 0.89 0 06:39 24.12.2019
1802 Clouds 5 1008 95 0 4.13 230 06:19 24.12.2019
1803 Clouds 5 1008 93 0 4.13 230 05:50 24.12.2019
1804 Clouds 5 1009 84 0 0.89 48 05:19 24.12.2019
1805 Clouds 5 1010 99 0 1.79 0 04:21 24.12.2019
1806 Clouds 5 1008 93 0 4.53 258 03:46 24.12.2019
1807 Clouds 6 1008 91 0 4.53 258 02:29 24.12.2019
1808 Clouds 6 1007 91 0 4.71 264 01:54 24.12.2019
1809 Clouds 6 1007 93 0 4.77 263 01:26 24.12.2019
1810 Clouds 6 1007 95 0 4.77 263 00:58 24.12.2019
1811 Clouds 6 1007 94 0 4.77 263 00:39 24.12.2019
1812 Clouds 7 1007 92 0 4.77 263 00:20 24.12.2019
1813 Clouds 7 1007 90 0 4.77 263 23:43 23.12.2019
1814 Clouds 7 1006 89 0 4.77 263 23:24 23.12.2019
1815 Clouds 7 1006 91 0 5.46 267 22:57 23.12.2019
1816 Clouds 7 1006 93 0 5.46 267 22:38 23.12.2019
1817 Clouds 7 1006 93 0 5.46 267 22:38 23.12.2019
1818 Clouds 7 1008 99 0 1.34 0 22:20 23.12.2019
1819 Clouds 7 1005 88 0 5.46 267 21:56 23.12.2019
1820 Clouds 7 1005 88 0 5.46 267 21:37 23.12.2019
1821 Clouds 7 1005 89 0 5.46 267 21:19 23.12.2019
1822 Clouds 6 1005 89 0 5.46 267 20:59 23.12.2019
1823 Clouds 6 1005 91 0 5.46 267 20:40 23.12.2019
1824 Clouds 6 1005 93 0 4.64 260 20:19 23.12.2019
1825 Clouds 6 1004 95 0 4.01 261 19:58 23.12.2019
1826 Clouds 6 1006 99 0 0.89 0 19:40 23.12.2019
1827 Clouds 7 1006 99 0 0.45 0 19:21 23.12.2019
1828 Clouds 7 1008 85 0 4.01 261 18:58 23.12.2019
1829 Clouds 7 1008 85 0 4.01 261 18:58 23.12.2019
1830 Clouds 7 1005 99 0 0.89 0 18:39 23.12.2019
1831 Clouds 6 1003 96 0 4.01 261 18:21 23.12.2019
1832 Clouds 6 1003 98 0 4.01 261 17:59 23.12.2019
1833 Clouds 7 1005 81 0 0.89 133 17:40 23.12.2019
1834 Rain 7 1002 93 0 6.18 280 17:19 23.12.2019
1835 Rain 7 1002 93 0 6.18 280 17:19 23.12.2019
1836 Rain 7 1002 94 0 6.18 280 16:58 23.12.2019
1837 Rain 7 1004 99 0 2.24 0 16:40 23.12.2019
1838 Rain 8 1001 91 0 6.18 280 16:19 23.12.2019
1839 Rain 8 1001 91 0 6.18 280 15:58 23.12.2019
1840 Rain 8 1001 91 0 6.18 280 15:37 23.12.2019
1841 Rain 8 1001 92 0 6.18 280 15:19 23.12.2019
1842 Rain 8 1002 78 0 0.45 258 14:57 23.12.2019
1843 Rain 9 1002 78 0 0.89 172 14:39 23.12.2019
1844 Clouds 9 999 78 0 7.04 280 14:19 23.12.2019
1845 Clouds 9 999 77 0 7.04 280 13:57 23.12.2019
1846 Clouds 9 1000 79 0 0.89 67 13:39 23.12.2019
1847 Clouds 9 999 73 0 6.77 280 13:39 23.12.2019
1848 Clouds 9 999 80 0 1.34 14 13:20 23.12.2019
1849 Clouds 8 1001 96 0 1.79 0 12:55 23.12.2019
1850 Clouds 8 998 77 0 6.77 280 12:36 23.12.2019
1851 Clouds 8 998 80 0 6.77 280 12:18 23.12.2019
1852 Clouds 8 998 75 0 6.77 280 11:42 23.12.2019
1853 Clouds 8 998 75 0 6.77 280 11:24 23.12.2019
1854 Clouds 8 997 78 0 5.81 279 10:56 23.12.2019
1855 Clouds 8 997 80 0 5.81 279 10:38 23.12.2019
1856 Clouds 8 997 80 0 5.81 279 10:38 23.12.2019
1857 Clouds 8 997 82 0 5.81 279 10:20 23.12.2019
1858 Clouds 7 996 87 0 5.81 279 09:58 23.12.2019
1859 Clouds 7 996 88 0 5.81 279 09:39 23.12.2019
1860 Clouds 7 996 88 0 5.81 279 09:39 23.12.2019
1861 Clouds 7 995 92 0 5.81 279 09:20 23.12.2019
1862 Clouds 7 995 93 0 5.81 279 08:55 23.12.2019
1863 Clouds 7 995 96 0 5.81 279 08:37 23.12.2019
1864 Rain 7 995 97 0 7.45 275 08:18 23.12.2019
1865 Rain 7 996 99 0 1.34 0 07:43 23.12.2019
1866 Rain 7 994 87 0 0.45 313 07:19 23.12.2019
1867 Rain 7 993 10 0 6.99 272 06:50 23.12.2019
1868 Rain 7 992 10 0 6.99 272 06:23 23.12.2019
1869 Rain 7 992 10 0 6.99 272 05:49 23.12.2019
1870 Clouds 7 991 10 0 6.76 263 05:19 23.12.2019
1871 Clouds 7 990 10 0 6.76 263 04:20 23.12.2019
1872 Clouds 7 988 95 0 6.76 263 02:55 23.12.2019
1873 Clouds 7 988 95 0 6.76 263 02:25 23.12.2019
1874 Clouds 6 987 97 0 3.88 244 01:55 23.12.2019
1875 Clouds 6 987 10 0 3.88 244 01:36 23.12.2019
1876 Rain 6 987 10 0 3.83 239 01:18 23.12.2019
1877 Rain 6 988 87 0 0.45 125 00:35 23.12.2019
1878 Rain 6 986 10 0 3.83 239 23:57 22.12.2019
1879 Rain 6 986 10 0 3.83 239 23:39 22.12.2019
1880 Rain 6 988 99 0 0.45 0 23:20 22.12.2019
1881 Rain 6 985 10 0 3.15 187 22:58 22.12.2019
1882 Rain 5 985 10 0 3.15 187 22:38 22.12.2019
1883 Rain 5 985 10 0 3.15 187 22:19 22.12.2019
1884 Rain 5 985 10 0 3.15 187 21:57 22.12.2019
1885 Rain 5 988 99 0 3.15 187 21:39 22.12.2019
1886 Rain 5 985 10 0 3.15 187 21:20 22.12.2019
1887 Rain 5 984 10 0 3.15 187 20:56 22.12.2019
1888 Rain 5 987 99 0 3.15 187 20:38 22.12.2019
1889 Clouds 5 984 10 0 3.44 151 20:18 22.12.2019
1890 Clouds 5 987 87 0 3.44 151 19:54 22.12.2019
1891 Clouds 5 984 98 0 3.44 151 19:36 22.12.2019
1892 Clouds 5 984 98 0 3.44 151 19:18 22.12.2019
1893 Clouds 5 984 98 0 3.44 151 18:39 22.12.2019
1894 Clouds 5 984 98 0 3.44 151 18:39 22.12.2019
1895 Clouds 5 984 97 0 3.44 151 18:21 22.12.2019
1896 Clouds 5 984 96 0 3.44 151 17:55 22.12.2019
1897 Clouds 5 983 96 0 3.44 151 17:37 22.12.2019
1898 Clouds 5 984 97 0 3.72 141 17:18 22.12.2019
1899 Clouds 5 983 98 0 3.72 141 16:56 22.12.2019
1900 Clouds 5 986 99 0 3.72 141 16:37 22.12.2019
1901 Clouds 5 983 96 0 3.72 141 16:19 22.12.2019
1902 Clouds 5 983 96 0 3.72 141 15:55 22.12.2019
1903 Clouds 5 985 86 0 3.72 141 15:36 22.12.2019
1904 Clouds 5 983 95 0 3.72 141 15:18 22.12.2019
1905 Clouds 5 986 99 0 3.72 141 14:54 22.12.2019
1906 Clouds 5 983 94 0 3.72 141 14:36 22.12.2019
1907 Clouds 5 983 94 0 3.83 158 14:18 22.12.2019
1908 Clouds 5 983 92 0 3.83 158 13:54 22.12.2019
1909 Clouds 5 983 93 0 3.83 158 13:36 22.12.2019
1910 Clouds 5 983 94 0 3.83 158 13:18 22.12.2019
1911 Clouds 4 986 86 0 3.36 158 12:54 22.12.2019
1912 Clouds 5 983 94 0 3.36 158 12:36 22.12.2019
1913 Clouds 4 983 94 0 3.36 158 12:18 22.12.2019
1914 Clouds 4 983 97 0 3.36 158 11:39 22.12.2019
1915 Clouds 3 983 98 0 4.34 148 11:20 22.12.2019
1916 Clouds 3 983 98 0 4.34 148 10:58 22.12.2019
1917 Clouds 3 983 99 0 4.34 148 10:40 22.12.2019
1918 Clouds 3 983 10 0 4.34 148 10:21 22.12.2019
1919 Clouds 2 983 10 0 4.34 148 09:59 22.12.2019
1920 Clouds 2 986 99 0 4.34 148 09:40 22.12.2019
1921 Clouds 2 983 10 0 4.34 148 09:21 22.12.2019
1922 Clouds 2 986 99 0 4.34 148 08:59 22.12.2019
1923 Clouds 2 983 10 0 4.34 148 08:37 22.12.2019
1924 Clouds 2 983 10 0 3.82 152 08:18 22.12.2019
1925 Clouds 2 983 10 0 3.82 152 08:18 22.12.2019
1926 Clouds 1 983 10 0 3.82 152 07:38 22.12.2019
1927 Clouds 1 983 10 0 3.82 152 07:19 22.12.2019
1928 Clouds 1 983 10 0 3.82 152 06:40 22.12.2019
1929 Clouds 1 983 10 0 3.82 152 05:54 22.12.2019
1930 Clouds 1 983 10 0 3.73 126 05:21 22.12.2019
1931 Clouds 1 984 10 0 3.73 126 04:29 22.12.2019
1932 Clouds 1 983 10 0 3.73 126 03:53 22.12.2019
1933 Clouds 1 985 10 0 3.73 126 02:40 22.12.2019
1934 Clouds 1 985 10 0 3.73 126 02:40 22.12.2019
1935 Clear 1 985 10 0 2.96 142 01:47 22.12.2019
1936 Clear 1 985 10 0 2.96 142 01:28 22.12.2019
1937 Clear 1 985 10 0 3.48 135 00:47 22.12.2019
1938 Clear 1 985 10 0 3.48 135 00:23 22.12.2019
1939 Clear 1 986 10 0 3.48 135 23:57 21.12.2019
1940 Clear 1 986 10 0 3.48 135 23:38 21.12.2019
1941 Clear 2 986 10 0 2.96 177 23:19 21.12.2019
1942 Clear 2 986 10 0 2.96 177 22:41 21.12.2019
1943 Clear 2 986 10 0 2.96 177 22:19 21.12.2019
1944 Clear 2 986 10 0 2.96 177 21:57 21.12.2019
1945 Clear 2 986 10 0 2.96 177 21:38 21.12.2019
1946 Clear 2 989 87 0 0.45 101 21:20 21.12.2019
1947 Clear 3 989 99 0 2.96 177 20:59 21.12.2019
1948 Clear 3 989 99 0 0.45 0 20:40 21.12.2019
1949 Clear 3 987 10 0 3.37 180 20:22 21.12.2019
1950 Clear 3 987 10 0 3.37 180 19:58 21.12.2019
1951 Clear 4 990 99 0 3.37 180 19:40 21.12.2019
1952 Clear 4 987 99 0 3.37 180 19:19 21.12.2019
1953 Clear 4 987 10 0 3.37 180 18:56 21.12.2019
1954 Clear 4 987 10 0 3.37 180 18:37 21.12.2019
1955 Clear 4 987 99 0 3.37 180 18:19 21.12.2019
1956 Clear 4 988 98 0 3.37 180 17:55 21.12.2019
1957 Clear 4 987 99 0 3.37 180 17:55 21.12.2019
1958 Clear 5 988 94 0 3.37 180 17:37 21.12.2019
1959 Clear 5 991 84 0 3.43 184 17:18 21.12.2019
1960 Clear 6 988 90 0 3.43 184 16:41 21.12.2019
1961 Clear 7 988 88 0 3.43 184 16:19 21.12.2019
1962 Clear 7 989 83 0 3.43 184 15:58 21.12.2019
1963 Clear 8 989 81 0 3.43 184 15:39 21.12.2019
1964 Clear 8 991 82 0 3.43 184 15:20 21.12.2019
1965 Clear 8 989 79 0 3.43 184 14:59 21.12.2019
1966 Clear 9 991 81 0 3.43 184 14:40 21.12.2019
1967 Clear 9 989 76 0 3.73 232 14:22 21.12.2019
1968 Clear 9 988 75 0 3.73 232 13:57 21.12.2019
1969 Clear 9 991 78 0 0.89 0 13:38 21.12.2019
1970 Clear 9 992 82 0 0.89 0 13:18 21.12.2019
1971 Clear 10 993 80 0 4.2 225 12:56 21.12.2019
1972 Clear 10 989 67 0 4.2 225 12:37 21.12.2019
1973 Clear 10 989 69 0 4.2 225 12:19 21.12.2019
1974 Clear 9 990 73 0 4.2 225 11:45 21.12.2019
1975 Clear 8 992 88 0 0.45 0 11:26 21.12.2019
1976 Clear 8 990 78 0 3.93 220 10:57 21.12.2019
1977 Clear 7 990 86 0 3.93 220 10:39 21.12.2019
1978 Clear 7 989 89 0 3.93 220 10:21 21.12.2019
1979 Clear 7 990 90 0 3.93 220 09:57 21.12.2019
1980 Clear 6 992 99 0 0.45 0 09:39 21.12.2019
1981 Clear 6 990 87 0 3.93 220 09:19 21.12.2019
1982 Clear 5 994 90 0 3.93 220 08:46 21.12.2019
1983 Clouds 5 989 10 0 3.61 210 08:26 21.12.2019
1984 Clouds 6 989 10 0 3.73 221 07:47 21.12.2019
1985 Clouds 6 989 10 0 3.73 221 07:23 21.12.2019
1986 Clouds 7 989 97 0 3.73 221 06:46 21.12.2019
1987 Clouds 7 989 98 0 3.73 221 06:28 21.12.2019
1988 Clouds 7 993 89 0 3.73 221 05:58 21.12.2019
1989 Clouds 8 989 10 0 2.86 225 04:59 21.12.2019
1990 Clouds 8 989 10 0 2.86 225 04:33 21.12.2019
1991 Clouds 8 988 10 0 2.86 225 03:56 21.12.2019
1992 Clouds 8 987 10 0 3.5 256 02:19 21.12.2019
1993 Clouds 8 987 10 0 3.5 256 01:42 21.12.2019
1994 Rain 9 987 10 0 3.94 251 01:23 21.12.2019
1995 Rain 8 987 99 0 3.94 251 00:39 21.12.2019
1996 Rain 8 986 92 0 3.94 251 00:20 21.12.2019
1997 Rain 8 986 92 0 3.94 251 23:38 20.12.2019
1998 Clouds 8 985 93 0 4.47 196 23:20 20.12.2019
1999 Clouds 8 985 94 0 4.47 196 22:57 20.12.2019
2000 Clouds 8 985 93 0 4.47 196 22:38 20.12.2019
2001 Clouds 8 985 93 0 4.47 196 22:18 20.12.2019
2002 Clouds 8 985 96 0 4.47 196 21:41 20.12.2019
2003 Clouds 8 985 95 0 4.47 196 21:21 20.12.2019
2004 Clouds 8 985 96 0 4.47 196 20:59 20.12.2019
2005 Clouds 8 985 97 0 4.47 196 20:38 20.12.2019
2006 Clouds 8 989 83 0 0.45 53 20:19 20.12.2019
2007 Clouds 8 989 83 0 5.12 162 19:56 20.12.2019
2008 Clouds 8 985 94 0 5.12 162 19:38 20.12.2019
2009 Clouds 8 985 94 0 5.12 162 19:18 20.12.2019
2010 Clouds 8 985 85 0 5.12 162 18:41 20.12.2019
2011 Clouds 8 985 87 0 5.12 162 18:23 20.12.2019
2012 Clouds 8 988 84 0 5.12 162 17:58 20.12.2019
2013 Clouds 8 985 90 0 5.12 162 17:39 20.12.2019
2014 Clouds 8 989 99 0 3.35 158 17:20 20.12.2019
2015 Clouds 8 986 86 0 3.35 158 16:57 20.12.2019
2016 Clouds 8 987 84 0 3.35 158 16:38 20.12.2019
2017 Clouds 8 989 99 0 3.35 158 16:19 20.12.2019
2018 Clouds 8 986 84 0 3.35 158 15:55 20.12.2019
2019 Clouds 9 986 82 0 3.35 158 15:37 20.12.2019
2020 Clouds 9 990 99 0 0.45 0 15:19 20.12.2019
2021 Clouds 9 987 78 0 3.35 158 14:43 20.12.2019
2022 Clouds 9 987 82 0 3.35 158 14:24 20.12.2019
2023 Clouds 9 987 80 0 6.76 132 13:59 20.12.2019
2024 Clouds 9 987 80 0 6.76 132 13:59 20.12.2019
2025 Clouds 10 987 72 0 6.76 132 13:40 20.12.2019
2026 Clouds 10 988 72 0 6.76 132 13:19 20.12.2019
2027 Clouds 9 987 71 0 6.18 132 12:57 20.12.2019
2028 Clouds 9 988 71 0 6.18 132 12:37 20.12.2019
2029 Clouds 8 988 76 0 6.18 132 12:19 20.12.2019
2030 Clouds 8 992 86 0 0.45 116 11:58 20.12.2019
2031 Clouds 8 990 76 0 6.18 132 11:39 20.12.2019
2032 Clouds 6 994 99 0 5.05 152 11:18 20.12.2019
2033 Clouds 7 991 85 0 5.05 152 10:57 20.12.2019
2034 Clouds 7 991 85 0 5.05 152 10:57 20.12.2019
2035 Clouds 4 992 87 0 5.05 152 10:38 20.12.2019
2036 Clouds 4 992 87 0 5.05 152 10:20 20.12.2019
2037 Clouds 4 992 79 0 5.05 152 09:44 20.12.2019
2038 Clouds 4 992 84 0 5.05 152 09:22 20.12.2019
2039 Clouds 3 993 97 0 5.05 152 08:59 20.12.2019
2040 Clouds 3 993 97 0 5.05 152 08:41 20.12.2019
2041 Clear 2 996 99 0 4.14 139 08:22 20.12.2019
2042 Clear 2 993 98 0 3.69 144 07:58 20.12.2019
2043 Clear 3 994 97 0 3.69 144 07:39 20.12.2019
2044 Clear 2 994 98 0 3.69 144 07:18 20.12.2019
2045 Clear 2 995 10 0 3.69 144 06:48 20.12.2019
2046 Clear 2 995 10 0 3.69 144 06:30 20.12.2019
2047 Clear 2 998 99 0 3.69 144 05:52 20.12.2019
2048 Clear 2 996 10 0 3.69 144 05:34 20.12.2019
2049 Clear 3 998 10 0 3.52 158 03:57 20.12.2019
2050 Clear 3 1000 88 0 3.52 158 03:29 20.12.2019
2051 Clear 3 999 10 0 3.52 158 02:41 20.12.2019
2052 Clouds 4 1000 10 0 2.58 171 01:47 20.12.2019
2053 Clouds 4 1000 10 0 2.58 171 01:29 20.12.2019
2054 Clouds 4 1000 10 0 2.73 168 00:42 20.12.2019
2055 Clouds 4 1003 99 0 2.73 168 00:20 20.12.2019
2056 Clouds 4 1001 10 0 2.73 168 23:43 19.12.2019
2057 Clouds 4 1001 10 0 2.73 168 23:24 19.12.2019
2058 Clear 4 1002 10 0 3.53 160 22:56 19.12.2019
2059 Clear 4 1002 10 0 3.53 160 22:36 19.12.2019
2060 Clear 4 1002 10 0 3.53 160 22:36 19.12.2019
2061 Clear 5 1005 99 0 3.53 160 22:18 19.12.2019
2062 Clear 5 1007 88 0 0.89 133 22:18 19.12.2019
2063 Clear 5 1003 10 0 3.53 160 21:55 19.12.2019
2064 Clear 5 1007 88 0 3.53 160 21:37 19.12.2019
2065 Clear 5 1003 10 0 3.53 160 21:18 19.12.2019
2066 Clear 5 1004 10 0 3.53 160 20:55 19.12.2019
2067 Clouds 6 1008 88 0 0.45 116 20:36 19.12.2019
2068 Clouds 6 1005 10 0 3.47 138 20:18 19.12.2019
2069 Clouds 6 1005 10 0 3.47 138 19:54 19.12.2019
2070 Clouds 6 1008 99 0 3.47 138 19:36 19.12.2019
2071 Clouds 6 1005 10 0 3.47 138 19:18 19.12.2019
2072 Clouds 6 1006 10 0 3.47 138 18:41 19.12.2019
2073 Clouds 6 1009 99 0 3.47 138 18:22 19.12.2019
2074 Clouds 6 1006 10 0 3.47 138 17:57 19.12.2019
2075 Clouds 7 1007 10 0 3.47 138 17:39 19.12.2019
2076 Clouds 7 1007 10 0 3.79 130 17:19 19.12.2019
2077 Clouds 7 1007 10 0 3.79 130 16:57 19.12.2019
2078 Clouds 7 1007 10 0 3.79 130 16:39 19.12.2019
2079 Clouds 7 1007 99 0 3.79 130 16:21 19.12.2019
2080 Clouds 7 1011 99 0 3.79 130 15:59 19.12.2019
2081 Clouds 7 1008 98 0 3.79 130 15:39 19.12.2019
2082 Clouds 8 1008 98 0 3.79 130 15:20 19.12.2019
2083 Clouds 8 1008 98 0 3.79 130 15:20 19.12.2019
2084 Clouds 8 1008 96 0 3.79 130 14:59 19.12.2019
2085 Clouds 8 1008 95 0 3.79 130 14:41 19.12.2019
2086 Clear 8 1012 99 0 4.09 141 14:19 19.12.2019
2087 Clear 8 1009 90 0 4.09 141 13:57 19.12.2019
2088 Clear 8 1009 91 0 4.09 141 13:37 19.12.2019
2089 Clear 7 1010 90 0 3.89 136 13:18 19.12.2019
2090 Clear 9 1012 83 0 2.68 113 12:55 19.12.2019
2091 Clear 7 1010 88 0 3.89 136 12:55 19.12.2019
2092 Clear 9 1011 93 0 3.89 136 12:37 19.12.2019
2093 Clear 9 1011 93 0 3.89 136 12:18 19.12.2019
2094 Clear 9 1011 93 0 3.89 136 12:18 19.12.2019
2095 Clear 9 1011 93 0 3.89 136 12:18 19.12.2019
2096 Clear 9 1011 93 0 3.89 136 12:18 19.12.2019
2097 Clear 9 1011 92 0 3.89 136 11:57 19.12.2019
2098 Clear 8 1011 91 0 3.89 136 11:38 19.12.2019
2099 Clear 6 1012 92 0 4.17 160 11:18 19.12.2019
2100 Clear 5 1012 98 0 4.17 160 10:55 19.12.2019
2101 Clear 5 1013 10 0 4.17 160 10:36 19.12.2019
2102 Clear 4 1013 10 0 4.17 160 10:18 19.12.2019
2103 Clear 4 1013 10 0 4.17 160 10:18 19.12.2019
2104 Clear 4 1013 10 0 4.17 160 10:18 19.12.2019
2105 Clear 3 1013 10 0 4.17 160 09:38 19.12.2019
2106 Clear 3 1013 10 0 4.17 160 09:20 19.12.2019
2107 Clear 3 1013 10 0 4.17 160 09:20 19.12.2019
2108 Clear 3 1013 10 0 4.17 160 09:20 19.12.2019
2109 Clear 3 1014 88 0 4.17 160 08:58 19.12.2019
2110 Clear 3 1016 99 0 0.45 0 08:39 19.12.2019
2111 Clouds 3 1013 10 0 4.18 152 08:19 19.12.2019
2112 Clouds 3 1013 10 0 4.18 152 07:56 19.12.2019
2113 Clouds 3 1014 10 0 4.18 152 07:38 19.12.2019
2114 Clouds 3 1014 10 0 4.18 152 07:19 19.12.2019
2115 Clouds 3 1013 10 0 4.18 152 06:49 19.12.2019
2116 Clouds 3 1013 10 0 4.18 152 06:28 19.12.2019
2117 Clouds 3 1014 89 0 4.18 152 05:55 19.12.2019
2118 Clouds 3 1013 10 0 4.18 152 05:33 19.12.2019
2119 Clouds 2 1014 10 0 3.46 146 04:51 19.12.2019
2120 Clouds 3 1015 88 0 3.46 146 02:54 19.12.2019
2121 Clouds 3 1015 10 0 3.44 146 01:51 19.12.2019
2122 Clear 3 1015 10 0 3.46 140 01:22 19.12.2019
2123 Clear 3 1015 10 0 3.46 140 00:41 19.12.2019
2124 Clear 3 1015 10 0 3.46 140 00:22 19.12.2019
2125 Clear 3 1016 10 0 3.46 140 23:57 18.12.2019
2126 Clear 4 1016 10 0 3.46 140 23:38 18.12.2019
2127 Clouds 4 1016 10 0 2.29 169 23:18 18.12.2019
2128 Clouds 3 1016 10 0 2.29 169 22:55 18.12.2019
2129 Clouds 3 1016 10 0 2.29 169 22:36 18.12.2019
2130 Clouds 4 1016 10 0 2.29 169 22:18 18.12.2019
2131 Clouds 4 1017 86 0 2.29 169 21:56 18.12.2019
2132 Clouds 3 1019 99 0 2.29 169 21:56 18.12.2019
2133 Clouds 3 1019 99 0 2.29 169 21:37 18.12.2019
2134 Clouds 3 1016 10 0 2.29 169 21:19 18.12.2019
2135 Clouds 3 1016 10 0 2.29 169 20:55 18.12.2019
2136 Clouds 3 1016 10 0 2.29 169 20:55 18.12.2019
2137 Clear 3 1017 86 0 2.01 180 20:37 18.12.2019
2138 Clear 4 1017 86 0 1.51 214 20:19 18.12.2019
2139 Clear 4 1018 99 0 1.51 214 19:55 18.12.2019
2140 Clear 3 1016 10 0 1.51 214 19:37 18.12.2019
2141 Clear 3 1018 84 0 1.51 214 19:18 18.12.2019
2142 Clear 3 1018 84 0 1.51 214 19:18 18.12.2019
2143 Clear 4 1016 10 0 1.51 214 18:44 18.12.2019
2144 Clear 4 1016 10 0 1.51 214 18:25 18.12.2019
2145 Clear 5 1015 10 0 1.51 214 17:57 18.12.2019
2146 Clear 5 1015 10 0 1.51 214 17:39 18.12.2019
2147 Clear 5 1015 10 0 1.35 169 17:19 18.12.2019
2148 Clear 5 1015 10 0 1.35 169 17:19 18.12.2019
2149 Clear 6 1015 98 0 1.35 169 16:57 18.12.2019
2150 Clear 6 1015 98 0 1.35 169 16:38 18.12.2019
2151 Clear 7 1015 78 0 1.35 169 16:20 18.12.2019
2152 Clear 8 1014 90 0 1.35 169 15:55 18.12.2019
2153 Clear 8 1014 88 0 1.35 169 15:37 18.12.2019
2154 Clear 8 1014 88 0 1.35 169 15:37 18.12.2019
2155 Clear 9 1014 83 0 1.35 169 15:19 18.12.2019
2156 Clear 10 1013 78 0 1.35 169 14:42 18.12.2019
2157 Clouds 10 1013 76 0 1.77 242 14:22 18.12.2019
2158 Clouds 10 1013 74 0 1.77 242 13:57 18.12.2019
2159 Clouds 10 1016 91 0 0.89 0 13:39 18.12.2019
2160 Clouds 10 1013 76 0 0.45 130 13:20 18.12.2019
2161 Clouds 10 1013 61 0 2.33 232 12:59 18.12.2019
2162 Clouds 10 1013 63 0 2.33 232 12:39 18.12.2019
2163 Clouds 9 1012 65 0 2.33 232 12:20 18.12.2019
2164 Clouds 9 1012 70 0 2.33 232 11:56 18.12.2019
2165 Clouds 9 1012 70 0 2.33 232 11:38 18.12.2019
2166 Clouds 9 1012 77 0 2.69 277 11:20 18.12.2019
2167 Clouds 9 1012 77 0 2.69 277 10:57 18.12.2019
2168 Clouds 9 1012 76 0 2.69 277 10:39 18.12.2019
2169 Clouds 9 1011 78 0 2.69 277 10:20 18.12.2019
2170 Clouds 9 1011 78 0 2.69 277 09:57 18.12.2019
2171 Clouds 9 1010 81 0 2.69 277 09:19 18.12.2019
2172 Clouds 8 1010 83 0 2.69 277 08:42 18.12.2019
2173 Clouds 8 1010 83 0 2.69 277 08:42 18.12.2019
2174 Clouds 9 1009 82 0 3.99 279 08:24 18.12.2019
2175 Clouds 9 1008 81 0 3.99 279 07:57 18.12.2019
2176 Clouds 10 1008 79 0 3.99 279 07:39 18.12.2019
2177 Clouds 10 1008 79 0 3.99 279 07:19 18.12.2019
2178 Clouds 10 1007 76 0 3.99 279 06:51 18.12.2019
2179 Clouds 10 1007 81 0 3.99 279 06:23 18.12.2019
2180 Clouds 10 1005 81 0 3.99 279 05:34 18.12.2019
2181 Clouds 12 1003 68 0 1.34 139 03:49 18.12.2019
2182 Clouds 13 1002 59 0 5.87 234 02:46 18.12.2019
2183 Clouds 12 1002 59 0 5.87 234 02:27 18.12.2019
2184 Clouds 12 1001 54 0 7.87 195 01:44 18.12.2019
2185 Clouds 12 1001 54 0 6.43 206 01:25 18.12.2019
2186 Clouds 12 1000 60 0 6.43 206 00:55 18.12.2019
2187 Clouds 12 1000 61 0 6.43 206 00:36 18.12.2019
2188 Clouds 12 1000 61 0 6.43 206 00:18 18.12.2019
2189 Clouds 12 1000 60 0 6.43 206 23:43 17.12.2019
2190 Clouds 11 1000 59 0 6.43 206 23:23 17.12.2019
2191 Clouds 11 1001 74 0 6.28 191 22:57 17.12.2019
2192 Clouds 11 1000 61 0 6.28 191 22:39 17.12.2019
2193 Clouds 11 1000 64 0 6.28 191 22:20 17.12.2019
2194 Clouds 11 1001 63 0 6.28 191 21:57 17.12.2019
2195 Clouds 11 1002 77 0 0.89 149 21:39 17.12.2019
2196 Clouds 11 1003 62 0 1.79 0 21:20 17.12.2019
2197 Clouds 11 1003 62 0 1.79 0 21:20 17.12.2019
2198 Clouds 11 1003 62 0 1.79 0 21:20 17.12.2019
2199 Clouds 11 1001 66 0 6.28 191 20:59 17.12.2019
2200 Clouds 11 1001 66 0 6.28 191 20:40 17.12.2019
2201 Clouds 11 1004 64 0 3.13 0 20:19 17.12.2019
2202 Clouds 11 1001 65 0 5.46 219 19:57 17.12.2019
2203 Clouds 11 1002 67 0 5.46 219 19:39 17.12.2019
2204 Clouds 11 1001 65 0 5.46 219 19:20 17.12.2019
2205 Clouds 11 1001 63 0 5.46 219 18:57 17.12.2019
2206 Clouds 11 1001 64 0 5.46 219 18:38 17.12.2019
2207 Clouds 11 1003 68 0 2.24 0 18:20 17.12.2019
2208 Clouds 11 1001 65 0 5.46 219 17:55 17.12.2019
2209 Clouds 11 1001 66 0 5.46 219 17:37 17.12.2019
2210 Clouds 11 1002 75 0 5.66 208 17:18 17.12.2019
2211 Clouds 11 1001 65 0 5.66 208 16:55 17.12.2019
2212 Clouds 11 1001 65 0 5.66 208 16:37 17.12.2019
2213 Clouds 11 1001 66 0 5.66 208 16:18 17.12.2019
2214 Clouds 11 1001 66 0 5.66 208 16:18 17.12.2019
2215 Clouds 12 1000 64 0 5.66 208 15:54 17.12.2019
2216 Clouds 12 1000 63 0 5.66 208 15:36 17.12.2019
2217 Clouds 12 1000 64 0 5.66 208 15:18 17.12.2019
2218 Clouds 12 1000 63 0 5.66 208 14:54 17.12.2019
2219 Clouds 12 1000 62 0 5.66 208 14:36 17.12.2019
2220 Clouds 13 1000 62 0 6.26 199 14:18 17.12.2019
2221 Clouds 13 1002 67 0 2.24 0 13:54 17.12.2019
2222 Clouds 13 1001 74 0 0.89 112 13:36 17.12.2019
2223 Clouds 13 1001 73 0 0.45 131 13:18 17.12.2019
2224 Clouds 13 1002 75 0 1.34 0 12:39 17.12.2019
2225 Clouds 13 1000 63 0 6.39 204 12:19 17.12.2019
2226 Clouds 12 1000 63 0 6.39 204 11:59 17.12.2019
2227 Clouds 12 1000 60 0 6.39 204 11:37 17.12.2019
2228 Clouds 12 1000 62 0 6.39 204 11:37 17.12.2019
2229 Clouds 11 1000 64 0 5.48 200 11:19 17.12.2019
2230 Clouds 11 1000 64 0 5.48 200 11:19 17.12.2019
2231 Clouds 10 1000 75 0 5.48 200 10:59 17.12.2019
2232 Clouds 9 1000 79 0 5.48 200 10:40 17.12.2019
2233 Clouds 8 1000 82 0 5.48 200 10:21 17.12.2019
2234 Clouds 8 1000 80 0 5.48 200 09:59 17.12.2019
2235 Clouds 8 1000 82 0 5.48 200 09:41 17.12.2019
2236 Clouds 8 1000 82 0 5.48 200 09:20 17.12.2019
2237 Clouds 7 1002 82 0 0.89 129 08:56 17.12.2019
2238 Clouds 7 999 83 0 5.48 200 08:38 17.12.2019
2239 Clouds 7 999 84 0 6.5 201 08:19 17.12.2019
2240 Clouds 7 999 84 0 5.37 202 07:46 17.12.2019
2241 Clouds 6 999 84 0 5.37 202 07:26 17.12.2019
2242 Clouds 7 1002 99 0 0.89 0 06:56 17.12.2019
2243 Clouds 6 999 85 0 5.37 202 06:35 17.12.2019
2244 Clouds 6 999 88 0 5.37 202 05:53 17.12.2019
2245 Clouds 6 999 88 0 5.37 202 05:35 17.12.2019
2246 Clouds 5 1000 95 0 4.06 167 04:30 17.12.2019
2247 Clouds 5 1003 99 0 4.06 167 02:34 17.12.2019
2248 Clouds 5 1001 10 0 3.06 165 01:55 17.12.2019
2249 Clouds 5 1001 10 0 3.43 176 00:59 17.12.2019
2250 Clouds 5 1004 99 0 3.43 176 00:38 17.12.2019
2251 Clouds 5 1004 99 0 3.43 176 00:19 17.12.2019
2252 Clouds 5 1001 10 0 3.43 176 23:41 16.12.2019
2253 Clouds 6 1001 10 0 2.66 204 23:19 16.12.2019
2254 Clouds 6 1001 10 0 2.66 204 22:56 16.12.2019
2255 Clouds 5 1001 10 0 2.66 204 22:37 16.12.2019
2256 Clouds 5 1005 87 0 2.66 204 22:19 16.12.2019
2257 Clouds 5 1005 87 0 2.66 204 22:19 16.12.2019
2258 Clouds 6 1004 99 0 0.45 0 21:55 16.12.2019
2259 Clouds 6 1004 99 0 0.45 0 21:55 16.12.2019
2260 Clouds 6 1006 87 0 2.66 204 21:37 16.12.2019
2261 Clouds 6 1002 10 0 2.66 204 21:19 16.12.2019
2262 Clouds 7 1005 87 0 2.66 204 20:57 16.12.2019
2263 Clouds 7 1005 87 0 2.66 204 20:57 16.12.2019
2264 Clouds 7 1005 87 0 2.66 204 20:37 16.12.2019
2265 Clouds 7 1002 10 0 2.88 191 20:19 16.12.2019
2266 Clouds 7 1002 10 0 2.88 191 19:56 16.12.2019
2267 Clouds 7 1002 10 0 2.88 191 19:37 16.12.2019
2268 Clouds 7 1005 99 0 0.45 0 19:19 16.12.2019
2269 Clouds 7 1002 10 0 2.88 191 18:56 16.12.2019
2270 Clouds 7 1002 10 0 2.88 191 18:38 16.12.2019
2271 Clouds 7 1002 10 0 2.88 191 18:38 16.12.2019
2272 Clouds 8 1002 10 0 2.88 191 18:19 16.12.2019
2273 Clouds 8 1003 10 0 2.88 191 17:57 16.12.2019
2274 Clouds 8 1003 10 0 2.88 191 17:38 16.12.2019
2275 Clouds 8 1004 86 0 3.92 201 17:20 16.12.2019
2276 Clouds 8 1003 10 0 3.92 201 16:56 16.12.2019
2277 Clouds 8 1004 86 0 3.92 201 16:38 16.12.2019
2278 Clouds 8 1003 97 0 3.92 201 16:19 16.12.2019
2279 Clouds 8 1003 97 0 3.92 201 15:57 16.12.2019
2280 Clouds 8 1003 97 0 3.92 201 15:38 16.12.2019
2281 Clouds 9 1003 99 0 3.92 201 15:20 16.12.2019
2282 Clouds 9 1005 99 0 1.34 0 14:55 16.12.2019
2283 Clouds 8 1003 93 0 3.92 201 14:37 16.12.2019
2284 Clouds 8 1003 93 0 3.92 201 14:37 16.12.2019
2285 Clouds 9 1003 92 0 4.33 201 14:18 16.12.2019
2286 Clouds 9 1003 92 0 4.33 201 14:18 16.12.2019
2287 Clouds 9 1003 92 0 4.33 201 14:18 16.12.2019
2288 Clouds 9 1003 89 0 4.33 201 13:56 16.12.2019
2289 Clouds 9 1003 90 0 4.33 201 13:37 16.12.2019
2290 Rain 9 1003 89 0 4.78 193 13:19 16.12.2019
2291 Rain 9 1003 89 0 4.78 193 12:56 16.12.2019
2292 Clouds 9 1003 88 0 4.96 202 12:38 16.12.2019
2293 Rain 9 1004 86 0 4.78 193 12:18 16.12.2019
2294 Rain 8 1004 87 0 4.78 193 11:57 16.12.2019
2295 Clouds 8 1004 87 0 4.96 202 11:39 16.12.2019
2296 Clouds 8 1006 84 0 4.77 186 11:19 16.12.2019
2297 Clouds 7 1007 99 0 0.89 0 10:54 16.12.2019
2298 Clouds 7 1004 87 0 4.77 186 10:36 16.12.2019
2299 Clouds 7 1004 87 0 4.77 186 10:18 16.12.2019
2300 Clouds 6 1005 87 0 4.77 186 09:44 16.12.2019
2301 Clouds 6 1004 87 0 4.43 190 09:26 16.12.2019
2302 Clouds 5 1004 89 0 4.77 186 08:41 16.12.2019
2303 Clouds 5 1004 91 0 3.88 180 08:20 16.12.2019
2304 Clouds 5 1004 92 0 3.88 180 07:53 16.12.2019
2305 Clouds 5 1004 92 0 3.88 180 07:31 16.12.2019
2306 Clouds 4 1005 91 0 3.88 180 06:59 16.12.2019
2307 Clouds 4 1005 86 0 3.88 180 06:40 16.12.2019
2308 Clouds 4 1005 88 0 3.88 180 06:21 16.12.2019
2309 Clouds 4 1005 87 0 3.88 180 05:41 16.12.2019
2310 Clouds 4 1005 87 0 3.88 180 05:23 16.12.2019
2311 Clouds 4 1005 85 0 4.15 190 03:29 16.12.2019
2312 Clouds 4 1006 81 0 0.45 195 01:52 16.12.2019
2313 Clouds 4 1005 85 0 4.1 217 01:33 16.12.2019
2314 Clouds 4 1006 80 0 0.45 90 00:41 16.12.2019
2315 Clouds 4 1004 82 0 4.1 217 00:21 16.12.2019
2316 Clouds 4 1003 81 0 4.1 217 23:57 15.12.2019
2317 Clouds 4 1004 80 0 4.1 217 23:37 15.12.2019
2318 Clouds 5 1003 80 0 4.59 229 23:19 15.12.2019
2319 Clouds 5 1003 83 0 4.59 229 22:54 15.12.2019
2320 Clouds 5 1003 83 0 4.59 229 22:36 15.12.2019
2321 Clouds 5 1003 81 0 4.59 229 22:18 15.12.2019
2322 Clouds 5 1002 78 0 4.59 229 21:55 15.12.2019
2323 Clouds 5 1002 78 0 4.59 229 21:37 15.12.2019
2324 Clouds 6 1002 76 0 4.59 229 21:18 15.12.2019
2325 Clouds 6 1001 75 0 4.59 229 20:55 15.12.2019
2326 Clouds 6 1001 73 0 4.59 229 20:36 15.12.2019
2327 Clouds 6 1001 72 0 5.19 228 20:18 15.12.2019
2328 Clouds 6 1000 71 0 5.19 228 19:56 15.12.2019
2329 Clouds 6 1000 69 0 5.37 223 19:38 15.12.2019
2330 Clouds 6 1000 70 0 5.19 228 19:18 15.12.2019
2331 Clouds 6 1000 70 0 5.37 223 18:55 15.12.2019
2332 Clouds 6 999 70 0 5.19 228 18:37 15.12.2019
2333 Clouds 6 999 70 0 5.19 228 18:18 15.12.2019
2334 Clouds 7 999 71 0 5.19 228 17:56 15.12.2019
2335 Clouds 7 999 71 0 5.19 228 17:36 15.12.2019
2336 Clouds 7 998 69 0 5.23 242 17:18 15.12.2019
2337 Clouds 7 998 69 0 5.23 242 17:18 15.12.2019
2338 Clouds 7 998 67 0 5.23 242 16:54 15.12.2019
2339 Clear 7 998 66 0 5.46 238 16:36 15.12.2019
2340 Clear 7 997 64 0 5.46 238 16:18 15.12.2019
2341 Clear 8 997 66 0 5.46 238 15:54 15.12.2019
2342 Clouds 8 996 65 0 5.23 242 15:36 15.12.2019
2343 Clouds 8 996 65 0 5.23 242 15:18 15.12.2019
2344 Clouds 9 996 63 0 5.23 242 14:54 15.12.2019
2345 Clouds 9 995 61 0 5.23 242 14:36 15.12.2019
2346 Rain 9 997 67 0 2.68 200 14:18 15.12.2019
2347 Rain 9 997 54 0 3.13 0 14:18 15.12.2019
2348 Rain 9 995 64 0 5.95 251 13:54 15.12.2019
2349 Rain 10 994 60 0 5.95 251 13:36 15.12.2019
2350 Rain 10 994 59 0 6.92 256 13:18 15.12.2019
2351 Rain 10 993 60 0 6.92 256 12:55 15.12.2019
2352 Rain 10 993 60 0 6.92 256 12:36 15.12.2019
2353 Rain 10 993 63 0 6.92 256 12:18 15.12.2019
2354 Rain 9 992 76 0 6.92 256 11:38 15.12.2019
2355 Rain 9 993 85 0 1.34 89 11:19 15.12.2019
2356 Rain 9 993 85 0 1.34 89 11:19 15.12.2019
2357 Rain 8 992 92 0 4.45 214 10:56 15.12.2019
2358 Rain 8 992 93 0 4.45 214 10:38 15.12.2019
2359 Rain 8 993 86 0 2.24 126 10:19 15.12.2019
2360 Rain 7 991 93 0 4.45 214 09:58 15.12.2019
2361 Rain 7 991 93 0 4.45 214 09:37 15.12.2019
2362 Rain 7 990 95 0 4.45 214 09:19 15.12.2019
2363 Rain 6 993 99 0 2.68 0 08:55 15.12.2019
2364 Rain 5 991 86 0 4.45 214 08:36 15.12.2019
2365 Clouds 5 991 86 0 7.41 178 08:18 15.12.2019
2366 Clouds 5 991 87 0 7.41 178 07:47 15.12.2019
2367 Clouds 5 991 88 0 7.41 178 07:28 15.12.2019
2368 Clouds 4 992 86 0 7.41 178 06:26 15.12.2019
2369 Clouds 3 993 89 0 7.41 178 05:42 15.12.2019
2370 Clouds 3 993 87 0 4.23 183 05:21 15.12.2019
2371 Clouds 3 994 84 0 4.23 183 04:22 15.12.2019
2372 Clouds 3 995 88 0 4.23 183 02:55 15.12.2019
2373 Clouds 3 995 89 0 4.23 183 02:32 15.12.2019
2374 Clouds 3 998 99 0 1.79 0 01:41 15.12.2019
2375 Clouds 4 995 85 0 5 247 01:19 15.12.2019
2376 Clouds 4 995 85 0 5 247 00:51 15.12.2019
2377 Clouds 4 995 85 0 5 247 00:32 15.12.2019
2378 Clouds 5 996 84 0 1.34 186 23:55 14.12.2019
2379 Clouds 5 994 88 0 5 247 23:37 14.12.2019
2380 Rain 5 994 87 0 7.78 247 23:18 14.12.2019
2381 Rain 5 994 87 0 7.78 247 23:18 14.12.2019
2382 Rain 5 993 88 0 7.78 247 22:56 14.12.2019
2383 Rain 5 992 87 0 7.78 247 22:37 14.12.2019
2384 Rain 5 992 81 0 3.13 79 22:18 14.12.2019
2385 Rain 5 990 85 0 7.78 247 21:55 14.12.2019
2386 Rain 5 990 85 0 7.78 247 21:37 14.12.2019
2387 Rain 5 989 87 0 7.78 247 21:18 14.12.2019
2388 Rain 5 989 88 0 7.78 247 20:42 14.12.2019
2389 Rain 5 989 88 0 7.11 228 20:20 14.12.2019
2390 Rain 5 989 89 0 7.11 228 19:59 14.12.2019
2391 Rain 5 989 82 0 7.11 228 19:39 14.12.2019
2392 Rain 5 989 74 0 7.11 228 19:21 14.12.2019
2393 Rain 5 989 76 0 7.11 228 18:57 14.12.2019
2394 Rain 5 991 99 0 1.79 0 18:39 14.12.2019
2395 Rain 5 989 78 0 7.11 228 18:21 14.12.2019
2396 Rain 5 991 84 0 0.89 129 17:58 14.12.2019
2397 Rain 5 991 85 0 0.89 120 17:40 14.12.2019
2398 Rain 5 988 80 0 5.19 244 17:21 14.12.2019
2399 Rain 6 988 87 0 5.19 244 16:41 14.12.2019
2400 Rain 5 987 89 0 5.19 244 16:19 14.12.2019
2401 Rain 5 987 91 0 5.19 244 15:56 14.12.2019
2402 Rain 6 987 90 0 5.19 244 15:38 14.12.2019
2403 Rain 6 986 88 0 5.19 244 15:19 14.12.2019
2404 Rain 6 986 88 0 5.19 244 14:57 14.12.2019
2405 Rain 6 987 84 0 1.79 87 14:37 14.12.2019
2406 Rain 6 985 88 0 7.96 275 14:18 14.12.2019
2407 Rain 6 984 92 0 7.96 275 13:44 14.12.2019
2408 Rain 5 984 96 0 8.82 273 13:19 14.12.2019
2409 Rain 5 985 86 0 0.89 107 12:58 14.12.2019
2410 Rain 5 983 10 0 8.82 273 12:40 14.12.2019
2411 Rain 4 985 99 0 0.89 0 12:20 14.12.2019
2412 Rain 4 982 10 0 7.96 279 11:58 14.12.2019
2413 Rain 4 982 10 0 8.82 273 11:39 14.12.2019
2414 Rain 4 981 10 0 3.61 171 11:19 14.12.2019
2415 Rain 4 981 10 0 3.61 171 10:57 14.12.2019
2416 Rain 4 981 99 0 3.59 163 10:39 14.12.2019
2417 Rain 4 980 10 0 3.61 171 10:20 14.12.2019
2418 Rain 4 980 10 0 3.59 163 09:55 14.12.2019
2419 Rain 4 980 10 0 3.61 171 09:55 14.12.2019
2420 Rain 4 980 10 0 3.61 171 09:36 14.12.2019
2421 Rain 4 982 88 0 0.89 120 09:18 14.12.2019
2422 Rain 4 979 97 0 3.59 163 08:41 14.12.2019
2423 Clouds 3 979 98 0 4.95 200 08:19 14.12.2019
2424 Clouds 3 981 87 0 0.45 91 07:43 14.12.2019
2425 Clouds 3 980 10 0 4.95 200 07:23 14.12.2019
2426 Clouds 3 980 10 0 4.95 200 06:55 14.12.2019
2427 Clouds 3 980 10 0 4.95 200 06:36 14.12.2019
2428 Clouds 3 981 88 0 0.45 101 05:57 14.12.2019
2429 Rain 3 980 10 0 3.9 221 04:47 14.12.2019
2430 Rain 3 980 10 0 4.1 238 02:31 14.12.2019
2431 Rain 3 980 10 0 4.1 238 01:56 14.12.2019
2432 Rain 3 980 10 0 4.1 238 01:37 14.12.2019
2433 Rain 3 980 99 0 3.5 227 00:47 14.12.2019
2434 Rain 2 980 99 0 3.5 227 00:27 14.12.2019
2435 Rain 3 979 96 0 3.5 227 23:56 13.12.2019
2436 Rain 2 979 96 0 3.5 227 23:37 13.12.2019
2437 Clouds 2 979 96 0 2.34 205 23:18 13.12.2019
2438 Clouds 2 981 99 0 2.34 205 22:40 13.12.2019
2439 Clouds 2 979 96 0 2.34 205 22:19 13.12.2019
2440 Clouds 2 979 95 0 2.34 205 21:56 13.12.2019
2441 Clouds 2 979 95 0 2.34 205 21:38 13.12.2019
2442 Clouds 2 979 94 0 2.34 205 21:20 13.12.2019
2443 Clouds 2 978 94 0 2.34 205 20:43 13.12.2019
2444 Clouds 2 981 99 0 0.45 0 20:24 13.12.2019
2445 Clouds 2 978 94 0 2.82 157 19:59 13.12.2019
2446 Clouds 2 978 94 0 2.82 157 19:41 13.12.2019
2447 Clouds 2 981 99 0 2.82 157 19:23 13.12.2019
2448 Clouds 2 978 93 0 2.82 157 18:59 13.12.2019
2449 Clouds 2 977 93 0 2.82 157 18:41 13.12.2019
2450 Clouds 2 977 93 0 2.82 157 18:19 13.12.2019
2451 Clouds 2 979 86 0 2.82 157 17:57 13.12.2019
2452 Clouds 2 977 92 0 2.82 157 17:38 13.12.2019
2453 Clouds 2 977 92 0 4.59 146 17:18 13.12.2019
2454 Clouds 2 980 99 0 4.59 146 16:54 13.12.2019
2455 Clouds 2 980 99 0 4.59 146 16:36 13.12.2019
2456 Clouds 2 977 90 0 4.59 146 16:18 13.12.2019
2457 Clouds 2 977 85 0 4.59 146 15:40 13.12.2019
2458 Clouds 3 976 83 0 4.59 146 15:20 13.12.2019
2459 Clouds 3 976 81 0 4.59 146 14:55 13.12.2019
2460 Clouds 3 976 81 0 4.59 146 14:36 13.12.2019
2461 Clouds 3 976 80 0 5.66 130 14:18 13.12.2019
2462 Clouds 3 976 80 0 5.66 130 13:43 13.12.2019
2463 Clouds 3 976 81 0 5.66 130 13:23 13.12.2019
2464 Clouds 3 979 99 0 0.45 0 12:54 13.12.2019
2465 Clouds 3 976 78 0 6.13 131 12:36 13.12.2019
2466 Clouds 3 978 83 0 0.89 51 12:18 13.12.2019
2467 Clouds 3 977 75 0 6.13 131 11:42 13.12.2019
2468 Clouds 2 977 74 0 6.13 131 11:24 13.12.2019
2469 Clouds 2 981 99 0 0.45 0 10:56 13.12.2019
2470 Clouds 2 977 80 0 6.55 133 10:38 13.12.2019
2471 Clouds 1 978 86 0 6.55 133 10:19 13.12.2019
2472 Clouds 1 978 82 0 6.55 133 09:41 13.12.2019
2473 Clouds 0 981 87 0 0.89 18 09:21 13.12.2019
2474 Clouds 0 982 99 0 0.45 0 08:45 13.12.2019
2475 Clouds 0 979 93 0 6.87 127 08:26 13.12.2019
2476 Clear 0 980 94 0 6.19 143 07:49 13.12.2019
2477 Clear 0 980 94 0 6.19 143 07:26 13.12.2019
2478 Clear 0 981 94 0 6.19 143 06:57 13.12.2019
2479 Clear 0 984 99 0 0.45 0 06:31 13.12.2019
2480 Clear 0 982 95 0 6.19 143 05:51 13.12.2019
2481 Clear 0 982 95 0 6.19 143 05:31 13.12.2019
2482 Clear 0 983 96 0 5.58 145 04:54 13.12.2019
2483 Clear 0 984 98 0 5.58 145 03:52 13.12.2019
2484 Clear 0 986 99 0 5.58 145 02:35 13.12.2019
2485 Clouds 0 990 99 0 0.45 0 01:51 13.12.2019
2486 Clouds 1 988 10 0 4.97 157 01:27 13.12.2019
2487 Clouds 1 989 10 0 5.35 160 00:47 13.12.2019
2488 Clouds 1 989 10 0 5.35 160 00:26 13.12.2019
2489 Clouds 1 990 10 0 5.35 160 23:42 12.12.2019
2490 Clouds 2 990 10 0 5.35 160 23:24 12.12.2019
2491 Clouds 2 991 98 0 4.41 171 22:56 12.12.2019
2492 Clouds 2 994 99 0 0.89 0 22:38 12.12.2019
2493 Clouds 2 992 96 0 4.41 171 22:19 12.12.2019
2494 Clouds 2 992 95 0 4.41 171 21:56 12.12.2019
2495 Clouds 2 992 95 0 4.41 171 21:37 12.12.2019
2496 Clouds 2 992 94 0 4.41 171 21:19 12.12.2019
2497 Clouds 2 993 93 0 4.41 171 20:58 12.12.2019
2498 Clouds 2 993 94 0 4.41 171 20:40 12.12.2019
2499 Clouds 2 994 95 0 3.39 178 20:21 12.12.2019
2500 Clouds 2 994 95 0 3.83 184 19:56 12.12.2019
2501 Clouds 2 994 94 0 3.83 184 19:37 12.12.2019
2502 Clouds 2 994 94 0 3.83 184 19:18 12.12.2019
2503 Clouds 3 995 95 0 3.83 184 18:55 12.12.2019
2504 Clouds 3 996 87 0 3.83 184 18:37 12.12.2019
2505 Clouds 2 995 95 0 3.83 184 18:19 12.12.2019
2506 Clouds 3 995 97 0 3.83 184 17:56 12.12.2019
2507 Clouds 3 995 97 0 3.83 184 17:38 12.12.2019
2508 Clouds 3 996 97 0 3.89 202 17:19 12.12.2019
2509 Clouds 3 996 96 0 3.89 202 16:54 12.12.2019
2510 Clouds 3 996 97 0 3.89 202 16:36 12.12.2019
2511 Clouds 4 996 99 0 3.89 202 16:18 12.12.2019
2512 Clouds 4 996 98 0 3.89 202 15:42 12.12.2019
2513 Clouds 5 996 93 0 3.89 202 15:20 12.12.2019
2514 Clouds 5 996 92 0 3.89 202 14:59 12.12.2019
2515 Clouds 5 997 92 0 3.89 202 14:38 12.12.2019
2516 Clouds 5 997 94 0 4.71 214 14:19 12.12.2019
2517 Clouds 5 997 92 0 4.71 214 13:56 12.12.2019
2518 Clouds 5 997 95 0 4.71 214 13:38 12.12.2019
2519 Clouds 5 997 94 0 4.27 216 13:20 12.12.2019
2520 Clouds 5 998 94 0 4.27 216 12:56 12.12.2019
2521 Clouds 5 998 96 0 4.27 216 12:38 12.12.2019
2522 Clouds 4 1000 99 0 2.24 0 12:19 12.12.2019
2523 Clouds 4 998 97 0 4.27 216 11:54 12.12.2019
2524 Clouds 4 998 98 0 4.27 216 11:36 12.12.2019
2525 Clouds 4 998 98 0 4.21 215 11:18 12.12.2019
2526 Clouds 3 999 10 0 4.21 215 10:41 12.12.2019
2527 Clouds 3 999 10 0 4.21 215 10:23 12.12.2019
2528 Clouds 3 999 10 0 4.21 215 10:23 12.12.2019
2529 Clouds 2 999 10 0 4.21 215 09:59 12.12.2019
2530 Clouds 3 999 10 0 4.21 215 09:41 12.12.2019
2531 Clouds 2 999 10 0 4.21 215 09:23 12.12.2019
2532 Clouds 2 998 10 0 4.21 215 08:56 12.12.2019
2533 Clouds 2 998 10 0 4.21 215 08:38 12.12.2019
2534 Clouds 2 998 10 0 4.21 215 08:38 12.12.2019
2535 Clouds 2 1001 99 0 0.45 0 08:19 12.12.2019
2536 Rain 2 998 10 0 3.04 204 07:42 12.12.2019
2537 Rain 2 998 10 0 3.04 204 07:24 12.12.2019
2538 Rain 2 998 10 0 3.04 204 06:48 12.12.2019
2539 Rain 2 998 10 0 3.04 204 06:48 12.12.2019
2540 Rain 2 998 10 0 3.04 204 06:30 12.12.2019
2541 Rain 2 998 10 0 3.04 204 05:36 12.12.2019
2542 Rain 2 998 87 0 0.45 104 04:51 12.12.2019
2543 Rain 2 1001 99 0 0.45 0 04:51 12.12.2019
2544 Rain 1 1001 99 0 0.45 0 04:51 12.12.2019
2545 Rain 1 999 10 0 3.45 230 03:24 12.12.2019
2546 Rain 1 999 10 0 3.45 230 02:38 12.12.2019
2547 Rain 1 999 10 0 2.96 209 02:19 12.12.2019
2548 Rain 2 999 10 0 2.95 213 01:37 12.12.2019
2549 Rain 2 999 10 0 2.95 213 01:19 12.12.2019
2550 Rain 2 999 10 0 2.95 213 00:46 12.12.2019
2551 Rain 2 1000 87 0 0.45 105 00:19 12.12.2019
2552 Rain 2 1000 87 0 0.89 79 23:44 11.12.2019
2553 Rain 2 1000 10 0 4.21 215 23:21 11.12.2019
2554 Rain 2 1001 86 0 0.45 103 22:57 11.12.2019
2555 Rain 2 1003 99 0 0.89 0 22:38 11.12.2019
2556 Rain 2 1002 86 0 0.89 97 22:20 11.12.2019
2557 Rain 2 1001 10 0 4.21 215 21:57 11.12.2019
2558 Rain 2 1001 10 0 4.21 215 21:38 11.12.2019
2559 Rain 2 1001 10 0 4.21 215 21:19 11.12.2019
2560 Rain 3 1001 10 0 4.21 215 21:19 11.12.2019
2561 Rain 3 1001 10 0 4.21 215 20:56 11.12.2019
2562 Rain 3 1004 99 0 1.34 0 20:37 11.12.2019
2563 Rain 3 1001 10 0 5.31 191 20:19 11.12.2019
2564 Rain 3 1001 98 0 5.31 191 19:57 11.12.2019
2565 Rain 3 1001 97 0 5.31 191 19:39 11.12.2019
2566 Rain 3 1003 86 0 0.45 124 19:19 11.12.2019
2567 Rain 3 1002 97 0 5.31 191 18:41 11.12.2019
2568 Rain 3 1002 98 0 5.31 191 18:21 11.12.2019
2569 Rain 3 1002 99 0 5.31 191 17:57 11.12.2019
2570 Rain 3 1002 99 0 5.31 191 17:57 11.12.2019
2571 Rain 3 1002 99 0 5.31 191 17:39 11.12.2019
2572 Rain 4 1002 10 0 5.3 183 17:19 11.12.2019
2573 Rain 4 1002 10 0 5.3 183 16:57 11.12.2019
2574 Rain 4 1003 99 0 5.3 183 16:39 11.12.2019
2575 Rain 4 1003 99 0 5.3 183 16:21 11.12.2019
2576 Rain 4 1003 99 0 5.3 183 15:59 11.12.2019
2577 Rain 4 1003 98 0 5.3 183 15:40 11.12.2019
2578 Rain 4 1003 98 0 5.3 183 15:22 11.12.2019
2579 Rain 4 1003 98 0 5.3 183 15:22 11.12.2019
2580 Rain 4 1004 98 0 5.3 183 14:56 11.12.2019
2581 Rain 4 1004 98 0 5.3 183 14:38 11.12.2019
2582 Rain 4 1004 97 0 4.46 183 14:19 11.12.2019
2583 Rain 4 1004 97 0 4.46 183 13:55 11.12.2019
2584 Rain 4 1007 99 0 2.24 0 13:36 11.12.2019
2585 Rain 4 1007 99 0 2.24 0 13:18 11.12.2019
2586 Rain 4 1005 96 0 5.05 186 12:55 11.12.2019
2587 Rain 4 1005 97 0 5.05 186 12:37 11.12.2019
2588 Rain 4 1005 96 0 5.05 186 12:18 11.12.2019
2589 Rain 4 1005 96 0 5.05 186 12:18 11.12.2019
2590 Rain 4 1006 96 0 5.05 186 11:57 11.12.2019
2591 Rain 4 1006 96 0 5.05 186 11:57 11.12.2019
2592 Rain 4 1006 96 0 5.05 186 11:38 11.12.2019
2593 Rain 4 1006 96 0 5.05 186 11:38 11.12.2019
2594 Rain 4 1006 95 0 4.78 190 11:18 11.12.2019
2595 Rain 4 1006 95 0 4.78 190 11:18 11.12.2019
2596 Rain 4 1009 99 0 1.79 0 10:45 11.12.2019
2597 Rain 4 1007 94 0 4.78 190 10:27 11.12.2019
2598 Rain 4 1007 78 0 1.34 76 09:59 11.12.2019
2599 Rain 4 1007 93 0 4.78 190 09:39 11.12.2019
2600 Rain 4 1007 93 0 4.78 190 09:39 11.12.2019
2601 Rain 4 1007 93 0 4.78 190 09:39 11.12.2019
2602 Rain 3 1007 89 0 4.78 190 09:20 11.12.2019
2603 Rain 3 1007 88 0 4.78 190 08:57 11.12.2019
2604 Rain 3 1007 90 0 4.78 190 08:38 11.12.2019
2605 Rain 3 1007 90 0 4.7 200 08:19 11.12.2019
2606 Rain 3 1010 99 0 1.34 0 07:55 11.12.2019
2607 Rain 3 1007 88 0 4.7 200 07:37 11.12.2019
2608 Rain 3 1008 85 0 4.7 200 07:18 11.12.2019
2609 Rain 3 1008 85 0 4.7 200 07:18 11.12.2019
2610 Rain 3 1008 81 0 4.7 200 06:43 11.12.2019
2611 Rain 4 1008 80 0 4.7 200 06:22 11.12.2019
2612 Rain 3 1008 81 0 4.7 200 05:41 11.12.2019
2613 Clouds 3 1008 78 0 6.38 185 05:19 11.12.2019
2614 Clouds 3 1009 75 0 6.38 185 04:27 11.12.2019
2615 Clouds 3 1010 79 0 6.38 185 02:49 11.12.2019
2616 Clouds 2 1012 82 0 7.28 184 01:25 11.12.2019
2617 Clouds 2 1012 82 0 7.28 184 00:47 11.12.2019
2618 Clouds 2 1013 84 0 7.28 184 00:22 11.12.2019
2619 Clouds 2 1013 83 0 7.28 184 23:57 10.12.2019
2620 Clouds 2 1015 82 0 0.89 112 23:39 10.12.2019
2621 Clouds 1 1014 83 0 5.36 179 23:21 10.12.2019
2622 Clouds 1 1014 82 0 5.36 179 22:40 10.12.2019
2623 Clouds 1 1014 82 0 5.36 179 22:40 10.12.2019
2624 Clouds 1 1015 81 0 5.36 179 22:22 10.12.2019
2625 Clouds 1 1016 83 0 0.89 117 21:57 10.12.2019
2626 Clouds 1 1018 99 0 0.89 0 21:39 10.12.2019
2627 Clouds 1 1016 85 0 5.36 179 21:21 10.12.2019
2628 Clouds 1 1016 85 0 5.36 179 21:21 10.12.2019
2629 Clouds 1 1016 86 0 5.36 179 20:57 10.12.2019
2630 Clouds 1 1017 84 0 0.89 115 20:38 10.12.2019
2631 Clouds 1 1016 86 0 3.7 191 20:19 10.12.2019
2632 Clouds 1 1016 86 0 3.7 191 20:19 10.12.2019
2633 Clouds 1 1016 86 0 3.7 191 19:55 10.12.2019
2634 Clouds 1 1017 86 0 3.7 191 19:37 10.12.2019
2635 Clouds 2 1017 85 0 3.7 191 19:19 10.12.2019
2636 Clouds 2 1018 84 0 3.7 191 18:42 10.12.2019
2637 Clouds 2 1018 84 0 3.7 191 18:21 10.12.2019
2638 Clouds 2 1018 83 0 3.7 191 17:59 10.12.2019
2639 Clouds 3 1018 81 0 3.7 191 17:41 10.12.2019
2640 Clear 3 1018 82 0 3.35 215 17:22 10.12.2019
2641 Clear 3 1019 85 0 3.35 215 16:57 10.12.2019
2642 Clear 4 1019 87 0 3.35 215 16:39 10.12.2019
2643 Clear 4 1023 81 0 3.35 215 16:19 10.12.2019
2644 Clear 5 1019 80 0 3.35 215 15:39 10.12.2019
2645 Clear 5 1019 80 0 3.35 215 15:18 10.12.2019
2646 Clear 6 1019 77 0 3.35 215 14:56 10.12.2019
2647 Clear 6 1019 76 0 3.35 215 14:38 10.12.2019
2648 Clouds 6 1019 75 0 4.74 275 14:20 10.12.2019
2649 Clouds 6 1019 73 0 4.74 275 13:58 10.12.2019
2650 Clouds 6 1020 79 0 0.89 126 13:40 10.12.2019
2651 Clear 6 1021 99 0 1.79 0 13:20 10.12.2019
2652 Clear 6 1021 99 0 1.79 0 13:20 10.12.2019
2653 Clear 6 1019 66 0 4.49 277 12:49 10.12.2019
2654 Clear 6 1020 80 0 0.45 81 12:28 10.12.2019
2655 Clear 6 1020 83 0 4.49 277 11:58 10.12.2019
2656 Clear 6 1019 68 0 4.49 277 11:40 10.12.2019
2657 Clear 5 1020 85 0 0.45 83 11:21 10.12.2019
2658 Clear 5 1019 77 0 4.42 277 10:43 10.12.2019
2659 Clear 4 1019 82 0 4.42 277 10:24 10.12.2019
2660 Clear 3 1018 84 0 4.42 277 09:57 10.12.2019
2661 Clear 3 1018 84 0 4.42 277 09:57 10.12.2019
2662 Clear 3 1020 99 0 1.79 0 09:39 10.12.2019
2663 Clear 3 1020 86 0 4.42 277 09:20 10.12.2019
2664 Clear 2 1018 88 0 4.42 277 08:58 10.12.2019
2665 Clear 2 1017 91 0 4.42 277 08:39 10.12.2019
2666 Clear 2 1017 92 0 6.37 287 08:21 10.12.2019
2667 Clear 2 1017 93 0 6.37 287 07:54 10.12.2019
2668 Clear 2 1017 92 0 6.37 287 07:36 10.12.2019
2669 Clear 3 1016 91 0 6.37 287 07:18 10.12.2019
2670 Clear 3 1016 90 0 6.37 287 06:42 10.12.2019
2671 Clear 3 1015 88 0 6.37 287 06:19 10.12.2019
2672 Clear 3 1015 87 0 6.37 287 05:51 10.12.2019
2673 Clear 3 1013 89 0 6.91 290 04:35 10.12.2019
2674 Clear 4 1013 84 0 0.89 187 03:31 10.12.2019
2675 Clear 4 1010 87 0 6.91 290 02:36 10.12.2019
2676 Clouds 4 1009 85 0 7.67 297 01:42 10.12.2019
2677 Clouds 4 1008 85 0 8.01 292 01:19 10.12.2019
2678 Clouds 5 1011 85 0 8.01 292 00:38 10.12.2019
2679 Clouds 5 1007 86 0 8.01 292 00:18 10.12.2019
2680 Clouds 5 1006 87 0 8.01 292 23:40 09.12.2019
2681 Rain 5 1005 88 0 5.42 304 23:22 09.12.2019
2682 Rain 6 1005 89 0 5.42 304 22:57 09.12.2019
2683 Rain 6 1007 80 0 0.45 253 22:39 09.12.2019
2684 Rain 6 1004 91 0 5.42 304 22:19 09.12.2019
2685 Rain 6 1003 92 0 5.42 304 21:56 09.12.2019
2686 Rain 6 1003 94 0 5.42 304 21:38 09.12.2019
2687 Rain 6 1002 95 0 5.42 304 21:18 09.12.2019
2688 Rain 6 1001 96 0 5.42 304 20:56 09.12.2019
2689 Rain 6 1001 96 0 5.42 304 20:38 09.12.2019
2690 Rain 7 1000 95 0 6.51 287 20:20 09.12.2019
2691 Rain 7 1000 90 0 6.51 287 19:55 09.12.2019
2692 Rain 7 999 90 0 6.51 287 19:37 09.12.2019
2693 Rain 7 999 89 0 6.51 287 19:19 09.12.2019
2694 Rain 7 998 89 0 6.51 287 18:56 09.12.2019
2695 Rain 7 998 89 0 6.51 287 18:37 09.12.2019
2696 Rain 7 997 91 0 6.51 287 18:19 09.12.2019
2697 Rain 7 997 91 0 6.51 287 17:57 09.12.2019
2698 Rain 7 996 91 0 6.51 287 17:38 09.12.2019
2699 Rain 7 998 99 0 1.34 0 17:20 09.12.2019
2700 Rain 7 995 92 0 5.6 232 16:56 09.12.2019
2701 Rain 8 995 91 0 5.6 232 16:37 09.12.2019
2702 Rain 8 995 82 0 0.45 58 16:19 09.12.2019
2703 Rain 8 994 85 0 5.6 232 15:55 09.12.2019
2704 Rain 8 994 91 0 5.6 232 15:55 09.12.2019
2705 Rain 9 994 81 0 5.6 232 15:37 09.12.2019
2706 Rain 9 994 81 0 5.6 232 15:37 09.12.2019
2707 Rain 9 993 78 0 5.6 232 15:19 09.12.2019
2708 Rain 9 994 74 0 0.45 100 14:42 09.12.2019
2709 Clouds 9 994 73 0 0.89 122 14:19 09.12.2019
2710 Clouds 9 992 67 0 6.35 217 13:59 09.12.2019
2711 Clouds 9 992 67 0 6.35 217 13:39 09.12.2019
2712 Clouds 9 992 66 0 5.5 219 13:19 09.12.2019
2713 Clouds 9 992 68 0 5.5 219 12:57 09.12.2019
2714 Clouds 9 992 69 0 5.5 219 12:38 09.12.2019
2715 Clouds 9 993 75 0 5.5 219 12:20 09.12.2019
2716 Clouds 9 993 70 0 5.5 219 11:59 09.12.2019
2717 Clouds 9 993 68 0 5.5 219 11:39 09.12.2019
2718 Clouds 9 993 68 0 5.5 219 11:39 09.12.2019
2719 Clouds 9 993 66 0 6.39 213 11:21 09.12.2019
2720 Clouds 8 996 93 0 1.79 0 10:56 09.12.2019
2721 Clouds 8 993 69 0 6.39 213 10:38 09.12.2019
2722 Clouds 7 993 75 0 6.39 213 10:18 09.12.2019
2723 Clouds 7 998 88 0 6.39 213 09:41 09.12.2019
2724 Clouds 7 993 72 0 6.39 213 09:23 09.12.2019
2725 Clouds 6 993 77 0 6.39 213 08:55 09.12.2019
2726 Clouds 6 993 77 0 6.39 213 08:37 09.12.2019
2727 Clouds 6 993 77 0 5.3 219 08:19 09.12.2019
2728 Clouds 5 993 80 0 5.3 219 07:44 09.12.2019
2729 Clouds 5 993 81 0 5.3 219 07:25 09.12.2019
2730 Clouds 5 993 78 0 5.3 219 06:55 09.12.2019
2731 Clouds 5 993 79 0 5.3 219 06:29 09.12.2019
2732 Clouds 6 993 78 0 5.3 219 05:31 09.12.2019
2733 Clouds 6 993 76 0 5.02 236 04:58 09.12.2019
2734 Clouds 7 993 76 0 5.02 236 04:25 09.12.2019
2735 Clouds 8 993 75 0 5.02 236 02:28 09.12.2019
2736 Clouds 7 994 76 0 1.34 164 01:46 09.12.2019
2737 Clouds 7 992 77 0 5 222 00:57 09.12.2019
2738 Clouds 7 992 77 0 5 222 00:33 09.12.2019
2739 Clouds 8 992 76 0 5 222 23:55 08.12.2019
2740 Clouds 8 993 74 0 5 222 23:37 08.12.2019
2741 Clouds 8 993 74 0 3.45 227 23:18 08.12.2019
2742 Clouds 8 993 76 0 3.45 227 22:56 08.12.2019
2743 Clouds 8 993 79 0 3.45 227 22:38 08.12.2019
2744 Clouds 8 993 79 0 3.45 227 22:38 08.12.2019
2745 Clouds 8 993 80 0 3.45 227 22:18 08.12.2019
2746 Clouds 8 996 80 0 0.89 164 21:56 08.12.2019
2747 Clouds 8 998 82 0 3.45 227 21:37 08.12.2019
2748 Clouds 8 995 78 0 0.45 69 21:19 08.12.2019
2749 Clouds 8 994 84 0 3.45 227 20:55 08.12.2019
2750 Clouds 9 996 77 0 0.89 76 20:37 08.12.2019
2751 Clouds 9 996 75 0 1.34 133 20:19 08.12.2019
2752 Clouds 9 993 82 0 4.82 256 19:55 08.12.2019
2753 Clouds 9 994 86 0 4.82 256 19:36 08.12.2019
2754 Clouds 10 998 86 0 4.82 256 19:18 08.12.2019
2755 Clouds 10 998 86 0 4.82 256 19:18 08.12.2019
2756 Clouds 10 993 90 0 4.82 256 18:54 08.12.2019
2757 Clouds 10 993 90 0 4.82 256 18:54 08.12.2019
2758 Clouds 10 993 93 0 4.82 256 18:36 08.12.2019
2759 Clouds 10 993 95 0 4.82 256 18:18 08.12.2019
2760 Clouds 10 993 98 0 4.82 256 17:54 08.12.2019
2761 Clouds 10 993 10 0 4.82 256 17:36 08.12.2019
2762 Clouds 10 993 10 0 7.74 223 17:18 08.12.2019
2763 Clouds 10 993 10 0 7.74 223 17:18 08.12.2019
2764 Clouds 11 993 10 0 7.74 223 16:55 08.12.2019
2765 Clouds 11 993 94 0 7.74 223 16:37 08.12.2019
2766 Clouds 11 996 78 0 1.79 62 16:18 08.12.2019
2767 Clouds 11 993 76 0 7.74 223 15:38 08.12.2019
2768 Clouds 11 994 76 0 7.74 223 15:19 08.12.2019
2769 Clouds 10 996 85 0 1.79 0 14:58 08.12.2019
2770 Clouds 10 996 76 0 1.34 77 14:39 08.12.2019
2771 Clouds 10 1000 86 0 0.45 225 14:20 08.12.2019
2772 Clouds 10 994 77 0 9.88 231 13:54 08.12.2019
2773 Clouds 10 994 76 0 9.88 231 13:36 08.12.2019
2774 Clouds 10 994 76 0 10.13 229 13:18 08.12.2019
2775 Clouds 10 997 78 0 1.34 105 12:41 08.12.2019
2776 Clouds 10 995 82 0 10.13 229 12:23 08.12.2019
2777 Clouds 10 995 85 0 10.13 229 12:00 08.12.2019
2778 Clouds 10 996 78 0 10.13 229 11:38 08.12.2019
2779 Clouds 9 996 72 0 7.47 223 11:19 08.12.2019
2780 Clouds 9 996 73 0 7.47 223 10:58 08.12.2019
2781 Clouds 9 996 74 0 7.47 223 10:38 08.12.2019
2782 Clouds 9 997 78 0 7.47 223 10:19 08.12.2019
2783 Clouds 8 997 78 0 7.47 223 09:56 08.12.2019
2784 Clouds 8 1003 79 0 0.45 248 09:37 08.12.2019
2785 Clouds 8 1003 79 0 0.45 248 09:19 08.12.2019
2786 Clouds 8 1003 79 0 0.89 186 08:57 08.12.2019
2787 Clouds 8 1004 80 0 1.79 186 08:37 08.12.2019
2788 Clouds 7 1004 80 0 2.68 184 08:18 08.12.2019
2789 Clouds 8 1004 83 0 2.68 195 07:42 08.12.2019
2790 Clouds 8 1005 84 0 0.45 166 07:19 08.12.2019
2791 Clouds 8 1006 82 0 0.45 233 06:50 08.12.2019
2792 Clouds 8 1001 76 0 5.91 204 06:22 08.12.2019
2793 Clouds 8 1007 85 0 5.91 204 05:48 08.12.2019
2794 Clouds 8 1007 80 0 0.45 167 05:18 08.12.2019
2795 Clouds 8 1009 78 0 1.34 150 03:50 08.12.2019
2796 Clouds 8 1009 77 0 1.34 155 03:22 08.12.2019
2797 Clouds 8 1010 77 0 1.34 186 02:39 08.12.2019
2798 Clouds 8 1010 76 0 0.45 296 01:55 08.12.2019
2799 Clouds 8 1011 78 0 4.55 220 01:23 08.12.2019
2800 Clouds 8 1011 81 0 0.45 52 00:40 08.12.2019
2801 Clouds 8 1012 81 0 4.43 225 00:20 08.12.2019
2802 Clouds 8 1012 81 0 4.43 225 00:20 08.12.2019
2803 Clouds 8 1012 81 0 4.43 225 23:41 07.12.2019
2804 Clouds 8 1012 83 0 1.34 177 23:21 07.12.2019
2805 Clouds 8 1012 83 0 1.34 177 23:21 07.12.2019
2806 Clouds 8 1012 83 0 4.84 248 22:58 07.12.2019
2807 Clouds 8 1012 84 0 4.84 248 22:40 07.12.2019
2808 Clouds 8 1012 84 0 4.84 248 22:40 07.12.2019
2809 Clouds 8 1012 82 0 0.89 232 22:21 07.12.2019
2810 Clouds 8 1012 83 0 1.79 219 21:56 07.12.2019
2811 Clouds 8 1009 82 0 1.79 67 21:38 07.12.2019
2812 Clouds 8 1012 86 0 0.89 249 21:20 07.12.2019
2813 Clouds 8 1012 86 0 0.89 232 20:59 07.12.2019
2814 Clouds 8 1012 86 0 0.45 310 20:37 07.12.2019
2815 Clouds 8 1012 86 0 5.47 257 20:19 07.12.2019
2816 Clouds 8 1012 85 0 1.34 250 19:56 07.12.2019
2817 Clouds 8 1012 85 0 3.58 267 19:38 07.12.2019
2818 Clouds 8 1012 86 0 3.13 256 19:20 07.12.2019
2819 Clouds 8 1012 86 0 1.34 276 18:55 07.12.2019
2820 Clouds 8 1012 88 0 1.79 277 18:36 07.12.2019
2821 Clouds 8 1011 87 0 1.34 290 18:18 07.12.2019
2822 Clouds 8 1011 86 0 1.79 236 17:42 07.12.2019
2823 Rain 9 1011 87 0 0.89 277 17:24 07.12.2019
2824 Rain 9 1011 87 0 2.24 238 16:58 07.12.2019
2825 Rain 9 1010 86 0 2.68 276 16:39 07.12.2019
2826 Rain 9 1010 88 0 1.34 250 16:21 07.12.2019
2827 Rain 9 1010 89 0 1.79 246 15:57 07.12.2019
2828 Rain 9 1010 89 0 1.79 246 15:57 07.12.2019
2829 Rain 9 1010 89 0 0.45 242 15:38 07.12.2019
2830 Rain 9 1010 89 0 4.92 263 15:20 07.12.2019
2831 Rain 10 1009 88 0 1.79 270 14:42 07.12.2019
2832 Clouds 10 1004 86 0 8.92 264 14:19 07.12.2019
2833 Clouds 9 1009 84 0 1.79 265 13:59 07.12.2019
2834 Clouds 9 1009 81 0 1.34 308 13:39 07.12.2019
2835 Clouds 9 1009 81 0 1.34 308 13:39 07.12.2019
2836 Clouds 9 1009 81 0 1.34 301 13:19 07.12.2019
2837 Clouds 10 1009 82 0 1.79 232 12:54 07.12.2019
2838 Clouds 9 1009 82 0 1.34 280 12:36 07.12.2019
2839 Clouds 10 1009 82 0 0.45 246 12:36 07.12.2019
2840 Clouds 10 1008 81 0 3.13 208 12:18 07.12.2019
2841 Clouds 10 1008 86 0 1.34 259 11:41 07.12.2019
2842 Clouds 10 1008 86 0 0.45 191 11:23 07.12.2019
2843 Clouds 9 1008 82 0 3.58 243 10:55 07.12.2019
2844 Clouds 9 1008 83 0 2.68 219 10:36 07.12.2019
2845 Clouds 9 1008 84 0 1.34 0 10:18 07.12.2019
2846 Clouds 8 1007 86 0 1.34 225 09:39 07.12.2019
2847 Clouds 8 1007 84 0 0.45 256 09:21 07.12.2019
2848 Clouds 8 1007 86 0 4.02 260 08:45 07.12.2019
2849 Clouds 8 1006 87 0 0.45 286 08:25 07.12.2019
2850 Rain 8 1006 87 0 1.79 232 08:25 07.12.2019
2851 Rain 8 1006 87 0 1.79 232 08:25 07.12.2019
2852 Rain 8 1006 86 0 3.58 242 07:53 07.12.2019
2853 Rain 8 1005 87 0 2.24 179 07:29 07.12.2019
2854 Rain 8 1004 88 0 2.68 249 06:53 07.12.2019
2855 Rain 8 1004 88 0 2.68 249 06:53 07.12.2019
2856 Rain 8 1004 88 0 4.02 211 06:28 07.12.2019
2857 Rain 8 1004 85 0 2.68 259 05:50 07.12.2019
2858 Clouds 7 1003 84 0 1.34 190 04:48 07.12.2019
2859 Clouds 7 1003 84 0 1.34 190 04:48 07.12.2019
2860 Clouds 7 1002 84 0 1.79 218 03:51 07.12.2019
2861 Clouds 7 1003 87 0 1.79 208 02:47 07.12.2019
2862 Rain 7 1003 87 0 2.68 197 02:18 07.12.2019
2863 Rain 7 1003 85 0 1.79 193 01:25 07.12.2019
2864 Rain 7 1003 83 0 0.45 87 00:42 07.12.2019
2865 Rain 6 1004 83 0 1.34 219 00:18 07.12.2019
2866 Rain 6 1004 85 0 0.45 181 23:44 06.12.2019
2867 Clouds 6 1004 85 0 1.79 172 23:23 06.12.2019
2868 Clouds 6 1004 85 0 1.34 135 22:58 06.12.2019
2869 Clouds 6 1004 85 0 1.34 135 22:58 06.12.2019
2870 Clouds 6 1004 86 0 2.68 193 22:36 06.12.2019
2871 Clouds 5 1004 86 0 1.34 190 22:18 06.12.2019
2872 Clouds 5 1005 86 0 1.79 145 21:56 06.12.2019
2873 Clouds 5 1005 87 0 0.45 172 21:37 06.12.2019
2874 Clouds 5 1005 87 0 2.24 203 21:19 06.12.2019
2875 Clouds 5 1005 86 0 1.79 153 20:42 06.12.2019
2876 Rain 5 1006 86 0 0.89 143 20:21 06.12.2019
2877 Clouds 4 1006 86 0 1.34 167 19:57 06.12.2019
2878 Clouds 4 1006 85 0 2.68 172 19:38 06.12.2019
2879 Clouds 4 1006 86 0 1.79 126 19:20 06.12.2019
2880 Clouds 4 1007 87 0 2.24 145 18:44 06.12.2019
2881 Clouds 4 1007 88 0 1.79 207 18:23 06.12.2019
2882 Clouds 4 1007 88 0 1.79 207 18:23 06.12.2019
2883 Clouds 4 1007 88 0 1.79 176 17:58 06.12.2019
2884 Clouds 4 1007 85 0 1.79 176 17:40 06.12.2019
2885 Rain 4 1007 83 0 2.24 200 17:22 06.12.2019
2886 Rain 4 1007 83 0 2.24 188 16:59 06.12.2019
2887 Rain 4 1008 83 0 1.79 197 16:40 06.12.2019
2888 Rain 4 1003 88 0 6.02 213 16:21 06.12.2019
2889 Rain 4 1003 89 0 6.02 213 15:56 06.12.2019
2890 Rain 4 1003 89 0 6.02 213 15:37 06.12.2019
2891 Rain 4 1009 86 0 1.34 180 15:18 06.12.2019
2892 Rain 4 1009 86 0 1.34 180 15:18 06.12.2019
2893 Rain 4 1009 88 0 0.89 173 14:41 06.12.2019
2894 Rain 4 1009 87 0 0.89 176 14:20 06.12.2019
2895 Rain 4 1009 87 0 0.89 193 13:58 06.12.2019
2896 Rain 4 1009 87 0 1.79 184 13:40 06.12.2019
2897 Rain 4 1010 87 0 5.2 226 13:21 06.12.2019
2898 Rain 4 1010 88 0 1.79 187 12:41 06.12.2019
2899 Rain 4 1011 89 0 0.45 152 12:22 06.12.2019
2900 Rain 4 1011 89 0 1.34 190 11:55 06.12.2019
2901 Rain 4 1011 88 0 0.89 173 11:37 06.12.2019
2902 Clouds 4 1011 87 0 1.34 210 11:19 06.12.2019
2903 Clouds 3 1007 93 0 4.98 230 10:42 06.12.2019
2904 Clouds 3 1012 85 0 0.89 139 10:21 06.12.2019
2905 Clouds 3 1012 84 0 1.34 195 09:57 06.12.2019
2906 Clouds 3 1012 84 0 1.34 167 09:37 06.12.2019
2907 Clouds 3 1012 85 0 0.89 157 09:19 06.12.2019
2908 Clouds 3 1012 86 0 0.89 193 08:45 06.12.2019
2909 Clouds 2 1012 86 0 1.34 172 08:26 06.12.2019
2910 Clouds 2 1012 88 0 0.45 156 07:44 06.12.2019
2911 Clouds 2 1012 88 0 5.48 213 07:23 06.12.2019
2912 Clouds 2 1007 78 0 5.48 213 06:58 06.12.2019
2913 Clouds 1 1012 89 0 0.45 148 06:26 06.12.2019
2914 Clouds 0 1012 89 0 0.45 156 05:52 06.12.2019
2915 Clear 2 1010 84 0 3.13 245 04:52 06.12.2019
2916 Clouds 0 1016 62 0 3.64 222 01:49 06.12.2019
2917 Clouds 0 1017 66 0 3.6 226 01:22 06.12.2019
2918 Clouds 0 1017 66 0 3.6 226 00:39 06.12.2019
2919 Clouds 0 1017 66 0 3.6 226 00:20 06.12.2019
2920 Clouds 0 1017 66 0 3.6 226 23:41 05.12.2019
2921 Clouds 0 1018 71 0 3.36 199 23:18 05.12.2019
2922 Clouds 0 1018 71 0 3.36 199 22:56 05.12.2019
2923 Clouds 0 1018 71 0 3.36 199 22:37 05.12.2019
2924 Clouds 0 1018 71 0 3.36 199 22:18 05.12.2019
2925 Clouds 0 1018 71 0 3.36 199 22:18 05.12.2019
2926 Clouds 0 1018 71 0 3.36 199 21:43 05.12.2019
2927 Clouds 0 1018 71 0 3.36 199 21:25 05.12.2019
2928 Clouds 0 1018 71 0 3.36 199 20:59 05.12.2019
2929 Clouds 0 1018 71 0 3.36 199 20:40 05.12.2019
2930 Clouds 1 1019 93 0 2.01 241 20:20 05.12.2019
2931 Clouds 1 1019 93 0 2.12 242 20:20 05.12.2019
2932 Clouds 1 1019 93 0 2.01 241 20:20 05.12.2019
2933 Clouds 1 1019 93 0 2.12 242 20:20 05.12.2019
2934 Clouds 1 1019 92 0 2.01 241 19:57 05.12.2019
2935 Clouds 1 1019 92 0 2.01 241 19:57 05.12.2019
2936 Clouds 1 1019 92 0 2.01 241 19:39 05.12.2019
2937 Clouds 1 1018 86 0 2.01 241 19:20 05.12.2019
2938 Clouds 1 1018 85 0 2.01 241 18:57 05.12.2019
2939 Clouds 1 1018 85 0 2.01 241 18:37 05.12.2019
2940 Clouds 1 1018 84 0 2.01 241 18:19 05.12.2019
2941 Clouds 1 1018 85 0 2.01 241 18:19 05.12.2019
2942 Clouds 2 1018 84 0 2.01 241 17:39 05.12.2019
2943 Clear 2 1018 83 0 1.3 212 17:20 05.12.2019
2944 Clear 2 1018 90 0 1.3 212 16:57 05.12.2019
2945 Clear 3 1018 90 0 1.3 212 16:39 05.12.2019
2946 Clear 3 1014 80 0 1.3 212 16:21 05.12.2019
2947 Clear 3 1018 89 0 1.3 212 15:57 05.12.2019
2948 Clear 4 1018 88 0 0.45 157 15:38 05.12.2019
2949 Clear 4 1018 86 0 0.89 139 15:20 05.12.2019
2950 Clear 4 1018 85 0 0.45 135 14:55 05.12.2019
2951 Clear 5 1018 85 0 0.45 138 14:37 05.12.2019
2952 Clear 5 1018 84 0 0.45 172 14:19 05.12.2019
2953 Clear 6 1019 84 0 0.45 139 13:56 05.12.2019
2954 Clear 5 1019 84 0 0.45 231 13:38 05.12.2019
2955 Clear 5 1019 84 0 1.46 216 13:19 05.12.2019
2956 Clear 6 1019 85 0 0.45 222 12:56 05.12.2019
2957 Clear 5 1019 85 0 1.46 216 12:38 05.12.2019
2958 Clear 5 1019 86 0 0.45 187 12:19 05.12.2019
2959 Clear 5 1016 78 0 1.46 216 11:39 05.12.2019
2960 Clear 3 1020 92 0 1.54 286 11:21 05.12.2019
2961 Clear 3 1020 92 0 1.54 286 11:21 05.12.2019
2962 Clear 3 1020 93 0 1.54 286 10:58 05.12.2019
2963 Clear 2 1020 93 0 1.54 286 10:40 05.12.2019
2964 Clear 1 1020 93 0 1.54 286 10:19 05.12.2019
2965 Clear 2 1016 85 0 1.54 286 09:55 05.12.2019
2966 Clear 1 1016 85 0 1.54 286 09:37 05.12.2019
2967 Clear 4 1021 71 0 1.54 286 09:18 05.12.2019
2968 Clear 4 1021 71 0 1.54 286 08:39 05.12.2019
2969 Clear -1 1019 92 0 1.08 261 08:20 05.12.2019
2970 Clear -1 1019 92 0 1.08 261 07:58 05.12.2019
2971 Clear -1 1018 99 0 0.45 0 07:39 05.12.2019
2972 Clear -1 1019 92 0 1.08 261 07:20 05.12.2019
2973 Clear -1 1019 92 0 1.08 261 06:46 05.12.2019
2974 Clear -1 1019 93 0 1.08 261 06:23 05.12.2019
2975 Clear -1 1019 93 0 1.08 261 05:49 05.12.2019
2976 Clear -1 1019 93 0 1.08 261 05:24 05.12.2019
2977 Clear -1 1019 93 0 2.18 167 04:33 05.12.2019
2978 Clear -1 1020 93 0 2.18 167 03:31 05.12.2019
2979 Clear -1 1020 92 0 2.18 167 02:41 05.12.2019
2980 Clear -1 1020 92 0 2.74 178 02:21 05.12.2019
2981 Clear 0 1020 92 0 2.74 178 01:49 05.12.2019
2982 Clear 0 1020 92 0 2.33 179 01:22 05.12.2019
2983 Clear -1 1021 92 0 2.33 179 00:38 05.12.2019
2984 Clear -1 1021 93 0 2.33 179 00:20 05.12.2019
2985 Clear -1 1021 93 0 2.33 179 00:20 05.12.2019
2986 Clear -1 1021 92 0 2.33 179 23:45 04.12.2019
2987 Clear 0 1021 92 0 2.1 164 23:22 04.12.2019
2988 Clear 1 1021 92 0 2.1 164 22:59 04.12.2019
2989 Clear 0 1021 92 0 2.1 164 22:38 04.12.2019
2990 Clear 0 1021 91 0 2.1 164 22:19 04.12.2019
2991 Clear 0 1022 91 0 2.1 164 21:57 04.12.2019
2992 Clear 0 1022 91 0 2.1 164 21:38 04.12.2019
2993 Clear 1 1022 91 0 2.1 164 21:19 04.12.2019
2994 Clear 1 1022 92 0 2.1 164 20:57 04.12.2019
2995 Clear 1 1022 91 0 2.1 164 20:39 04.12.2019
2996 Clear 1 1022 91 0 1.81 154 20:20 04.12.2019
2997 Clear 1 1022 91 0 1.81 154 19:55 04.12.2019
2998 Clear 1 1022 91 0 1.81 154 19:37 04.12.2019
2999 Clear 1 1022 91 0 1.81 154 19:19 04.12.2019
3000 Clear 1 1022 91 0 1.81 154 18:42 04.12.2019
3001 Clear 1 1022 91 0 1.81 154 18:24 04.12.2019
3002 Clear 2 1022 91 0 1.81 154 17:59 04.12.2019
3003 Clear 3 1022 91 0 1.81 154 17:39 04.12.2019
3004 Clear 3 1022 91 0 1.81 154 17:39 04.12.2019
3005 Clear 3 1022 90 0 1.28 135 17:20 04.12.2019
3006 Clear 4 1022 90 0 1.28 135 16:56 04.12.2019
3007 Clear 4 1022 89 0 1.28 135 16:38 04.12.2019
3008 Clear 5 1022 89 0 1.28 135 16:19 04.12.2019
3009 Clear 5 1022 89 0 1.28 135 16:19 04.12.2019
3010 Clear 5 1022 89 0 1.28 135 15:55 04.12.2019
3011 Clear 5 1022 87 0 1.28 135 15:36 04.12.2019
3012 Clear 6 1022 86 0 1.28 135 15:18 04.12.2019
3013 Clear 6 1027 77 0 1.79 180 14:43 04.12.2019
3014 Clear 7 1022 79 0 1.28 135 14:23 04.12.2019
3015 Clear 8 1022 77 0 1.11 173 13:57 04.12.2019
3016 Clear 8 1023 77 0 1.11 173 13:37 04.12.2019
3017 Clear 8 1023 77 0 1.11 173 13:19 04.12.2019
3018 Clear 8 1023 79 0 1.26 169 12:44 04.12.2019
3019 Clear 8 1023 79 0 0.45 167 12:24 04.12.2019
3020 Clear 7 1024 82 0 0.45 167 11:55 04.12.2019
3021 Clear 7 1024 84 0 1.26 169 11:37 04.12.2019
3022 Clear 6 1024 85 0 0.45 211 11:19 04.12.2019
3023 Clear 5 1024 88 0 0.45 205 10:43 04.12.2019
3024 Clear 5 1024 89 0 2.04 205 10:23 04.12.2019
3025 Clear 5 1024 89 0 2.04 205 10:23 04.12.2019
3026 Clear 4 1024 91 0 2.04 205 09:56 04.12.2019
3027 Clear 3 1024 92 0 2.04 205 09:37 04.12.2019
3028 Clear 3 1024 92 0 2.04 205 09:18 04.12.2019
3029 Clear 3 1024 92 0 0.45 167 08:40 04.12.2019
3030 Clouds 2 1024 92 0 0.89 179 08:21 04.12.2019
3031 Clouds 2 1023 91 0 1.53 233 07:48 04.12.2019
3032 Clouds 2 1023 92 0 1.53 233 07:30 04.12.2019
3033 Clouds 3 1023 91 0 1.53 233 06:36 04.12.2019
3034 Clouds 3 1023 90 0 1.53 233 05:48 04.12.2019
3035 Clouds 3 1024 90 0 1.53 233 05:29 04.12.2019
3036 Clouds 4 1024 89 0 0.45 109 04:30 04.12.2019
3037 Clouds 4 1024 89 0 2.66 233 02:59 04.12.2019
3038 Clouds 5 1024 89 0 2.68 239 00:53 04.12.2019
3039 Clouds 5 1025 89 0 2.68 239 00:28 04.12.2019
3040 Clouds 5 1025 88 0 2.68 239 23:59 03.12.2019
3041 Clouds 5 1025 87 0 2.68 239 23:41 03.12.2019
3042 Clouds 6 1025 87 0 3.02 241 23:19 03.12.2019
3043 Clouds 6 1025 88 0 3.02 241 22:41 03.12.2019
3044 Clouds 6 1025 88 0 3.02 241 22:19 03.12.2019
3045 Clouds 6 1025 86 0 3.02 241 21:59 03.12.2019
3046 Clouds 6 1025 86 0 3.02 241 21:39 03.12.2019
3047 Clouds 6 1025 87 0 3.02 241 21:19 03.12.2019
3048 Clouds 6 1025 87 0 3.02 241 20:58 03.12.2019
3049 Clouds 6 1025 88 0 0.45 190 20:40 03.12.2019
3050 Clouds 6 1025 88 0 0.45 217 20:19 03.12.2019
3051 Clouds 6 1026 87 0 0.45 200 19:55 03.12.2019
3052 Clouds 6 1026 87 0 0.45 200 19:55 03.12.2019
3053 Clouds 6 1026 87 0 3.07 239 19:37 03.12.2019
3054 Clouds 6 1026 86 0 3.07 239 19:19 03.12.2019
3055 Clouds 6 1025 86 0 3.07 239 18:57 03.12.2019
3056 Clouds 6 1025 86 0 3.07 239 18:57 03.12.2019
3057 Clouds 6 1025 85 0 1.34 252 18:39 03.12.2019
3058 Clouds 6 1025 85 0 0.45 267 18:21 03.12.2019
3059 Clouds 6 1025 85 0 3.13 248 17:56 03.12.2019
3060 Clouds 6 1026 84 0 0.89 280 17:38 03.12.2019
3061 Clouds 6 1026 84 0 0.89 280 17:38 03.12.2019
3062 Clouds 6 1026 85 0 0.89 255 17:18 03.12.2019
3063 Clouds 6 1026 85 0 0.89 255 17:18 03.12.2019
3064 Clouds 6 1026 85 0 0.45 291 16:57 03.12.2019
3065 Clouds 6 1026 85 0 1.34 289 16:38 03.12.2019
3066 Clouds 6 1026 84 0 2.24 258 16:20 03.12.2019
3067 Clouds 6 1021 95 0 3.19 275 15:56 03.12.2019
3068 Clouds 6 1022 94 0 3.19 275 15:38 03.12.2019
3069 Clouds 6 1022 94 0 3.19 275 15:18 03.12.2019
3070 Clouds 6 1026 92 0 3.19 275 14:42 03.12.2019
3071 Clouds 6 1026 83 0 0.45 276 14:20 03.12.2019
3072 Clouds 6 1026 84 0 1.34 258 13:56 03.12.2019
3073 Clouds 6 1022 10 0 2.56 255 13:37 03.12.2019
3074 Clouds 6 1026 85 0 0.45 177 13:18 03.12.2019
3075 Clouds 6 1024 99 0 0.45 0 12:41 03.12.2019
3076 Clouds 6 1022 10 0 2.51 255 12:19 03.12.2019
3077 Clouds 6 1026 86 0 1.34 263 11:58 03.12.2019
3078 Clouds 5 1022 10 0 2.51 255 11:39 03.12.2019
3079 Clouds 5 1022 99 0 2.23 255 11:21 03.12.2019
3080 Clouds 5 1022 99 0 2.23 255 10:59 03.12.2019
3081 Clouds 5 1023 99 0 2.23 255 10:41 03.12.2019
3082 Clouds 5 1027 88 0 2.23 255 10:20 03.12.2019
3083 Clouds 4 1027 89 0 2.23 255 09:46 03.12.2019
3084 Clouds 4 1027 90 0 0.89 291 09:26 03.12.2019
3085 Clouds 4 1027 92 0 1.34 294 08:59 03.12.2019
3086 Clouds 3 1027 93 0 0.89 296 08:41 03.12.2019
3087 Clouds 3 1026 93 0 0.45 249 08:22 03.12.2019
3088 Clouds 3 1026 92 0 2.85 283 07:54 03.12.2019
3089 Clouds 3 1026 92 0 2.85 283 07:31 03.12.2019
3090 Clouds 3 1026 91 0 2.85 283 06:59 03.12.2019
3091 Clouds 3 1026 91 0 2.85 283 06:23 03.12.2019
3092 Clouds 3 1026 91 0 0.89 267 05:58 03.12.2019
3093 Rain 3 1026 91 0 0.45 303 04:49 03.12.2019
3094 Rain 3 1021 10 0 2.88 266 03:39 03.12.2019
3095 Rain 3 1026 89 0 0.45 260 03:19 03.12.2019
3096 Rain 3 1025 89 0 0.45 321 02:47 03.12.2019
3097 Rain 3 1025 89 0 2.88 266 02:26 03.12.2019
3098 Clouds 3 1025 88 0 0.45 212 01:42 03.12.2019
3099 Clouds 3 1021 95 0 3.41 287 01:23 03.12.2019
3100 Rain 3 1025 88 0 3.68 280 00:55 03.12.2019
3101 Rain 3 1025 88 0 3.68 280 00:37 03.12.2019
3102 Rain 3 1025 88 0 0.89 308 00:18 03.12.2019
3103 Rain 3 1025 89 0 1.34 301 23:42 02.12.2019
3104 Clouds 3 1025 91 0 1.34 303 23:19 02.12.2019
3105 Clouds 3 1024 93 0 0.89 293 22:42 02.12.2019
3106 Clouds 3 1024 94 0 0.89 293 22:22 02.12.2019
3107 Clouds 3 1024 92 0 4.84 288 21:58 02.12.2019
3108 Clouds 3 1024 92 0 0.89 297 21:37 02.12.2019
3109 Clouds 3 1023 92 0 4.84 288 21:19 02.12.2019
3110 Clouds 3 1023 92 0 0.45 256 20:56 02.12.2019
3111 Clouds 3 1023 91 0 0.89 296 20:38 02.12.2019
3112 Rain 4 1022 90 0 5.44 290 20:20 02.12.2019
3113 Rain 4 1021 87 0 0.45 240 19:55 02.12.2019
3114 Rain 4 1021 87 0 0.45 260 19:36 02.12.2019
3115 Rain 4 1020 99 0 1.79 0 19:18 02.12.2019
3116 Rain 4 1020 99 0 1.34 0 18:42 02.12.2019
3117 Rain 4 1019 99 0 1.79 0 18:20 02.12.2019
3118 Rain 4 1022 93 0 3.13 303 17:58 02.12.2019
3119 Rain 4 1019 99 0 1.79 0 17:40 02.12.2019
3120 Rain 5 1019 99 0 1.79 0 17:20 02.12.2019
3121 Rain 5 1017 86 0 0.45 194 16:54 02.12.2019
3122 Rain 5 1019 99 0 1.79 0 16:36 02.12.2019
3123 Rain 5 1019 99 0 1.79 0 16:18 02.12.2019
3124 Rain 5 1017 86 0 0.45 34 15:55 02.12.2019
3125 Rain 5 1017 86 0 0.45 117 15:36 02.12.2019
3126 Rain 5 1020 87 0 6.4 273 15:18 02.12.2019
3127 Rain 5 1020 86 0 6.4 273 14:39 02.12.2019
3128 Clouds 5 1017 84 0 0.89 124 14:20 02.12.2019
3129 Clouds 5 1017 84 0 0.89 124 14:20 02.12.2019
3130 Clouds 5 1017 95 0 6.45 292 13:58 02.12.2019
3131 Clouds 5 1021 85 0 6.45 292 13:39 02.12.2019
3132 Clouds 5 1017 86 0 6.11 284 13:20 02.12.2019
3133 Clouds 5 1017 84 0 6.11 284 12:57 02.12.2019
3134 Clouds 5 1021 80 0 2.68 298 12:38 02.12.2019
3135 Clouds 5 1021 80 0 2.68 284 12:20 02.12.2019
3136 Clouds 5 1021 82 0 1.79 293 11:56 02.12.2019
3137 Clouds 5 1021 82 0 1.79 286 11:37 02.12.2019
3138 Clouds 4 1021 83 0 1.79 313 11:18 02.12.2019
3139 Clouds 4 1021 84 0 0.45 280 10:55 02.12.2019
3140 Clouds 4 1021 84 0 0.89 267 10:36 02.12.2019
3141 Clouds 4 1021 85 0 0.45 229 10:18 02.12.2019
3142 Clouds 3 1021 87 0 1.79 293 09:40 02.12.2019
3143 Clouds 3 1020 88 0 6.46 282 09:19 02.12.2019
3144 Clouds 3 1020 90 0 6.46 282 08:56 02.12.2019
3145 Clouds 3 1020 91 0 1.79 345 08:38 02.12.2019
3146 Clouds 3 1020 90 0 4.12 274 08:20 02.12.2019
3147 Clouds 2 1020 90 0 0.45 203 07:42 02.12.2019
3148 Clouds 2 1020 91 0 1.34 301 07:21 02.12.2019
3149 Clouds 2 1020 93 0 4.3 270 06:56 02.12.2019
3150 Clouds 2 1020 94 0 0.89 296 06:37 02.12.2019
3151 Clouds 2 1019 92 0 1.34 250 05:25 02.12.2019
3152 Clouds 2 1019 92 0 3.37 275 04:21 02.12.2019
3153 Clouds 2 1020 92 0 3.37 275 02:53 02.12.2019
3154 Clouds 2 1020 92 0 2.35 277 02:26 02.12.2019
3155 Clouds 2 1020 92 0 2.57 285 01:25 02.12.2019
3156 Clouds 2 1020 92 0 2.57 285 00:57 02.12.2019
3157 Clouds 2 1016 10 0 2.57 285 00:25 02.12.2019
3158 Clouds 2 1019 91 0 2.57 285 23:54 01.12.2019
3159 Clouds 2 1016 10 0 2.57 285 23:36 01.12.2019
3160 Clouds 2 1020 92 0 0.45 251 23:18 01.12.2019
3161 Clouds 2 1020 93 0 0.45 251 22:54 01.12.2019
3162 Clouds 2 1020 93 0 0.45 251 22:36 01.12.2019
3163 Clouds 2 1020 93 0 0.45 251 22:18 01.12.2019
3164 Clouds 2 1020 93 0 0.45 251 21:54 01.12.2019
3165 Clouds 2 1020 93 0 0.45 251 21:54 01.12.2019
3166 Clouds 2 1020 93 0 0.45 251 21:36 01.12.2019
3167 Clouds 2 1020 93 0 0.45 251 21:18 01.12.2019
3168 Clouds 2 1020 93 0 0.45 251 20:54 01.12.2019
3169 Clouds 2 1020 93 0 0.45 251 20:36 01.12.2019
3170 Clouds 2 1020 93 0 0.45 251 20:36 01.12.2019
3171 Clouds 2 1020 92 0 1.2 42 20:18 01.12.2019
3172 Clouds 2 1020 92 0 1.2 42 19:54 01.12.2019
3173 Clouds 2 1020 92 0 1.2 42 19:36 01.12.2019
3174 Clouds 2 1020 92 0 1.2 42 19:18 01.12.2019
3175 Clouds 2 1020 92 0 1.2 42 18:54 01.12.2019
3176 Clouds 2 1021 92 0 0.45 7 18:36 01.12.2019
3177 Clouds 3 1021 92 0 1.2 42 18:18 01.12.2019
3178 Clouds 3 1021 92 0 1.2 42 17:41 01.12.2019
3179 Clouds 3 1021 92 0 1.56 50 17:23 01.12.2019
3180 Clouds 3 1021 92 0 1.56 50 16:59 01.12.2019
3181 Clouds 3 1021 92 0 1.56 50 16:41 01.12.2019
3182 Clouds 3 1021 92 0 1.56 50 16:22 01.12.2019
3183 Clouds 3 1021 92 0 1.56 50 15:51 01.12.2019
3184 Clouds 3 1021 92 0 1.56 50 15:32 01.12.2019
3185 Clouds 3 1021 92 0 1.56 50 15:32 01.12.2019
3186 Clouds 4 1021 91 0 1.56 50 14:54 01.12.2019
3187 Clouds 4 1021 90 0 1.56 50 14:36 01.12.2019
3188 Clouds 4 1021 89 0 1.17 166 14:18 01.12.2019
3189 Clouds 3 1022 90 0 1.17 166 13:40 01.12.2019
3190 Clouds 3 1022 89 0 1.17 166 13:40 01.12.2019
3191 Clouds 3 1022 89 0 1.31 115 13:20 01.12.2019
3192 Clouds 3 1022 88 0 1.31 115 12:46 01.12.2019
3193 Clouds 3 1022 88 0 1.31 115 12:18 01.12.2019
3194 Clouds 3 1022 88 0 1.31 115 12:18 01.12.2019
3195 Clouds 2 1022 93 0 1.31 115 11:43 01.12.2019
3196 Clouds 2 1022 93 0 1.31 115 11:24 01.12.2019
3197 Clouds 1 1022 92 0 1.23 145 10:44 01.12.2019
3198 Clouds 1 1022 93 0 1.23 145 10:22 01.12.2019
3199 Clouds 1 1023 93 0 1.23 145 09:59 01.12.2019
3200 Clouds 1 1023 93 0 1.23 145 09:40 01.12.2019
3201 Clouds 0 1023 93 0 1.23 145 09:20 01.12.2019
3202 Clouds 0 1022 92 0 1.23 145 08:48 01.12.2019
3203 Clear -1 1022 92 0 0.71 184 08:21 01.12.2019
3204 Clear -1 1022 92 0 0.71 184 07:52 01.12.2019
3205 Clear -1 1022 91 0 0.71 184 07:31 01.12.2019
3206 Clear -1 1022 92 0 0.71 184 06:57 01.12.2019
3207 Clear -1 1022 92 0 0.71 184 06:35 01.12.2019
3208 Clear -1 1022 92 0 0.71 184 05:49 01.12.2019
3209 Clear -1 1023 92 0 0.73 279 04:53 01.12.2019
3210 Clear -1 1023 92 0 0.73 279 03:39 01.12.2019
3211 Clear -1 1023 92 0 0.73 279 02:38 01.12.2019
3212 Clear -1 1023 92 0 1.64 244 02:19 01.12.2019
3213 Clear 0 1023 92 0 1.64 244 01:52 01.12.2019
3214 Clear -1 1023 92 0 1.64 244 01:26 01.12.2019
3215 Clear -1 1023 92 0 1.67 232 00:44 01.12.2019
3216 Clear -1 1023 92 0 1.67 232 00:24 01.12.2019
3217 Clear 0 1023 93 0 1.67 232 23:44 30.11.2019
3218 Clear 0 1023 92 0 2.09 263 23:24 30.11.2019
3219 Clear 0 1023 91 0 2.09 263 22:58 30.11.2019
3220 Clear 0 1023 91 0 2.09 263 22:39 30.11.2019
3221 Clear 0 1023 92 0 2.09 263 22:20 30.11.2019
3222 Clear 1 1023 92 0 2.09 263 21:47 30.11.2019
3223 Clear 1 1023 92 0 2.09 263 21:28 30.11.2019
3224 Clear 1 1023 92 0 2.09 263 21:28 30.11.2019
3225 Clear 1 1023 92 0 2.09 263 20:58 30.11.2019
3226 Clear 1 1023 92 0 2.09 263 20:39 30.11.2019
3227 Clouds 2 1023 91 0 3.12 278 20:19 30.11.2019
3228 Clouds 2 1023 91 0 2.91 272 20:19 30.11.2019
3229 Clouds 2 1023 92 0 2.91 272 19:56 30.11.2019
3230 Clouds 2 1023 91 0 2.91 272 19:38 30.11.2019
3231 Clouds 2 1023 90 0 2.91 272 19:20 30.11.2019
3232 Clouds 3 1023 91 0 2.91 272 18:59 30.11.2019
3233 Clouds 3 1023 91 0 2.91 272 18:38 30.11.2019
3234 Clouds 3 1023 91 0 2.91 272 18:20 30.11.2019
3235 Clouds 3 1023 90 0 2.91 272 17:58 30.11.2019
3236 Clouds 3 1023 89 0 2.91 272 17:39 30.11.2019
3237 Clouds 3 1023 88 0 1.34 262 17:21 30.11.2019
3238 Clouds 4 1023 86 0 3.19 287 16:58 30.11.2019
3239 Clouds 4 1023 86 0 2.24 359 16:40 30.11.2019
3240 Clouds 4 1023 86 0 0.45 174 16:20 30.11.2019
3241 Clouds 5 1022 83 0 0.45 300 15:42 30.11.2019
3242 Clouds 5 1022 81 0 0.45 198 15:20 30.11.2019
3243 Clouds 5 1022 79 0 0.89 262 14:58 30.11.2019
3244 Clouds 5 1022 78 0 0.89 283 14:38 30.11.2019
3245 Clouds 6 1022 77 0 1.79 287 14:20 30.11.2019
3246 Clouds 6 1022 77 0 1.79 283 13:59 30.11.2019
3247 Clouds 5 1022 78 0 2.68 287 13:40 30.11.2019
3248 Clouds 5 1022 78 0 1.34 284 13:22 30.11.2019
3249 Clouds 5 1022 83 0 1.79 308 12:47 30.11.2019
3250 Clouds 5 1022 81 0 1.34 287 12:29 30.11.2019
3251 Clouds 5 1021 84 0 0.45 267 11:59 30.11.2019
3252 Clouds 4 1021 85 0 3.13 290 11:41 30.11.2019
3253 Clouds 3 1021 86 0 1.34 265 11:19 30.11.2019
3254 Clouds 2 1021 88 0 1.79 248 10:55 30.11.2019
3255 Clouds 3 1021 89 0 1.79 267 10:37 30.11.2019
3256 Clouds 3 1021 91 0 1.34 238 10:18 30.11.2019
3257 Clouds 2 1021 93 0 1.34 256 09:43 30.11.2019
3258 Clouds 1 1020 93 0 4.84 277 09:21 30.11.2019
3259 Clouds 1 1020 93 0 0.45 225 08:43 30.11.2019
3260 Clouds 1 1020 94 0 0.45 238 08:20 30.11.2019
3261 Clouds 0 1020 93 0 3.95 271 07:54 30.11.2019
3262 Clouds 0 1020 93 0 3.95 271 07:36 30.11.2019
3263 Clouds 1 1019 93 0 3.95 271 06:55 30.11.2019
3264 Clouds 1 1019 94 0 3.95 271 06:29 30.11.2019
3265 Clouds 1 1019 94 0 3.95 271 05:49 30.11.2019
3266 Clouds 0 1018 93 0 2.12 245 03:48 30.11.2019
3267 Clouds 0 1018 91 0 2.12 245 02:40 30.11.2019
3268 Clouds 0 1017 91 0 0.45 258 02:22 30.11.2019
3269 Clouds 0 1017 89 0 2.48 270 01:25 30.11.2019
3270 Clouds 0 1017 89 0 2.48 270 01:25 30.11.2019
3271 Clouds 0 1017 89 0 2.48 270 01:25 30.11.2019
3272 Clouds 1 1016 87 0 2.48 270 00:50 30.11.2019
3273 Clouds 1 1016 86 0 0.45 291 00:31 30.11.2019
3274 Clouds 1 1016 86 0 2.48 270 23:59 29.11.2019
3275 Clouds 1 1016 86 0 2.48 270 23:41 29.11.2019
3276 Clouds 1 1015 88 0 3.09 288 23:22 29.11.2019
3277 Clouds 1 1015 92 0 3.09 288 22:46 29.11.2019
3278 Clouds 1 1015 91 0 0.89 245 22:26 29.11.2019
3279 Clouds 1 1014 90 0 3.09 288 21:45 29.11.2019
3280 Clouds 1 1014 89 0 0.45 286 21:25 29.11.2019
3281 Clouds 1 1014 88 0 3.09 288 20:59 29.11.2019
3282 Clouds 1 1014 87 0 3.09 288 20:39 29.11.2019
3283 Clouds 2 1013 85 0 4.31 295 20:20 29.11.2019
3284 Clouds 2 1013 84 0 4.31 295 19:58 29.11.2019
3285 Clouds 3 1012 79 0 4.31 295 19:39 29.11.2019
3286 Clouds 3 1012 79 0 4.31 295 19:39 29.11.2019
3287 Clouds 3 1012 78 0 1.34 280 19:20 29.11.2019
3288 Clouds 3 1012 78 0 1.34 280 19:20 29.11.2019
3289 Clouds 3 1012 77 0 2.68 311 18:58 29.11.2019
3290 Clouds 3 1011 78 0 1.79 282 18:40 29.11.2019
3291 Clouds 3 1011 77 0 2.68 291 18:21 29.11.2019
3292 Clouds 4 1010 81 0 3.58 300 17:44 29.11.2019
3293 Clouds 4 1010 81 0 0.45 290 17:26 29.11.2019
3294 Rain 4 1009 82 0 1.34 289 16:59 29.11.2019
3295 Rain 5 1008 82 0 0.45 204 16:41 29.11.2019
3296 Rain 5 1007 77 0 2.68 307 16:19 29.11.2019
3297 Rain 5 1008 80 0 1.79 258 16:19 29.11.2019
3298 Rain 6 1007 77 0 1.34 308 15:42 29.11.2019
3299 Rain 6 1007 75 0 0.89 255 15:24 29.11.2019
3300 Rain 6 1006 72 0 4.47 269 14:58 29.11.2019
3301 Rain 7 1006 73 0 1.79 279 14:39 29.11.2019
3302 Rain 7 1005 75 0 2.24 280 14:21 29.11.2019
3303 Rain 7 1005 69 0 1.79 301 13:55 29.11.2019
3304 Rain 7 1005 72 0 1.34 269 13:37 29.11.2019
3305 Rain 8 1005 66 0 0.89 305 13:19 29.11.2019
3306 Rain 7 1004 73 0 2.68 286 12:41 29.11.2019
3307 Rain 7 1004 71 0 2.24 259 12:23 29.11.2019
3308 Rain 7 1003 69 0 1.79 181 11:55 29.11.2019
3309 Rain 7 1004 69 0 3.58 307 11:55 29.11.2019
3310 Rain 7 1003 70 0 0.89 329 11:36 29.11.2019
3311 Clouds 7 1003 75 0 1.79 252 11:18 29.11.2019
3312 Clouds 6 1003 75 0 1.34 258 10:56 29.11.2019
3313 Clouds 7 1003 73 0 1.79 224 10:38 29.11.2019
3314 Clouds 7 1002 77 0 1.79 267 10:19 29.11.2019
3315 Clouds 6 1002 76 0 1.34 277 09:57 29.11.2019
3316 Clouds 6 1002 78 0 0.89 263 09:38 29.11.2019
3317 Clouds 6 1001 79 0 4.02 239 09:19 29.11.2019
3318 Clouds 5 1001 81 0 2.24 236 08:54 29.11.2019
3319 Clouds 5 1001 82 0 2.24 252 08:36 29.11.2019
3320 Clouds 5 1001 82 0 2.68 243 08:18 29.11.2019
3321 Clouds 5 1000 82 0 1.34 260 07:41 29.11.2019
3322 Clouds 5 1000 84 0 0.89 272 07:22 29.11.2019
3323 Clouds 5 999 83 0 1.34 298 06:46 29.11.2019
3324 Clouds 6 999 82 0 0.89 258 06:27 29.11.2019
3325 Clouds 6 998 77 0 1.34 219 05:32 29.11.2019
3326 Clouds 7 998 74 0 0.45 259 04:49 29.11.2019
3327 Clouds 8 997 81 0 2.68 287 03:37 29.11.2019
3328 Clouds 8 996 83 0 1.34 307 03:18 29.11.2019
3329 Rain 9 995 87 0 1.79 256 02:22 29.11.2019
3330 Rain 9 995 88 0 1.34 249 01:40 29.11.2019
3331 Rain 9 994 88 0 1.34 287 01:20 29.11.2019
3332 Rain 9 994 89 0 0.89 253 00:26 29.11.2019
3333 Rain 9 993 86 0 1.34 250 23:59 28.11.2019
3334 Rain 10 993 86 0 1.79 256 23:41 28.11.2019
3335 Rain 10 993 83 0 3.13 238 23:21 28.11.2019
3336 Rain 10 992 83 0 1.34 200 22:56 28.11.2019
3337 Rain 10 992 83 0 1.79 236 22:37 28.11.2019
3338 Rain 10 992 83 0 1.79 280 22:19 28.11.2019
3339 Rain 10 992 84 0 0.45 335 21:55 28.11.2019
3340 Rain 10 992 83 0 1.79 252 21:36 28.11.2019
3341 Rain 10 992 81 0 0.45 234 21:18 28.11.2019
3342 Rain 9 992 79 0 0.89 255 20:42 28.11.2019
3343 Rain 10 991 78 0 1.34 297 20:22 28.11.2019
3344 Rain 10 991 79 0 0.89 267 19:58 28.11.2019
3345 Rain 10 991 78 0 7.1 242 19:40 28.11.2019
3346 Rain 10 991 78 0 2.24 188 19:22 28.11.2019
3347 Rain 10 991 76 0 1.79 267 18:59 28.11.2019
3348 Rain 10 990 78 0 2.24 225 18:39 28.11.2019
3349 Rain 10 991 78 0 0.45 102 18:18 28.11.2019
3350 Rain 10 990 80 0 0.89 203 17:59 28.11.2019
3351 Rain 10 990 80 0 0.89 203 17:59 28.11.2019
3352 Rain 11 990 80 0 0.89 232 17:41 28.11.2019
3353 Clouds 11 990 80 0 1.34 174 17:21 28.11.2019
3354 -273 0 0 0 0 0 16:57 28.11.2019
3355 Clouds 11 990 81 0 3.13 228 16:56 28.11.2019
3356 Clouds 11 990 79 0 2.68 217 16:38 28.11.2019
3357 Clouds 11 990 78 0 0.45 193 16:18 28.11.2019
3358 Clouds 11 990 78 0 0.45 193 16:18 28.11.2019
3359 Clouds 11 990 72 0 4.02 197 15:41 28.11.2019
3360 Clouds 12 990 70 0 1.79 173 15:20 28.11.2019
3361 Clouds 11 990 69 0 0.45 169 14:59 28.11.2019
3362 Clouds 12 990 68 0 1.34 138 14:41 28.11.2019
3363 Clouds 12 990 69 0 1.34 194 14:21 28.11.2019
3364 Clouds 12 990 67 0 6.52 216 13:57 28.11.2019
3365 Clouds 12 990 67 0 1.79 225 13:39 28.11.2019
3366 Clouds 12 990 65 0 2.68 184 13:21 28.11.2019
3367 Clouds 12 990 70 0 0.89 193 12:43 28.11.2019
3368 Clouds 12 990 71 0 1.34 215 12:24 28.11.2019
3369 Clouds 12 991 70 0 1.34 179 11:58 28.11.2019
3370 Clouds 12 990 71 0 0.45 204 11:39 28.11.2019
3371 Clouds 12 991 74 0 2.68 184 11:20 28.11.2019
3372 Clouds 12 991 74 0 2.68 184 11:20 28.11.2019
3373 Clouds 12 991 76 0 8.34 212 10:56 28.11.2019
3374 Clouds 11 991 77 0 0.89 207 10:38 28.11.2019
3375 Clouds 11 991 75 0 1.34 162 10:18 28.11.2019
3376 Clouds 10 991 76 0 2.24 167 09:41 28.11.2019
3377 Clouds 10 991 78 0 1.34 172 09:22 28.11.2019
3378 Clouds 10 991 78 0 1.34 222 08:56 28.11.2019
3379 Clouds 10 991 81 0 1.34 215 08:37 28.11.2019
3380 Clouds 10 991 82 0 1.79 160 08:18 28.11.2019
3381 Clouds 9 990 84 0 1.34 190 07:42 28.11.2019
3382 Clouds 9 990 84 0 2.68 162 07:23 28.11.2019
3383 Clouds 9 990 83 0 1.34 109 06:50 28.11.2019
3384 Clouds 9 990 83 0 2.68 180 06:50 28.11.2019
3385 Clouds 9 990 84 0 1.34 191 06:29 28.11.2019
3386 Clouds 9 990 87 0 1.34 167 05:51 28.11.2019
3387 Clouds 9 990 86 0 1.34 190 05:18 28.11.2019
3388 Clouds 9 991 89 0 1.79 191 02:37 28.11.2019
3389 Rain 9 991 90 0 1.34 207 01:50 28.11.2019
3390 Clouds 9 991 90 0 2.24 152 00:48 28.11.2019
3391 Clouds 9 991 93 0 2.68 180 00:23 28.11.2019
3392 Clouds 9 991 92 0 0.45 101 23:55 27.11.2019
3393 Clouds 9 992 92 0 1.79 177 23:37 27.11.2019
3394 Clouds 9 992 93 0 0.45 104 23:19 27.11.2019
3395 Clouds 8 992 93 0 1.79 160 22:39 27.11.2019
3396 Clouds 8 992 94 0 1.79 163 22:20 27.11.2019
3397 Clouds 8 992 94 0 3.13 141 21:56 27.11.2019
3398 Clouds 8 992 95 0 2.68 195 21:38 27.11.2019
3399 Clouds 7 992 95 0 3.13 150 21:19 27.11.2019
3400 Clouds 7 992 95 0 0.89 138 20:59 27.11.2019
3401 Clouds 7 993 95 0 0.89 100 20:39 27.11.2019
3402 Clouds 7 993 95 0 1.34 94 20:21 27.11.2019
3403 Clouds 7 993 95 0 1.34 133 19:58 27.11.2019
3404 Clouds 7 993 95 0 0.89 149 19:40 27.11.2019
3405 Clouds 7 989 10 0 5.81 185 19:22 27.11.2019
3406 Clouds 7 989 10 0 5.81 185 18:59 27.11.2019
3407 Clouds 7 994 94 0 1.34 102 18:37 27.11.2019
3408 Clouds 7 993 94 0 1.79 136 18:19 27.11.2019
3409 Clouds 7 989 10 0 5.81 185 17:58 27.11.2019
3410 -273 0 0 0 0 0 17:40 27.11.2019
3411 Clouds 7 994 93 0 0.89 112 17:21 27.11.2019
3412 Clouds 8 994 93 0 4.74 178 16:57 27.11.2019
3413 Clouds 8 994 93 0 4.74 178 16:38 27.11.2019
3414 Clouds 8 994 93 0 0.89 157 16:20 27.11.2019
3415 Clouds 8 994 93 0 4.74 178 16:20 27.11.2019
3416 Clouds 8 995 93 0 1.34 153 15:57 27.11.2019
3417 Clouds 8 995 93 0 4.74 178 15:39 27.11.2019
3418 Clouds 8 994 93 0 1.34 101 15:20 27.11.2019
3419 Clouds 8 995 93 0 2.68 142 14:57 27.11.2019
3420 Clouds 8 995 92 0 2.24 125 14:39 27.11.2019
3421 Clouds 8 995 92 0 1.34 126 14:21 27.11.2019
3422 Clouds 8 995 92 0 0.89 109 13:57 27.11.2019
3423 Clouds 7 995 91 0 2.68 167 13:39 27.11.2019
3424 Clouds 8 995 91 0 1.34 152 13:19 27.11.2019
3425 Clouds 8 995 90 0 2.68 128 12:56 27.11.2019
3426 Clouds 8 995 89 0 1.79 174 12:38 27.11.2019
3427 Clouds 7 995 88 0 1.34 162 12:19 27.11.2019
3428 Clouds 7 995 86 0 1.79 105 11:38 27.11.2019
3429 Clouds 7 991 90 0 5.37 170 11:19 27.11.2019
3430 Clouds 7 996 86 0 1.79 172 10:58 27.11.2019
3431 Clouds 7 996 88 0 1.34 135 10:40 27.11.2019
3432 Clouds 7 996 89 0 5.37 170 10:22 27.11.2019
3433 Clouds 6 996 90 0 3.13 159 09:44 27.11.2019
3434 Clouds 6 996 91 0 0.89 126 09:26 27.11.2019
3435 Clouds 6 996 91 0 3.58 173 08:57 27.11.2019
3436 Clouds 6 996 91 0 1.79 166 08:38 27.11.2019
3437 Clouds 6 995 91 0 1.79 91 08:19 27.11.2019
3438 Clouds 6 997 93 0 2.68 109 07:45 27.11.2019
3439 Clouds 6 997 94 0 1.34 163 07:27 27.11.2019
3440 Clouds 6 997 94 0 0.45 122 06:47 27.11.2019
3441 Clouds 6 997 93 0 1.79 148 06:29 27.11.2019
3442 Clouds 6 998 93 0 3.53 152 05:43 27.11.2019
3443 Clouds 6 998 93 0 4.01 161 05:19 27.11.2019
3444 Clouds 6 999 93 0 4.01 161 04:41 27.11.2019
3445 Clouds 6 999 93 0 0.45 93 03:55 27.11.2019
3446 Clouds 6 1000 94 0 0.45 133 03:23 27.11.2019
3447 Clouds 6 1000 93 0 4.01 161 02:54 27.11.2019
3448 Clouds 6 1001 93 0 0.45 133 01:41 27.11.2019
3449 Clouds 6 1001 93 0 3.47 179 00:46 27.11.2019
3450 Clouds 7 1002 93 0 3.47 179 00:26 27.11.2019
3451 Clouds 7 1002 93 0 0.45 149 23:50 26.11.2019
3452 Clouds 7 1002 92 0 0.45 177 23:28 26.11.2019
3453 Clouds 7 1002 92 0 0.45 71 22:59 26.11.2019
3454 Clouds 7 1003 93 0 1.79 146 22:39 26.11.2019
3455 Clouds 7 1004 93 0 1.79 104 22:19 26.11.2019
3456 Clouds 7 1004 93 0 1.34 176 21:58 26.11.2019
3457 Clouds 7 1004 92 0 0.45 155 21:38 26.11.2019
3458 Clouds 8 1004 92 0 0.89 125 21:19 26.11.2019
3459 Clouds 7 1004 93 0 0.45 86 20:55 26.11.2019
3460 Clouds 7 1004 94 0 3.85 181 20:37 26.11.2019
3461 Clouds 7 1001 86 0 0.45 118 20:19 26.11.2019
3462 Clouds 7 1005 94 0 1.34 150 19:55 26.11.2019
3463 Clouds 7 1005 94 0 0.45 112 19:37 26.11.2019
3464 Clouds 7 1005 93 0 3.42 197 19:19 26.11.2019
3465 Clouds 7 1005 93 0 3.42 197 19:19 26.11.2019
3466 Clouds 7 1005 93 0 0.45 46 18:56 26.11.2019
3467 Clouds 7 1005 93 0 3.42 197 18:38 26.11.2019
3468 Clouds 7 1005 93 0 3.42 197 18:38 26.11.2019
3469 Clouds 7 1005 93 0 3.42 197 18:20 26.11.2019
3470 Clouds 7 1005 92 0 0.89 167 17:57 26.11.2019
3471 -273 0 0 0 0 0 17:38 26.11.2019
3472 Clouds 7 1004 92 0 1.34 174 17:20 26.11.2019
3473 Clouds 7 1001 10 0 2.54 185 16:56 26.11.2019
3474 Clouds 8 1005 91 0 2.54 185 16:37 26.11.2019
3475 Clouds 8 1005 91 0 0.89 152 16:18 26.11.2019
3476 Clouds 8 1005 90 0 2.54 185 15:57 26.11.2019
3477 Clouds 9 1005 89 0 1.34 141 15:37 26.11.2019
3478 Clouds 8 1005 88 0 0.89 143 15:19 26.11.2019
3479 Clouds 8 1005 87 0 0.45 98 14:46 26.11.2019
3480 Clouds 8 1006 85 0 2.8 213 14:25 26.11.2019
3481 Clouds 8 1006 82 0 0.45 86 13:56 26.11.2019
3482 Clouds 8 1006 82 0 2.8 213 13:37 26.11.2019
3483 Clouds 8 1006 81 0 1.79 164 13:18 26.11.2019
3484 Clouds 8 1006 81 0 2.81 213 12:38 26.11.2019
3485 Clouds 8 1007 88 0 1.34 219 12:19 26.11.2019
3486 Clouds 8 1006 84 0 1.34 162 11:58 26.11.2019
3487 Clouds 7 1007 85 0 0.45 47 11:38 26.11.2019
3488 Clouds 7 1007 86 0 0.45 203 11:19 26.11.2019
3489 Clouds 7 1007 86 0 1.34 166 11:19 26.11.2019
3490 Clouds 7 1007 89 0 0.45 100 10:57 26.11.2019
3491 Clouds 6 1007 89 0 2.33 179 10:39 26.11.2019
3492 Clouds 6 1007 90 0 2.33 179 10:20 26.11.2019
3493 Clouds 6 1007 91 0 2.33 179 09:55 26.11.2019
3494 Clouds 5 1007 91 0 2.33 179 09:37 26.11.2019
3495 Clouds 5 1008 92 0 2.33 179 09:18 26.11.2019
3496 Clouds 5 1007 93 0 2.33 179 08:43 26.11.2019
3497 Clouds 5 1007 92 0 0.82 199 08:22 26.11.2019
3498 Clouds 5 1008 92 0 0.82 199 07:44 26.11.2019
3499 Clouds 5 1007 92 0 0.82 199 07:25 26.11.2019
3500 Clouds 4 1007 91 0 0.82 199 06:55 26.11.2019
3501 Clouds 4 1008 91 0 0.82 199 06:30 26.11.2019
3502 Clouds 4 1008 91 0 0.82 199 05:41 26.11.2019
3503 Clouds 4 1008 90 0 0.45 139 03:59 26.11.2019
3504 Clouds 5 1009 90 0 0.45 155 02:49 26.11.2019
3505 Clouds 4 1009 90 0 1.96 179 01:33 26.11.2019
3506 Clouds 5 1009 90 0 0.45 167 00:51 26.11.2019
3507 Clouds 5 1010 90 0 1.96 176 00:29 26.11.2019
3508 Clouds 5 1010 91 0 1.34 149 23:41 25.11.2019
3509 Clouds 5 1010 91 0 1.79 167 23:21 25.11.2019
3510 Clouds 5 1010 91 0 2.85 142 22:59 25.11.2019
3511 Clouds 5 1010 91 0 2.85 142 22:39 25.11.2019
3512 Clouds 5 1010 91 0 2.85 142 22:19 25.11.2019
3513 Clouds 5 1010 91 0 1.79 155 21:59 25.11.2019
3514 Clouds 5 1010 91 0 2.85 142 21:40 25.11.2019
3515 Clouds 5 1010 91 0 0.45 159 21:21 25.11.2019
3516 Clouds 5 1010 91 0 2.85 142 20:57 25.11.2019
3517 Clouds 5 1011 91 0 2.85 142 20:39 25.11.2019
3518 Clouds 5 1010 91 0 1.79 174 20:19 25.11.2019
3519 Clouds 5 1011 91 0 2.66 114 19:56 25.11.2019
3520 Clouds 5 1011 91 0 2.66 114 19:37 25.11.2019
3521 Clouds 6 1011 91 0 2.66 114 19:18 25.11.2019
3522 Clouds 5 1011 91 0 2.66 114 18:57 25.11.2019
3523 Clouds 5 1011 91 0 2.66 114 18:39 25.11.2019
3524 Clouds 5 1011 91 0 2.66 114 18:21 25.11.2019
3525 Clouds 5 1011 91 0 2.66 114 17:57 25.11.2019
3526 Clouds 5 1011 91 0 2.66 114 17:38 25.11.2019
3527 Clouds 5 1011 91 0 2.28 99 17:20 25.11.2019
3528 Clouds 5 1011 91 0 2.28 99 16:57 25.11.2019
3529 Clouds 5 1011 91 0 2.28 99 16:39 25.11.2019
3530 Clouds 5 1011 90 0 1.34 109 16:20 25.11.2019
3531 Clouds 5 1011 90 0 2.28 99 15:55 25.11.2019
3532 Clouds 5 1011 90 0 1.34 148 15:36 25.11.2019
3533 Clouds 5 1011 89 0 1.34 50 15:18 25.11.2019
3534 Clouds 5 1011 89 0 0.45 155 14:42 25.11.2019
3535 Clouds 5 1011 89 0 2.02 135 14:23 25.11.2019
3536 Clouds 5 1011 89 0 1.34 169 13:55 25.11.2019
3537 Clouds 5 1011 89 0 2.02 135 13:36 25.11.2019
3538 Clouds 5 1011 89 0 0.45 114 13:18 25.11.2019
3539 Clouds 5 1011 88 0 0.45 156 12:54 25.11.2019
3540 Clouds 5 1011 88 0 1.34 183 12:36 25.11.2019
3541 Clouds 5 1011 88 0 0.45 132 12:18 25.11.2019
3542 Clouds 5 1011 89 0 0.45 94 11:40 25.11.2019
3543 Clouds 5 1012 89 0 0.89 159 11:21 25.11.2019
3544 Clouds 5 1012 90 0 0.45 173 10:57 25.11.2019
3545 Clouds 5 1012 91 0 1.79 97 10:38 25.11.2019
3546 Clouds 5 1009 91 0 0.45 114 10:18 25.11.2019
3547 Clouds 4 1012 90 0 1.34 76 09:42 25.11.2019
3548 Clouds 4 1012 91 0 1.34 145 09:23 25.11.2019
3549 Clouds 4 1012 92 0 0.45 177 08:42 25.11.2019
3550 Clouds 4 1012 92 0 2.75 106 08:24 25.11.2019
3551 Clouds 4 1012 92 0 1.37 107 07:56 25.11.2019
3552 Clouds 4 1012 92 0 1.37 107 07:37 25.11.2019
3553 Clouds 4 1011 92 0 0.45 156 07:18 25.11.2019
3554 Clouds 4 1011 93 0 1.37 107 06:24 25.11.2019
3555 Clouds 4 1011 93 0 1.37 107 06:24 25.11.2019
3556 Clouds 4 1011 93 0 1.37 107 06:24 25.11.2019
3557 Clouds 4 1011 93 0 1.79 115 05:57 25.11.2019
3558 Clouds 5 1011 93 0 0.45 139 05:32 25.11.2019
3559 Clouds 4 1011 92 0 2.14 106 04:49 25.11.2019
3560 Clouds 4 1011 92 0 0.45 59 02:36 25.11.2019
3561 Clouds 4 1011 92 0 1.91 89 01:56 25.11.2019
3562 Clouds 4 1011 92 0 1.2 87 01:36 25.11.2019
3563 Clouds 4 1011 92 0 1.2 87 01:18 25.11.2019
3564 Clouds 4 1011 92 0 1.2 87 00:21 25.11.2019
3565 Clouds 4 1011 92 0 1.2 87 23:45 24.11.2019
3566 Clouds 4 1011 92 0 1.2 87 23:45 24.11.2019
3567 Clouds 4 1011 93 0 1.13 154 23:21 24.11.2019
3568 Clouds 4 1011 92 0 1.13 154 22:58 24.11.2019
3569 Clouds 4 1011 92 0 1.13 154 22:39 24.11.2019
3570 Clouds 5 1011 91 0 1.13 154 22:20 24.11.2019
3571 Clouds 5 1011 91 0 1.13 154 21:58 24.11.2019
3572 Clouds 5 1011 90 0 1.13 154 21:40 24.11.2019
3573 Clouds 5 1011 90 0 0.89 349 21:21 24.11.2019
3574 Clouds 5 1011 89 0 1.13 154 20:58 24.11.2019
3575 Clouds 5 1011 89 0 0.45 33 20:38 24.11.2019
3576 Clouds 5 1011 88 0 0.89 39 20:19 24.11.2019
3577 Clouds 5 1011 88 0 0.45 45 19:56 24.11.2019
3578 Clouds 5 1011 88 0 0.45 45 19:56 24.11.2019
3579 Clouds 5 1011 87 0 0.45 12 19:38 24.11.2019
3580 Clouds 5 1011 87 0 0.89 18 19:20 24.11.2019
3581 Clouds 5 1011 87 0 0.45 0 18:58 24.11.2019
3582 Clouds 5 1011 87 0 0.45 57 18:38 24.11.2019
3583 Clouds 5 1011 87 0 0.45 53 18:19 24.11.2019
3584 Clouds 5 1011 87 0 0.45 23 17:56 24.11.2019
3585 Clouds 5 1011 87 0 0.45 23 17:56 24.11.2019
3586 Clouds 6 1010 87 0 0.89 19 17:38 24.11.2019
3587 Clouds 6 1010 87 0 0.89 33 17:20 24.11.2019
3588 Clouds 6 1010 87 0 0.89 33 17:20 24.11.2019
3589 Clouds 6 1010 87 0 0.45 28 16:57 24.11.2019
3590 Clouds 6 1010 87 0 0.45 66 16:39 24.11.2019
3591 Clouds 6 1010 86 0 1.75 88 16:20 24.11.2019
3592 Clouds 7 1010 86 0 1.75 88 15:45 24.11.2019
3593 Clouds 6 1010 86 0 1.34 11 15:26 24.11.2019
3594 Clouds 7 1010 86 0 1.75 88 14:58 24.11.2019
3595 Clouds 7 1009 86 0 1.75 88 14:39 24.11.2019
3596 Clouds 7 1009 85 0 0.45 66 14:19 24.11.2019
3597 Clouds 7 1009 85 0 3.21 87 13:55 24.11.2019
3598 Clouds 6 1009 85 0 0.45 29 13:36 24.11.2019
3599 Clouds 6 1009 85 0 1.79 5 13:18 24.11.2019
3600 Clouds 6 1009 85 0 2.95 94 12:42 24.11.2019
3601 Clouds 6 1009 85 0 0.45 19 12:20 24.11.2019
3602 Clouds 6 1009 85 0 1.34 60 11:59 24.11.2019
3603 Clouds 6 1009 86 0 0.89 28 11:37 24.11.2019
3604 Clouds 6 1009 86 0 0.89 28 11:37 24.11.2019
3605 Clouds 6 1009 86 0 0.45 18 11:19 24.11.2019
3606 Clouds 5 1010 89 0 0.45 62 10:48 24.11.2019
3607 Clouds 5 1009 90 0 0.89 28 10:30 24.11.2019
3608 Clouds 5 1009 92 0 0.89 119 09:59 24.11.2019
3609 Clouds 5 1009 92 0 0.89 64 09:38 24.11.2019
3610 Clouds 4 1009 93 0 0.45 56 09:19 24.11.2019
3611 Clouds 5 1009 94 0 0.45 31 08:57 24.11.2019
3612 Clouds 5 1009 94 0 0.45 36 08:38 24.11.2019
3613 Clouds 4 1009 94 0 1.34 5 08:19 24.11.2019
3614 Clouds 4 1008 94 0 0.45 5 07:47 24.11.2019
3615 Clouds 4 1008 94 0 0.45 69 07:21 24.11.2019
3616 Clouds 4 1008 94 0 2.81 92 06:40 24.11.2019
3617 Clouds 4 1007 95 0 0.89 356 05:24 24.11.2019
3618 Clouds 4 1007 95 0 0.89 38 04:40 24.11.2019
3619 Clouds 4 1007 95 0 0.45 26 02:42 24.11.2019
3620 Clouds 4 1007 95 0 3.63 93 01:56 24.11.2019
3621 Clouds 4 1007 95 0 0.89 39 01:34 24.11.2019
3622 Clouds 5 1007 95 0 3.15 95 00:53 24.11.2019
3623 Clouds 5 1007 95 0 3.15 95 00:25 24.11.2019
3624 Clouds 5 1007 95 0 1.34 42 23:57 23.11.2019
3625 Clouds 5 1006 95 0 0.89 33 23:39 23.11.2019
3626 Clear 5 1006 95 0 0.89 23 23:20 23.11.2019
3627 Clear 5 1006 95 0 0.89 42 23:20 23.11.2019
3628 Clear 5 1007 93 0 0.45 12 22:57 23.11.2019
3629 Clear 5 1006 93 0 0.45 31 22:37 23.11.2019
3630 Clear 6 1006 93 0 3.33 100 22:19 23.11.2019
3631 Clear 6 1006 92 0 3.33 100 21:56 23.11.2019
3632 Clear 6 1006 91 0 0.89 46 21:37 23.11.2019
3633 Clear 6 1006 89 0 0.45 15 21:19 23.11.2019
3634 Clear 6 1006 87 0 3.33 100 20:38 23.11.2019
3635 Clear 6 1006 87 0 3.33 100 20:38 23.11.2019
3636 Clouds 7 1006 86 0 4.43 95 20:20 23.11.2019
3637 Clouds 7 1006 87 0 0.89 91 19:57 23.11.2019
3638 Clouds 7 1006 89 0 1.34 105 19:39 23.11.2019
3639 Clouds 7 1006 90 0 0.45 38 19:19 23.11.2019
3640 Clouds 7 1006 90 0 0.89 86 19:19 23.11.2019
3641 Clouds 7 1006 90 0 0.89 86 19:19 23.11.2019
3642 Clouds 7 1006 90 0 4.43 95 18:57 23.11.2019
3643 Clouds 7 1006 89 0 4.43 95 18:38 23.11.2019
3644 Clouds 7 1006 89 0 0.45 25 18:19 23.11.2019
3645 Clouds 7 1005 89 0 0.45 47 17:44 23.11.2019
3646 Clouds 7 1005 90 0 0.45 12 17:22 23.11.2019
3647 Clouds 7 1005 90 0 0.45 47 16:57 23.11.2019
3648 Clouds 7 1005 87 0 0.45 32 16:38 23.11.2019
3649 Clouds 7 1005 87 0 2.24 39 16:20 23.11.2019
3650 Clouds 7 1005 86 0 1.79 64 15:59 23.11.2019
3651 Clouds 8 1005 86 0 1.34 22 15:39 23.11.2019
3652 Clouds 8 1005 85 0 1.34 39 15:19 23.11.2019
3653 Clouds 8 1005 84 0 1.34 52 14:57 23.11.2019
3654 -273 0 0 0 0 0 14:39 23.11.2019
3655 Clouds 9 1005 82 0 0.89 50 14:21 23.11.2019
3656 Clouds 9 1005 82 0 1.34 8 13:54 23.11.2019
3657 Clouds 9 1005 81 0 1.79 32 13:36 23.11.2019
3658 Clouds 9 1005 82 0 1.79 18 13:18 23.11.2019
3659 Clouds 9 1004 86 0 2.24 62 12:41 23.11.2019
3660 Clouds 9 1005 87 0 1.79 83 12:23 23.11.2019
3661 Clouds 9 1005 89 0 2.24 22 11:45 23.11.2019
3662 Clouds 8 1005 91 0 3.13 32 11:23 23.11.2019
3663 Clouds 8 1006 94 0 0.45 88 10:46 23.11.2019
3664 -273 0 0 0 0 0 10:23 23.11.2019
3665 Clouds 7 1006 95 0 5.12 101 09:59 23.11.2019
3666 Clouds 6 1006 95 0 5.12 101 09:40 23.11.2019
3667 Clouds 6 1006 95 0 5.12 101 09:18 23.11.2019
3668 Clouds 6 1006 95 0 5.12 101 08:41 23.11.2019
3669 Clouds 6 1006 95 0 5.12 101 08:41 23.11.2019
3670 Clear 6 1006 95 0 3.76 108 08:19 23.11.2019
3671 Clear 6 1006 95 0 3.76 108 07:42 23.11.2019
3672 Clear 6 1006 94 0 3.76 108 06:58 23.11.2019
3673 Clear 6 1006 94 0 3.76 108 06:38 23.11.2019
3674 Clear 6 1006 99 0 0.45 0 06:19 23.11.2019
3675 Clear 7 1002 10 0 3.76 108 05:32 23.11.2019
3676 Clear 6 1006 93 0 3.9 100 04:58 23.11.2019
3677 Clear 5 1007 92 0 3.9 100 04:34 23.11.2019
3678 Clear 5 1007 93 0 3.9 100 03:27 23.11.2019
3679 Clear 5 1007 93 0 3.9 100 02:38 23.11.2019
3680 Clouds 5 1008 93 0 2.36 111 01:40 23.11.2019
3681 Clouds 5 1008 93 0 2.52 106 00:49 23.11.2019
3682 Clouds 5 1008 93 0 2.52 106 00:21 23.11.2019
3683 Clouds 5 1008 93 0 2.52 106 23:56 22.11.2019
3684 Clouds 5 1008 93 0 2.52 106 23:37 22.11.2019
3685 Clouds 5 1008 94 0 2.37 124 23:18 22.11.2019
3686 Clouds 5 1008 94 0 2.37 124 22:56 22.11.2019
3687 Clouds 5 1009 94 0 2.37 124 22:37 22.11.2019
3688 Clouds 5 1009 94 0 0.45 62 22:18 22.11.2019
3689 Clouds 5 1009 93 0 2.37 124 21:55 22.11.2019
3690 Clouds 5 1009 92 0 2.37 124 21:36 22.11.2019
3691 Clouds 5 1009 92 0 2.37 124 21:18 22.11.2019
3692 Clouds 5 1009 93 0 2.37 124 20:40 22.11.2019
3693 Clouds 5 1009 93 0 2.15 131 20:22 22.11.2019
3694 Clouds 5 1009 93 0 2.15 131 19:54 22.11.2019
3695 Clouds 6 1009 93 0 2.15 131 19:36 22.11.2019
3696 Clouds 6 1009 92 0 2.15 131 19:18 22.11.2019
3697 Clouds 6 1009 91 0 2.15 131 18:39 22.11.2019
3698 Clouds 6 1009 91 0 2.15 131 18:21 22.11.2019
3699 Clouds 7 1009 91 0 2.15 131 17:55 22.11.2019
3700 Clouds 7 1009 90 0 2.15 131 17:37 22.11.2019
3701 Clouds 7 1009 90 0 3.25 137 17:19 22.11.2019
3702 Clouds 8 1009 89 0 1.79 157 16:40 22.11.2019
3703 Clouds 8 1009 89 0 0.45 126 16:22 22.11.2019
3704 Clouds 8 1009 89 0 1.34 173 15:41 22.11.2019
3705 Clouds 8 1009 89 0 0.89 163 15:23 22.11.2019
3706 Clouds 8 1009 87 0 2.24 172 14:56 22.11.2019
3707 Clouds 8 1009 86 0 1.34 93 14:37 22.11.2019
3708 Clouds 8 1009 87 0 0.89 149 14:19 22.11.2019
3709 Clouds 8 1009 86 0 1.34 156 13:55 22.11.2019
3710 Clouds 8 1009 86 0 1.34 121 13:36 22.11.2019
3711 Clouds 8 1010 87 0 1.79 164 13:18 22.11.2019
3712 Clouds 8 1010 87 0 1.79 164 13:18 22.11.2019
3713 Clouds 8 1010 87 0 2.24 169 12:40 22.11.2019
3714 Clouds 8 1010 88 0 4.02 56 12:20 22.11.2019
3715 Clouds 8 1010 89 0 1.34 87 11:59 22.11.2019
3716 Clouds 7 1010 90 0 1.34 80 11:39 22.11.2019
3717 Clouds 7 1010 91 0 0.45 102 11:20 22.11.2019
3718 Clouds 7 1010 92 0 0.45 90 10:58 22.11.2019
3719 Clouds 6 1010 91 0 1.34 132 10:39 22.11.2019
3720 Clouds 6 1010 92 0 1.34 121 10:21 22.11.2019
3721 Clouds 6 1010 93 0 1.79 104 09:55 22.11.2019
3722 Clouds 5 1010 94 0 2.4 145 09:37 22.11.2019
3723 Clouds 5 1010 94 0 1.34 160 09:18 22.11.2019
3724 Clouds 5 1010 94 0 0.45 142 08:45 22.11.2019
3725 Clouds 5 1010 94 0 1.34 88 08:26 22.11.2019
3726 Clouds 5 1009 94 0 1.34 114 07:45 22.11.2019
3727 Clouds 5 1009 94 0 0.45 112 07:23 22.11.2019
3728 Clouds 5 1009 94 0 0.45 63 06:57 22.11.2019
3729 Clouds 5 1009 94 0 1.33 164 06:37 22.11.2019
3730 Clouds 5 1009 93 0 1.33 164 05:49 22.11.2019
3731 Clouds 6 1009 93 0 0.45 153 04:50 22.11.2019
3732 Clouds 7 1004 10 0 2.23 170 02:55 22.11.2019
3733 Clouds 7 1008 93 0 2.23 170 02:32 22.11.2019
3734 Clouds 7 1008 93 0 2.01 200 01:45 22.11.2019
3735 Clouds 7 1008 93 0 1.51 190 01:20 22.11.2019
3736 Clouds 7 1008 93 0 1.51 190 00:53 22.11.2019
3737 Clouds 8 1008 93 0 1.51 190 00:24 22.11.2019
3738 Clouds 8 1008 93 0 1.51 190 23:56 21.11.2019
3739 Clouds 8 1008 93 0 1.51 190 23:56 21.11.2019
3740 Clouds 8 1008 93 0 1.51 190 23:37 21.11.2019
3741 Rain 8 1008 93 0 0.45 148 23:18 21.11.2019
3742 Rain 8 1008 93 0 1.8 174 22:41 21.11.2019
3743 Rain 8 1008 93 0 1.8 174 22:22 21.11.2019
3744 Rain 8 1008 93 0 1.34 156 21:58 21.11.2019
3745 Rain 8 1008 93 0 0.45 129 21:39 21.11.2019
3746 Rain 8 1008 93 0 0.89 172 21:20 21.11.2019
3747 Rain 8 1008 93 0 1.8 174 20:59 21.11.2019
3748 Rain 8 1009 93 0 1.8 174 20:39 21.11.2019
3749 Rain 8 1008 93 0 1.8 174 20:39 21.11.2019
3750 Rain 8 1009 93 0 1.8 174 20:39 21.11.2019
3751 Rain 8 1008 93 0 1.03 185 20:19 21.11.2019
3752 Rain 8 1009 93 0 0.82 211 19:59 21.11.2019
3753 Rain 8 1009 93 0 0.82 211 19:59 21.11.2019
3754 Rain 8 1009 93 0 0.82 211 19:41 21.11.2019
3755 Rain 8 1009 93 0 0.82 211 19:23 21.11.2019
3756 Rain 8 1009 93 0 0.82 211 18:58 21.11.2019
3757 Rain 8 1009 93 0 0.82 211 18:40 21.11.2019
3758 Rain 8 1009 93 0 0.82 211 18:20 21.11.2019
3759 Rain 8 1009 93 0 0.82 211 17:58 21.11.2019
3760 Rain 8 1009 93 0 0.82 211 17:39 21.11.2019
3761 Rain 8 1009 93 0 0.39 82 17:20 21.11.2019
3762 Rain 8 1009 93 0 0.39 82 16:56 21.11.2019
3763 Rain 8 1009 93 0 0.39 82 16:37 21.11.2019
3764 Rain 8 1009 93 0 0.39 82 16:19 21.11.2019
3765 Rain 8 1009 93 0 0.39 82 15:42 21.11.2019
3766 Rain 8 1009 93 0 0.39 82 15:21 21.11.2019
3767 Rain 8 1005 10 0 0.39 82 14:57 21.11.2019
3768 Rain 8 1009 93 0 0.39 82 14:37 21.11.2019
3769 Rain 8 1009 94 0 0.95 75 14:19 21.11.2019
3770 Rain 8 1010 94 0 0.95 75 13:57 21.11.2019
3771 Rain 8 1010 93 0 0.95 75 13:37 21.11.2019
3772 Rain 8 1010 93 0 0.96 85 13:18 21.11.2019
3773 Rain 8 1010 93 0 0.96 85 12:40 21.11.2019
3774 Rain 8 1010 93 0 0.96 85 12:22 21.11.2019
3775 Rain 7 1011 93 0 0.96 85 11:55 21.11.2019
3776 Rain 7 1011 93 0 0.96 85 11:37 21.11.2019
3777 Clouds 7 1011 93 0 2.02 83 11:19 21.11.2019
3778 Clouds 7 1011 93 0 2.02 83 11:19 21.11.2019
3779 Clouds 7 1012 93 0 0.45 23 10:42 21.11.2019
3780 Clouds 7 1012 93 0 0.45 1 10:24 21.11.2019
3781 Clouds 7 1012 93 0 2.02 83 09:59 21.11.2019
3782 Clouds 7 1012 93 0 2.02 83 09:40 21.11.2019
3783 Clouds 6 1012 93 0 0.89 49 09:22 21.11.2019
3784 Clouds 6 1012 93 0 1.34 12 08:46 21.11.2019
3785 Clouds 6 1012 94 0 0.89 359 08:24 21.11.2019
3786 Clouds 6 1012 94 0 1.63 29 07:59 21.11.2019
3787 Clouds 6 1012 93 0 1.34 12 07:37 21.11.2019
3788 Clouds 6 1012 93 0 1.63 29 07:18 21.11.2019
3789 Clouds 6 1012 93 0 0.89 8 06:42 21.11.2019
3790 Clouds 6 1012 93 0 1.63 29 06:24 21.11.2019
3791 Clouds 5 1013 92 0 1.93 35 04:55 21.11.2019
3792 Clouds 5 1011 89 0 1.93 35 02:53 21.11.2019
3793 Clouds 5 1014 92 0 1.93 35 02:33 21.11.2019
3794 Clouds 5 1015 91 0 0.89 4 01:52 21.11.2019
3795 Clouds 5 1015 91 0 1.83 47 01:52 21.11.2019
3796 Clouds 5 1015 91 0 0.45 26 01:21 21.11.2019
3797 Clouds 5 1015 90 0 1.34 345 00:41 21.11.2019
3798 Clouds 5 1015 90 0 1.79 47 00:20 21.11.2019
3799 Clouds 5 1016 90 0 1.79 47 23:51 20.11.2019
3800 Clouds 5 1016 89 0 0.89 11 23:23 20.11.2019
3801 Clouds 5 1016 89 0 1.36 55 22:58 20.11.2019
3802 Clouds 5 1016 89 0 1.36 55 22:40 20.11.2019
3803 Clouds 5 1016 89 0 1.36 55 22:20 20.11.2019
3804 Clouds 5 1016 89 0 0.45 352 21:59 20.11.2019
3805 Clouds 5 1016 88 0 1.34 19 21:40 20.11.2019
3806 Clouds 5 1016 87 0 1.36 55 21:22 20.11.2019
3807 Clouds 5 1016 85 0 1.36 55 20:58 20.11.2019
3808 Clouds 5 1016 85 0 1.36 55 20:40 20.11.2019
3809 Clouds 5 1016 84 0 0.96 11 20:21 20.11.2019
3810 Clouds 5 1016 84 0 0.96 11 19:58 20.11.2019
3811 Clouds 5 1016 84 0 0.96 11 19:58 20.11.2019
3812 Clouds 5 1016 84 0 0.96 11 19:37 20.11.2019
3813 Clouds 5 1017 84 0 0.96 11 19:19 20.11.2019
3814 Clouds 5 1017 83 0 0.96 11 18:59 20.11.2019
3815 Clouds 5 1017 84 0 0.96 11 18:40 20.11.2019
3816 Clouds 5 1016 84 0 0.96 11 18:21 20.11.2019
3817 Clouds 5 1017 84 0 0.96 11 17:58 20.11.2019
3818 Clouds 5 1017 84 0 0.96 11 17:39 20.11.2019
3819 Clouds 5 1017 83 0 0.19 162 17:20 20.11.2019
3820 Clouds 5 1017 84 0 0.19 162 16:57 20.11.2019
3821 Clouds 5 1017 84 0 0.19 162 16:39 20.11.2019
3822 Clouds 6 1017 83 0 0.19 162 16:19 20.11.2019
3823 Clouds 6 1017 83 0 0.19 162 16:19 20.11.2019
3824 Clouds 6 1017 82 0 0.19 162 15:57 20.11.2019
3825 Clouds 6 1017 82 0 0.19 162 15:38 20.11.2019
3826 Clouds 6 1017 82 0 0.19 162 15:38 20.11.2019
3827 Clouds 6 1017 81 0 0.45 76 15:19 20.11.2019
3828 Clouds 6 1017 77 0 0.19 162 14:41 20.11.2019
3829 Clouds 6 1017 77 0 0.12 279 14:22 20.11.2019
3830 Clouds 6 1017 77 0 0.12 279 14:22 20.11.2019
3831 Clouds 6 1017 77 0 0.12 279 14:22 20.11.2019
3832 Clouds 6 1018 76 0 0.45 50 13:59 20.11.2019
3833 Clouds 6 1018 78 0 0.45 60 13:39 20.11.2019
3834 Clouds 6 1018 78 0 0.89 66 13:20 20.11.2019
3835 Clouds 6 1018 77 0 0.45 98 12:59 20.11.2019
3836 Clouds 6 1018 77 0 1.26 250 12:38 20.11.2019
3837 Clouds 6 1018 78 0 1.26 250 12:19 20.11.2019
3838 Clouds 6 1019 78 0 1.26 250 11:46 20.11.2019
3839 Clouds 6 1014 86 0 1.26 250 11:23 20.11.2019
3840 Clouds 6 1019 83 0 1.53 270 10:58 20.11.2019
3841 Clouds 6 1019 83 0 1.53 270 10:39 20.11.2019
3842 Clouds 6 1019 83 0 0.45 25 10:20 20.11.2019
3843 Clouds 5 1013 89 0 1.53 270 09:59 20.11.2019
3844 Clouds 5 1019 84 0 1.53 270 09:41 20.11.2019
3845 Clouds 5 1019 85 0 1.53 270 09:19 20.11.2019
3846 Clouds 5 1019 87 0 1.53 270 08:43 20.11.2019
3847 Clouds 5 1019 88 0 1.09 256 08:24 20.11.2019
3848 Clouds 4 1019 88 0 1.06 267 07:56 20.11.2019
3849 Clouds 4 1019 89 0 1.06 267 07:36 20.11.2019
3850 Clouds 4 1019 89 0 1.06 267 07:18 20.11.2019
3851 Clouds 4 1019 89 0 1.06 267 06:43 20.11.2019
3852 Clouds 4 1019 89 0 1.06 267 06:18 20.11.2019
3853 Clouds 4 1019 88 0 0.72 312 04:43 20.11.2019
3854 Clouds 4 1016 83 0 0.72 312 02:29 20.11.2019
3855 Clouds 4 1019 87 0 0.72 48 01:38 20.11.2019
3856 Clouds 4 1019 87 0 0.93 30 00:58 20.11.2019
3857 Clouds 4 1019 87 0 0.93 30 00:22 20.11.2019
3858 Clouds 5 1019 87 0 0.93 30 23:41 19.11.2019
3859 Clouds 5 1019 87 0 0.21 306 23:23 19.11.2019
3860 Clouds 5 1019 87 0 0.21 306 22:56 19.11.2019
3861 Clouds 5 1019 87 0 0.21 306 22:38 19.11.2019
3862 Clouds 5 1019 87 0 0.21 306 22:18 19.11.2019
3863 Clouds 5 1019 87 0 0.21 306 21:55 19.11.2019
3864 Clouds 5 1019 87 0 0.21 306 21:36 19.11.2019
3865 Clouds 5 1019 87 0 0.21 306 21:18 19.11.2019
3866 Clouds 5 1019 87 0 0.21 306 20:55 19.11.2019
3867 Clouds 5 1019 86 0 0.65 265 20:36 19.11.2019
3868 Clouds 5 1019 86 0 0.21 306 20:36 19.11.2019
3869 Clouds 5 1019 86 0 1.51 214 20:18 19.11.2019
3870 Clouds 5 1019 86 0 1.51 214 19:54 19.11.2019
3871 Clouds 5 1018 86 0 1.51 214 19:36 19.11.2019
3872 Clouds 5 1018 87 0 1.51 214 19:18 19.11.2019
3873 Clouds 5 1018 87 0 1.51 214 18:41 19.11.2019
3874 Clouds 6 1018 88 0 1.51 214 18:21 19.11.2019
3875 Clouds 6 1018 88 0 1.51 214 18:21 19.11.2019
3876 Clouds 6 1018 88 0 1.51 214 17:58 19.11.2019
3877 Clouds 6 1018 88 0 1.51 214 17:58 19.11.2019
3878 Clouds 6 1014 78 0 1.51 214 17:40 19.11.2019
3879 Clouds 6 1013 76 0 1.85 243 17:20 19.11.2019
3880 Clouds 6 1018 87 0 1.85 243 17:20 19.11.2019
3881 -273 0 0 0 0 0 16:59 19.11.2019
3882 Clouds 7 1013 75 0 1.85 243 16:40 19.11.2019
3883 Clouds 7 1017 80 0 1.85 243 16:20 19.11.2019
3884 Clouds 7 1017 76 0 1.85 243 15:47 19.11.2019
3885 Clouds 8 1016 75 0 0.89 245 15:27 19.11.2019
3886 Clouds 8 1016 74 0 1.85 243 14:58 19.11.2019
3887 Clouds 8 1016 72 0 0.45 179 14:39 19.11.2019
3888 Clear 8 1016 72 0 4.36 240 14:21 19.11.2019
3889 Clear 8 1016 70 0 4.36 240 13:59 19.11.2019
3890 Clear 8 1016 68 0 1.34 272 13:39 19.11.2019
3891 Clear 8 1016 69 0 0.45 208 13:18 19.11.2019
3892 Clear 8 1016 70 0 1.34 236 12:40 19.11.2019
3893 Clear 8 1016 70 0 0.45 225 12:21 19.11.2019
3894 Clear 8 1016 72 0 2.68 186 11:57 19.11.2019
3895 Clear 7 1016 72 0 0.89 177 11:37 19.11.2019
3896 Clear 7 1015 76 0 1.34 204 11:19 19.11.2019
3897 Clear 7 1015 77 0 0.45 194 10:45 19.11.2019
3898 Clear 6 1015 80 0 1.34 125 10:22 19.11.2019
3899 Clear 6 1015 83 0 0.45 188 09:57 19.11.2019
3900 Clear 6 1015 83 0 0.45 100 09:39 19.11.2019
3901 Clear 6 1015 84 0 1.34 183 09:18 19.11.2019
3902 Clear 5 1014 87 0 0.89 195 08:41 19.11.2019
3903 Clear 5 1014 87 0 0.89 195 08:41 19.11.2019
3904 Clouds 5 1013 87 0 0.45 211 08:22 19.11.2019
3905 Clouds 5 1013 88 0 1.79 224 07:57 19.11.2019
3906 Clouds 5 1012 88 0 0.45 205 07:38 19.11.2019
3907 Clouds 5 1012 88 0 0.45 286 07:20 19.11.2019
3908 Clouds 5 1012 87 0 0.45 187 06:49 19.11.2019
3909 Clouds 5 1011 85 0 0.45 235 06:29 19.11.2019
3910 Clouds 5 1010 85 0 2.24 200 05:28 19.11.2019
3911 Clouds 5 1009 86 0 3.13 174 03:50 19.11.2019
3912 Clouds 5 1009 84 0 1.79 203 03:31 19.11.2019
3913 Clouds 5 1009 82 0 1.79 176 02:55 19.11.2019
3914 Clouds 5 1009 82 0 0.45 159 01:59 19.11.2019
3915 Clouds 5 1008 83 0 1.79 160 01:27 19.11.2019
3916 Clouds 4 1009 81 0 1.79 180 00:21 19.11.2019
3917 Clouds 4 1008 82 0 2.68 181 23:57 18.11.2019
3918 Clouds 4 1009 85 0 1.79 177 23:37 18.11.2019
3919 Clear 4 1008 87 0 0.45 283 23:18 18.11.2019
3920 Clear 4 1008 87 0 0.45 283 23:18 18.11.2019
3921 Clear 4 1008 87 0 2.24 145 22:42 18.11.2019
3922 Clear 4 1008 88 0 1.79 172 22:23 18.11.2019
3923 Clear 4 1008 89 0 1.79 160 21:56 18.11.2019
3924 Clear 5 1008 89 0 0.45 141 21:37 18.11.2019
3925 Clear 5 1008 89 0 0.89 186 21:19 18.11.2019
3926 Clear 5 1008 89 0 0.45 172 20:57 18.11.2019
3927 Clear 5 1008 89 0 2.24 190 20:38 18.11.2019
3928 Clouds 5 1008 89 0 1.79 133 20:18 18.11.2019
3929 Clouds 6 1008 89 0 0.89 190 19:55 18.11.2019
3930 Clouds 6 1008 89 0 1.34 164 19:37 18.11.2019
3931 Clouds 6 1008 89 0 1.34 148 19:18 18.11.2019
3932 Clouds 6 1008 87 0 1.79 138 18:55 18.11.2019
3933 Clouds 6 1008 86 0 1.34 155 18:36 18.11.2019
3934 Clouds 7 1007 85 0 1.34 97 18:18 18.11.2019
3935 Clouds 7 1008 89 0 3.58 211 17:39 18.11.2019
3936 Rain 7 1007 90 0 1.79 162 17:20 18.11.2019
3937 Rain 7 1007 92 0 0.89 141 16:57 18.11.2019
3938 Rain 7 1007 93 0 1.79 76 16:39 18.11.2019
3939 Rain 7 1007 93 0 5.19 205 16:21 18.11.2019
3940 Rain 7 1007 93 0 1.34 190 15:56 18.11.2019
3941 Rain 7 1007 93 0 1.34 166 15:56 18.11.2019
3942 Rain 7 1007 93 0 5.19 205 15:37 18.11.2019
3943 Rain 7 1006 93 0 0.89 155 15:19 18.11.2019
3944 Rain 7 1006 93 0 5.19 205 14:43 18.11.2019
3945 Rain 7 1006 93 0 5.19 205 14:24 18.11.2019
3946 Rain 7 1006 93 0 2.55 203 13:57 18.11.2019
3947 Rain 7 1006 93 0 2.55 203 13:39 18.11.2019
3948 Rain 7 1006 93 0 1.34 174 13:21 18.11.2019
3949 Rain 7 1005 93 0 3.07 199 12:39 18.11.2019
3950 Rain 7 1005 93 0 3.07 199 12:20 18.11.2019
3951 Rain 7 1005 93 0 3.07 199 11:54 18.11.2019
3952 Rain 7 1005 93 0 3.07 199 11:36 18.11.2019
3953 Rain 7 1005 93 0 3.31 267 11:18 18.11.2019
3954 Rain 7 1005 93 0 3.31 267 10:42 18.11.2019
3955 Rain 7 1005 93 0 1.34 184 10:23 18.11.2019
3956 Rain 6 1005 94 0 3.31 267 09:56 18.11.2019
3957 Rain 6 1005 94 0 3.31 267 09:38 18.11.2019
3958 Rain 7 1004 94 0 3.31 267 09:19 18.11.2019
3959 Rain 6 1005 94 0 3.31 267 08:45 18.11.2019
3960 Clouds 6 1004 94 0 1.05 300 08:22 18.11.2019
3961 Clouds 6 1004 94 0 1.05 300 07:49 18.11.2019
3962 Clouds 6 1004 94 0 1.05 300 07:31 18.11.2019
3963 Clouds 6 1003 94 0 1.05 300 06:59 18.11.2019
3964 Clouds 6 1003 94 0 1.05 300 06:41 18.11.2019
3965 Clouds 6 1003 94 0 1.05 300 06:41 18.11.2019
3966 Clouds 6 1003 94 0 1.05 300 06:21 18.11.2019
3967 Clouds 6 1003 94 0 0.89 14 05:26 18.11.2019
3968 Clouds 6 1003 95 0 0.51 158 03:40 18.11.2019
3969 Clouds 6 1004 95 0 0.27 39 01:39 18.11.2019
3970 Clouds 6 1004 95 0 1.65 133 00:53 18.11.2019
3971 Clouds 6 1004 95 0 1.65 133 00:18 18.11.2019
3972 Clouds 6 1005 95 0 1.65 133 23:40 17.11.2019
3973 Clouds 6 1004 95 0 2.37 34 23:21 17.11.2019
3974 Clouds 6 1004 95 0 2.37 34 22:57 17.11.2019
3975 Clouds 6 1005 95 0 2.37 34 22:39 17.11.2019
3976 Clouds 6 1005 95 0 2.37 34 22:39 17.11.2019
3977 Clouds 6 1005 95 0 2.37 34 22:20 17.11.2019
3978 Clouds 6 1005 94 0 2.37 34 21:55 17.11.2019
3979 Clouds 6 1005 94 0 0.45 18 21:36 17.11.2019
3980 Clouds 6 1005 94 0 1.79 351 21:18 17.11.2019
3981 Clouds 6 1006 94 0 2.37 34 20:54 17.11.2019
3982 Clouds 6 1006 94 0 2.74 32 20:36 17.11.2019
3983 Clouds 6 1006 95 0 1.34 0 20:18 17.11.2019
3984 Clouds 6 1006 95 0 1.34 356 19:54 17.11.2019
3985 Clouds 6 1007 95 0 0.45 358 19:36 17.11.2019
3986 Clouds 6 1007 95 0 0.45 332 19:18 17.11.2019
3987 Clouds 6 1007 95 0 5.2 56 18:54 17.11.2019
3988 Clouds 6 1007 95 0 2.24 359 18:36 17.11.2019
3989 Clouds 6 1007 95 0 0.45 16 18:18 17.11.2019
3990 Clouds 5 1007 95 0 0.89 352 17:56 17.11.2019
3991 Clouds 5 1008 95 0 0.89 18 17:38 17.11.2019
3992 Clouds 5 1008 95 0 0.45 355 17:18 17.11.2019
3993 Clouds 5 1008 95 0 1.34 67 16:42 17.11.2019
3994 Clouds 5 1008 95 0 0.45 1 16:21 17.11.2019
3995 Clouds 5 1008 95 0 0.45 359 15:57 17.11.2019
3996 Clouds 5 1008 95 0 0.45 22 15:39 17.11.2019
3997 Clouds 5 1009 95 0 1.79 7 15:19 17.11.2019
3998 Clouds 5 1009 95 0 1.34 342 14:57 17.11.2019
3999 Clouds 4 1010 95 0 2.24 358 14:39 17.11.2019
4000 Clouds 4 1010 95 0 2.24 358 14:39 17.11.2019
4001 Rain 4 1010 95 0 0.89 325 14:20 17.11.2019
4002 Rain 4 1010 95 0 0.89 291 13:58 17.11.2019
4003 Rain 4 1010 95 0 0.89 344 13:40 17.11.2019
4004 Rain 4 1011 95 0 3.58 336 13:19 17.11.2019
4005 Rain 4 1011 95 0 2.24 356 12:45 17.11.2019
4006 Rain 4 1011 94 0 1.34 2 12:24 17.11.2019
4007 Rain 3 1012 94 0 3.58 19 11:59 17.11.2019
4008 Rain 3 1012 94 0 2.68 334 11:40 17.11.2019
4009 Clouds 3 1013 93 0 0.89 11 11:21 17.11.2019
4010 Clouds 3 1013 93 0 0.89 11 11:21 17.11.2019
4011 Clouds 3 1013 92 0 0.89 335 10:58 17.11.2019
4012 Clouds 3 1013 92 0 1.79 351 10:40 17.11.2019
4013 Clouds 2 1014 93 0 0.89 1 10:21 17.11.2019
4014 Clouds 2 1014 94 0 3.2 21 09:42 17.11.2019
4015 Clouds 1 1014 94 0 3.2 21 09:23 17.11.2019
4016 Clouds 1 1011 10 0 3.2 21 08:44 17.11.2019
4017 Clouds 1 1011 10 0 3.2 21 08:44 17.11.2019
4018 Clouds 0 1014 94 0 0.45 305 08:25 17.11.2019
4019 Clouds 0 1014 94 0 2.12 103 07:58 17.11.2019
4020 Clouds 0 1014 94 0 2.12 103 07:40 17.11.2019
4021 Clouds 0 1014 94 0 2.12 103 07:20 17.11.2019
4022 Clouds 0 1015 94 0 2.12 103 06:51 17.11.2019
4023 Clouds 0 1014 94 0 2.12 103 06:29 17.11.2019
4024 Clouds 0 1014 94 0 2.12 103 06:29 17.11.2019
4025 Clouds 0 1014 94 0 2.12 103 06:29 17.11.2019
4026 Clouds -1 1014 93 0 0.45 112 04:57 17.11.2019
4027 Clouds -1 1014 93 0 0.97 153 04:00 17.11.2019
4028 Clouds -1 1014 93 0 0.97 153 03:37 17.11.2019
4029 Clouds -1 1014 93 0 0.97 153 03:19 17.11.2019
4030 Clouds 0 1014 93 0 2.26 180 01:59 17.11.2019
4031 Clouds 0 1014 93 0 2.02 184 01:21 17.11.2019
4032 Clouds 0 1014 93 0 2.02 184 00:41 17.11.2019
4033 Clouds 0 1014 93 0 2.02 184 00:21 17.11.2019
4034 Clouds 1 1014 92 0 2.02 184 23:42 16.11.2019
4035 Clear 1 1014 93 0 3.1 190 23:19 16.11.2019
4036 Clear 0 1014 92 0 0.45 112 22:54 16.11.2019
4037 Clear 1 1014 92 0 0.45 67 22:36 16.11.2019
4038 Clear 1 1014 92 0 1.34 71 22:18 16.11.2019
4039 Clear 2 1013 92 0 3.1 190 21:41 16.11.2019
4040 Clear 2 1013 92 0 3.1 190 21:23 16.11.2019
4041 Clear 2 1013 92 0 3.1 190 20:58 16.11.2019
4042 Clear 2 1013 92 0 3.1 190 20:58 16.11.2019
4043 Clear 3 1013 92 0 3.1 190 20:39 16.11.2019
4044 Clouds 3 1013 91 0 0.45 146 20:19 16.11.2019
4045 Clouds 4 1012 91 0 3.46 206 19:56 16.11.2019
4046 Clouds 4 1013 91 0 3.46 206 19:37 16.11.2019
4047 Clouds 4 1013 91 0 3.46 206 19:19 16.11.2019
4048 Clouds 4 1012 91 0 3.46 206 18:43 16.11.2019
4049 Clouds 4 1012 91 0 3.46 206 18:25 16.11.2019
4050 Clouds 5 1012 91 0 3.46 206 17:56 16.11.2019
4051 Clouds 5 1011 90 0 3.46 206 17:37 16.11.2019
4052 Clouds 5 1011 92 0 3.71 214 17:18 16.11.2019
4053 Clouds 6 1010 89 0 3.71 214 16:46 16.11.2019
4054 Clouds 6 1009 88 0 3.71 214 16:28 16.11.2019
4055 Clouds 7 1010 88 0 3.71 214 15:56 16.11.2019
4056 Clouds 7 1009 86 0 0.45 162 15:38 16.11.2019
4057 Clouds 7 1009 85 0 2.24 215 15:19 16.11.2019
4058 Clouds 7 1009 84 0 3.71 214 14:41 16.11.2019
4059 Rain 7 1008 85 0 0.89 234 14:22 16.11.2019
4060 Rain 7 1008 81 0 1.34 269 13:58 16.11.2019
4061 Rain 6 1009 87 0 3.13 293 13:39 16.11.2019
4062 Rain 6 1003 91 0 7.27 262 13:19 16.11.2019
4063 Rain 6 1007 84 0 7.27 262 12:59 16.11.2019
4064 Rain 6 1007 89 0 0.89 293 12:41 16.11.2019
4065 Rain 6 1007 89 0 0.89 308 12:20 16.11.2019
4066 Rain 6 1006 87 0 2.68 305 11:47 16.11.2019
4067 Rain 6 1006 90 0 0.45 243 11:28 16.11.2019
4068 Rain 6 1006 93 0 4.92 234 10:59 16.11.2019
4069 Rain 6 1006 95 0 3.13 242 10:41 16.11.2019
4070 Rain 6 1005 95 0 1.79 225 10:22 16.11.2019
4071 Rain 6 1005 95 0 1.79 224 09:56 16.11.2019
4072 Rain 6 1005 95 0 1.34 273 09:36 16.11.2019
4073 Rain 6 1004 95 0 3.13 243 09:18 16.11.2019
4074 Rain 6 1004 95 0 1.34 256 08:40 16.11.2019
4075 Rain 6 1003 95 0 5.12 279 08:20 16.11.2019
4076 Rain 6 1003 95 0 0.89 274 07:43 16.11.2019
4077 Rain 6 1003 95 0 0.45 252 07:22 16.11.2019
4078 Rain 5 1002 95 0 0.45 238 06:57 16.11.2019
4079 Rain 6 1003 95 0 5.12 279 06:39 16.11.2019
4080 Rain 5 1002 95 0 5.12 279 06:19 16.11.2019
4081 Clouds 5 1003 94 0 3.64 304 04:21 16.11.2019
4082 Clouds 5 1003 94 0 3.64 304 03:26 16.11.2019
4083 Clouds 5 1003 94 0 3.64 304 02:36 16.11.2019
4084 Clouds 5 1004 94 0 2.03 334 01:38 16.11.2019
4085 Clouds 5 1004 94 0 2.03 334 00:48 16.11.2019
4086 Clouds 5 1004 94 0 2.03 334 00:28 16.11.2019
4087 Clouds 5 1003 93 0 2.03 334 23:44 15.11.2019
4088 Clouds 5 1003 93 0 2.03 334 23:25 15.11.2019
4089 Clouds 5 1003 93 0 2.03 334 23:25 15.11.2019
4090 Clouds 5 1004 92 0 1.44 342 22:59 15.11.2019
4091 Clouds 5 1004 92 0 1.44 342 22:40 15.11.2019
4092 Clouds 5 1004 92 0 1.44 342 22:19 15.11.2019
4093 Clouds 5 1004 93 0 1.44 342 21:56 15.11.2019
4094 Clouds 5 1004 92 0 1.44 342 21:38 15.11.2019
4095 Clouds 5 1004 92 0 1.44 342 21:19 15.11.2019
4096 Clouds 5 1004 92 0 1.44 342 20:56 15.11.2019
4097 Clouds 6 1003 92 0 1.44 342 20:38 15.11.2019
4098 Clouds 6 1004 92 0 1.48 119 20:19 15.11.2019
4099 Clouds 6 1004 92 0 1.48 119 19:57 15.11.2019
4100 Clouds 6 1004 91 0 1.48 119 19:38 15.11.2019
4101 Clouds 6 1003 90 0 1.48 119 19:19 15.11.2019
4102 Clouds 7 1004 91 0 1.48 119 18:43 15.11.2019
4103 Clouds 7 1004 91 0 1.48 119 18:25 15.11.2019
4104 Clouds 7 1003 91 0 1.48 119 17:59 15.11.2019
4105 Clouds 7 1001 90 0 1.48 119 17:40 15.11.2019
4106 Clouds 8 1002 89 0 2.42 98 17:22 15.11.2019
4107 Clouds 8 1003 88 0 2.42 98 16:56 15.11.2019
4108 Clouds 8 1003 87 0 0.45 32 16:37 15.11.2019
4109 Clouds 9 1003 86 0 0.45 45 16:18 15.11.2019
4110 Clouds 9 1003 83 0 2.42 98 15:38 15.11.2019
4111 Clouds 9 1003 81 0 2.42 98 15:20 15.11.2019
4112 Clouds 9 1003 79 0 2.42 98 14:57 15.11.2019
4113 Clouds 9 1003 77 0 1.34 28 14:38 15.11.2019
4114 Clouds 9 1003 77 0 0.45 104 14:19 15.11.2019
4115 Clouds 9 1003 76 0 0.89 9 13:57 15.11.2019
4116 Clouds 9 1003 77 0 0.89 73 13:39 15.11.2019
4117 Clouds 9 1003 77 0 0.45 138 13:20 15.11.2019
4118 Clouds 8 1003 77 0 6.32 107 12:57 15.11.2019
4119 Clouds 8 1003 77 0 1.34 84 12:39 15.11.2019
4120 Clouds 8 1003 77 0 1.34 70 12:20 15.11.2019
4121 Clouds 8 1003 78 0 0.45 45 11:56 15.11.2019
4122 Clouds 7 1003 79 0 1.34 9 11:38 15.11.2019
4123 Clouds 7 1003 79 0 1.79 43 11:19 15.11.2019
4124 Clouds 7 1003 80 0 7.17 96 10:41 15.11.2019
4125 Clouds 6 1004 81 0 7.17 96 10:22 15.11.2019
4126 Clouds 6 1003 82 0 1.34 39 09:58 15.11.2019
4127 Clouds 6 1003 83 0 0.89 53 09:40 15.11.2019
4128 Clouds 5 1003 84 0 2.24 95 09:19 15.11.2019
4129 Clouds 5 1004 85 0 1.79 78 08:44 15.11.2019
4130 Clouds 5 1004 86 0 1.34 46 08:22 15.11.2019
4131 Clouds 5 1004 86 0 0.45 64 07:48 15.11.2019
4132 Clouds 5 1004 86 0 2.24 36 07:28 15.11.2019
4133 Clouds 4 1004 86 0 2.68 8 06:44 15.11.2019
4134 Clouds 4 1004 86 0 0.45 12 06:25 15.11.2019
4135 Clouds 4 1005 85 0 1.34 125 05:40 15.11.2019
4136 Clouds 4 1005 85 0 1.79 8 05:22 15.11.2019
4137 Clouds 4 1006 84 0 1.79 73 03:50 15.11.2019
4138 Clouds 4 1006 84 0 1.79 35 03:23 15.11.2019
4139 Clouds 4 1006 86 0 2.68 83 02:19 15.11.2019
4140 Clear 4 1006 87 0 1.79 64 01:33 15.11.2019
4141 Clear 4 1007 89 0 3.58 90 00:54 15.11.2019
4142 Clear 3 1007 92 0 3.58 35 00:33 15.11.2019
4143 Clear 3 1007 92 0 0.45 105 23:53 14.11.2019
4144 Clear 3 1007 91 0 1.79 52 23:28 14.11.2019
4145 Clear 3 1007 91 0 1.79 22 22:59 14.11.2019
4146 Clear 3 1007 91 0 1.34 70 22:39 14.11.2019
4147 Clear 4 1008 91 0 0.45 26 22:21 14.11.2019
4148 Clear 4 1008 91 0 0.45 26 22:21 14.11.2019
4149 Clear 4 1008 91 0 0.89 53 21:56 14.11.2019
4150 Clear 4 1008 91 0 1.34 83 21:38 14.11.2019
4151 Clear 4 1008 91 0 1.34 18 21:19 14.11.2019
4152 Clear 4 1007 89 0 0.45 36 20:42 14.11.2019
4153 Clouds 4 1008 87 0 0.45 344 20:24 14.11.2019
4154 Clouds 4 1008 86 0 0.89 45 19:59 14.11.2019
4155 Clouds 4 1008 86 0 1.34 47 19:41 14.11.2019
4156 Clouds 4 1008 86 0 0.45 54 19:18 14.11.2019
4157 Clouds 4 1008 84 0 1.34 86 18:56 14.11.2019
4158 Clouds 4 1008 82 0 0.89 73 18:38 14.11.2019
4159 Clouds 4 1008 82 0 0.89 70 18:20 14.11.2019
4160 Clouds 4 1008 82 0 0.89 70 18:20 14.11.2019
4161 Clouds 5 1008 82 0 1.34 88 17:55 14.11.2019
4162 Clouds 5 1008 80 0 1.34 135 17:37 14.11.2019
4163 Clouds 5 1008 80 0 3.98 92 17:19 14.11.2019
4164 Clouds 5 1007 77 0 2.24 77 16:57 14.11.2019
4165 Clouds 6 1008 76 0 2.24 59 16:36 14.11.2019
4166 Clouds 7 1008 75 0 1.79 84 16:18 14.11.2019
4167 Clouds 7 1008 73 0 1.79 108 15:56 14.11.2019
4168 Clouds 7 1008 73 0 2.24 97 15:37 14.11.2019
4169 Clouds 8 1008 72 0 0.45 105 15:19 14.11.2019
4170 Clouds 8 1004 68 0 3.98 92 14:44 14.11.2019
4171 Clouds 8 1008 71 0 1.34 71 14:22 14.11.2019
4172 Clouds 8 1008 71 0 1.34 71 14:22 14.11.2019
4173 Clouds 8 1008 68 0 1.79 46 13:57 14.11.2019
4174 Clouds 9 1008 69 0 1.79 111 13:38 14.11.2019
4175 Clouds 8 1008 71 0 1.79 98 13:19 14.11.2019
4176 Clear 8 1008 72 0 1.79 93 12:56 14.11.2019
4177 Clear 8 1008 74 0 2.24 74 12:37 14.11.2019
4178 Clear 8 1008 74 0 1.34 66 12:18 14.11.2019
4179 Clear 8 1008 75 0 0.89 145 11:39 14.11.2019
4180 Clear 7 1008 77 0 1.34 60 11:20 14.11.2019
4181 Clear 7 1008 77 0 1.79 67 11:20 14.11.2019
4182 Clear 7 1008 77 0 1.79 67 11:20 14.11.2019
4183 Clear 7 1008 79 0 2.68 64 10:58 14.11.2019
4184 Clear 6 1008 81 0 1.34 125 10:40 14.11.2019
4185 Clear 4 1008 82 0 0.45 121 10:20 14.11.2019
4186 Clear 4 1008 85 0 0.45 150 09:56 14.11.2019
4187 Clear 4 1007 87 0 3.47 151 09:38 14.11.2019
4188 Clear 5 1008 79 0 3.47 151 09:19 14.11.2019
4189 Clear 5 1008 79 0 3.47 151 08:47 14.11.2019
4190 Clear 5 1008 79 0 3.47 151 08:25 14.11.2019
4191 Clouds 2 1006 92 0 3.28 151 07:57 14.11.2019
4192 Clouds 2 1006 92 0 3.28 151 07:38 14.11.2019
4193 Clouds 2 1006 92 0 3.28 151 07:19 14.11.2019
4194 Clouds 2 1006 92 0 3.28 151 06:43 14.11.2019
4195 Clouds 2 1006 92 0 3.28 151 06:19 14.11.2019
4196 Clouds 2 1005 91 0 1.87 192 04:42 14.11.2019
4197 Clouds 2 1005 91 0 1.87 192 04:23 14.11.2019
4198 Clouds 2 1005 91 0 1.87 192 02:47 14.11.2019
4199 Clouds 2 1005 91 0 1.87 192 02:28 14.11.2019
4200 Clouds 3 1005 91 0 2.62 207 01:33 14.11.2019
4201 Clouds 3 1005 90 0 2.84 200 00:55 14.11.2019
4202 Clouds 3 1005 90 0 2.84 200 00:33 14.11.2019
4203 Clouds 3 1005 90 0 2.84 200 23:44 13.11.2019
4204 Clouds 3 1005 90 0 2.84 200 23:44 13.11.2019
4205 Clouds 3 1005 90 0 2.84 200 23:25 13.11.2019
4206 Clouds 4 1004 87 0 2.61 234 22:59 13.11.2019
4207 Clouds 4 1004 87 0 2.61 234 22:59 13.11.2019
4208 Clouds 4 1004 87 0 2.61 234 22:41 13.11.2019
4209 Clouds 5 1003 83 0 2.61 234 22:22 13.11.2019
4210 Clouds 5 1003 84 0 2.61 234 21:57 13.11.2019
4211 Clouds 5 1003 84 0 2.61 234 21:38 13.11.2019
4212 Clouds 5 1003 84 0 2.61 234 21:20 13.11.2019
4213 Clouds 5 1003 84 0 2.61 234 20:57 13.11.2019
4214 Clouds 5 1003 84 0 2.61 234 20:57 13.11.2019
4215 Clouds 5 1003 83 0 2.61 234 20:38 13.11.2019
4216 Clouds 5 1003 83 0 3.47 235 20:19 13.11.2019
4217 Clouds 5 1003 84 0 3.47 235 19:58 13.11.2019
4218 Clouds 5 1003 83 0 3.47 235 19:40 13.11.2019
4219 Clouds 5 1003 82 0 3.47 235 19:18 13.11.2019
4220 Clouds 5 1003 81 0 0.45 242 18:55 13.11.2019
4221 Clouds 5 1002 100 0 0.45 160 18:37 13.11.2019
4222 Clouds 5 1003 81 0 3.47 235 18:18 13.11.2019
4223 Clouds 5 1002 80 0 3.47 235 17:56 13.11.2019
4224 Clouds 6 1002 80 0 1.34 208 17:37 13.11.2019
4225 Clouds 6 1002 80 0 0.45 186 17:19 13.11.2019
4226 Clouds 6 1002 80 0 0.45 156 16:56 13.11.2019
4227 Clouds 6 1002 79 0 4.13 208 16:37 13.11.2019
4228 Clouds 6 1002 80 0 0.45 207 16:37 13.11.2019
4229 Clouds 6 1002 79 0 4.13 208 16:18 13.11.2019
4230 Clouds 7 1002 77 0 0.45 160 15:56 13.11.2019
4231 Clouds 7 1002 76 0 3.79 217 15:37 13.11.2019
4232 Clouds 7 1002 74 0 4.13 208 15:18 13.11.2019
4233 Clouds 7 1002 74 0 1.34 162 14:41 13.11.2019
4234 Clouds 7 1001 73 0 0.45 180 14:21 13.11.2019
4235 Clouds 7 1001 72 0 5.02 213 13:54 13.11.2019
4236 Clouds 8 1001 73 0 1.34 173 13:36 13.11.2019
4237 Clouds 8 1001 73 0 1.34 152 13:18 13.11.2019
4238 Clouds 7 1001 75 0 0.45 145 12:42 13.11.2019
4239 Clouds 7 1002 79 0 0.45 187 12:23 13.11.2019
4240 Clouds 6 1002 80 0 0.89 179 11:58 13.11.2019
4241 Clouds 6 1002 80 0 1.34 181 11:38 13.11.2019
4242 Clouds 6 1002 80 0 1.79 122 11:19 13.11.2019
4243 Clouds 6 1002 82 0 2.68 174 10:56 13.11.2019
4244 Clouds 5 1002 83 0 1.34 115 10:38 13.11.2019
4245 Clouds 5 1002 86 0 1.34 119 10:19 13.11.2019
4246 Clouds 4 1002 88 0 0.89 90 09:43 13.11.2019
4247 Clouds 3 1002 89 0 0.89 162 09:21 13.11.2019
4248 Clouds 3 1002 89 0 0.89 162 09:21 13.11.2019
4249 Clouds 3 1002 89 0 4.63 198 09:21 13.11.2019
4250 Clouds 3 1002 89 0 4.63 198 09:21 13.11.2019
4251 Clouds 3 1002 91 0 0.45 124 08:44 13.11.2019
4252 Clouds 2 1002 92 0 1.34 166 08:26 13.11.2019
4253 Clouds 2 1002 93 0 0.45 119 07:59 13.11.2019
4254 Clouds 2 1002 92 0 3.5 183 07:41 13.11.2019
4255 Clouds 2 1002 92 0 3.5 183 07:19 13.11.2019
4256 Clouds 2 1002 93 0 0.89 190 06:43 13.11.2019
4257 Clouds 1 1002 92 0 3.5 183 06:19 13.11.2019
4258 Clouds 1 1002 92 0 3.5 183 06:19 13.11.2019
4259 Clouds 1 1002 92 0 3.5 183 06:19 13.11.2019
4260 Clouds 1 1002 92 0 3.5 183 06:19 13.11.2019
4261 Clouds 1 1002 92 0 3.5 183 06:19 13.11.2019
4262 Clouds 2 1002 92 0 3.5 183 05:48 13.11.2019
4263 Clouds 2 1001 92 0 3.17 172 05:29 13.11.2019
4264 Clouds 2 1001 91 0 0.45 114 04:19 13.11.2019
4265 Clouds 3 1002 91 0 0.45 179 01:54 13.11.2019
4266 Clouds 3 1002 91 0 3.82 168 01:35 13.11.2019
4267 Clouds 3 1003 88 0 3.82 168 00:43 13.11.2019
4268 Clouds 4 1003 89 0 3.82 168 23:59 12.11.2019
4269 Clouds 4 1003 88 0 3.82 168 23:40 12.11.2019
4270 Clouds 4 1003 88 0 3.07 170 23:21 12.11.2019
4271 Clouds 4 1003 89 0 3.07 170 22:43 12.11.2019
4272 Clouds 4 1003 89 0 3.07 170 22:20 12.11.2019
4273 Clouds 4 1003 89 0 0.45 313 21:59 12.11.2019
4274 Clouds 4 1003 89 0 3.07 170 21:40 12.11.2019
4275 Clouds 4 1003 89 0 0.45 135 21:22 12.11.2019
4276 Clouds 4 1003 88 0 0.45 152 20:56 12.11.2019
4277 Clouds 4 1003 88 0 1.34 115 20:37 12.11.2019
4278 Clouds 4 1003 88 0 0.89 179 20:18 12.11.2019
4279 Clouds 4 1004 87 0 1.79 149 19:57 12.11.2019
4280 Clouds 4 1003 87 0 0.45 153 19:38 12.11.2019
4281 Clouds 4 1003 87 0 4.05 167 19:19 12.11.2019
4282 Clouds 4 1003 87 0 0.45 181 18:58 12.11.2019
4283 Clouds 4 1003 87 0 0.89 150 18:58 12.11.2019
4284 Clouds 4 1003 87 0 4.05 167 18:39 12.11.2019
4285 Clouds 4 1003 86 0 4.05 167 18:21 12.11.2019
4286 Clouds 5 1004 85 0 1.34 138 17:57 12.11.2019
4287 Clouds 5 1004 85 0 0.89 107 17:57 12.11.2019
4288 Clouds 5 1004 85 0 0.45 78 17:39 12.11.2019
4289 Clear 5 1004 84 0 1.34 138 17:20 12.11.2019
4290 Clear 5 1004 82 0 0.45 153 16:56 12.11.2019
4291 Clear 6 1004 81 0 0.89 155 16:38 12.11.2019
4292 Clear 7 1004 81 0 0.89 152 16:20 12.11.2019
4293 Clear 7 1004 79 0 0.45 159 15:41 12.11.2019
4294 Clear 8 1004 77 0 1.79 164 15:21 12.11.2019
4295 Clear 8 1004 75 0 1.79 170 14:56 12.11.2019
4296 Clear 8 1004 70 0 0.45 181 14:37 12.11.2019
4297 Clouds 8 1004 70 0 0.45 101 14:18 12.11.2019
4298 Clouds 8 1004 70 0 1.79 170 13:56 12.11.2019
4299 Clouds 8 1004 69 0 1.34 145 13:37 12.11.2019
4300 Clouds 8 1004 69 0 0.89 172 13:18 12.11.2019
4301 Clouds 8 1005 74 0 2.68 164 12:42 12.11.2019
4302 Clouds 8 1005 72 0 2.24 91 12:42 12.11.2019
4303 Clouds 7 1005 73 0 0.45 97 12:19 12.11.2019
4304 Clouds 7 1005 74 0 1.79 152 11:58 12.11.2019
4305 Clouds 7 1005 78 0 5.77 201 11:40 12.11.2019
4306 Clouds 6 1005 78 0 0.89 187 11:21 12.11.2019
4307 Clouds 6 1005 77 0 1.79 248 10:56 12.11.2019
4308 Clouds 6 1005 77 0 3.13 141 10:37 12.11.2019
4309 Clouds 6 1006 78 0 2.24 164 10:19 12.11.2019
4310 Clouds 5 1006 85 0 1.34 104 09:40 12.11.2019
4311 Clouds 5 1006 85 0 2.24 167 09:21 12.11.2019
4312 Clouds 4 1006 90 0 1.79 163 08:52 12.11.2019
4313 Clouds 4 1006 89 0 5.74 204 08:30 12.11.2019
4314 Clouds 3 1006 89 0 1.79 155 07:55 12.11.2019
4315 Clouds 4 1005 88 0 0.45 164 07:36 12.11.2019
4316 Clouds 4 1005 88 0 1.34 181 07:18 12.11.2019
4317 Clouds 4 1005 87 0 1.34 170 06:39 12.11.2019
4318 Clouds 4 1005 87 0 0.45 170 06:21 12.11.2019
4319 Clouds 4 1005 86 0 0.45 167 05:46 12.11.2019
4320 Clouds 4 1004 86 0 1.34 172 04:44 12.11.2019
4321 Clouds 3 1005 87 0 1.34 184 03:39 12.11.2019
4322 Clouds 3 1005 86 0 0.45 152 01:44 12.11.2019
4323 Clouds 3 1005 87 0 1.79 152 01:21 12.11.2019
4324 Clouds 2 1005 87 0 1.79 208 00:47 12.11.2019
4325 Clouds 3 1005 87 0 0.89 225 00:24 12.11.2019
4326 Clouds 3 1005 87 0 1.79 176 23:44 11.11.2019
4327 Clouds 3 1005 87 0 0.45 143 23:23 11.11.2019
4328 Clouds 3 1005 87 0 0.45 145 22:57 11.11.2019
4329 Clouds 2 1005 87 0 4.01 179 22:36 11.11.2019
4330 Clouds 2 1005 87 0 4.01 179 22:36 11.11.2019
4331 Clouds 2 1005 87 0 1.34 145 22:18 11.11.2019
4332 Clouds 2 1005 87 0 0.45 105 21:56 11.11.2019
4333 Clouds 2 1005 87 0 1.79 159 21:38 11.11.2019
4334 Clouds 2 1005 87 0 0.45 163 21:19 11.11.2019
4335 Clouds 3 1005 87 0 0.89 111 20:42 11.11.2019
4336 Clouds 2 1006 87 0 1.34 164 20:20 11.11.2019
4337 Clouds 2 1006 87 0 0.45 87 19:57 11.11.2019
4338 Clouds 2 1006 87 0 0.45 87 19:57 11.11.2019
4339 Clouds 2 1006 86 0 1.34 146 19:39 11.11.2019
4340 Clouds 2 1006 89 0 2.68 153 19:18 11.11.2019
4341 Clouds 2 1006 91 0 1.79 156 18:55 11.11.2019
4342 Clouds 2 1007 91 0 2.68 156 18:37 11.11.2019
4343 Clouds 2 1007 92 0 0.45 111 18:19 11.11.2019
4344 Clouds 2 1007 90 0 1.34 164 17:42 11.11.2019
4345 Clouds 3 1007 89 0 0.45 91 17:24 11.11.2019
4346 Clouds 4 1007 89 0 1.34 149 16:42 11.11.2019
4347 Clouds 4 1007 87 0 2.68 162 16:24 11.11.2019
4348 Clouds 4 1008 86 0 1.34 83 15:58 11.11.2019
4349 Clouds 5 1008 86 0 2.68 135 15:40 11.11.2019
4350 Clouds 5 1008 84 0 1.79 160 15:19 11.11.2019
4351 Clouds 5 1008 84 0 1.79 160 15:19 11.11.2019
4352 Clouds 5 1008 84 0 1.79 160 15:19 11.11.2019
4353 Clouds 6 1008 80 0 2.24 150 14:44 11.11.2019
4354 Clouds 5 1009 82 0 2.68 117 14:25 11.11.2019
4355 Clouds 5 1009 84 0 1.79 98 13:58 11.11.2019
4356 Clouds 5 1009 85 0 1.79 122 13:38 11.11.2019
4357 Clouds 5 1009 85 0 1.34 119 13:19 11.11.2019
4358 Clouds 5 1009 84 0 1.34 131 12:57 11.11.2019
4359 Clouds 5 1010 86 0 1.79 146 12:39 11.11.2019
4360 Clouds 5 1010 86 0 0.89 93 12:39 11.11.2019
4361 Clouds 5 975 86 0 3.58 174 12:21 11.11.2019
4362 Clouds 5 1010 85 0 3.58 162 11:42 11.11.2019
4363 Clouds 3 1007 92 0 4.89 184 11:22 11.11.2019
4364 Clouds 3 1007 92 0 4.89 184 11:22 11.11.2019
4365 Clouds 3 1011 87 0 0.89 122 10:58 11.11.2019
4366 Clouds 3 1011 89 0 1.79 149 10:39 11.11.2019
4367 Clouds 2 1011 93 0 0.89 109 10:18 11.11.2019
4368 Clouds 2 1011 93 0 1.79 164 09:56 11.11.2019
4369 Clouds 2 1012 93 0 0.45 119 09:36 11.11.2019
4370 Clouds 2 1012 94 0 1.79 176 09:18 11.11.2019
4371 Clouds 1 1012 93 0 4.76 180 08:39 11.11.2019
4372 Clear 1 1013 93 0 2.8 172 08:20 11.11.2019
4373 Clear 1 1013 93 0 2.8 172 07:56 11.11.2019
4374 Clear 0 1013 93 0 2.8 172 07:36 11.11.2019
4375 Clear 0 1013 92 0 2.8 172 07:18 11.11.2019
4376 Clear 1 1014 93 0 2.8 172 06:44 11.11.2019
4377 Clear 0 1014 94 0 2.8 172 06:21 11.11.2019
4378 Clear 0 1014 93 0 2.8 172 05:50 11.11.2019
4379 Clear -1 1014 92 0 1.96 202 04:29 11.11.2019
4380 Clear 0 1014 92 0 1.96 202 03:23 11.11.2019
4381 Clear 0 1014 93 0 2.61 224 02:22 11.11.2019
4382 Clear 0 1014 94 0 2.61 224 01:55 11.11.2019
4383 Clear 0 1015 93 0 2.61 224 01:34 11.11.2019
4384 Clear 0 1015 92 0 2.43 223 00:48 11.11.2019
4385 Clear 0 1015 92 0 2.43 223 00:20 11.11.2019
4386 Clear 0 1015 92 0 2.43 223 23:39 10.11.2019
4387 Clear 0 1015 94 0 2.89 222 23:20 10.11.2019
4388 Clear 0 1015 94 0 2.89 222 22:58 10.11.2019
4389 Clear 0 1015 93 0 2.89 222 22:38 10.11.2019
4390 Clear 1 1015 92 0 2.89 222 22:20 10.11.2019
4391 Clear 1 1015 92 0 2.89 222 22:20 10.11.2019
4392 Clear 1 1015 92 0 2.89 222 21:58 10.11.2019
4393 Clear 1 1015 92 0 2.89 222 21:58 10.11.2019
4394 Clear 1 1015 91 0 2.89 222 21:39 10.11.2019
4395 Clear 1 1015 91 0 2.89 222 21:21 10.11.2019
4396 Clear 1 1015 91 0 2.89 222 20:56 10.11.2019
4397 Clear 2 1015 91 0 2.89 222 20:38 10.11.2019
4398 Clouds 2 1015 91 0 1.74 139 20:20 10.11.2019
4399 Clouds 2 1015 91 0 1.74 139 19:54 10.11.2019
4400 Clouds 2 1015 90 0 1.74 139 19:36 10.11.2019
4401 Clouds 2 1015 90 0 0.89 122 19:18 10.11.2019
4402 Clouds 3 1015 93 0 1.79 204 18:54 10.11.2019
4403 Clouds 3 1015 93 0 1.74 139 18:36 10.11.2019
4404 Clouds 3 1015 93 0 1.74 139 18:36 10.11.2019
4405 Clouds 3 1015 93 0 1.74 139 18:18 10.11.2019
4406 Clouds 3 1015 91 0 1.74 139 17:55 10.11.2019
4407 Clouds 3 1015 92 0 1.74 139 17:55 10.11.2019
4408 Clouds 4 1015 91 0 1.74 139 17:37 10.11.2019
4409 Rain 4 1015 89 0 1.49 67 17:18 10.11.2019
4410 Rain 5 1015 89 0 1.49 67 16:43 10.11.2019
4411 Rain 6 1015 88 0 1.49 67 16:25 10.11.2019
4412 Rain 7 1014 85 0 1.49 67 15:57 10.11.2019
4413 Rain 7 1014 82 0 1.49 67 15:38 10.11.2019
4414 Rain 8 1014 80 0 0.45 109 15:19 10.11.2019
4415 Rain 8 1014 79 0 1.49 67 15:19 10.11.2019
4416 Rain 8 1014 76 0 1.49 67 14:58 10.11.2019
4417 Rain 9 1014 78 0 1.49 67 14:38 10.11.2019
4418 Clear 9 1014 75 0 0.45 108 14:20 10.11.2019
4419 Clear 9 1014 78 0 1.34 143 13:56 10.11.2019
4420 Clear 9 1014 79 0 0.32 268 13:38 10.11.2019
4421 Clear 9 1014 82 0 1.79 87 13:19 10.11.2019
4422 Clear 9 1013 80 0 0.76 311 12:41 10.11.2019
4423 Clear 9 1013 81 0 0.89 11 12:20 10.11.2019
4424 Clear 8 1013 84 0 0.76 311 11:57 10.11.2019
4425 Clear 7 1013 88 0 0.76 311 11:38 10.11.2019
4426 Clear 5 1013 89 0 1.3 202 11:20 10.11.2019
4427 Clear 5 1013 89 0 1.3 202 10:55 10.11.2019
4428 Clear 4 1013 91 0 1.3 202 10:37 10.11.2019
4429 Clear 3 1013 92 0 0.45 77 10:18 10.11.2019
4430 Clear 4 1012 92 0 1.3 202 09:41 10.11.2019
4431 Clear 3 1013 93 0 1.3 202 09:22 10.11.2019
4432 Clear 1 1013 92 0 1.3 202 08:40 10.11.2019
4433 Clear 0 1012 93 0 1.29 194 08:21 10.11.2019
4434 Clear 0 1012 92 0 1.29 194 07:56 10.11.2019
4435 Clear -1 1012 92 0 1.29 194 07:37 10.11.2019
4436 Clear 0 1012 92 0 1.29 194 07:18 10.11.2019
4437 Clear 0 1012 93 0 1.29 194 06:22 10.11.2019
4438 Clouds 1 1011 92 0 1.24 191 04:45 10.11.2019
4439 Clouds 2 1010 91 0 1.24 191 02:51 10.11.2019
4440 Clouds 3 1010 92 0 1.57 200 01:43 10.11.2019
4441 Clouds 3 1010 92 0 1.56 191 01:19 10.11.2019
4442 Clouds 4 1009 91 0 1.56 191 00:37 10.11.2019
4443 Clouds 5 1009 91 0 1.56 191 23:43 09.11.2019
4444 Clear 5 1009 91 0 1.59 252 23:20 09.11.2019
4445 Clear 5 1009 91 0 1.59 252 22:59 09.11.2019
4446 Clear 5 1009 91 0 1.59 252 22:40 09.11.2019
4447 Clear 5 1009 91 0 0.45 119 22:19 09.11.2019
4448 Clear 5 1009 91 0 1.59 252 21:55 09.11.2019
4449 Clear 5 1009 91 0 1.59 252 21:37 09.11.2019
4450 Clear 5 1009 90 0 1.59 252 21:19 09.11.2019
4451 Clear 5 1009 90 0 1.59 252 20:41 09.11.2019
4452 Clouds 5 1008 89 0 1.94 226 20:22 09.11.2019
4453 Clouds 5 1008 89 0 1.94 226 19:57 09.11.2019
4454 Clouds 6 1008 88 0 1.94 226 19:38 09.11.2019
4455 Clouds 6 1008 89 0 1.94 226 19:19 09.11.2019
4456 Clouds 6 1008 88 0 1.94 226 18:41 09.11.2019
4457 Clouds 6 1008 89 0 1.94 226 18:19 09.11.2019
4458 Clouds 6 1008 89 0 1.94 226 18:19 09.11.2019
4459 Clouds 6 1008 91 0 1.94 226 17:59 09.11.2019
4460 Clouds 7 1008 88 0 1.94 226 17:40 09.11.2019
4461 Rain 7 1008 88 0 0.82 221 17:22 09.11.2019
4462 Rain 7 1008 88 0 0.82 221 16:43 09.11.2019
4463 Rain 8 1008 87 0 0.82 221 16:22 09.11.2019
4464 Rain 8 1008 86 0 0.82 221 15:58 09.11.2019
4465 Rain 8 1008 83 0 0.45 258 15:40 09.11.2019
4466 Rain 8 1008 82 0 0.82 221 15:21 09.11.2019
4467 Rain 8 1008 82 0 1.79 262 14:43 09.11.2019
4468 Clouds 8 1007 81 0 1.34 258 14:22 09.11.2019
4469 Clouds 8 1007 81 0 0.45 232 13:57 09.11.2019
4470 Clouds 8 1007 81 0 3.49 276 13:39 09.11.2019
4471 Clouds 8 1007 81 0 0.89 287 13:19 09.11.2019
4472 Clouds 8 1007 82 0 1.34 231 12:55 09.11.2019
4473 Clouds 8 1007 82 0 1.79 258 12:37 09.11.2019
4474 Clouds 8 1007 82 0 1.79 258 12:37 09.11.2019
4475 Clouds 8 1007 81 0 3.38 269 12:37 09.11.2019
4476 Clouds 8 1007 80 0 0.45 232 12:18 09.11.2019
4477 Clouds 8 1007 84 0 1.79 146 11:47 09.11.2019
4478 Rain 7 1007 85 0 0.89 253 11:20 09.11.2019
4479 Rain 7 1003 99 0 3.83 293 10:56 09.11.2019
4480 Rain 7 1003 99 0 3.83 293 10:38 09.11.2019
4481 Rain 7 1003 99 0 3.83 293 10:18 09.11.2019
4482 Rain 7 1007 89 0 3.83 293 09:43 09.11.2019
4483 Rain 7 1007 89 0 1.34 273 09:21 09.11.2019
4484 Rain 6 1007 89 0 2.24 284 08:52 09.11.2019
4485 Clouds 7 1007 89 0 1.34 307 08:26 09.11.2019
4486 Rain 7 1007 89 0 3.13 311 07:57 09.11.2019
4487 Rain 6 1006 89 0 3.13 293 07:39 09.11.2019
4488 Rain 6 1006 90 0 1.79 300 07:20 09.11.2019
4489 Rain 6 1006 90 0 1.79 318 06:46 09.11.2019
4490 Rain 6 1006 91 0 0.89 298 06:28 09.11.2019
4491 Rain 7 1006 90 0 1.34 303 05:40 09.11.2019
4492 Rain 7 1005 91 0 1.34 290 04:30 09.11.2019
4493 Rain 7 1005 92 0 1.34 283 02:57 09.11.2019
4494 Rain 7 1006 92 0 0.45 297 02:38 09.11.2019
4495 Rain 7 1006 93 0 1.34 304 01:40 09.11.2019
4496 Clouds 7 1006 93 0 1.34 279 00:46 09.11.2019
4497 Clouds 7 1006 94 0 1.34 314 00:27 09.11.2019
4498 Clouds 7 1005 95 0 1.34 351 23:42 08.11.2019
4499 Rain 7 1006 95 0 4.22 344 23:23 08.11.2019
4500 Rain 7 1006 95 0 2.68 308 22:59 08.11.2019
4501 Rain 7 1006 95 0 1.79 324 22:41 08.11.2019
4502 Rain 7 1006 95 0 0.45 300 22:21 08.11.2019
4503 Rain 7 1006 95 0 0.45 321 21:55 08.11.2019
4504 Rain 7 1006 95 0 0.89 314 21:36 08.11.2019
4505 Rain 7 1006 95 0 1.34 325 21:18 08.11.2019
4506 Rain 7 1006 95 0 3.13 297 20:41 08.11.2019
4507 Rain 7 1006 95 0 1.34 305 20:21 08.11.2019
4508 Rain 7 1006 95 0 3.13 311 19:58 08.11.2019
4509 Rain 7 1006 95 0 1.79 313 19:58 08.11.2019
4510 Rain 7 1006 95 0 0.89 318 19:38 08.11.2019
4511 Rain 7 1006 95 0 1.34 322 19:18 08.11.2019
4512 Rain 7 1007 95 0 1.34 329 18:55 08.11.2019
4513 Rain 7 1007 95 0 1.79 341 18:37 08.11.2019
4514 Rain 8 1006 95 0 4.16 2 18:19 08.11.2019
4515 Rain 8 1006 95 0 4.16 2 17:55 08.11.2019
4516 Rain 8 1006 94 0 4.16 2 17:37 08.11.2019
4517 Clouds 8 1006 94 0 0.89 335 17:18 08.11.2019
4518 Clouds 8 1006 94 0 1.79 332 16:57 08.11.2019
4519 Clouds 8 1007 92 0 1.34 339 16:39 08.11.2019
4520 Clouds 8 1006 88 0 0.89 355 16:19 08.11.2019
4521 Clouds 8 1007 86 0 1.34 5 15:56 08.11.2019
4522 Clouds 8 1007 85 0 0.45 318 15:38 08.11.2019
4523 Clouds 9 1006 85 0 2.64 22 15:20 08.11.2019
4524 Clouds 9 1006 85 0 2.64 22 14:55 08.11.2019
4525 Clouds 9 1007 82 0 0.45 14 14:36 08.11.2019
4526 Clouds 9 1007 81 0 1.9 52 14:18 08.11.2019
4527 Clouds 9 1007 82 0 1.9 52 13:55 08.11.2019
4528 Clouds 10 1007 82 0 1.34 359 13:36 08.11.2019
4529 Clouds 9 1007 81 0 1.9 52 13:18 08.11.2019
4530 Clouds 10 1007 83 0 0.45 329 12:42 08.11.2019
4531 Clouds 9 1007 84 0 0.89 344 12:24 08.11.2019
4532 Clouds 9 1007 85 0 0.45 346 11:56 08.11.2019
4533 Clouds 8 1007 85 0 2.36 36 11:37 08.11.2019
4534 Clouds 9 1007 86 0 0.94 14 11:19 08.11.2019
4535 Clouds 8 1007 87 0 0.94 14 10:56 08.11.2019
4536 Clouds 7 1007 87 0 0.94 14 10:38 08.11.2019
4537 Clouds 7 1008 89 0 0.94 14 10:20 08.11.2019
4538 Clouds 7 1008 75 0 0.94 14 09:41 08.11.2019
4539 Clouds 7 1008 75 0 0.94 14 09:20 08.11.2019
4540 Clouds 7 1008 75 0 0.94 14 09:20 08.11.2019
4541 Clouds 7 1008 75 0 0.94 14 08:59 08.11.2019
4542 Clouds 7 1008 75 0 0.94 14 08:37 08.11.2019
4543 Clouds 5 1008 85 0 1.07 136 08:18 08.11.2019
4544 Clouds 5 1008 85 0 1.07 136 07:40 08.11.2019
4545 Clouds 5 1008 85 0 1.07 136 07:22 08.11.2019
4546 Clouds 5 1008 85 0 1.07 136 06:41 08.11.2019
4547 Clouds 5 1008 85 0 1.07 136 06:22 08.11.2019
4548 Clouds 5 1008 85 0 1.07 136 05:55 08.11.2019
4549 Clouds 5 1008 85 0 1.07 136 05:55 08.11.2019
4550 Clouds 6 1007 86 0 2.71 240 05:22 08.11.2019
4551 Clouds 6 1007 86 0 2.71 240 03:46 08.11.2019
4552 Clouds 6 1007 86 0 2.71 240 03:24 08.11.2019
4553 Clouds 6 1007 86 0 2.71 240 02:47 08.11.2019
4554 Clouds 7 1006 86 0 3.89 227 01:49 08.11.2019
4555 Clouds 7 1006 87 0 2.9 219 01:30 08.11.2019
4556 Clouds 8 1004 85 0 0.45 163 00:37 08.11.2019
4557 Clouds 8 1004 85 0 0.45 163 00:18 08.11.2019
4558 Clouds 8 1004 85 0 0.45 163 23:43 07.11.2019
4559 Clouds 8 1004 85 0 0.45 163 23:24 07.11.2019
4560 Clouds 8 1004 82 0 4.39 195 22:55 07.11.2019
4561 Clouds 8 1004 83 0 0.89 228 22:36 07.11.2019
4562 Clouds 8 1003 84 0 1.34 142 22:18 07.11.2019
4563 Clouds 9 1003 84 0 4.39 195 21:38 07.11.2019
4564 Clouds 9 1003 83 0 4.39 195 21:20 07.11.2019
4565 Clouds 9 1003 82 0 0.45 190 20:58 07.11.2019
4566 Clouds 9 1003 83 0 1.79 163 20:40 07.11.2019
4567 Clouds 9 1002 82 0 1.34 101 20:21 07.11.2019
4568 Clouds 9 1002 81 0 1.79 155 19:57 07.11.2019
4569 Clouds 9 1002 81 0 1.79 142 19:57 07.11.2019
4570 Clouds 10 1001 81 0 1.79 155 19:38 07.11.2019
4571 Clouds 10 1001 80 0 0.45 94 19:20 07.11.2019
4572 Clouds 10 1002 80 0 2.68 167 18:57 07.11.2019
4573 Clouds 9 1002 81 0 0.89 139 18:38 07.11.2019
4574 Clouds 9 1002 81 0 0.45 146 18:19 07.11.2019
4575 Clouds 9 1002 80 0 1.79 117 17:54 07.11.2019
4576 Clouds 9 1002 82 0 1.34 64 17:36 07.11.2019
4577 Clouds 10 1002 82 0 1.79 115 17:18 07.11.2019
4578 Clouds 10 1002 82 0 2.68 150 16:54 07.11.2019
4579 Clouds 10 1001 83 0 1.79 164 16:36 07.11.2019
4580 Clouds 10 1001 82 0 0.89 105 16:18 07.11.2019
4581 Clouds 11 1001 82 0 1.34 173 15:40 07.11.2019
4582 Clouds 11 1001 81 0 0.45 174 15:20 07.11.2019
4583 Clouds 12 1001 77 0 3.82 165 14:56 07.11.2019
4584 Clouds 12 1001 75 0 0.45 121 14:37 07.11.2019
4585 Clouds 12 1001 76 0 0.89 132 14:19 07.11.2019
4586 Clouds 12 1001 76 0 1.79 146 13:54 07.11.2019
4587 Clouds 12 1001 76 0 3.58 166 13:36 07.11.2019
4588 Clouds 12 1001 76 0 1.34 129 13:18 07.11.2019
4589 Clouds 11 1001 78 0 0.45 149 12:55 07.11.2019
4590 Clouds 11 1001 83 0 1.79 170 12:37 07.11.2019
4591 Clouds 11 1001 80 0 0.45 142 12:18 07.11.2019
4592 Clouds 11 1001 80 0 0.45 142 12:18 07.11.2019
4593 Clouds 10 1002 82 0 0.89 174 11:41 07.11.2019
4594 Clouds 9 1002 84 0 1.34 159 11:22 07.11.2019
4595 Clouds 9 1002 85 0 1.34 132 10:42 07.11.2019
4596 Clouds 9 998 10 0 3.36 198 10:19 07.11.2019
4597 Clouds 9 998 10 0 3.36 198 10:19 07.11.2019
4598 Clouds 8 1002 89 0 0.45 87 09:55 07.11.2019
4599 Clouds 8 1002 90 0 3.36 198 09:36 07.11.2019
4600 Clouds 8 1002 91 0 3.36 198 09:18 07.11.2019
4601 Clouds 7 1002 91 0 3.36 198 08:41 07.11.2019
4602 Rain 7 1002 92 0 0.96 103 08:22 07.11.2019
4603 Rain 6 1002 93 0 0.96 103 07:57 07.11.2019
4604 Rain 6 1002 92 0 0.96 103 07:38 07.11.2019
4605 Rain 6 1002 92 0 0.96 103 07:38 07.11.2019
4606 Rain 6 1002 92 0 0.96 103 07:20 07.11.2019
4607 Rain 6 1002 93 0 0.96 103 06:45 07.11.2019
4608 Rain 6 1002 93 0 0.96 103 06:25 07.11.2019
4609 Rain 6 1002 93 0 0.96 103 05:50 07.11.2019
4610 Rain 6 1002 93 0 0.96 103 05:31 07.11.2019
4611 Clouds 5 1002 93 0 0.54 325 04:52 07.11.2019
4612 Clouds 5 998 10 0 0.54 325 04:30 07.11.2019
4613 Clouds 7 1003 93 0 1.46 268 01:49 07.11.2019
4614 Clouds 7 1003 92 0 1.51 257 00:46 07.11.2019
4615 Clouds 7 1003 93 0 1.51 257 00:19 07.11.2019
4616 Clouds 7 1003 93 0 1.51 257 23:47 06.11.2019
4617 Clouds 7 1003 93 0 2.02 205 23:21 06.11.2019
4618 Clouds 7 1003 93 0 2.02 205 22:56 06.11.2019
4619 Clouds 7 1003 93 0 2.02 205 22:37 06.11.2019
4620 Clouds 7 1003 93 0 2.02 205 22:18 06.11.2019
4621 Clouds 7 1003 93 0 2.02 205 22:18 06.11.2019
4622 Clouds 7 1003 93 0 2.02 205 21:42 06.11.2019
4623 Clouds 7 1003 93 0 2.02 205 21:21 06.11.2019
4624 Clouds 7 1003 93 0 2.02 205 20:59 06.11.2019
4625 Clouds 7 1003 93 0 2.02 205 20:40 06.11.2019
4626 Clouds 7 1003 93 0 1.86 237 20:21 06.11.2019
4627 Clouds 8 1002 92 0 1.86 237 19:59 06.11.2019
4628 Clouds 8 1002 92 0 1.86 237 19:39 06.11.2019
4629 Clouds 8 1002 92 0 1.86 237 19:21 06.11.2019
4630 Clouds 8 1002 92 0 1.86 237 18:58 06.11.2019
4631 Clouds 8 1002 91 0 1.86 237 18:38 06.11.2019
4632 Clouds 8 1002 92 0 1.86 237 18:19 06.11.2019
4633 Clouds 8 1002 92 0 1.86 237 17:56 06.11.2019
4634 Clouds 8 1002 92 0 1.86 237 17:56 06.11.2019
4635 Clouds 8 1002 92 0 1.86 237 17:37 06.11.2019
4636 Rain 8 1002 92 0 2.37 263 17:18 06.11.2019
4637 Rain 8 1002 91 0 2.37 263 16:55 06.11.2019
4638 Rain 9 1001 91 0 2.37 263 16:37 06.11.2019
4639 Rain 9 1001 91 0 2.37 263 16:37 06.11.2019
4640 Rain 9 1001 90 0 2.37 263 16:18 06.11.2019
4641 Rain 9 1001 90 0 2.37 263 15:54 06.11.2019
4642 Rain 9 1001 88 0 2.37 263 15:36 06.11.2019
4643 Rain 9 1001 90 0 0.45 243 15:18 06.11.2019
4644 Rain 10 1001 89 0 2.37 263 14:55 06.11.2019
4645 Rain 10 1001 90 0 2.37 263 14:55 06.11.2019
4646 Rain 10 1001 90 0 2.37 263 14:37 06.11.2019
4647 Rain 10 1001 90 0 3.82 273 14:19 06.11.2019
4648 Rain 10 1000 90 0 3.82 273 13:40 06.11.2019
4649 Rain 10 1000 89 0 3.82 273 13:40 06.11.2019
4650 Rain 10 1000 89 0 5.62 283 13:22 06.11.2019
4651 Rain 10 1000 90 0 5.62 283 12:58 06.11.2019
4652 Rain 10 1000 90 0 0.45 245 12:39 06.11.2019
4653 Rain 9 1000 90 0 5.62 283 12:21 06.11.2019
4654 Rain 9 1000 89 0 5.62 283 11:58 06.11.2019
4655 Rain 9 1000 89 0 5.62 283 11:38 06.11.2019
4656 Rain 10 1000 88 0 4.01 228 11:18 06.11.2019
4657 Rain 9 1000 88 0 4.01 228 10:56 06.11.2019
4658 Rain 9 1000 87 0 4.01 228 10:38 06.11.2019
4659 Rain 9 1000 87 0 0.45 225 10:20 06.11.2019
4660 Rain 9 1000 87 0 0.45 225 10:20 06.11.2019
4661 Rain 9 1000 87 0 4.01 228 09:56 06.11.2019
4662 Rain 8 1000 87 0 4.01 228 09:36 06.11.2019
4663 Rain 8 1000 87 0 4.01 228 09:18 06.11.2019
4664 Rain 8 999 88 0 0.45 197 08:54 06.11.2019
4665 Rain 8 999 88 0 4.01 228 08:36 06.11.2019
4666 Rain 8 999 88 0 4.01 228 08:36 06.11.2019
4667 Clouds 7 999 86 0 2.59 236 08:18 06.11.2019
4668 Clouds 7 999 86 0 2.59 236 07:40 06.11.2019
4669 Clouds 7 998 86 0 2.59 236 07:22 06.11.2019
4670 Clouds 7 998 86 0 2.59 236 06:47 06.11.2019
4671 Clouds 7 998 85 0 2.59 236 06:28 06.11.2019
4672 Clouds 8 998 86 0 0.45 284 04:53 06.11.2019
4673 Clouds 8 998 84 0 1.34 269 02:28 06.11.2019
4674 Clouds 8 998 85 0 0.89 221 01:40 06.11.2019
4675 Clouds 8 998 84 0 0.89 259 00:46 06.11.2019
4676 Clouds 8 998 87 0 2.95 257 23:58 05.11.2019
4677 Clouds 8 998 87 0 2.95 257 23:39 05.11.2019
4678 Clouds 8 998 88 0 3.12 249 23:21 05.11.2019
4679 Clouds 8 998 87 0 3.12 249 22:55 05.11.2019
4680 Clouds 8 998 87 0 3.12 249 22:37 05.11.2019
4681 Clouds 8 993 98 0 3.12 249 22:18 05.11.2019
4682 Clouds 8 997 87 0 1.34 225 21:42 05.11.2019
4683 Clouds 8 997 88 0 0.45 276 21:21 05.11.2019
4684 Clouds 8 997 90 0 3.12 249 20:59 05.11.2019
4685 Clouds 8 997 90 0 3.12 249 20:39 05.11.2019
4686 Rain 8 997 89 0 3.15 239 20:21 05.11.2019
4687 Clouds 8 997 88 0 2.65 250 19:58 05.11.2019
4688 Clouds 8 997 88 0 2.65 250 19:58 05.11.2019
4689 Clouds 9 997 89 0 2.65 250 19:38 05.11.2019
4690 Clouds 9 997 87 0 2.65 250 19:20 05.11.2019
4691 Clouds 9 997 86 0 2.65 250 18:58 05.11.2019
4692 Clouds 9 997 84 0 2.65 250 18:39 05.11.2019
4693 Clouds 9 997 84 0 2.65 250 18:39 05.11.2019
4694 Clouds 9 997 85 0 0.89 250 18:20 05.11.2019
4695 Clouds 9 997 83 0 2.24 211 17:58 05.11.2019
4696 Clouds 9 997 84 0 0.45 262 17:39 05.11.2019
4697 Rain 9 997 84 0 2.02 278 17:19 05.11.2019
4698 Rain 9 997 84 0 2.02 278 17:19 05.11.2019
4699 Rain 10 997 84 0 0.45 262 16:56 05.11.2019
4700 Rain 10 997 85 0 2.02 278 16:38 05.11.2019
4701 Rain 11 996 85 0 2.02 278 16:19 05.11.2019
4702 Rain 11 996 80 0 0.89 258 15:39 05.11.2019
4703 Rain 11 996 78 0 1.34 253 15:20 05.11.2019
4704 Rain 11 996 75 0 2.68 239 14:58 05.11.2019
4705 Rain 11 992 92 0 2.02 278 14:40 05.11.2019
4706 Rain 11 991 92 0 3.55 268 14:21 05.11.2019
4707 Rain 11 991 95 0 3.55 268 13:56 05.11.2019
4708 Rain 11 991 98 0 3.55 268 13:38 05.11.2019
4709 Rain 11 991 97 0 4.35 280 13:20 05.11.2019
4710 Rain 11 995 83 0 4.35 280 12:39 05.11.2019
4711 Rain 11 992 87 0 4.35 280 12:21 05.11.2019
4712 Rain 11 996 71 0 3.13 245 11:56 05.11.2019
4713 Rain 11 996 74 0 1.79 236 11:37 05.11.2019
4714 Rain 11 996 78 0 3.84 250 11:19 05.11.2019
4715 Rain 11 996 79 0 3.84 250 10:45 05.11.2019
4716 Rain 10 997 86 0 1.79 285 10:27 05.11.2019
4717 Rain 10 991 98 0 3.84 250 09:59 05.11.2019
4718 Rain 10 991 10 0 3.84 250 09:41 05.11.2019
4719 Rain 9 995 87 0 3.84 250 09:20 05.11.2019
4720 Rain 9 991 10 0 3.84 250 08:56 05.11.2019
4721 Rain 9 995 90 0 0.45 248 08:37 05.11.2019
4722 Rain 9 995 92 0 0.45 255 08:18 05.11.2019
4723 Rain 8 994 93 0 0.89 122 07:45 05.11.2019
4724 Rain 8 994 93 0 4.07 217 07:26 05.11.2019
4725 Rain 8 994 91 0 4.07 217 06:52 05.11.2019
4726 Rain 8 994 93 0 4.07 217 06:30 05.11.2019
4727 Rain 8 994 93 0 0.45 138 05:44 05.11.2019
4728 Clear 8 994 93 0 3.24 209 05:20 05.11.2019
4729 Clear 8 993 93 0 3.24 209 04:22 05.11.2019
4730 Clear 8 993 92 0 0.45 180 03:31 05.11.2019
4731 Clear 8 993 91 0 3.24 209 02:43 05.11.2019
4732 Clouds 8 993 90 0 2.97 223 01:55 05.11.2019
4733 Clouds 9 993 89 0 2.93 221 00:48 05.11.2019
4734 Clouds 9 993 88 0 2.93 221 00:27 05.11.2019
4735 Clouds 9 992 89 0 2.93 221 23:43 04.11.2019
4736 Clouds 9 992 89 0 2.93 221 23:43 04.11.2019
4737 Clouds 9 992 88 0 2.93 221 23:19 04.11.2019
4738 Clouds 9 992 88 0 2.93 221 22:58 04.11.2019
4739 Clouds 9 992 88 0 2.93 221 22:40 04.11.2019
4740 Clouds 9 988 10 0 2.93 221 22:20 04.11.2019
4741 Clouds 9 988 10 0 2.93 221 21:55 04.11.2019
4742 Clouds 9 992 87 0 2.93 221 21:55 04.11.2019
4743 Clouds 9 992 87 0 2.93 221 21:37 04.11.2019
4744 Clouds 9 987 10 0 2.93 221 21:18 04.11.2019
4745 Clouds 9 987 10 0 2.93 221 20:56 04.11.2019
4746 Clouds 9 987 10 0 2.93 221 20:37 04.11.2019
4747 Rain 10 987 10 0 3.78 216 20:19 04.11.2019
4748 Rain 10 991 84 0 1.34 205 19:57 04.11.2019
4749 Rain 10 991 84 0 1.79 176 19:39 04.11.2019
4750 Rain 10 991 84 0 0.45 191 19:21 04.11.2019
4751 Rain 10 991 84 0 2.24 177 18:55 04.11.2019
4752 Rain 10 991 85 0 3.78 216 18:37 04.11.2019
4753 Rain 11 991 85 0 1.34 203 18:18 04.11.2019
4754 Rain 11 990 86 0 0.45 105 17:39 04.11.2019
4755 Clouds 11 990 84 0 2.76 199 17:21 04.11.2019
4756 Clouds 11 990 83 0 0.45 145 16:57 04.11.2019
4757 Clouds 12 990 81 0 2.76 199 16:39 04.11.2019
4758 Clouds 12 990 80 0 0.89 193 16:20 04.11.2019
4759 Clouds 13 990 78 0 0.45 193 15:54 04.11.2019
4760 Clouds 13 990 81 0 2.76 199 15:36 04.11.2019
4761 Clouds 13 990 80 0 2.76 199 15:18 04.11.2019
4762 Clouds 14 990 73 0 0.45 183 14:41 04.11.2019
4763 Clouds 14 990 75 0 4.27 229 14:21 04.11.2019
4764 Clouds 14 990 77 0 4.27 229 13:59 04.11.2019
4765 Clouds 13 990 77 0 0.45 246 13:40 04.11.2019
4766 Clouds 14 990 77 0 1.74 237 13:21 04.11.2019
4767 Clouds 14 990 77 0 1.74 237 13:21 04.11.2019
4768 Clouds 14 990 75 0 0.89 157 12:58 04.11.2019
4769 Clouds 13 990 74 0 0.45 236 12:40 04.11.2019
4770 Clouds 13 990 76 0 1.34 184 12:21 04.11.2019
4771 Clouds 13 990 77 0 1.74 237 11:56 04.11.2019
4772 Clouds 13 990 76 0 1.34 262 11:38 04.11.2019
4773 Rain 13 990 79 0 1.34 229 11:19 04.11.2019
4774 Rain 12 990 80 0 0.89 132 10:42 04.11.2019
4775 Rain 12 990 85 0 3.54 220 10:24 04.11.2019
4776 Rain 12 990 86 0 3.54 220 09:47 04.11.2019
4777 Rain 11 990 88 0 3.54 220 09:28 04.11.2019
4778 Rain 11 989 91 0 3.54 220 08:59 04.11.2019
4779 Rain 11 989 92 0 3.54 220 08:40 04.11.2019
4780 Rain 11 989 92 0 3.14 199 08:21 04.11.2019
4781 Rain 11 989 93 0 3.14 199 07:45 04.11.2019
4782 Rain 11 989 93 0 3.14 199 07:24 04.11.2019
4783 Rain 11 989 93 0 3.14 199 07:24 04.11.2019
4784 Rain 11 988 92 0 0.45 194 06:58 04.11.2019
4785 Rain 11 988 93 0 0.45 157 06:35 04.11.2019
4786 Rain 11 988 93 0 3.14 199 05:57 04.11.2019
4787 Clouds 10 988 92 0 3.76 200 04:45 04.11.2019
4788 Clouds 10 988 92 0 3.76 200 04:23 04.11.2019
4789 Clouds 10 988 92 0 0.45 170 02:44 04.11.2019
4790 Clouds 10 988 91 0 2.82 165 01:22 04.11.2019
4791 Clouds 10 988 91 0 0.45 160 00:51 04.11.2019
4792 Clouds 10 988 91 0 2.82 165 00:21 04.11.2019
4793 Clouds 10 988 91 0 2.82 165 23:58 03.11.2019
4794 Clouds 10 988 92 0 2.82 165 23:36 03.11.2019
4795 Clouds 10 988 92 0 0.45 135 23:18 03.11.2019
4796 Clouds 10 988 92 0 2.48 161 22:55 03.11.2019
4797 Clouds 10 988 92 0 0.45 162 22:37 03.11.2019
4798 Clouds 11 988 92 0 2.48 161 22:18 03.11.2019
4799 Clouds 11 988 92 0 2.48 161 22:18 03.11.2019
4800 Clouds 11 988 92 0 2.48 161 21:42 03.11.2019
4801 Clouds 10 988 92 0 0.89 102 21:21 03.11.2019
4802 Clouds 10 988 92 0 2.48 161 20:57 03.11.2019
4803 Clouds 11 988 92 0 2.48 161 20:37 03.11.2019
4804 Clouds 10 988 92 0 0.89 170 20:19 03.11.2019
4805 Clouds 11 988 91 0 2.29 140 19:57 03.11.2019
4806 Clouds 11 988 91 0 0.89 181 19:38 03.11.2019
4807 Clouds 11 988 90 0 0.89 138 19:20 03.11.2019
4808 Clouds 11 988 89 0 2.68 100 18:55 03.11.2019
4809 Clouds 12 988 87 0 0.89 146 18:36 03.11.2019
4810 Clouds 12 988 86 0 1.79 155 18:18 03.11.2019
4811 Clouds 12 988 84 0 1.34 121 17:42 03.11.2019
4812 Clouds 12 988 83 0 0.45 131 17:20 03.11.2019
4813 Clouds 13 988 83 0 1.34 164 16:57 03.11.2019
4814 Clouds 13 988 83 0 1.34 164 16:57 03.11.2019
4815 Clouds 13 988 83 0 0.89 145 16:39 03.11.2019
4816 Clouds 13 988 82 0 0.45 101 16:21 03.11.2019
4817 Clouds 13 988 81 0 1.34 98 15:58 03.11.2019
4818 Clouds 14 988 80 0 1.34 128 15:39 03.11.2019
4819 Clouds 14 988 78 0 0.45 101 15:21 03.11.2019
4820 Clouds 15 988 76 0 0.89 73 14:43 03.11.2019
4821 Clouds 14 988 78 0 1.79 129 14:20 03.11.2019
4822 Clouds 15 988 78 0 1.34 143 13:59 03.11.2019
4823 Clouds 15 988 78 0 1.34 143 13:59 03.11.2019
4824 Clouds 15 988 75 0 0.89 173 13:41 03.11.2019
4825 Rain 15 989 76 0 1.34 152 13:18 03.11.2019
4826 Rain 15 989 81 0 0.45 207 12:55 03.11.2019
4827 Rain 15 989 81 0 0.45 164 12:36 03.11.2019
4828 Rain 15 989 82 0 0.45 93 12:18 03.11.2019
4829 Rain 13 989 83 0 2.24 159 11:42 03.11.2019
4830 Rain 13 989 83 0 3.79 149 11:22 03.11.2019
4831 Rain 13 989 84 0 0.45 145 10:55 03.11.2019
4832 Rain 12 988 84 0 2.24 166 10:37 03.11.2019
4833 Rain 12 989 86 0 1.34 169 10:19 03.11.2019
4834 Rain 12 989 86 0 1.34 169 10:19 03.11.2019
4835 Rain 12 990 88 0 0.45 136 09:43 03.11.2019
4836 Rain 11 990 89 0 0.89 152 09:25 03.11.2019
4837 Rain 11 990 90 0 0.45 114 08:56 03.11.2019
4838 Rain 11 990 91 0 1.34 129 08:37 03.11.2019
4839 Rain 11 990 91 0 0.45 114 08:19 03.11.2019
4840 Rain 11 990 91 0 4.19 183 07:45 03.11.2019
4841 Rain 11 990 91 0 4.19 183 07:22 03.11.2019
4842 Rain 11 990 91 0 0.45 133 06:39 03.11.2019
4843 Rain 11 990 92 0 4.19 183 05:57 03.11.2019
4844 Rain 11 990 92 0 4.19 183 05:38 03.11.2019
4845 Rain 11 990 92 0 2.24 175 04:55 03.11.2019
4846 Rain 11 990 92 0 2.24 175 04:26 03.11.2019
4847 Rain 11 990 91 0 2.24 175 03:27 03.11.2019
4848 Rain 12 990 87 0 1.79 104 02:30 03.11.2019
4849 Clouds 12 990 88 0 1.34 138 01:57 03.11.2019
4850 Clouds 12 991 87 0 1.34 131 01:37 03.11.2019
4851 Clouds 12 991 86 0 1.34 148 01:19 03.11.2019
4852 Clouds 12 991 85 0 1.34 152 00:41 03.11.2019
4853 Clouds 12 991 85 0 1.34 126 00:22 03.11.2019
4854 Clouds 12 991 85 0 1.79 136 23:57 02.11.2019
4855 Clouds 12 991 87 0 3.58 203 23:37 02.11.2019
4856 Clouds 12 991 87 0 0.89 176 23:18 02.11.2019
4857 Clouds 12 992 89 0 1.79 159 22:55 02.11.2019
4858 Clouds 12 992 90 0 1.34 115 22:37 02.11.2019
4859 Clouds 12 992 90 0 1.34 179 22:18 02.11.2019
4860 Clouds 12 992 90 0 1.34 179 22:18 02.11.2019
4861 Clouds 12 992 90 0 0.89 145 21:55 02.11.2019
4862 Clouds 12 992 91 0 2.24 160 21:37 02.11.2019
4863 Clouds 12 992 90 0 0.45 159 21:18 02.11.2019
4864 Clouds 12 992 89 0 5.36 185 20:57 02.11.2019
4865 Clouds 12 992 88 0 5.74 184 20:38 02.11.2019
4866 Clouds 12 992 88 0 5.07 211 20:19 02.11.2019
4867 Clouds 12 992 87 0 5.07 211 19:40 02.11.2019
4868 Clouds 12 992 85 0 0.45 39 19:22 02.11.2019
4869 Clouds 12 992 87 0 5.07 211 18:56 02.11.2019
4870 Clouds 12 993 88 0 1.34 162 18:37 02.11.2019
4871 Clouds 13 993 90 0 0.45 177 18:19 02.11.2019
4872 Clouds 13 992 89 0 5.07 211 17:57 02.11.2019
4873 Clouds 13 992 88 0 0.45 152 17:38 02.11.2019
4874 Clouds 14 992 88 0 4.39 207 17:19 02.11.2019
4875 Clouds 14 992 86 0 4.39 207 16:57 02.11.2019
4876 Clouds 15 992 83 0 4.39 207 16:36 02.11.2019
4877 Clouds 15 992 80 0 1.34 289 16:18 02.11.2019
4878 Clouds 15 992 80 0 1.34 289 16:18 02.11.2019
4879 Clouds 15 992 78 0 4.39 207 16:18 02.11.2019
4880 Clouds 15 992 78 0 1.79 155 15:41 02.11.2019
4881 Clouds 16 992 77 0 1.34 143 15:20 02.11.2019
4882 Clouds 16 991 76 0 1.34 164 14:43 02.11.2019
4883 Rain 16 991 78 0 1.79 195 14:24 02.11.2019
4884 Rain 17 991 78 0 2.68 207 13:58 02.11.2019
4885 Rain 17 992 77 0 2.24 195 13:39 02.11.2019
4886 Rain 17 992 78 0 1.79 207 13:19 02.11.2019
4887 Rain 16 992 78 0 2.68 148 12:41 02.11.2019
4888 Rain 16 992 78 0 2.68 148 12:41 02.11.2019
4889 Rain 16 992 78 0 3.13 212 12:23 02.11.2019
4890 Rain 15 992 80 0 1.79 173 11:59 02.11.2019
4891 Rain 15 992 80 0 0.45 162 11:40 02.11.2019
4892 Clouds 14 992 83 0 1.79 201 11:22 02.11.2019
4893 Clouds 13 992 85 0 1.79 214 10:51 02.11.2019
4894 Clouds 13 992 87 0 1.79 150 10:29 02.11.2019
4895 Clouds 12 992 87 0 1.34 173 09:59 02.11.2019
4896 Clouds 12 992 87 0 0.45 181 09:40 02.11.2019
4897 Clouds 11 992 88 0 0.89 179 09:21 02.11.2019
4898 Clouds 11 992 90 0 1.79 146 08:50 02.11.2019
4899 Rain 10 993 92 0 0.89 148 08:22 02.11.2019
4900 Rain 10 993 93 0 1.34 126 07:51 02.11.2019
4901 Rain 10 993 93 0 0.89 86 07:33 02.11.2019
4902 Rain 9 993 93 0 1.34 162 06:58 02.11.2019
4903 Rain 9 993 93 0 3.13 162 06:39 02.11.2019
4904 Rain 9 994 94 0 1.34 141 06:20 02.11.2019
4905 Rain 9 994 93 0 0.89 188 05:33 02.11.2019
4906 Rain 8 995 93 0 1.79 90 04:23 02.11.2019
4907 Rain 8 995 92 0 5.68 186 03:51 02.11.2019
4908 Rain 8 996 92 0 0.89 153 02:50 02.11.2019
4909 Clouds 8 997 92 0 1.34 143 01:57 02.11.2019
4910 Clouds 8 998 92 0 1.79 138 01:27 02.11.2019
4911 Rain 7 998 91 0 1.79 162 00:55 02.11.2019
4912 Rain 7 999 91 0 0.45 164 00:29 02.11.2019
4913 Rain 7 1000 91 0 1.79 159 23:55 01.11.2019
4914 Rain 7 1000 91 0 1.34 124 23:37 01.11.2019
4915 Rain 7 1000 91 0 1.34 124 23:37 01.11.2019
4916 Rain 7 1000 91 0 0.89 157 23:18 01.11.2019
4917 Rain 6 1001 91 0 0.45 150 22:41 01.11.2019
4918 Rain 6 1001 91 0 0.45 150 22:41 01.11.2019
4919 Rain 7 1001 92 0 0.89 167 22:20 01.11.2019
4920 Rain 6 1002 92 0 1.79 173 21:43 01.11.2019
4921 Rain 6 1002 92 0 1.34 159 21:24 01.11.2019
4922 Rain 6 1002 92 0 2.24 148 20:59 01.11.2019
4923 Rain 6 1003 92 0 1.79 166 20:41 01.11.2019
4924 Rain 6 1003 92 0 1.79 212 20:22 01.11.2019
4925 Rain 6 1003 92 0 1.79 163 19:59 01.11.2019
4926 Rain 6 1004 92 0 2.24 170 19:40 01.11.2019
4927 Rain 6 1004 92 0 1.34 184 19:21 01.11.2019
4928 Rain 6 1005 92 0 0.45 135 18:41 01.11.2019
4929 Rain 6 1005 91 0 1.34 142 18:21 01.11.2019
4930 Rain 6 1006 91 0 1.79 126 17:58 01.11.2019
4931 Rain 6 1006 91 0 1.79 159 17:40 01.11.2019
4932 Rain 6 1006 90 0 3.13 145 17:22 01.11.2019
4933 Rain 6 1007 89 0 3.58 177 16:40 01.11.2019
4934 Rain 6 1007 87 0 1.79 129 16:20 01.11.2019
4935 Rain 7 1008 84 0 3.58 172 15:58 01.11.2019
4936 Rain 7 1008 81 0 2.24 142 15:40 01.11.2019
4937 Rain 6 1008 78 0 2.24 183 15:22 01.11.2019
4938 Rain 7 1009 76 0 2.68 138 14:44 01.11.2019
4939 Clouds 7 1009 75 0 4.02 148 14:25 01.11.2019
4940 Clouds 6 1010 74 0 1.79 187 13:59 01.11.2019
4941 Clouds 6 1010 73 0 3.58 149 13:41 01.11.2019
4942 Clouds 6 1011 73 0 3.58 145 13:22 01.11.2019
4943 Clouds 6 1011 75 0 4.92 153 12:56 01.11.2019
4944 Clouds 6 1012 76 0 3.58 173 12:37 01.11.2019
4945 Clouds 6 1012 78 0 2.68 94 12:19 01.11.2019
4946 Clouds 5 1013 82 0 1.79 146 11:42 01.11.2019
4947 Clouds 5 1013 82 0 2.68 148 11:24 01.11.2019
4948 Clouds 4 1014 84 0 1.34 100 10:56 01.11.2019
4949 Clouds 4 1014 86 0 1.34 198 10:37 01.11.2019
4950 Clouds 3 1014 86 0 1.34 149 10:18 01.11.2019
4951 Clouds 2 1015 90 0 0.89 93 09:42 01.11.2019
4952 Clouds 0 1015 91 0 1.34 132 09:23 01.11.2019
4953 Clouds 0 1016 92 0 1.34 97 08:57 01.11.2019
4954 Clouds 0 1016 92 0 1.34 84 08:39 01.11.2019
4955 Clouds -2 1017 92 0 0.45 86 08:20 01.11.2019
4956 Clouds -2 1017 93 0 0.45 159 07:46 01.11.2019
4957 Clouds -2 1017 93 0 0.45 97 07:23 01.11.2019
4958 Clouds -2 1017 92 0 2.24 146 06:55 01.11.2019
4959 Clouds -2 1018 92 0 4.53 144 06:23 01.11.2019
4960 Clouds -2 1018 92 0 4.53 144 05:58 01.11.2019
4961 Clouds -2 1018 93 0 4.53 144 05:38 01.11.2019
4962 Clear -2 1020 92 0 3.6 132 03:32 01.11.2019
4963 Clear -1 1022 91 0 2.97 143 01:49 01.11.2019
4964 Clear -1 1022 91 0 2.9 140 01:22 01.11.2019
4965 Clear -1 1023 92 0 2.9 140 00:20 01.11.2019
4966 Clear 0 1023 91 0 2.9 140 23:55 31.10.2019
4967 Clear 0 1023 91 0 2.9 140 23:36 31.10.2019
4968 Clear 0 1023 91 0 2.86 118 23:18 31.10.2019
4969 Clear 0 1023 91 0 2.86 118 22:42 31.10.2019
4970 Clear 0 1024 91 0 2.86 118 22:23 31.10.2019
4971 Clear 0 1024 91 0 2.86 118 21:57 31.10.2019
4972 Clear 0 1024 91 0 2.86 118 21:39 31.10.2019
4973 Clear 0 1024 91 0 2.86 118 21:18 31.10.2019
4974 Clear 1 1025 91 0 2.86 118 20:41 31.10.2019
4975 Clouds 0 1025 90 0 2.56 107 20:22 31.10.2019
4976 Clouds 0 1024 100 0 2.56 107 19:58 31.10.2019
4977 Clouds 1 1025 90 0 2.56 107 19:38 31.10.2019
4978 Clouds 1 1025 90 0 2.56 107 19:19 31.10.2019
4979 Clouds 1 1024 89 0 2.56 107 18:44 31.10.2019
4980 Clouds 2 1025 89 0 2.56 107 18:25 31.10.2019
4981 Clouds 2 1025 89 0 2.56 107 17:58 31.10.2019
4982 Clouds 3 1025 88 0 2.56 107 17:40 31.10.2019
4983 Clouds 4 1025 88 0 2.29 96 17:20 31.10.2019
4984 Clouds 5 1025 87 0 2.29 96 16:55 31.10.2019
4985 Clouds 6 1025 86 0 2.29 96 16:37 31.10.2019
4986 Clouds 6 1025 84 0 2.29 96 16:18 31.10.2019
4987 Clouds 6 1025 78 0 2.29 96 15:40 31.10.2019
4988 Clouds 7 1025 78 0 1.34 149 15:40 31.10.2019
4989 Clouds 7 1025 76 0 2.29 96 15:21 31.10.2019
4990 Clouds 7 1025 76 0 2.29 96 15:21 31.10.2019
4991 Clouds 7 1025 73 0 2.29 96 14:58 31.10.2019
4992 Clouds 8 1026 72 0 2.29 96 14:40 31.10.2019
4993 Clouds 8 1026 72 0 0.45 157 14:22 31.10.2019
4994 Clouds 8 1026 71 0 2.57 107 13:59 31.10.2019
4995 Clouds 7 1026 71 0 2.57 107 13:39 31.10.2019
4996 Clouds 8 1026 72 0 0.89 159 13:19 31.10.2019
4997 Clouds 8 1026 75 0 1.79 169 12:57 31.10.2019
4998 Clouds 8 1026 75 0 2.76 110 12:38 31.10.2019
4999 Clouds 7 1027 78 0 0.45 98 12:18 31.10.2019
5000 Clouds 6 1027 82 0 2.76 110 11:45 31.10.2019
5001 Clear 5 1027 82 0 0.45 157 11:21 31.10.2019
5002 Clear 5 1027 85 0 1.34 169 10:58 31.10.2019
5003 Clear 4 1025 84 0 0.45 181 10:39 31.10.2019
5004 Clear 3 1027 87 0 1.34 107 10:21 31.10.2019
5005 Clear 0 1028 91 0 2.53 123 09:54 31.10.2019
5006 Clear 0 1028 91 0 2.53 123 09:36 31.10.2019
5007 Clear 0 1028 91 0 2.53 123 09:18 31.10.2019
5008 Clear -1 1028 91 0 2.53 123 08:43 31.10.2019
5009 Clear -1 1027 91 0 1.71 119 08:24 31.10.2019
5010 Clear -2 1027 90 0 1.71 119 07:48 31.10.2019
5011 Clear -3 1027 91 0 1.71 119 07:27 31.10.2019
5012 Clear -3 1027 91 0 1.71 119 06:54 31.10.2019
5013 Clear -3 1027 91 0 1.71 119 06:32 31.10.2019
5014 Clear -3 1027 92 0 1.71 119 05:28 31.10.2019
5015 Clear -3 1027 90 0 1.46 112 03:20 31.10.2019
5016 Clear -2 1028 91 0 1.46 112 02:30 31.10.2019
5017 Clear -2 1028 90 0 1.78 117 01:25 31.10.2019
5018 Clear -2 1028 90 0 1.78 117 00:34 31.10.2019
5019 Clear -2 1028 91 0 1.78 117 23:53 30.10.2019
5020 Clear -1 1028 90 0 1.78 117 23:27 30.10.2019
5021 Clear -1 1029 90 0 1.93 96 22:43 30.10.2019
5022 Clear -1 1029 90 0 1.93 96 22:21 30.10.2019
5023 Clear -1 1029 90 0 1.93 96 21:55 30.10.2019
5024 Clear 0 1029 89 0 1.93 96 21:37 30.10.2019
5025 Clear 0 1029 89 0 1.93 96 21:18 30.10.2019
5026 Clear 0 1029 89 0 1.93 96 20:58 30.10.2019
5027 Clear 0 1029 89 0 1.97 96 20:39 30.10.2019
5028 Clouds 1 1029 89 0 1.85 110 20:21 30.10.2019
5029 Clouds 1 1029 88 0 1.85 110 19:57 30.10.2019
5030 Clouds 1 1029 88 0 1.85 110 19:57 30.10.2019
5031 Clouds 1 1029 88 0 1.85 110 19:38 30.10.2019
5032 Clouds 2 1029 87 0 1.85 110 19:19 30.10.2019
5033 Clouds 3 1029 86 0 1.85 110 18:39 30.10.2019
5034 Clouds 3 1029 86 0 1.85 110 18:39 30.10.2019
5035 Clouds 3 1029 85 0 1.85 110 18:20 30.10.2019
5036 Clouds 4 1029 83 0 1.85 110 17:59 30.10.2019
5037 Clouds 4 1028 82 0 1.85 110 17:41 30.10.2019
5038 Clear 5 1028 81 0 1.92 92 17:19 30.10.2019
5039 Clear 6 1028 80 0 1.92 92 16:56 30.10.2019
5040 Clear 7 1028 78 0 1.92 92 16:37 30.10.2019
5041 Clear 7 1028 75 0 1.92 92 16:19 30.10.2019
5042 Clear 8 1029 62 0 1.92 92 15:56 30.10.2019
5043 Clear 8 1029 61 0 0.89 156 15:37 30.10.2019
5044 Clear 8 1029 60 0 1.79 118 15:19 30.10.2019
5045 Clear 9 1029 61 0 1.92 92 14:55 30.10.2019
5046 Clear 8 1029 62 0 1.92 92 14:36 30.10.2019
5047 Clear 8 1029 65 0 2.42 104 14:18 30.10.2019
5048 Clear 8 1029 60 0 2.42 104 13:42 30.10.2019
5049 Clear 9 1029 61 0 2.45 101 13:20 30.10.2019
5050 Clear 9 1030 64 0 0.45 148 12:58 30.10.2019
5051 Clear 9 1030 66 0 2.45 101 12:40 30.10.2019
5052 Clear 9 1030 70 0 0.45 98 12:22 30.10.2019
5053 Clear 8 1030 72 0 0.45 71 11:43 30.10.2019
5054 Clear 7 1029 82 0 2.45 101 11:25 30.10.2019
5055 Clear 7 1029 85 0 1.4 113 10:58 30.10.2019
5056 Clear 6 1031 83 0 1.34 31 10:39 30.10.2019
5057 Clear 5 1031 85 0 1.4 113 10:20 30.10.2019
5058 Clear 4 1031 87 0 0.45 53 09:40 30.10.2019
5059 Clear 3 1031 90 0 0.89 4 09:22 30.10.2019
5060 Clear 2 1031 91 0 1.4 113 08:55 30.10.2019
5061 Clear 2 1031 91 0 0.45 246 08:37 30.10.2019
5062 Clouds 0 1030 91 0 1.47 51 08:18 30.10.2019
5063 Clouds -1 1030 91 0 1.47 51 07:43 30.10.2019
5064 Clouds -1 1030 92 0 1.47 51 06:59 30.10.2019
5065 Clouds -1 1030 92 0 1.47 51 06:40 30.10.2019
5066 Clouds -1 1029 91 0 1.47 51 05:56 30.10.2019
5067 Clouds -1 1029 91 0 1.47 51 05:56 30.10.2019
5068 Clouds -1 1029 91 0 1.47 51 05:56 30.10.2019
5069 Clouds -1 1029 91 0 1.47 51 05:56 30.10.2019
5070 Clouds -1 1029 91 0 1.47 51 05:38 30.10.2019
5071 Clouds -1 1029 90 0 1.69 55 03:54 30.10.2019
5072 Clouds 0 1029 90 0 1.69 55 03:23 30.10.2019
5073 Clouds 0 1029 90 0 1.69 55 02:49 30.10.2019
5074 Clear 0 1029 90 0 1.92 54 01:49 30.10.2019
5075 Clouds 1 1029 89 0 2.11 56 00:43 30.10.2019
5076 Clouds 1 1029 89 0 2.11 56 00:25 30.10.2019
5077 Clouds 2 1029 89 0 2.11 56 23:41 29.10.2019
5078 Clouds 2 1029 88 0 2.78 41 23:22 29.10.2019
5079 Clouds 2 1029 87 0 2.78 41 22:45 29.10.2019
5080 Clouds 3 1029 87 0 2.78 41 22:20 29.10.2019
5081 Clouds 3 1028 86 0 2.78 41 21:56 29.10.2019
5082 Clouds 3 1028 86 0 0.45 359 21:38 29.10.2019
5083 Clouds 4 1028 85 0 0.45 339 21:20 29.10.2019
5084 Clouds 4 1028 84 0 0.45 341 20:56 29.10.2019
5085 Clear 4 1024 99 0 2.71 43 20:37 29.10.2019
5086 Clear 5 1028 81 0 2.3 20 20:19 29.10.2019
5087 Clear 5 1027 81 0 2.3 20 19:55 29.10.2019
5088 Clear 5 1027 80 0 2.3 20 19:37 29.10.2019
5089 Clear 6 1027 79 0 2.3 20 19:18 29.10.2019
5090 Clear 6 1027 79 0 0.45 335 18:55 29.10.2019
5091 Clear 6 1023 97 0 2.3 20 18:36 29.10.2019
5092 Clear 6 1027 79 0 2.3 20 18:18 29.10.2019
5093 Clear 6 1027 81 0 2.3 20 17:54 29.10.2019
5094 Clear 7 1026 79 0 1.79 331 17:36 29.10.2019
5095 Clear 7 1026 77 0 2.46 13 17:18 29.10.2019
5096 Clear 9 1026 76 0 2.46 13 16:39 29.10.2019
5097 Clear 9 1026 72 0 1.34 304 16:19 29.10.2019
5098 Clear 10 1025 70 0 0.89 11 15:55 29.10.2019
5099 Clear 10 1025 65 0 2.46 13 15:37 29.10.2019
5100 Clear 10 1025 62 0 0.45 356 15:19 29.10.2019
5101 -273 0 0 0 0 0 14:55 29.10.2019
5102 Clear 10 1025 67 0 2.68 359 14:37 29.10.2019
5103 Clouds 10 1025 64 0 0.45 307 14:18 29.10.2019
5104 Clouds 10 1025 66 0 0.89 15 13:40 29.10.2019
5105 Clouds 10 1025 63 0 0.89 355 13:22 29.10.2019
5106 Clouds 10 1025 67 0 0.45 334 12:45 29.10.2019
5107 Clouds 10 1025 64 0 0.45 311 12:26 29.10.2019
5108 Clouds 10 1025 65 0 0.45 325 11:59 29.10.2019
5109 Clouds 9 1025 66 0 0.45 310 11:41 29.10.2019
5110 Clouds 8 1025 69 0 0.45 266 11:19 29.10.2019
5111 Clouds 8 1024 72 0 1.34 260 10:57 29.10.2019
5112 Clouds 7 1024 77 0 0.45 303 10:38 29.10.2019
5113 Clouds 7 1024 80 0 0.45 298 10:20 29.10.2019
5114 Clouds 6 1024 83 0 0.89 331 09:55 29.10.2019
5115 Clouds 5 1024 85 0 1.34 298 09:37 29.10.2019
5116 Clouds 5 1024 89 0 1.79 287 09:19 29.10.2019
5117 Clouds 4 1024 92 0 2.84 332 08:43 29.10.2019
5118 Clouds 4 1023 91 0 2.39 321 08:24 29.10.2019
5119 Clouds 3 1023 91 0 2.39 321 07:55 29.10.2019
5120 Clouds 3 1023 91 0 2.39 321 07:36 29.10.2019
5121 Clouds 2 1023 91 0 2.39 321 07:18 29.10.2019
5122 Clouds 2 1022 91 0 2.39 321 06:43 29.10.2019
5123 Clouds 3 1022 91 0 2.39 321 06:21 29.10.2019
5124 Clouds 3 1022 90 0 2.39 321 05:50 29.10.2019
5125 Clouds 3 1022 90 0 2.53 312 05:19 29.10.2019
5126 Clouds 4 1021 91 0 2.53 312 03:55 29.10.2019
5127 Clouds 4 1021 90 0 2.53 312 02:32 29.10.2019
5128 Clouds 4 1021 90 0 3 299 01:46 29.10.2019
5129 Clouds 4 1021 91 0 0.45 283 01:18 29.10.2019
5130 Clouds 5 1021 90 0 3.16 297 00:32 29.10.2019
5131 Clouds 5 1021 89 0 3.16 297 23:43 28.10.2019
5132 Clouds 5 1021 89 0 3.08 277 23:21 28.10.2019
5133 Clouds 5 1021 89 0 3.08 277 22:58 28.10.2019
5134 Clouds 5 1021 89 0 3.08 277 22:37 28.10.2019
5135 Clouds 5 1021 89 0 0.89 222 22:18 28.10.2019
5136 Clouds 5 1021 88 0 3.08 277 21:56 28.10.2019
5137 Clouds 5 1021 88 0 3.08 277 21:38 28.10.2019
5138 Clouds 6 1021 87 0 3.08 277 21:19 28.10.2019
5139 Clouds 6 1021 86 0 3.08 277 20:45 28.10.2019
5140 Clouds 6 1021 86 0 3.07 280 20:25 28.10.2019
5141 Clear 6 1021 82 0 3.34 273 19:59 28.10.2019
5142 Clear 7 1021 81 0 3.34 273 19:39 28.10.2019
5143 Clear 7 1020 81 0 3.34 273 19:21 28.10.2019
5144 Clear 8 1020 81 0 0.45 318 18:59 28.10.2019
5145 Clear 8 1020 81 0 0.45 352 18:59 28.10.2019
5146 Clear 8 1021 84 0 0.89 256 18:40 28.10.2019
5147 Clear 8 1021 85 0 3.34 273 18:21 28.10.2019
5148 Clear 8 1021 84 0 3.34 273 17:57 28.10.2019
5149 Clear 9 1021 83 0 3.34 273 17:38 28.10.2019
5150 Clear 9 1020 81 0 3.51 280 17:19 28.10.2019
5151 Clear 10 1020 75 0 3.51 280 16:57 28.10.2019
5152 Clear 11 1020 71 0 3.51 280 16:39 28.10.2019
5153 Clear 12 1020 68 0 3.51 280 16:21 28.10.2019
5154 Clear 12 1020 64 0 0.45 249 15:58 28.10.2019
5155 Clear 12 1020 65 0 3.51 280 15:39 28.10.2019
5156 Clear 13 1020 60 0 1.34 229 15:20 28.10.2019
5157 Clear 12 1016 64 0 3.51 280 14:57 28.10.2019
5158 Clear 12 1021 61 0 3.51 280 14:38 28.10.2019
5159 Clear 12 1021 62 0 1.34 280 14:18 28.10.2019
5160 Clear 13 1021 58 0 2.24 305 13:56 28.10.2019
5161 Clear 13 1021 60 0 2.24 259 13:38 28.10.2019
5162 Clouds 13 1021 63 0 0.89 303 13:18 28.10.2019
5163 Clouds 12 1021 69 0 1.79 236 12:42 28.10.2019
5164 Clouds 12 1021 69 0 4.81 285 12:20 28.10.2019
5165 Clouds 11 1021 69 0 1.34 296 11:40 28.10.2019
5166 Clear 11 1021 70 0 0.45 238 11:22 28.10.2019
5167 Clear 10 1021 73 0 0.89 344 10:58 28.10.2019
5168 Clear 10 1021 75 0 0.89 308 10:39 28.10.2019
5169 Clear 9 1021 80 0 4.91 286 10:20 28.10.2019
5170 Clear 9 1021 82 0 4.91 286 09:57 28.10.2019
5171 Clear 9 1021 83 0 0.45 187 09:38 28.10.2019
5172 Clear 8 1021 84 0 4.91 286 09:19 28.10.2019
5173 Clear 7 1021 86 0 4.91 286 08:57 28.10.2019
5174 Clear 7 1021 87 0 4.91 286 08:38 28.10.2019
5175 Clouds 7 1021 88 0 5.24 288 08:38 28.10.2019
5176 Clear 6 1021 88 0 1.34 267 08:19 28.10.2019
5177 Clear 6 1020 87 0 0.89 294 07:55 28.10.2019
5178 Clear 5 1020 90 0 0.89 184 07:36 28.10.2019
5179 Clear 5 1020 90 0 1.79 253 07:18 28.10.2019
5180 Clear 5 1020 90 0 0.45 252 06:39 28.10.2019
5181 Clear 5 1020 90 0 5.01 279 05:40 28.10.2019
5182 Clear 6 1019 91 0 5.41 282 03:45 28.10.2019
5183 Clear 5 1020 91 0 0.45 153 02:46 28.10.2019
5184 Clouds 6 1020 90 0 1.79 246 01:55 28.10.2019
5185 Clouds 6 1020 90 0 0.89 238 00:56 28.10.2019
5186 Clouds 6 1020 90 0 4.94 274 00:32 28.10.2019
5187 Clouds 6 1020 90 0 0.45 191 23:47 27.10.2019
5188 Clouds 6 1020 89 0 4.94 274 23:24 27.10.2019
5189 Clouds 6 1020 89 0 4.75 268 22:58 27.10.2019
5190 Clouds 6 1020 89 0 4.75 268 22:58 27.10.2019
5191 Clouds 6 1020 89 0 4.75 268 22:40 27.10.2019
5192 Clouds 6 1020 88 0 0.89 238 22:21 27.10.2019
5193 Clouds 6 1020 88 0 4.75 268 21:57 27.10.2019
5194 Clouds 7 1020 88 0 0.45 231 21:39 27.10.2019
5195 Clouds 7 1020 88 0 0.45 231 21:39 27.10.2019
5196 Clouds 7 1020 88 0 0.45 231 21:39 27.10.2019
5197 Clouds 7 1020 88 0 0.89 221 21:21 27.10.2019
5198 Clear 7 1020 87 0 0.45 210 20:57 27.10.2019
5199 Clear 7 1020 87 0 1.34 243 20:38 27.10.2019
5200 Clouds 7 1020 87 0 0.45 262 20:20 27.10.2019
5201 Clouds 8 1020 86 0 4.17 260 19:55 27.10.2019
5202 Clouds 8 1020 85 0 4.17 260 19:36 27.10.2019
5203 Clouds 8 1020 85 0 4.17 260 19:18 27.10.2019
5204 Clouds 8 1019 84 0 4.17 260 18:55 27.10.2019
5205 Clouds 9 1019 83 0 0.89 272 18:36 27.10.2019
5206 Clouds 9 1019 82 0 4.17 260 18:18 27.10.2019
5207 Clouds 9 1019 75 0 1.34 262 17:40 27.10.2019
5208 Clouds 10 1019 75 0 0.45 243 17:20 27.10.2019
5209 Clouds 10 1019 72 0 1.34 256 16:58 27.10.2019
5210 Clouds 10 1015 71 0 0.45 219 16:40 27.10.2019
5211 Clouds 11 1018 70 0 4.98 285 16:22 27.10.2019
5212 Clouds 11 1019 68 0 0.45 274 15:56 27.10.2019
5213 Clouds 11 1019 68 0 0.45 274 15:56 27.10.2019
5214 Clouds 11 1019 65 0 1.34 232 15:38 27.10.2019
5215 Clouds 11 1019 66 0 0.45 21 15:20 27.10.2019
5216 Clouds 11 1019 64 0 4.98 285 14:43 27.10.2019
5217 Clouds 12 1019 64 0 3.13 322 14:24 27.10.2019
5218 Clouds 12 1018 65 0 0.45 321 13:58 27.10.2019
5219 Clouds 12 1018 66 0 0.89 294 13:40 27.10.2019
5220 Clouds 12 1018 64 0 1.34 310 13:21 27.10.2019
5221 Clouds 12 1018 69 0 5.71 286 12:59 27.10.2019
5222 Clouds 12 1018 71 0 5.71 286 12:41 27.10.2019
5223 Clouds 12 1018 71 0 0.45 139 12:23 27.10.2019
5224 Clouds 11 1018 70 0 0.45 211 11:42 27.10.2019
5225 Rain 11 1018 71 0 6.79 305 11:24 27.10.2019
5226 Rain 11 1018 71 0 6.79 305 11:24 27.10.2019
5227 Rain 11 1017 73 0 6.79 305 10:56 27.10.2019
5228 Rain 12 1017 73 0 0.45 224 10:38 27.10.2019
5229 Rain 12 1017 72 0 1.34 286 10:19 27.10.2019
5230 Rain 12 1016 81 0 1.34 308 09:43 27.10.2019
5231 Rain 12 1015 84 0 2.68 284 09:19 27.10.2019
5232 Rain 13 1014 85 0 1.79 298 08:57 27.10.2019
5233 Rain 13 1014 85 0 3.58 313 08:37 27.10.2019
5234 Clouds 13 1014 84 0 3.58 283 08:19 27.10.2019
5235 Clouds 13 1014 83 0 3.13 311 08:19 27.10.2019
5236 Clouds 14 1013 76 0 1.34 310 07:46 27.10.2019
5237 Clouds 14 1013 76 0 1.34 310 07:46 27.10.2019
5238 Clouds 16 1012 75 0 2.68 263 07:26 27.10.2019
5239 Clouds 16 1012 70 0 0.45 336 06:55 27.10.2019
5240 Clouds 16 1011 70 0 0.45 276 06:29 27.10.2019
5241 Clouds 16 1011 69 0 1.34 218 05:57 27.10.2019
5242 Clouds 16 1011 69 0 0.89 183 05:57 27.10.2019
5243 Clouds 16 1011 69 0 4.02 250 05:35 27.10.2019
5244 Clouds 15 1011 72 0 1.34 204 03:35 27.10.2019
5245 Clouds 14 1011 74 0 1.34 289 02:29 27.10.2019
5246 Clouds 14 1012 73 0 1.79 190 01:27 27.10.2019
5247 Clouds 14 1012 73 0 1.34 136 00:53 27.10.2019
5248 Clouds 14 1012 72 0 2.68 190 00:35 27.10.2019
5249 Clouds 15 1012 71 0 1.79 184 23:58 26.10.2019
5250 Clouds 15 1012 71 0 1.34 218 23:40 26.10.2019
5251 Clouds 15 1012 72 0 1.34 231 23:21 26.10.2019
5252 Clouds 15 1012 72 0 2.68 197 22:57 26.10.2019
5253 Clouds 15 1012 71 0 1.34 195 22:38 26.10.2019
5254 Clouds 15 1012 72 0 4.92 194 22:19 26.10.2019
5255 Clouds 15 1012 73 0 0.45 249 21:56 26.10.2019
5256 Clouds 15 1013 73 0 3.13 184 21:38 26.10.2019
5257 Clouds 15 1012 73 0 0.89 148 21:19 26.10.2019
5258 Clouds 16 1013 75 0 2.24 181 20:43 26.10.2019
5259 Clouds 15 1013 75 0 2.24 156 20:20 26.10.2019
5260 Clouds 16 1013 76 0 1.79 214 20:20 26.10.2019
5261 Clouds 15 1013 74 0 1.34 136 19:44 26.10.2019
5262 Clouds 16 1013 71 0 2.68 183 19:21 26.10.2019
5263 Clouds 16 1013 71 0 3.13 184 18:59 26.10.2019
5264 Clouds 16 1013 71 0 1.79 193 18:40 26.10.2019
5265 Clouds 16 1013 71 0 2.68 235 18:20 26.10.2019
5266 Clouds 17 1013 71 0 1.34 210 17:59 26.10.2019
5267 Clouds 18 1013 71 0 0.89 188 17:39 26.10.2019
5268 Clouds 18 1013 69 0 0.89 204 17:20 26.10.2019
5269 Clouds 18 1013 67 0 1.79 235 16:58 26.10.2019
5270 Clouds 19 1014 63 0 1.34 188 16:40 26.10.2019
5271 Clouds 19 1014 60 0 2.24 166 16:20 26.10.2019
5272 Clouds 19 1014 57 0 2.68 160 15:41 26.10.2019
5273 Clouds 19 1014 55 0 1.79 225 15:19 26.10.2019
5274 Clouds 19 1014 55 0 1.79 225 15:19 26.10.2019
5275 Clouds 19 1015 59 0 6.35 218 14:40 26.10.2019
5276 Clouds 19 1015 61 0 0.89 163 14:22 26.10.2019
5277 Clouds 19 1015 62 0 2.24 211 13:59 26.10.2019
5278 Clouds 19 1016 55 0 6.35 218 13:40 26.10.2019
5279 Clouds 19 1016 55 0 6.35 218 13:21 26.10.2019
5280 Clouds 18 1016 65 0 1.79 217 12:46 26.10.2019
5281 Clouds 15 1017 72 0 1.79 201 12:23 26.10.2019
5282 Clouds 15 1017 72 0 1.79 201 11:50 26.10.2019
5283 Clouds 15 1016 72 0 1.79 177 11:29 26.10.2019
5284 Clouds 15 1016 72 0 1.79 177 11:29 26.10.2019
5285 Clouds 15 1016 72 0 1.79 177 11:29 26.10.2019
5286 Clouds 17 1017 62 0 5.06 226 10:55 26.10.2019
5287 Clouds 17 1017 62 0 5.06 226 10:36 26.10.2019
5288 Clouds 17 1017 62 0 5.06 226 10:18 26.10.2019
5289 Clouds 17 1017 62 0 5.06 226 09:43 26.10.2019
5290 Clouds 17 1017 61 0 5.74 215 09:25 26.10.2019
5291 Clouds 13 1018 77 0 5.79 208 08:43 26.10.2019
5292 Clouds 13 1018 77 0 5.79 208 08:25 26.10.2019
5293 Clouds 13 1018 77 0 5.79 208 07:54 26.10.2019
5294 Clouds 13 1018 77 0 5.79 208 07:29 26.10.2019
5295 Clouds 13 1018 77 0 5.79 208 06:46 26.10.2019
5296 Clouds 13 1018 77 0 5.79 208 06:27 26.10.2019
5297 Clouds 13 1018 75 0 6.12 211 05:21 26.10.2019
5298 Clouds 13 1018 75 0 6.12 211 04:30 26.10.2019
5299 Clouds 11 1018 84 0 4.65 213 02:57 26.10.2019
5300 Clouds 12 1018 84 0 1.79 201 01:57 26.10.2019
5301 Clouds 12 1019 84 0 1.34 183 01:34 26.10.2019
5302 Clouds 11 1019 85 0 0.45 121 00:27 26.10.2019
5303 Clouds 11 1019 84 0 1.34 211 23:47 25.10.2019
5304 Clouds 11 1019 85 0 1.34 163 23:21 25.10.2019
5305 Clouds 11 1019 86 0 0.45 195 22:43 25.10.2019
5306 Clouds 11 1019 86 0 0.45 203 22:25 25.10.2019
5307 Clouds 11 1019 86 0 0.45 200 21:58 25.10.2019
5308 Clouds 11 1020 86 0 0.45 162 21:40 25.10.2019
5309 Clouds 12 1020 86 0 3.35 210 21:22 25.10.2019
5310 Clouds 11 1020 86 0 1.34 190 20:59 25.10.2019
5311 Clouds 12 1020 84 0 0.45 181 20:41 25.10.2019
5312 Clouds 12 1020 83 0 0.45 227 20:19 25.10.2019
5313 Clouds 12 1020 83 0 0.45 219 20:19 25.10.2019
5314 Clouds 12 1020 83 0 0.45 166 19:45 25.10.2019
5315 Clouds 13 1020 82 0 3.35 210 19:27 25.10.2019
5316 Clouds 14 1020 82 0 3.35 210 18:47 25.10.2019
5317 Clouds 14 1020 81 0 3.35 210 18:28 25.10.2019
5318 Clouds 15 1020 77 0 2.29 240 17:56 25.10.2019
5319 Clouds 16 1020 74 0 2.29 240 17:36 25.10.2019
5320 Clouds 16 1020 69 0 2.29 240 17:18 25.10.2019
5321 Clouds 17 1020 63 0 2.29 240 16:43 25.10.2019
5322 Clouds 17 1020 61 0 2.29 240 16:22 25.10.2019
5323 Clouds 18 1020 55 0 2.29 240 15:55 25.10.2019
5324 Clouds 18 1020 57 0 2.29 240 15:37 25.10.2019
5325 Clouds 18 1020 56 0 0.89 314 15:18 25.10.2019
5326 Clouds 18 1020 57 0 4.82 245 14:42 25.10.2019
5327 Clouds 18 1019 56 0 4.82 245 14:23 25.10.2019
5328 Clouds 18 1019 58 0 1.34 277 13:56 25.10.2019
5329 Clouds 18 1019 59 0 1.79 211 13:37 25.10.2019
5330 Clouds 18 1019 60 0 0.45 219 13:18 25.10.2019
5331 Clouds 18 1019 61 0 1.34 320 12:41 25.10.2019
5332 Clouds 17 1019 66 0 3.13 198 12:21 25.10.2019
5333 Clouds 17 1019 67 0 1.34 314 11:58 25.10.2019
5334 Clouds 17 1019 77 0 0.45 301 11:38 25.10.2019
5335 Clouds 17 1019 80 0 1.79 262 11:18 25.10.2019
5336 Clouds 16 1018 84 0 0.89 215 10:40 25.10.2019
5337 Clouds 15 1018 86 0 0.45 287 10:22 25.10.2019
5338 Clouds 14 1018 89 0 1.34 184 09:57 25.10.2019
5339 Clouds 14 1018 89 0 0.45 174 09:38 25.10.2019
5340 Clouds 13 1017 90 0 1.79 155 09:19 25.10.2019
5341 Clouds 12 1017 90 0 0.45 173 08:50 25.10.2019
5342 Clouds 12 1016 93 0 4.66 229 08:32 25.10.2019
5343 Clouds 12 1016 92 0 0.45 193 07:56 25.10.2019
5344 Clouds 12 1015 92 0 0.89 191 07:34 25.10.2019
5345 Clouds 13 1015 92 0 4.66 229 06:42 25.10.2019
5346 Clouds 12 1015 92 0 3.15 202 05:57 25.10.2019
5347 Clouds 12 1015 92 0 3.15 202 05:37 25.10.2019
5348 Clouds 12 1014 93 0 3.15 202 04:53 25.10.2019
5349 Clouds 12 1014 93 0 3.15 202 03:40 25.10.2019
5350 Clouds 11 1013 93 0 3.07 253 01:54 25.10.2019
5351 Clouds 11 1013 93 0 3.07 253 01:35 25.10.2019
5352 Clouds 10 1012 93 0 3.48 229 00:22 25.10.2019
5353 Clouds 10 1012 92 0 3.48 229 23:41 24.10.2019
5354 Clouds 10 1012 92 0 3.48 229 23:23 24.10.2019
5355 Clouds 10 1012 92 0 3.48 229 22:56 24.10.2019
5356 Clouds 10 1011 92 0 3.48 229 22:37 24.10.2019
5357 Clouds 10 1011 92 0 3.48 229 22:18 24.10.2019
5358 Clouds 11 1011 92 0 3.48 229 21:56 24.10.2019
5359 Clouds 11 1011 92 0 3.48 229 21:38 24.10.2019
5360 Clear 11 1010 92 0 2.74 216 21:19 24.10.2019
5361 Clear 11 1010 92 0 2.74 216 20:57 24.10.2019
5362 Clear 11 1011 93 0 2.74 216 20:38 24.10.2019
5363 Clear 11 1010 93 0 2.74 216 20:20 24.10.2019
5364 Clear 12 1010 92 0 0.45 164 19:54 24.10.2019
5365 Clear 12 1010 92 0 1.34 190 19:36 24.10.2019
5366 Clear 12 1010 91 0 0.45 163 19:18 24.10.2019
5367 Clear 13 1010 90 0 2.74 216 18:40 24.10.2019
5368 Clear 13 1010 90 0 2.74 308 18:22 24.10.2019
5369 Clear 14 1006 90 0 0.45 150 17:59 24.10.2019
5370 Clear 15 1008 89 0 2.74 308 17:40 24.10.2019
5371 Clear 15 1007 80 0 2.74 308 17:20 24.10.2019
5372 Clear 15 1009 85 0 2.74 308 16:56 24.10.2019
5373 Clear 15 1009 83 0 2.74 308 16:37 24.10.2019
5374 Clear 15 1009 83 0 2.74 308 16:19 24.10.2019
5375 Clear 17 1010 84 0 2.74 308 15:56 24.10.2019
5376 Clear 17 1010 84 0 2.74 308 15:38 24.10.2019
5377 Clouds 17 1010 83 0 1.91 201 15:19 24.10.2019
5378 Clouds 17 1009 81 0 0.45 164 14:55 24.10.2019
5379 Clouds 17 1009 81 0 1.34 118 14:36 24.10.2019
5380 Clouds 17 1009 80 0 1.34 63 14:18 24.10.2019
5381 Clouds 18 1009 77 0 1.34 6 13:40 24.10.2019
5382 Clouds 17 1004 86 0 2.11 309 13:19 24.10.2019
5383 Clouds 16 1005 88 0 2.11 309 12:57 24.10.2019
5384 Clouds 16 1005 90 0 2.11 309 12:38 24.10.2019
5385 Clouds 15 1009 85 0 2.68 152 12:19 24.10.2019
5386 Clouds 15 1009 85 0 2.68 152 12:19 24.10.2019
5387 Clouds 14 1009 85 0 1.34 112 11:56 24.10.2019
5388 Clouds 14 1009 86 0 1.34 163 11:37 24.10.2019
5389 Clouds 14 1009 85 0 3.13 102 11:37 24.10.2019
5390 Clouds 14 1009 86 0 2.68 174 11:19 24.10.2019
5391 Clouds 13 1009 87 0 1.34 129 10:55 24.10.2019
5392 Clouds 13 1009 88 0 0.45 78 10:36 24.10.2019
5393 Clouds 13 1009 88 0 2.68 157 10:18 24.10.2019
5394 Clouds 13 1009 89 0 3.58 148 09:37 24.10.2019
5395 Clouds 13 1009 91 0 0.45 98 09:18 24.10.2019
5396 Clouds 13 1010 92 0 0.45 157 08:44 24.10.2019
5397 Clouds 13 1010 92 0 1.79 149 08:21 24.10.2019
5398 Clouds 12 1010 92 0 3.19 138 07:59 24.10.2019
5399 Clouds 12 1009 92 0 0.45 87 07:41 24.10.2019
5400 Clouds 12 1009 92 0 0.45 100 07:21 24.10.2019
5401 Clouds 12 1010 92 0 2.24 98 06:39 24.10.2019
5402 Clouds 12 1010 92 0 1.34 146 06:20 24.10.2019
5403 Clouds 12 1010 92 0 1.34 88 05:48 24.10.2019
5404 Clouds 12 1010 93 0 1.79 125 05:27 24.10.2019
5405 Clouds 12 1011 93 0 2.68 121 03:37 24.10.2019
5406 Clouds 12 1011 93 0 3.27 123 02:55 24.10.2019
5407 Clouds 12 1012 93 0 0.45 95 02:24 24.10.2019
5408 Clouds 12 1012 93 0 3.03 126 01:49 24.10.2019
5409 Clouds 12 1012 93 0 3.03 126 01:27 24.10.2019
5410 Clouds 12 1013 93 0 0.45 190 00:41 24.10.2019
5411 Clouds 12 1013 92 0 0.45 187 00:18 24.10.2019
5412 Clouds 12 1013 92 0 3.14 117 23:43 23.10.2019
5413 Clouds 12 1013 92 0 3.14 117 23:23 23.10.2019
5414 Clouds 12 1013 92 0 3.14 117 22:57 23.10.2019
5415 Clouds 12 1013 91 0 3.14 117 22:57 23.10.2019
5416 Clouds 12 1014 91 0 3.14 117 22:38 23.10.2019
5417 Clouds 13 1014 90 0 3.14 117 22:18 23.10.2019
5418 Clouds 13 1014 90 0 3.14 117 21:57 23.10.2019
5419 Clear 13 1014 90 0 3.02 117 21:38 23.10.2019
5420 Clouds 13 1015 90 0 2.9 86 21:19 23.10.2019
5421 Clouds 13 1015 90 0 2.9 86 20:56 23.10.2019
5422 Clouds 13 1015 90 0 2.9 86 20:38 23.10.2019
5423 Clouds 13 1015 90 0 2.9 86 20:20 23.10.2019
5424 Clouds 14 1015 90 0 2.9 86 19:57 23.10.2019
5425 Clouds 14 1015 89 0 2.9 86 19:38 23.10.2019
5426 Clouds 14 1015 89 0 2.9 86 19:18 23.10.2019
5427 Clouds 14 1015 88 0 2.9 86 18:55 23.10.2019
5428 Clouds 15 1015 87 0 2.9 86 18:36 23.10.2019
5429 Clouds 15 1015 86 0 2.52 101 18:18 23.10.2019
5430 Clouds 16 1014 83 0 2.52 101 17:43 23.10.2019
5431 Clouds 17 1015 80 0 2.52 101 17:20 23.10.2019
5432 Clouds 17 1015 77 0 0.45 111 16:56 23.10.2019
5433 Clouds 17 1016 75 0 1.79 101 16:38 23.10.2019
5434 Clouds 18 1016 73 0 0.45 102 16:19 23.10.2019
5435 Clouds 18 1016 71 0 0.45 84 15:42 23.10.2019
5436 Clouds 18 1016 70 0 0.89 114 15:22 23.10.2019
5437 Clouds 18 1017 69 0 0.89 90 14:58 23.10.2019
5438 Clouds 17 1017 69 0 0.45 70 14:38 23.10.2019
5439 Clouds 18 1017 69 0 1.79 81 14:19 23.10.2019
5440 Clouds 17 1017 69 0 1.34 97 13:58 23.10.2019
5441 Clouds 17 1018 69 0 0.45 97 13:40 23.10.2019
5442 Clouds 17 1018 69 0 0.45 71 13:22 23.10.2019
5443 Clouds 17 1018 70 0 1.34 87 12:55 23.10.2019
5444 Clouds 16 1019 72 0 0.89 47 12:37 23.10.2019
5445 Clouds 15 1019 72 0 0.45 22 12:18 23.10.2019
5446 Clouds 14 1019 73 0 0.89 15 11:56 23.10.2019
5447 Clouds 14 1019 73 0 0.89 15 11:56 23.10.2019
5448 Clouds 14 1020 74 0 0.45 31 11:37 23.10.2019
5449 Clouds 13 1020 75 0 0.89 353 11:19 23.10.2019
5450 Clouds 13 1021 77 0 0.45 12 10:45 23.10.2019
5451 Clouds 12 1021 78 0 0.89 45 10:25 23.10.2019
5452 Clear 11 1021 79 0 2.8 119 09:55 23.10.2019
5453 Clear 11 1021 79 0 0.45 121 09:36 23.10.2019
5454 Clouds 10 1017 90 0 2.31 136 09:18 23.10.2019
5455 Clouds 9 1021 84 0 2.31 136 08:41 23.10.2019
5456 Clouds 9 1021 86 0 2.31 136 08:23 23.10.2019
5457 Clouds 9 1021 87 0 0.45 78 07:46 23.10.2019
5458 Clouds 8 1017 10 0 2.31 136 07:22 23.10.2019
5459 Clouds 8 1020 89 0 2.31 136 06:47 23.10.2019
5460 Clouds 8 1018 10 0 1.01 74 06:22 23.10.2019
5461 Clouds 8 1022 88 0 1.01 74 05:47 23.10.2019
5462 Clouds 8 1018 10 0 1.01 74 04:57 23.10.2019
5463 Clouds 8 1023 90 0 1.01 74 03:35 23.10.2019
5464 Clouds 8 1023 89 0 0.06 119 02:41 23.10.2019
5465 Clouds 8 1023 89 0 0.06 119 01:33 23.10.2019
5466 Clouds 8 1024 88 0 0.06 119 00:56 23.10.2019
5467 Clouds 8 1024 87 0 0.06 119 00:28 23.10.2019
5468 Clouds 9 1020 98 0 1.19 359 23:40 22.10.2019
5469 Clouds 9 1020 98 0 1.19 359 23:19 22.10.2019
5470 Clouds 10 1020 95 0 1.19 359 22:57 22.10.2019
5471 Clouds 10 1020 95 0 1.19 359 22:39 22.10.2019
5472 Clouds 11 1020 88 0 1.19 359 22:21 22.10.2019
5473 Clouds 11 1022 82 0 1.19 359 21:56 22.10.2019
5474 Clouds 11 1020 83 0 0.93 358 21:37 22.10.2019
5475 Clouds 12 1024 77 0 2.44 344 21:18 22.10.2019
5476 Clouds 11 1024 78 0 2.44 344 20:57 22.10.2019
5477 Clouds 12 1024 79 0 2.44 344 20:39 22.10.2019
5478 Clouds 12 1024 80 0 0.45 305 20:20 22.10.2019
5479 Clouds 11 1024 83 0 2.44 344 19:55 22.10.2019
5480 Clouds 11 1024 84 0 2.44 344 19:37 22.10.2019
5481 Clouds 12 1024 80 0 0.45 346 19:19 22.10.2019
5482 Clouds 12 1024 81 0 1.34 315 18:41 22.10.2019
5483 Clouds 13 1023 81 0 2.06 316 18:22 22.10.2019
5484 Clouds 15 1023 77 0 2.06 316 17:59 22.10.2019
5485 Clouds 15 1023 74 0 2.06 316 17:39 22.10.2019
5486 Clouds 15 1023 72 0 0.45 270 17:20 22.10.2019
5487 Clouds 16 1023 68 0 1.79 284 16:58 22.10.2019
5488 Clouds 16 1023 65 0 0.45 328 16:39 22.10.2019
5489 Clouds 16 1023 65 0 0.45 266 16:20 22.10.2019
5490 Clouds 17 1023 63 0 0.45 282 15:58 22.10.2019
5491 Clouds 16 1023 60 0 0.45 313 15:40 22.10.2019
5492 Clouds 17 1023 59 0 0.45 8 15:19 22.10.2019
5493 Clouds 17 1023 57 0 1.34 324 14:44 22.10.2019
5494 Clouds 17 1024 58 0 0.45 335 14:21 22.10.2019
5495 Clouds 17 1024 54 0 0.27 39 13:54 22.10.2019
5496 Clouds 17 1024 57 0 1.79 228 13:36 22.10.2019
5497 Clouds 17 1023 57 0 0.27 39 13:18 22.10.2019
5498 Clouds 17 1024 59 0 1.34 283 12:41 22.10.2019
5499 Clouds 16 1024 60 0 1.79 284 12:22 22.10.2019
5500 Clouds 16 1022 65 0 0.45 315 11:59 22.10.2019
5501 Clouds 15 1024 66 0 0.44 188 11:40 22.10.2019
5502 Clouds 15 1021 69 0 0.44 188 11:22 22.10.2019
5503 Clouds 14 1024 74 0 0.45 267 10:58 22.10.2019
5504 Clouds 14 1024 73 0 0.44 188 10:37 22.10.2019
5505 Clouds 13 1024 75 0 0.44 188 10:19 22.10.2019
5506 Clouds 13 1023 80 0 0.44 188 09:56 22.10.2019
5507 Clouds 13 1024 82 0 1.73 145 09:37 22.10.2019
5508 Clouds 13 1023 81 0 1.73 145 09:37 22.10.2019
5509 Clouds 11 1023 93 0 0.33 111 09:19 22.10.2019
5510 Clouds 11 1023 87 0 0.33 111 08:43 22.10.2019
5511 Clouds 10 1023 89 0 0.33 111 08:22 22.10.2019
5512 Clouds 10 1023 90 0 0.33 111 07:55 22.10.2019
5513 Clouds 10 1021 87 0 0.33 111 07:37 22.10.2019
5514 Clouds 11 1022 89 0 0.33 111 07:18 22.10.2019
5515 Clouds 11 1022 88 0 0.33 111 06:36 22.10.2019
5516 Clouds 11 1022 88 0 1.44 320 06:18 22.10.2019
5517 Clouds 11 1022 89 0 1.44 320 05:27 22.10.2019
5518 Clouds 12 1022 89 0 1.44 320 03:38 22.10.2019
5519 Clouds 12 1022 89 0 2.64 305 02:29 22.10.2019
5520 Clouds 12 1022 90 0 2.64 305 01:36 22.10.2019
5521 Clouds 13 1021 89 0 2.64 305 01:18 22.10.2019
5522 Clouds 13 1021 89 0 2.64 305 00:41 22.10.2019
5523 Clouds 13 1021 88 0 2.39 246 00:22 22.10.2019
5524 Clouds 13 1021 88 0 2.39 246 23:58 21.10.2019
5525 Clouds 13 1021 88 0 2.39 246 23:37 21.10.2019
5526 Clouds 13 1021 87 0 2.39 246 23:19 21.10.2019
5527 Clouds 13 1021 87 0 2.39 246 23:19 21.10.2019
5528 Clouds 14 1021 87 0 2.39 246 22:57 21.10.2019
5529 Clouds 14 1020 86 0 2.39 246 22:38 21.10.2019
5530 Clouds 15 1020 85 0 2.39 246 22:20 21.10.2019
5531 Clouds 15 1020 84 0 2.39 246 21:56 21.10.2019
5532 Clouds 15 1020 84 0 3.22 248 21:37 21.10.2019
5533 Clouds 14 1020 84 0 3.22 248 21:37 21.10.2019
5534 Clouds 14 1020 84 0 3.54 240 21:19 21.10.2019
5535 Clouds 14 1020 84 0 3.54 240 21:19 21.10.2019
5536 Clouds 15 1020 84 0 3.54 240 20:57 21.10.2019
5537 Clouds 15 1020 84 0 3.54 240 20:37 21.10.2019
5538 Clouds 16 1020 83 0 3.54 240 20:19 21.10.2019
5539 Clouds 16 1020 82 0 0.45 179 19:55 21.10.2019
5540 Clouds 16 1020 82 0 0.45 179 19:55 21.10.2019
5541 Clouds 16 1020 82 0 3.54 240 19:36 21.10.2019
5542 Clouds 16 1019 82 0 0.45 145 19:18 21.10.2019
5543 Clouds 17 1019 83 0 3.54 240 18:54 21.10.2019
5544 Clouds 17 1019 83 0 0.45 125 18:36 21.10.2019
5545 Clouds 17 1019 83 0 3.54 240 18:36 21.10.2019
5546 Clouds 17 1019 82 0 0.45 186 18:18 21.10.2019
5547 Clouds 17 1019 82 0 0.45 186 18:18 21.10.2019
5548 Clouds 18 1018 79 0 0.45 81 17:39 21.10.2019
5549 Clouds 18 1018 78 0 1.73 204 17:19 21.10.2019
5550 Clouds 19 1018 74 0 1.73 204 16:58 21.10.2019
5551 Clouds 19 1018 73 0 1.73 204 16:40 21.10.2019
5552 Clouds 19 1018 72 0 1.73 204 16:21 21.10.2019
5553 Clouds 20 1018 69 0 1.73 204 15:58 21.10.2019
5554 Clouds 19 1018 69 0 0.45 172 15:39 21.10.2019
5555 Clouds 19 1018 69 0 2.04 146 15:19 21.10.2019
5556 Clouds 19 1018 63 0 1.35 169 14:40 21.10.2019
5557 Clouds 19 1018 68 0 1.35 169 14:22 21.10.2019
5558 Clouds 18 1018 72 0 1.35 169 13:59 21.10.2019
5559 Clouds 18 1018 74 0 1.35 169 13:41 21.10.2019
5560 Clouds 17 1018 75 0 1.35 169 13:20 21.10.2019
5561 Clouds 17 1018 76 0 0.45 170 12:58 21.10.2019
5562 Clouds 16 1018 75 0 0.45 169 12:40 21.10.2019
5563 Clouds 16 1018 76 0 0.89 172 12:20 21.10.2019
5564 Clouds 15 1013 85 0 1.02 168.459 11:54 21.10.2019
5565 Clouds 15 1017 80 0 1.79 163 11:36 21.10.2019
5566 Clouds 14 1013 91 0 1.02 168.459 11:18 21.10.2019
5567 Clouds 14 1017 86 0 0.45 152 10:54 21.10.2019
5568 Clouds 14 1017 86 0 0.45 152 10:54 21.10.2019
5569 Clouds 14 1017 86 0 0.45 152 10:54 21.10.2019
5570 Clouds 13 1016 88 0 1.02 168.459 10:36 21.10.2019
5571 Clouds 13 1016 89 0 1.02 168.459 10:18 21.10.2019
5572 Clouds 12 1016 92 0 0.45 187 09:41 21.10.2019
5573 Clouds 11 1016 93 0 0.45 164 09:22 21.10.2019
5574 Clouds 11 1015 92 0 1.44 97.495 08:43 21.10.2019
5575 Clouds 10 1015 92 0 1.44 97.495 08:23 21.10.2019
5576 Clouds 10 1014 91 0 1.44 97.495 07:58 21.10.2019
5577 Clouds 11 1014 91 0 1.44 97.495 07:37 21.10.2019
5578 Clouds 11 1014 92 0 1.44 97.495 07:18 21.10.2019
5579 Clouds 11 1013 91 0 1.44 97.495 06:50 21.10.2019
5580 Clouds 11 1014 91 0 1.44 97.495 06:31 21.10.2019
5581 Clouds 11 1013 91 0 0.63 33.69 05:43 21.10.2019
5582 Clouds 12 1012 90 0 0.63 33.69 03:42 21.10.2019
5583 Clouds 13 1011 87 0 0.45 180 02:41 21.10.2019
5584 Clouds 13 1011 86 0 0.45 39 02:21 21.10.2019
5585 Clouds 13 1011 86 0 0.45 39 02:21 21.10.2019
5586 Clouds 13 1010 86 0 1.34 160 01:49 21.10.2019
5587 Clouds 13 1010 86 0 1.34 160 01:49 21.10.2019
5588 Clouds 14 1010 86 0 1.34 115 01:22 21.10.2019
5589 Clouds 14 1011 87 0 0.56 0.509 00:42 21.10.2019
5590 Rain 14 1011 89 0 1.34 145 00:23 21.10.2019
5591 Rain 13 1010 91 0 3.61 87.764 23:40 20.10.2019
5592 Rain 13 1011 90 0 3.61 87.764 23:21 20.10.2019
5593 Rain 14 1011 89 0 3.61 87.764 22:55 20.10.2019
5594 Rain 14 1011 89 0 3.61 87.764 22:36 20.10.2019
5595 Rain 14 1011 89 0 3.61 87.764 22:18 20.10.2019
5596 Rain 14 1010 88 0 3.61 87.764 21:56 20.10.2019
5597 Rain 14 1010 89 0 3.61 87.764 21:38 20.10.2019
5598 Rain 15 1010 88 0 1.58 45.819 21:19 20.10.2019
5599 Rain 15 1010 88 0 2.27 85.199 20:39 20.10.2019
5600 Rain 15 1010 89 0 2.27 85.199 20:18 20.10.2019
5601 Rain 15 1010 88 0 2.27 85.199 19:56 20.10.2019
5602 Rain 15 1010 88 0 2.27 85.199 19:56 20.10.2019
5603 Rain 16 1010 86 0 2.27 85.199 19:37 20.10.2019
5604 Rain 16 1010 86 0 2.27 85.199 19:19 20.10.2019
5605 Rain 16 1010 86 0 2.27 85.199 18:42 20.10.2019
5606 Rain 16 1010 85 0 2.27 85.199 18:24 20.10.2019
5607 Rain 17 1008 83 0 1.35 85.247 17:59 20.10.2019
5608 Rain 17 1009 84 0 1.35 85.247 17:59 20.10.2019
5609 Rain 17 1008 82 0 1.35 85.247 17:41 20.10.2019
5610 Rain 18 1008 80 0 1.35 85.247 17:22 20.10.2019
5611 Rain 18 1004 80 0 1.35 85.247 16:56 20.10.2019
5612 Rain 18 1010 78 0 1.35 85.247 16:38 20.10.2019
5613 Rain 18 1010 77 0 1.35 85.247 16:19 20.10.2019
5614 Rain 18 1010 75 0 0.45 145 15:55 20.10.2019
5615 Rain 18 1010 76 0 1.35 85.247 15:37 20.10.2019
5616 Clouds 18 1010 77 0 0.45 90 15:18 20.10.2019
5617 Clouds 18 1010 77 0 2.11 173.783 14:55 20.10.2019
5618 Clouds 19 1010 72 0 2.11 173.783 14:37 20.10.2019
5619 Clouds 19 1010 70 0 1.34 167 14:18 20.10.2019
5620 Clouds 19 1010 73 0 1.79 64 13:54 20.10.2019
5621 Clouds 18 1010 74 0 0.45 143 13:36 20.10.2019
5622 Clouds 18 1010 71 0 0.89 70 13:18 20.10.2019
5623 Clouds 18 1010 71 0 1.79 28 13:18 20.10.2019
5624 Clouds 18 1010 70 0 1.48 182.137 12:54 20.10.2019
5625 Clouds 18 1010 70 0 1.48 182.137 12:54 20.10.2019
5626 Clouds 18 1010 71 0 1.79 156 12:36 20.10.2019
5627 Clouds 18 1010 70 0 0.89 169 12:18 20.10.2019
5628 Clouds 17 1010 72 0 1.01 169.048 11:41 20.10.2019
5629 Clouds 16 1010 73 0 0.45 135 11:22 20.10.2019
5630 Clouds 15 1010 74 0 0.45 204 10:58 20.10.2019
5631 Clouds 16 1010 72 0 1.34 166 10:39 20.10.2019
5632 Clouds 15 1010 76 0 1.01 169.048 10:21 20.10.2019
5633 Clouds 14 1009 76 0 0.45 66 09:56 20.10.2019
5634 Clouds 14 1010 79 0 1.34 149 09:37 20.10.2019
5635 Rain 13 1010 84 0 1.16 187.235 09:19 20.10.2019
5636 Rain 12 1009 88 0 1 202.066 08:40 20.10.2019
5637 Rain 12 1009 88 0 0.89 172 08:21 20.10.2019
5638 Rain 12 1009 88 0 0.89 108 07:48 20.10.2019
5639 Rain 12 1009 88 0 1 202.066 07:28 20.10.2019
5640 Rain 12 1009 88 0 0.45 159 06:31 20.10.2019
5641 Clouds 12 1008 88 0 2.22 193.917 04:34 20.10.2019
5642 Clouds 12 1008 86 0 2.22 193.917 03:52 20.10.2019
5643 Clouds 12 1009 87 0 2.87 190.84 03:22 20.10.2019
5644 Clouds 12 1008 87 0 2.87 190.84 02:55 20.10.2019
5645 Clouds 12 1008 88 0 2.87 190.84 02:26 20.10.2019
5646 Clouds 12 1009 88 0 0.45 133 01:53 20.10.2019
5647 Clouds 12 1008 87 0 0.45 135 01:22 20.10.2019
5648 Clouds 12 1009 86 0 0.45 153 00:53 20.10.2019
5649 Clouds 12 1009 85 0 2.78 187.85 00:21 20.10.2019
5650 Clouds 12 1008 84 0 2.24 145 23:55 19.10.2019
5651 Clouds 12 1004 95 0 2.78 187.85 23:37 19.10.2019
5652 Clouds 12 1004 97 0 2.78 187.85 23:19 19.10.2019
5653 Clouds 12 1008 85 0 0.89 139 22:41 19.10.2019
5654 Clouds 13 1008 85 0 0.45 143 22:23 19.10.2019
5655 Clouds 13 1008 84 0 2.78 187.85 21:58 19.10.2019
5656 Clouds 13 1008 83 0 1.34 160 21:40 19.10.2019
5657 Clouds 13 1008 83 0 2.68 146 21:40 19.10.2019
5658 Clouds 13 1008 83 0 1.34 203 21:20 19.10.2019
5659 Clouds 14 1007 84 0 1.79 166 20:43 19.10.2019
5660 Clouds 13 1007 84 0 2.68 160 20:22 19.10.2019
5661 Clouds 13 1008 84 0 0.89 118 19:56 19.10.2019
5662 Clouds 14 1008 84 0 0.45 176 19:38 19.10.2019
5663 Clouds 14 1008 84 0 1.34 183 19:20 19.10.2019
5664 Clouds 14 1007 83 0 0.89 117 18:41 19.10.2019
5665 Clouds 14 1007 81 0 2.68 166 18:23 19.10.2019
5666 Clouds 15 1007 81 0 1.79 155 17:55 19.10.2019
5667 Clouds 15 1007 80 0 0.45 124 17:36 19.10.2019
5668 Clouds 15 1007 78 0 1.34 107 17:18 19.10.2019
5669 Clouds 16 1007 78 0 0.89 111 16:38 19.10.2019
5670 Clouds 16 1007 74 0 3.13 162 16:20 19.10.2019
5671 Clouds 16 1007 73 0 4.92 150 15:44 19.10.2019
5672 Clouds 16 1007 73 0 4.92 150 15:44 19.10.2019
5673 Clouds 16 1007 73 0 3.13 129 15:26 19.10.2019
5674 Clouds 16 1007 73 0 2.24 176 15:26 19.10.2019
5675 Clouds 16 1008 72 0 3.13 180 14:55 19.10.2019
5676 Clouds 16 1008 71 0 4.02 162 14:37 19.10.2019
5677 Clouds 16 1008 73 0 1.79 122 14:19 19.10.2019
5678 Clouds 16 1006 74 0 1.34 176 13:54 19.10.2019
5679 Clouds 16 1005 73 0 1.79 181 13:36 19.10.2019
5680 Clouds 16 1006 73 0 2.68 167 13:18 19.10.2019
5681 Clouds 15 1009 75 0 2.24 133 12:39 19.10.2019
5682 Clouds 15 1009 76 0 1.34 95 12:21 19.10.2019
5683 Clouds 14 1009 78 0 1.34 169 11:56 19.10.2019
5684 Clouds 14 1009 78 0 1.34 169 11:56 19.10.2019
5685 Clouds 14 1009 78 0 2.24 129 11:36 19.10.2019
5686 Clouds 14 1005 79 0 1.34 78 11:18 19.10.2019
5687 Clouds 13 1009 80 0 1.34 141 10:40 19.10.2019
5688 Clouds 12 1009 83 0 1.79 174 10:22 19.10.2019
5689 Clouds 12 1009 83 0 0.45 156 09:58 19.10.2019
5690 Clouds 11 1009 83 0 1.34 142 09:39 19.10.2019
5691 Clouds 11 1009 83 0 0.45 187 09:21 19.10.2019
5692 Clouds 10 1010 87 0 0.45 166 08:41 19.10.2019
5693 Clouds 10 1010 89 0 0.45 180 08:23 19.10.2019
5694 Clouds 10 1010 89 0 3.52 172.036 07:59 19.10.2019
5695 Clouds 10 1010 90 0 3.52 172.036 07:41 19.10.2019
5696 Clouds 10 1010 89 0 3.52 172.036 07:23 19.10.2019
5697 Clouds 10 1010 89 0 3.52 172.036 06:35 19.10.2019
5698 Clouds 10 1010 88 0 3.05 168.344 05:51 19.10.2019
5699 Clouds 9 1010 87 0 0.45 162 04:26 19.10.2019
5700 Clouds 9 1010 89 0 1.34 142 03:18 19.10.2019
5701 Clouds 9 1010 89 0 0.45 141 02:21 19.10.2019
5702 Clouds 9 1010 89 0 0.45 141 01:49 19.10.2019
5703 Clouds 9 1010 88 0 2.72 181.709 00:57 19.10.2019
5704 Clouds 9 1010 89 0 0.45 183 00:37 19.10.2019
5705 Clear 9 1010 89 0 0.45 149 00:19 19.10.2019
5706 Clear 10 1010 89 0 3.25 224.975 23:39 18.10.2019
5707 Clear 10 1010 89 0 0.45 187 23:21 18.10.2019
5708 Clear 11 1010 89 0 0.45 181 22:55 18.10.2019
5709 Clear 11 1010 89 0 1.34 225 22:37 18.10.2019
5710 Clear 11 1010 89 0 1.34 225 22:37 18.10.2019
5711 Clear 11 1010 89 0 1.34 166 22:18 18.10.2019
5712 Clear 11 1010 89 0 0.89 129 21:56 18.10.2019
5713 Clear 11 1010 88 0 2.93 203.83 21:36 18.10.2019
5714 Clouds 12 1010 88 0 3.63 229.587 21:18 18.10.2019
5715 Clouds 12 1010 86 0 3.63 229.587 20:43 18.10.2019
5716 Clouds 12 1009 84 0 0.45 249 20:24 18.10.2019
5717 Clouds 13 1009 86 0 3.63 229.587 19:59 18.10.2019
5718 Clouds 13 1009 83 0 3.63 229.587 19:40 18.10.2019
5719 Clouds 13 1009 82 0 3.63 229.587 19:22 18.10.2019
5720 Clouds 14 1008 81 0 3.63 229.587 18:59 18.10.2019
5721 Clouds 15 1008 78 0 3.63 229.587 18:41 18.10.2019
5722 Rain 15 1008 76 0 1.79 142 18:23 18.10.2019
5723 Rain 15 1007 83 0 3.58 164 17:57 18.10.2019
5724 Rain 17 1007 83 0 0.45 193 17:37 18.10.2019
5725 Rain 17 1007 82 0 2.24 176 17:19 18.10.2019
5726 Rain 18 1007 76 0 1.79 129 16:43 18.10.2019
5727 Rain 18 1007 76 0 1.79 129 16:43 18.10.2019
5728 Rain 18 1007 73 0 0.45 131 16:21 18.10.2019
5729 Rain 18 1002 73 0 4.19 201.761 15:58 18.10.2019
5730 Rain 18 1007 70 0 1.34 195 15:39 18.10.2019
5731 Clouds 18 1007 72 0 3.58 188 15:20 18.10.2019
5732 Clouds 18 1007 74 0 1.34 184 14:57 18.10.2019
5733 Clouds 18 1007 77 0 1.79 190 14:38 18.10.2019
5734 Clouds 18 1007 76 0 1.34 135 14:20 18.10.2019
5735 Clouds 18 1007 76 0 1.34 152 13:57 18.10.2019
5736 Clouds 18 1008 77 0 1.34 114 13:39 18.10.2019
5737 Clouds 18 1008 78 0 1.79 193 13:20 18.10.2019
5738 Clouds 17 1008 81 0 0.45 208 12:56 18.10.2019
5739 Clouds 17 1008 78 0 0.89 156 12:37 18.10.2019
5740 Clouds 17 1008 77 0 1.79 186 12:19 18.10.2019
5741 Clouds 17 1007 83 0 1.34 0 11:42 18.10.2019
5742 Clouds 16 1009 83 0 0.89 157 11:21 18.10.2019
5743 Clouds 16 1009 84 0 0.45 119 10:59 18.10.2019
5744 Clouds 16 1010 87 0 2.24 148 10:41 18.10.2019
5745 Clouds 15 1010 89 0 1.79 87 10:22 18.10.2019
5746 Clouds 15 1010 91 0 1.34 190 09:58 18.10.2019
5747 Clouds 14 1010 92 0 1.34 164 09:39 18.10.2019
5748 Clouds 13 1010 91 0 0.45 108 09:20 18.10.2019
5749 Clouds 13 1010 85 0 1.79 139 08:45 18.10.2019
5750 Clouds 12 1010 93 0 0.45 160 08:26 18.10.2019
5751 Clouds 12 1010 92 0 2.65 190.473 07:59 18.10.2019
5752 Clouds 12 1010 92 0 0.45 149 07:41 18.10.2019
5753 Clouds 12 1010 92 0 2.65 190.473 07:18 18.10.2019
5754 Clouds 13 1010 92 0 2.65 190.473 06:38 18.10.2019
5755 Rain 13 1010 92 0 0.89 166 06:19 18.10.2019
5756 Rain 13 1010 92 0 2.68 192.022 05:54 18.10.2019
5757 Rain 13 1010 92 0 1.34 159 05:20 18.10.2019
5758 Rain 13 1011 92 0 2.68 192.022 03:42 18.10.2019
5759 Rain 13 1011 92 0 3.15 166.096 03:19 18.10.2019
5760 Rain 13 1011 91 0 1.34 136 02:32 18.10.2019
5761 Rain 13 1011 90 0 0.45 105 01:43 18.10.2019
5762 Rain 13 1011 90 0 0.45 126 01:23 18.10.2019
5763 Rain 13 1012 89 0 3.33 175.986 00:43 18.10.2019
5764 Rain 13 1007 98 0 3.35 195.87 00:20 18.10.2019
5765 Rain 13 1012 89 0 0.45 143 00:20 18.10.2019
5766 Rain 13 1012 88 0 3.35 195.87 23:42 17.10.2019
5767 Rain 13 1012 86 0 3.35 195.87 23:21 17.10.2019
5768 Rain 13 1012 85 0 0.45 150 22:58 17.10.2019
5769 Rain 13 1012 83 0 1.34 166 22:39 17.10.2019
5770 Rain 13 1012 82 0 0.45 197 22:20 17.10.2019
5771 Rain 13 1012 83 0 0.45 148 21:58 17.10.2019
5772 Rain 13 1012 83 0 0.45 203 21:40 17.10.2019
5773 Rain 13 1012 83 0 0.45 203 21:40 17.10.2019
5774 Clouds 13 1012 83 0 0.45 131 21:21 17.10.2019
5775 Clouds 13 1012 83 0 0.89 162 20:58 17.10.2019
5776 Clouds 14 1012 84 0 0.45 156 20:40 17.10.2019
5777 Clouds 14 1012 84 0 1.34 179 20:20 17.10.2019
5778 Clouds 14 1012 84 0 0.45 118 19:59 17.10.2019
5779 Clouds 15 1012 83 0 2.03 175.342 19:41 17.10.2019
5780 Clouds 15 1012 83 0 0.45 125 19:20 17.10.2019
5781 Clouds 15 1012 83 0 0.45 125 19:20 17.10.2019
5782 Clouds 15 1012 82 0 0.89 166 18:58 17.10.2019
5783 Clouds 16 1012 82 0 0.45 174 18:38 17.10.2019
5784 Clouds 16 1012 81 0 2.26 224.534 18:20 17.10.2019
5785 Clouds 16 1012 81 0 2.26 224.534 18:20 17.10.2019
5786 Clouds 17 1012 75 0 3.024 223 17:43 17.10.2019
5787 Clouds 17 1012 73 0 3.024 223 17:24 17.10.2019
5788 Clouds 17 1011 71 0 0.89 184 16:58 17.10.2019
5789 Clouds 18 1012 70 0 1.79 188 16:40 17.10.2019
5790 Clouds 18 1012 70 0 1.79 188 16:40 17.10.2019
5791 Clouds 18 1012 67 0 1.34 180 16:19 17.10.2019
5792 -273 0 0 0 0 0 15:57 17.10.2019
5793 Clouds 18 1012 65 0 3.024 223 15:38 17.10.2019
5794 Clouds 18 1012 63 0 0.45 193 15:20 17.10.2019
5795 Clouds 18 1012 64 0 0.89 200 14:56 17.10.2019
5796 Clouds 18 1012 64 0 2.24 277 14:38 17.10.2019
5797 Clouds 18 1012 69 0 0.45 164 14:19 17.10.2019
5798 Clouds 18 1012 62 0 0.45 40 13:40 17.10.2019
5799 Clouds 18 1012 64 0 1.34 204 13:20 17.10.2019
5800 Clouds 17 1012 66 0 2.24 190 12:58 17.10.2019
5801 Clouds 16 1012 68 0 1.79 170 12:37 17.10.2019
5802 Clouds 16 1012 69 0 1.79 188 12:19 17.10.2019
5803 Clouds 16 1012 70 0 1.34 190 11:55 17.10.2019
5804 Clouds 16 1012 70 0 3.731 216 11:37 17.10.2019
5805 Clouds 15 1012 72 0 0.89 181 11:18 17.10.2019
5806 Clouds 15 1012 77 0 2.68 132 10:41 17.10.2019
5807 Clouds 15 1012 74 0 1.34 174 10:19 17.10.2019
5808 Clouds 15 1012 76 0 1.34 177 09:57 17.10.2019
5809 Clouds 14 1012 79 0 4.649 225 09:38 17.10.2019
5810 Clouds 14 1011 79 0 1.34 187 09:19 17.10.2019
5811 Clouds 14 1011 81 0 1.34 163 08:49 17.10.2019
5812 Clouds 13 1011 83 0 1.79 145 08:27 17.10.2019
5813 Clouds 13 1011 84 0 1.34 188 07:59 17.10.2019
5814 Clouds 13 1010 85 0 1.79 157 07:41 17.10.2019
5815 Clouds 13 1010 86 0 1.34 153 07:21 17.10.2019
5816 Clouds 13 1010 87 0 1.34 197 06:55 17.10.2019
5817 Clouds 13 1010 87 0 1.34 197 06:37 17.10.2019
5818 Clouds 13 1010 87 0 0.45 156 06:18 17.10.2019
5819 Clouds 13 1010 87 0 1.34 170 05:40 17.10.2019
5820 Clouds 13 1011 87 0 1.34 172 05:19 17.10.2019
5821 Clouds 13 1011 86 0 1.79 152 04:48 17.10.2019
5822 Clouds 14 1011 85 0 1.34 157 03:46 17.10.2019
5823 Clouds 13 1011 85 0 0.45 159 02:32 17.10.2019
5824 Clouds 13 1011 85 0 1.79 176 00:42 17.10.2019
5825 Clouds 13 1011 85 0 0.89 153 00:21 17.10.2019
5826 Clouds 13 1011 85 0 0.45 162 23:59 16.10.2019
5827 Clouds 13 1011 84 0 0.89 114 23:41 16.10.2019
5828 Clouds 13 1011 85 0 1.34 169 23:19 16.10.2019
5829 Clouds 13 1011 86 0 1.34 170 22:54 16.10.2019
5830 Clouds 13 1011 84 0 0.89 166 22:36 16.10.2019
5831 Clouds 13 1011 84 0 1.34 164 22:18 16.10.2019
5832 Clouds 13 1011 84 0 1.34 211 21:54 16.10.2019
5833 Clouds 13 1011 84 0 4.216 219 21:36 16.10.2019
5834 Clouds 13 1011 84 0 0.89 118 21:18 16.10.2019
5835 -273 0 0 0 0 0 20:56 16.10.2019
5836 Clouds 13 1011 84 0 0.89 176 20:38 16.10.2019
5837 Clouds 12 1011 85 0 1.79 169 20:19 16.10.2019
5838 Clouds 13 1011 86 0 0.45 148 19:42 16.10.2019
5839 Clouds 13 1011 88 0 0.45 187 19:21 16.10.2019
5840 Clouds 13 1011 88 0 0.45 187 19:21 16.10.2019
5841 Clouds 13 1011 88 0 3.779 209 18:59 16.10.2019
5842 Clouds 13 1011 88 0 2.24 200 18:39 16.10.2019
5843 Clouds 13 1010 87 0 0.45 249 18:19 16.10.2019
5844 Clouds 14 1010 85 0 4.142 232 17:56 16.10.2019
5845 Clouds 14 1010 82 0 1.34 186 17:37 16.10.2019
5846 Clouds 14 1010 81 0 0.45 157 17:19 16.10.2019
5847 Clouds 15 1008 77 0 0.45 210 16:58 16.10.2019
5848 Clouds 15 1010 78 0 1.34 267 16:38 16.10.2019
5849 Clouds 15 1010 78 0 0.45 241 16:20 16.10.2019
5850 Clouds 15 1010 77 0 1.79 214 15:55 16.10.2019
5851 Clouds 15 1010 77 0 0.45 39 15:54 16.10.2019
5852 Clouds 15 1010 77 0 0.45 39 15:54 16.10.2019
5853 Clouds 15 1010 77 0 0.45 39 15:54 16.10.2019
5854 Clouds 14 1010 84 0 1.79 162 15:36 16.10.2019
5855 Rain 14 1010 85 0 0.45 141 15:18 16.10.2019
5856 Rain 14 1010 85 0 0.89 272 15:18 16.10.2019
5857 Rain 14 1010 85 0 0.89 272 15:18 16.10.2019
5858 Rain 13 1010 86 0 2.24 191 14:55 16.10.2019
5859 Rain 13 1010 86 0 2.68 201 14:36 16.10.2019
5860 Rain 13 1010 88 0 3.827 243 14:18 16.10.2019
5861 Rain 13 1010 90 0 1.34 180 13:42 16.10.2019
5862 Rain 13 1011 89 0 0.45 203 13:23 16.10.2019
5863 Rain 12 1005 95 0 3.827 243 12:57 16.10.2019
5864 Rain 12 1010 88 0 3.827 243 12:39 16.10.2019
5865 Rain 12 1010 88 0 5.587 251 12:18 16.10.2019
5866 Rain 12 1010 86 0 5.587 251 11:42 16.10.2019
5867 Rain 12 1010 86 0 0.45 256 11:18 16.10.2019
5868 Rain 12 1009 83 0 1.34 249 10:39 16.10.2019
5869 Rain 13 1009 82 0 2.68 272 10:20 16.10.2019
5870 -273 0 0 0 0 0 09:56 16.10.2019
5871 Rain 13 1009 83 0 1.79 243 09:38 16.10.2019
5872 Rain 14 1009 85 0 1.79 238 09:19 16.10.2019
5873 Rain 14 1008 87 0 1.79 245 08:43 16.10.2019
5874 Rain 14 1008 90 0 1.34 217 08:24 16.10.2019
5875 Rain 14 1007 91 0 0.45 225 07:46 16.10.2019
5876 Rain 14 1007 91 0 1.79 286 07:25 16.10.2019
5877 Rain 14 1007 91 0 1.79 210 07:25 16.10.2019
5878 Rain 14 1007 91 0 1.34 228 06:59 16.10.2019
5879 Rain 14 1007 91 0 1.34 232 06:39 16.10.2019
5880 Clouds 14 1006 90 0 9.543 277 05:48 16.10.2019
5881 Clouds 13 1005 85 0 9.543 277 03:26 16.10.2019
5882 Clouds 13 1004 90 0 0.45 276 02:49 16.10.2019
5883 Clouds 13 1004 90 0 3.874 253 01:19 16.10.2019
5884 Clouds 13 1004 89 0 3.874 253 00:50 16.10.2019
5885 Clouds 13 1004 88 0 1.03 153 00:28 16.10.2019
5886 Clouds 13 1004 88 0 1.03 153 23:41 15.10.2019
5887 Clouds 13 1004 88 0 1.03 153 23:22 15.10.2019
5888 Clouds 14 1004 88 0 1.03 153 22:56 15.10.2019
5889 Clouds 14 1004 88 0 1.03 153 22:56 15.10.2019
5890 Clouds 14 1005 87 0 1.03 153 22:38 15.10.2019
5891 Clouds 15 1005 87 0 1.03 153 22:20 15.10.2019
5892 Clouds 15 1005 87 0 1.03 153 21:56 15.10.2019
5893 -273 0 0 0 0 0 21:56 15.10.2019
5894 Clouds 15 1005 87 0 0.771 153 21:38 15.10.2019
5895 Clouds 15 1005 86 0 1.87 61 21:20 15.10.2019
5896 Clouds 16 1005 85 0 1.87 61 20:57 15.10.2019
5897 Clouds 16 1005 84 0 1.87 61 20:39 15.10.2019
5898 Clouds 17 1005 83 0 1.87 61 20:20 15.10.2019
5899 Clouds 17 1005 81 0 1.87 61 19:59 15.10.2019
5900 Clouds 17 1005 79 0 1.87 61 19:40 15.10.2019
5901 Clouds 17 1005 78 0 1.87 61 19:40 15.10.2019
5902 Clouds 17 1005 78 0 1.87 61 19:20 15.10.2019
5903 Clouds 18 1000 77 0 1.87 61 18:55 15.10.2019
5904 Clouds 18 1005 75 0 1.87 61 18:36 15.10.2019
5905 Clouds 19 1004 75 0 1.832 97 18:18 15.10.2019
5906 Clouds 20 1001 72 0 1.832 97 17:41 15.10.2019
5907 Clouds 20 1001 72 0 1.832 97 17:41 15.10.2019
5908 Clouds 21 1004 70 0 1.832 97 17:20 15.10.2019
5909 Clouds 21 1004 70 0 1.832 97 17:20 15.10.2019
5910 Clouds 22 1005 66 0 1.832 97 16:58 15.10.2019
5911 Clouds 22 1004 64 0 1.832 97 16:39 15.10.2019
5912 Clouds 22 1005 61 0 0.89 145 16:20 15.10.2019
5913 -273 0 0 0 0 0 15:55 15.10.2019
5914 Clouds 23 1005 57 0 1.79 87 15:37 15.10.2019
5915 Clouds 23 1005 57 0 0.45 166 15:19 15.10.2019
5916 Clouds 23 1005 56 0 1.34 203 14:38 15.10.2019
5917 Clouds 23 1005 56 0 1.34 203 14:38 15.10.2019
5918 Clouds 22 1005 59 0 1.34 166 14:20 15.10.2019
5919 Clouds 23 1005 60 0 0.45 16 13:59 15.10.2019
5920 Clouds 22 1006 63 0 0.89 170 13:40 15.10.2019
5921 Clouds 22 1006 64 0 1.79 164 13:20 15.10.2019
5922 Clouds 21 1006 67 0 1.34 98 12:44 15.10.2019
5923 Clouds 20 1006 68 0 1.34 93 12:22 15.10.2019
5924 Clouds 19 1006 75 0 1.826 173 11:58 15.10.2019
5925 Clouds 19 1006 76 0 0.89 117 11:40 15.10.2019
5926 Clouds 18 1007 80 0 1.826 173 11:19 15.10.2019
5927 Clouds 16 1007 84 0 0.89 87 10:46 15.10.2019
5928 Clouds 15 1007 88 0 0.45 88 10:24 15.10.2019
5929 Clouds 14 1007 88 0 0.45 146 09:59 15.10.2019
5930 Clouds 14 1008 88 0 1.51 165.623 09:40 15.10.2019
5931 Clouds 13 1007 87 0 2.79 140.916 09:21 15.10.2019
5932 Clouds 13 1008 85 0 0.89 142 08:57 15.10.2019
5933 Clouds 12 1007 90 0 0.45 160 08:39 15.10.2019
5934 Clouds 12 1007 90 0 2.88 137.394 08:19 15.10.2019
5935 Clouds 11 1007 90 0 2.88 137.394 07:43 15.10.2019
5936 Clouds 11 1007 90 0 2.88 137.394 07:43 15.10.2019
5937 Clouds 11 1007 90 0 2.88 137.394 07:22 15.10.2019
5938 Clouds 12 1007 90 0 2.88 137.394 06:56 15.10.2019
5939 Clouds 12 1008 90 0 2.88 137.394 06:37 15.10.2019
5940 Clouds 12 1008 90 0 0.45 128 05:56 15.10.2019
5941 Clouds 12 1008 90 0 2.83 142.887 05:36 15.10.2019
5942 Clouds 12 1008 89 0 0.45 93 04:48 15.10.2019
5943 Clouds 13 1009 89 0 2.83 142.887 04:18 15.10.2019
5944 Clouds 13 1009 89 0 2.83 142.887 03:34 15.10.2019
5945 Clouds 13 1010 88 0 2.68 125.577 01:52 15.10.2019
5946 Clouds 14 1010 88 0 2.7 131.461 01:31 15.10.2019
5947 Clouds 14 1010 88 0 2.7 131.461 00:59 15.10.2019
5948 Clouds 14 1010 88 0 2.32 110.455 00:25 15.10.2019
5949 Clouds 15 1010 88 0 2.32 110.455 23:58 14.10.2019
5950 Clouds 15 1010 87 0 2.32 110.455 23:37 14.10.2019
5951 Clouds 15 1010 87 0 2.32 110.455 23:37 14.10.2019
5952 Clouds 15 1010 87 0 2.32 110.455 23:18 14.10.2019
5953 Clouds 15 1011 86 0 2.32 110.455 22:39 14.10.2019
5954 Clouds 16 1011 86 0 2.32 110.455 22:20 14.10.2019
5955 Clouds 16 1011 85 0 2.32 110.455 21:58 14.10.2019
5956 Clouds 16 1011 84 0 2.32 110.455 21:39 14.10.2019
5957 Clouds 16 1011 83 0 3.74 95.128 21:21 14.10.2019
5958 Clouds 17 1011 82 0 3.73 83.68 20:57 14.10.2019
5959 Clouds 17 1011 82 0 3.73 83.68 20:57 14.10.2019
5960 Clouds 17 1011 81 0 3.73 83.68 20:38 14.10.2019
5961 Clouds 17 1011 81 0 3.73 83.68 20:38 14.10.2019
5962 Clouds 18 1011 80 0 3.73 83.68 20:19 14.10.2019
5963 Clear 18 1012 79 0 3.647 113 19:44 14.10.2019
5964 Clear 18 1012 78 0 3.647 113 19:25 14.10.2019
5965 -273 0 0 0 0 0 18:59 14.10.2019
5966 Clouds 19 1012 74 0 3.73 83.68 18:40 14.10.2019
5967 Clouds 20 1012 73 0 0.45 112 18:21 14.10.2019
5968 Clouds 20 1012 69 0 0.45 59 17:59 14.10.2019
5969 Clouds 21 1011 63 0 3.32 96.9 17:41 14.10.2019
5970 Clouds 22 1012 61 0 0.45 36 17:22 14.10.2019
5971 Clouds 22 1013 58 0 0.45 45 16:45 14.10.2019
5972 Clouds 23 1013 58 0 1.34 98 16:22 14.10.2019
5973 Clouds 23 1013 58 0 0.89 100 15:59 14.10.2019
5974 Clouds 23 1013 58 0 0.45 91 15:40 14.10.2019
5975 Clouds 23 1014 59 0 0.45 331 15:21 14.10.2019
5976 Clouds 22 1014 59 0 0.89 81 14:44 14.10.2019
5977 Clouds 21 1014 59 0 1.34 11 14:25 14.10.2019
5978 Clouds 22 1014 60 0 1.34 46 13:57 14.10.2019
5979 Clouds 21 1015 61 0 0.89 57 13:39 14.10.2019
5980 Clouds 21 1015 61 0 0.45 346 13:20 14.10.2019
5981 Clouds 21 1015 61 0 1.41 61.451 12:41 14.10.2019
5982 Clouds 21 1015 62 0 1.84 281.365 12:20 14.10.2019
5983 Clouds 19 1015 65 0 0.45 307 11:55 14.10.2019
5984 Clouds 20 1015 67 0 1.34 335 11:36 14.10.2019
5985 Clouds 20 1015 69 0 1.84 281.365 11:18 14.10.2019
5986 Clouds 18 1015 72 0 1.84 281.365 10:43 14.10.2019
5987 Clouds 18 1015 73 0 1.84 281.365 10:21 14.10.2019
5988 Clouds 17 1015 76 0 1.84 281.365 09:59 14.10.2019
5989 Clouds 17 1015 76 0 1.84 281.365 09:59 14.10.2019
5990 Clouds 17 1015 78 0 1.84 281.365 09:38 14.10.2019
5991 Clouds 17 1015 78 0 1.84 281.365 09:38 14.10.2019
5992 Clouds 16 1015 78 0 2.92 267.941 09:20 14.10.2019
5993 Clouds 15 1015 79 0 2.92 267.941 08:48 14.10.2019
5994 Clouds 15 1014 83 0 2.92 267.941 08:23 14.10.2019
5995 Clouds 15 1014 83 0 2.92 267.941 07:44 14.10.2019
5996 Clouds 15 1014 82 0 2.92 267.941 07:22 14.10.2019
5997 -273 0 0 0 0 0 06:56 14.10.2019
5998 Clouds 16 1013 80 0 2.92 267.941 06:28 14.10.2019
5999 Clouds 16 1013 80 0 3.78 253.68 05:53 14.10.2019
6000 Clouds 17 1012 76 0 0.45 200 04:53 14.10.2019
6001 Clouds 18 1012 73 0 0.45 121 03:49 14.10.2019
6002 Clouds 18 1012 73 0 0.45 173 03:22 14.10.2019
6003 Clouds 18 1012 71 0 0.89 201 01:56 14.10.2019
6004 Clouds 18 1011 74 0 1.34 173 01:18 14.10.2019
6005 Clouds 18 1011 74 0 0.45 133 00:41 14.10.2019
6006 Clouds 18 1011 74 0 4.85 221.565 00:18 14.10.2019
6007 Clouds 17 1011 73 0 0.45 190 23:40 13.10.2019
6008 Clouds 18 1011 72 0 1.34 183 23:19 13.10.2019
6009 Clouds 18 1010 73 0 0.89 187 22:56 13.10.2019
6010 Clouds 19 1010 73 0 4.85 221.565 22:38 13.10.2019
6011 Clouds 18 1010 73 0 0.89 262 22:19 13.10.2019
6012 Clouds 19 1010 75 0 0.89 211 21:56 13.10.2019
6013 Clouds 19 1010 74 0 4.85 221.565 21:36 13.10.2019
6014 Clouds 19 1010 74 0 4.85 221.565 21:36 13.10.2019
6015 Rain 19 1010 73 0 0.45 164 21:18 13.10.2019
6016 Rain 18 1010 74 0 0.45 180 21:18 13.10.2019
6017 Rain 19 1009 73 0 1.34 169 20:56 13.10.2019
6018 Clouds 19 1010 75 0 0.45 108 20:37 13.10.2019
6019 Clouds 19 1010 74 0 4.78 194.67 20:18 13.10.2019
6020 Clouds 19 1010 72 0 0.89 193 19:54 13.10.2019
6021 Clouds 19 1010 72 0 0.89 193 19:54 13.10.2019
6022 Clouds 19 1009 71 0 0.89 174 19:36 13.10.2019
6023 Clouds 19 1010 70 0 0.45 236 19:36 13.10.2019
6024 Clouds 19 1010 70 0 1.34 156 19:18 13.10.2019
6025 Clouds 20 1009 69 0 0.45 126 18:40 13.10.2019
6026 Clouds 21 1010 67 0 0.89 167 18:21 13.10.2019
6027 Clouds 21 1009 64 0 0.45 141 17:59 13.10.2019
6028 Clouds 21 1010 63 0 1.34 194 17:41 13.10.2019
6029 Clouds 21 1009 63 0 0.45 152 17:41 13.10.2019
6030 Clouds 22 1010 63 0 4.3 177.387 17:23 13.10.2019
6031 Clouds 22 1010 65 0 1.34 142 16:44 13.10.2019
6032 Clouds 22 1010 62 0 3.58 180 16:20 13.10.2019
6033 Clouds 22 1011 62 0 0.45 131 15:58 13.10.2019
6034 Clouds 22 1011 62 0 0.45 131 15:58 13.10.2019
6035 Clouds 23 1006 62 0 4.3 177.387 15:39 13.10.2019
6036 Clouds 23 1006 62 0 4.3 177.387 15:39 13.10.2019
6037 Clouds 23 1011 63 0 1.34 148 15:20 13.10.2019
6038 Clouds 23 1011 64 0 0.89 200 14:58 13.10.2019
6039 Clouds 23 1011 62 0 2.42 231.318 14:40 13.10.2019
6040 Clouds 23 1011 59 0 0.89 150 14:21 13.10.2019
6041 Clouds 23 1012 57 0 2.68 84 13:58 13.10.2019
6042 Clouds 23 1012 58 0 2.68 122 13:38 13.10.2019
6043 Clouds 22 1012 56 0 1.34 167 13:20 13.10.2019
6044 Clouds 22 1012 57 0 1.34 128 12:56 13.10.2019
6045 Clouds 22 1012 63 0 1.34 162 12:38 13.10.2019
6046 Clear 21 1012 64 0 1.34 167 12:18 13.10.2019
6047 Clear 21 1012 67 0 2.68 155 11:55 13.10.2019
6048 Clear 21 1012 68 0 2.68 135 11:55 13.10.2019
6049 Clear 21 1012 68 0 1.79 177 11:37 13.10.2019
6050 Clear 21 1012 68 0 1.79 177 11:37 13.10.2019
6051 Clear 21 1012 70 0 1.34 139 11:18 13.10.2019
6052 Clear 19 1012 74 0 1.79 169 10:41 13.10.2019
6053 Clear 18 1013 77 0 2.24 197 10:23 13.10.2019
6054 -273 0 0 0 0 0 09:56 13.10.2019
6055 Clear 16 1012 79 0 1.34 359 09:37 13.10.2019
6056 Clouds 15 1012 80 0 0.45 163 09:19 13.10.2019
6057 Clouds 14 1012 86 0 0.89 142 08:42 13.10.2019
6058 Clouds 14 1012 88 0 0.45 136 08:21 13.10.2019
6059 Clouds 13 1012 88 0 1.49 186.357 07:46 13.10.2019
6060 Clouds 13 1011 88 0 0.89 145 07:23 13.10.2019
6061 Clouds 14 1011 88 0 1.49 186.357 06:42 13.10.2019
6062 Clouds 14 1011 87 0 2.05 210.993 05:49 13.10.2019
6063 Clouds 14 1011 85 0 2.05 210.993 04:52 13.10.2019
6064 Clouds 14 1011 84 0 2.05 210.993 04:32 13.10.2019
6065 Clouds 15 1011 81 0 2.34 218.468 02:42 13.10.2019
6066 Clouds 15 1011 79 0 0.45 181 02:18 13.10.2019
6067 Clouds 16 1012 79 0 2.34 218.468 01:31 13.10.2019
6068 Clouds 16 1012 79 0 3.27 232.695 01:31 13.10.2019
6069 Clouds 16 1011 79 0 3.27 232.695 00:50 13.10.2019
6070 Clouds 15 1011 81 0 2.75 231.984 00:22 13.10.2019
6071 Clouds 15 1011 81 0 2.75 231.984 23:58 12.10.2019
6072 Clouds 15 1011 80 0 2.75 231.984 23:39 12.10.2019
6073 Clouds 15 1011 79 0 1.34 166 23:21 12.10.2019
6074 Clouds 16 1011 77 0 1.34 211 22:58 12.10.2019
6075 Clouds 15 1011 77 0 0.45 208 22:38 12.10.2019
6076 Clouds 15 1011 78 0 2.75 231.984 22:20 12.10.2019
6077 Clouds 15 1011 77 0 0.45 155 21:55 12.10.2019
6078 Clouds 15 1011 76 0 0.45 145 21:37 12.10.2019
6079 Clouds 16 1011 75 0 0.45 166 21:19 12.10.2019
6080 Clouds 16 1011 75 0 0.45 166 21:19 12.10.2019
6081 Clouds 16 1011 78 0 2.85 215.356 20:43 12.10.2019
6082 Clouds 15 1011 78 0 2.85 215.356 20:25 12.10.2019
6083 Clouds 16 1011 79 0 2.85 215.356 19:40 12.10.2019
6084 Clouds 16 1011 78 0 2.85 215.356 19:22 12.10.2019
6085 Clouds 16 1011 77 0 2.85 215.356 19:22 12.10.2019
6086 Clouds 17 1011 76 0 2.85 215.356 18:59 12.10.2019
6087 Clouds 17 1011 75 0 2.85 215.356 18:41 12.10.2019
6088 Clouds 18 1011 74 0 3.3 239.645 18:23 12.10.2019
6089 Clouds 19 1011 63 0 3.3 239.645 17:45 12.10.2019
6090 Clouds 19 1011 58 0 3.3 239.645 17:20 12.10.2019
6091 Clouds 20 1011 55 0 3.3 239.645 16:56 12.10.2019
6092 Clouds 20 1011 53 0 3.3 239.645 16:38 12.10.2019
6093 Clouds 20 1011 53 0 3.3 239.645 16:18 12.10.2019
6094 Clouds 20 1011 51 0 0.45 318 15:44 12.10.2019
6095 Clouds 20 1011 51 0 1.34 324 15:25 12.10.2019
6096 Clouds 20 1011 51 0 1.34 324 15:25 12.10.2019
6097 Clouds 20 1010 50 0 1.34 322 14:59 12.10.2019
6098 Clouds 20 1010 51 0 2.24 225 14:38 12.10.2019
6099 Clouds 20 1010 51 0 1.34 252 14:19 12.10.2019
6100 Clouds 20 1010 50 0 6.34 254.717 13:45 12.10.2019
6101 Clouds 20 1010 49 0 0.45 321 13:27 12.10.2019
6102 Clouds 20 1010 53 0 1.34 286 12:55 12.10.2019
6103 Clouds 19 1010 57 0 0.45 345 12:36 12.10.2019
6104 Clouds 19 1010 61 0 0.45 280 12:18 12.10.2019
6105 Clouds 19 1010 65 0 1.34 272 11:40 12.10.2019
6106 Clouds 18 1010 67 0 1.34 136 11:22 12.10.2019
6107 Clouds 17 1010 70 0 2.24 250 10:56 12.10.2019
6108 Clouds 16 1009 73 0 1.34 126 10:37 12.10.2019
6109 Clouds 16 1009 74 0 2.68 212 10:19 12.10.2019
6110 -273 0 0 0 0 0 09:56 12.10.2019
6111 Clouds 15 1009 75 0 1.34 169 09:37 12.10.2019
6112 Clouds 15 1009 74 0 4.98 228.593 09:19 12.10.2019
6113 Clouds 14 1008 77 0 2.24 228 08:42 12.10.2019
6114 Clouds 14 1009 80 0 0.45 149 08:23 12.10.2019
6115 Clouds 14 1008 83 0 0.45 225 07:40 12.10.2019
6116 Clouds 14 1008 83 0 2.68 214 07:22 12.10.2019
6117 Clouds 14 1008 81 0 1.34 156 05:54 12.10.2019
6118 Clouds 14 1008 80 0 4.02 177 05:25 12.10.2019
6119 Clouds 14 1009 79 0 1.34 201 04:31 12.10.2019
6120 Clouds 15 1009 78 0 1.34 183 03:46 12.10.2019
6121 Clouds 15 1009 80 0 1.79 229 02:37 12.10.2019
6122 Clouds 15 1009 78 0 0.89 174 01:31 12.10.2019
6123 Clouds 15 1009 77 0 2.68 183 00:54 12.10.2019
6124 Clouds 15 1010 76 0 5.94 231.471 00:35 12.10.2019
6125 Clouds 15 1010 74 0 1.34 195 23:54 11.10.2019
6126 Clouds 15 1009 74 0 0.89 149 23:36 11.10.2019
6127 Clouds 15 1010 74 0 1.79 170 23:18 11.10.2019
6128 Clouds 15 1010 74 0 2.24 193 22:37 11.10.2019
6129 Clouds 15 1010 74 0 1.34 248 22:19 11.10.2019
6130 Clouds 15 1010 75 0 2.24 194 21:42 11.10.2019
6131 Clouds 15 1010 75 0 2.24 211 21:21 11.10.2019
6132 Clouds 15 1010 76 0 1.79 183 21:21 11.10.2019
6133 Clouds 14 1010 75 0 1.34 211 20:57 11.10.2019
6134 Clouds 14 1010 75 0 1.34 224 20:38 11.10.2019
6135 Clouds 14 1010 75 0 1.34 181 20:20 11.10.2019
6136 Clouds 14 1010 75 0 0.45 64 19:55 11.10.2019
6137 Clouds 14 1010 75 0 0.45 232 19:37 11.10.2019
6138 Clouds 14 1010 77 0 0.89 183 19:18 11.10.2019
6139 Clouds 14 1010 76 0 1.34 104 19:18 11.10.2019
6140 Clouds 14 1010 76 0 1.34 104 19:18 11.10.2019
6141 Clouds 14 1010 76 0 1.34 104 19:18 11.10.2019
6142 Clouds 14 1011 78 0 0.45 160 18:56 11.10.2019
6143 Clouds 15 1011 77 0 2.24 186 18:37 11.10.2019
6144 Clouds 15 1011 77 0 2.24 232 18:18 11.10.2019
6145 Clouds 15 1012 74 0 1.34 149 17:55 11.10.2019
6146 Clouds 15 1011 74 0 1.79 222 17:36 11.10.2019
6147 Clouds 16 1012 73 0 1.34 203 17:18 11.10.2019
6148 Clouds 16 1012 70 0 5.97 224.919 16:40 11.10.2019
6149 -273 0 0 0 0 0 16:20 11.10.2019
6150 Clouds 16 1012 69 0 2.68 231 16:20 11.10.2019
6151 Clouds 16 1012 68 0 1.34 214 15:58 11.10.2019
6152 Clouds 16 1012 68 0 0.45 124 15:38 11.10.2019
6153 Clouds 16 1012 67 0 0.89 231 15:19 11.10.2019
6154 Clouds 16 1012 65 0 1.79 160 14:47 11.10.2019
6155 Clouds 16 1012 63 0 1.34 207 14:29 11.10.2019
6156 Clouds 16 1012 65 0 1.79 208 13:56 11.10.2019
6157 Clouds 16 1013 66 0 0.45 129 13:37 11.10.2019
6158 Clouds 16 1013 67 0 2.68 193 13:19 11.10.2019
6159 Clouds 15 1013 68 0 0.45 156 12:56 11.10.2019
6160 Clouds 15 1013 68 0 3.13 201 12:38 11.10.2019
6161 Clouds 14 1013 68 0 0.45 138 12:18 11.10.2019
6162 Clouds 14 1013 72 0 0.89 81 11:41 11.10.2019
6163 Clouds 14 1014 72 0 1.79 248 11:22 11.10.2019
6164 Clouds 14 1014 72 0 1.79 248 11:22 11.10.2019
6165 Clouds 14 1014 71 0 6.54 233.586 10:58 11.10.2019
6166 Clouds 13 1014 71 0 1.34 238 10:40 11.10.2019
6167 Clouds 13 1014 72 0 2.24 190 10:22 11.10.2019
6168 Clouds 12 1014 75 0 6.54 233.586 09:56 11.10.2019
6169 Clouds 12 1014 77 0 0.45 359 09:37 11.10.2019
6170 Clouds 12 1013 78 0 1.79 163 09:19 11.10.2019
6171 Clouds 11 1013 79 0 4.91 215.686 08:55 11.10.2019
6172 Clouds 11 1013 80 0 4.91 215.686 08:36 11.10.2019
6173 Clouds 11 1013 80 0 2.24 359 08:18 11.10.2019
6174 Clouds 11 1013 81 0 2.68 359 07:44 11.10.2019
6175 Clouds 11 1013 81 0 4.02 167 07:25 11.10.2019
6176 Clouds 11 1014 82 0 4.91 215.686 06:48 11.10.2019
6177 Clouds 11 1014 83 0 4.76 218.6 06:23 11.10.2019
6178 Clouds 11 1014 81 0 4.76 218.6 05:39 11.10.2019
6179 Clouds 11 1015 81 0 4.76 218.6 04:59 11.10.2019
6180 Clouds 10 1015 82 0 4.76 218.6 04:25 11.10.2019
6181 Clouds 10 1015 87 0 4.29 228.251 02:40 11.10.2019
6182 Clouds 9 1015 87 0 0.45 238 00:51 11.10.2019
6183 Clouds 9 1015 88 0 0.89 186 00:29 11.10.2019
6184 Clouds 10 1015 88 0 4.51 242.612 23:46 10.10.2019
6185 Clouds 10 1015 87 0 4.51 242.612 23:23 10.10.2019
6186 Clouds 10 1015 86 0 0.45 164 22:58 10.10.2019
6187 Clouds 10 1015 86 0 0.45 153 22:39 10.10.2019
6188 Clouds 10 1015 86 0 4.51 242.612 22:21 10.10.2019
6189 Clouds 10 1015 88 0 4.51 242.612 21:58 10.10.2019
6190 Clouds 10 1014 87 0 4.51 242.612 21:40 10.10.2019
6191 Clouds 10 1014 87 0 4.32 248.408 21:21 10.10.2019
6192 Rain 10 1014 85 0 0.45 193 20:57 10.10.2019
6193 Rain 10 1014 84 0 4.56 242.181 20:38 10.10.2019
6194 Rain 10 1014 84 0 4.56 242.181 20:18 10.10.2019
6195 Rain 11 1014 81 0 4.56 242.181 19:54 10.10.2019
6196 Rain 11 1014 79 0 4.56 242.181 19:36 10.10.2019
6197 Rain 12 1013 75 0 0.45 84 19:18 10.10.2019
6198 Rain 12 1008 75 0 4.56 242.181 18:41 10.10.2019
6199 Rain 13 1013 71 0 0.89 210 18:20 10.10.2019
6200 Rain 13 1011 69 0 2.68 238 17:55 10.10.2019
6201 Rain 14 1012 68 0 1.79 314 17:37 10.10.2019
6202 Rain 14 1012 67 0 1.34 258 17:18 10.10.2019
6203 Rain 13 1012 68 0 6.26 255 16:47 10.10.2019
6204 Rain 14 1012 64 0 2.68 191 16:26 10.10.2019
6205 Rain 14 1007 71 0 1.34 81 15:58 10.10.2019
6206 Rain 14 1012 70 0 2.24 255 15:38 10.10.2019
6207 Rain 14 1012 66 0 2.68 212 15:20 10.10.2019
6208 Rain 14 1012 62 0 3.13 253 14:55 10.10.2019
6209 Rain 15 1012 60 0 3.58 239 14:36 10.10.2019
6210 Rain 15 1011 59 0 0.45 246 14:18 10.10.2019
6211 Rain 14 1011 59 0 1.79 177 13:46 10.10.2019
6212 Clouds 14 1011 64 0 1.79 131 13:27 10.10.2019
6213 Clouds 14 1006 65 0 1.79 78 12:59 10.10.2019
6214 Clouds 14 1011 58 0 2.68 252 12:40 10.10.2019
6215 Clouds 14 1010 61 0 1.34 294 12:20 10.10.2019
6216 Clouds 14 1010 66 0 2.24 317 11:58 10.10.2019
6217 Clouds 13 1010 66 0 1.34 208 11:38 10.10.2019
6218 Clouds 12 1010 72 0 0.45 301 11:19 10.10.2019
6219 Clouds 12 1009 76 0 1.79 267 10:45 10.10.2019
6220 Clouds 11 1009 78 0 0.45 218 10:26 10.10.2019
6221 Clouds 11 1009 85 0 5.98 258.064 09:58 10.10.2019
6222 Clouds 10 1009 85 0 0.45 194 09:39 10.10.2019
6223 Clouds 10 1008 87 0 0.45 191 09:21 10.10.2019
6224 Clouds 10 1008 89 0 4.9 248.02 08:57 10.10.2019
6225 Clouds 9 1008 90 0 4.9 248.02 08:38 10.10.2019
6226 Clouds 9 1007 91 0 4.9 248.02 08:18 10.10.2019
6227 Clouds 9 1008 90 0 4.9 248.02 07:45 10.10.2019
6228 Clouds 9 1007 90 0 4.9 248.02 07:22 10.10.2019
6229 Clouds 9 1007 89 0 4.9 248.02 06:48 10.10.2019
6230 Clouds 9 1007 89 0 4.9 248.02 06:29 10.10.2019
6231 Rain 9 1007 88 0 5.71 252.038 05:28 10.10.2019
6232 Rain 10 1006 87 0 5.71 252.038 04:48 10.10.2019
6233 Rain 10 1006 86 0 1.34 155 04:26 10.10.2019
6234 Clouds 10 1006 90 0 4.89 244.346 01:46 10.10.2019
6235 Clouds 10 1006 90 0 5.04 239.789 01:26 10.10.2019
6236 Clouds 10 1005 88 0 0.45 117 00:54 10.10.2019
6237 Rain 10 1005 88 0 4.61 250.916 00:23 10.10.2019
6238 Rain 10 1005 88 0 4.61 250.916 23:40 09.10.2019
6239 Rain 10 1005 88 0 4.61 250.916 23:22 09.10.2019
6240 Rain 10 1005 89 0 4.61 250.916 22:59 09.10.2019
6241 Rain 10 1005 88 0 4.61 250.916 22:40 09.10.2019
6242 Rain 11 1005 87 0 0.89 170 22:22 09.10.2019
6243 Rain 11 1005 87 0 4.61 250.916 21:41 09.10.2019
6244 Rain 11 1005 87 0 4.85 255.136 21:21 09.10.2019
6245 Rain 11 1005 86 0 4.33 237.172 20:56 09.10.2019
6246 Rain 11 1005 86 0 4.33 237.172 20:38 09.10.2019
6247 Rain 11 1005 84 0 4.33 237.172 20:19 09.10.2019
6248 Rain 11 1005 85 0 4.33 237.172 19:58 09.10.2019
6249 Rain 12 1005 82 0 2.68 359 19:40 09.10.2019
6250 Rain 12 1005 81 0 4.33 237.172 19:22 09.10.2019
6251 Rain 12 1005 81 0 4.33 237.172 19:22 09.10.2019
6252 Rain 13 1005 81 0 4.33 237.172 18:38 09.10.2019
6253 Rain 13 1005 80 0 3.72 228.021 18:20 09.10.2019
6254 Rain 14 1005 78 0 3.72 228.021 17:58 09.10.2019
6255 Rain 14 1005 78 0 3.72 228.021 17:58 09.10.2019
6256 Rain 15 1005 75 0 0.45 172 17:39 09.10.2019
6257 Rain 15 1005 67 0 3.72 228.021 17:21 09.10.2019
6258 Rain 15 1005 65 0 3.13 359 16:56 09.10.2019
6259 Rain 15 1005 65 0 2.68 359 16:56 09.10.2019
6260 Rain 15 1006 66 0 3.72 228.021 16:37 09.10.2019
6261 Rain 16 1006 65 0 3.72 228.021 16:19 09.10.2019
6262 Rain 16 1006 64 0 3.72 228.021 15:55 09.10.2019
6263 Rain 16 1006 61 0 3.72 228.021 15:37 09.10.2019
6264 Rain 16 1006 62 0 5.41 235.459 15:18 09.10.2019
6265 Rain 16 1006 62 0 5.41 235.459 14:44 09.10.2019
6266 Rain 16 1006 62 0 5.41 235.459 14:44 09.10.2019
6267 Rain 16 1007 61 0 5.41 235.459 14:19 09.10.2019
6268 Rain 17 1007 61 0 1.79 174 13:59 09.10.2019
6269 Rain 16 1007 58 0 5.41 235.459 13:38 09.10.2019
6270 Rain 16 1007 59 0 4.34 236.804 13:18 09.10.2019
6271 Rain 16 1007 61 0 4.34 236.804 12:44 09.10.2019
6272 Rain 16 1007 62 0 4.34 236.804 12:44 09.10.2019
6273 Clouds 15 1007 65 0 5.08 236.698 12:23 09.10.2019
6274 Clouds 15 1008 70 0 2.24 359 11:58 09.10.2019
6275 Clouds 15 1008 73 0 5.08 236.698 11:40 09.10.2019
6276 Clouds 15 1008 75 0 5.08 236.698 11:20 09.10.2019
6277 Clouds 14 1008 79 0 5.08 236.698 10:59 09.10.2019
6278 Clouds 13 1008 80 0 3.13 191 10:40 09.10.2019
6279 Clouds 13 1008 83 0 0.89 139 10:19 09.10.2019
6280 Clouds 13 1008 83 0 1.34 155 10:19 09.10.2019
6281 Clouds 12 1008 86 0 1.79 157 09:43 09.10.2019
6282 Clouds 11 1008 82 0 0.45 210 09:20 09.10.2019
6283 Clouds 11 1008 83 0 0.45 225 08:58 09.10.2019
6284 Clouds 10 1004 94 0 4.71 239.491 08:39 09.10.2019
6285 Clouds 9 1008 91 0 0.45 194 08:19 09.10.2019
6286 Clouds 10 1008 91 0 1.79 95 08:19 09.10.2019
6287 Clouds 9 1008 91 0 4.71 239.491 07:47 09.10.2019
6288 Clouds 9 1008 91 0 0.89 173 07:25 09.10.2019
6289 Clouds 9 1003 90 0 4.71 239.491 06:57 09.10.2019
6290 Clouds 9 1003 90 0 4.71 239.491 06:35 09.10.2019
6291 Clear 9 1007 91 0 4.68 241.771 05:52 09.10.2019
6292 Clear 10 1007 91 0 4.68 241.771 04:56 09.10.2019
6293 Clear 10 1006 91 0 1.34 194 03:47 09.10.2019
6294 Rain 10 1006 90 0 3.84 249.088 02:27 09.10.2019
6295 Rain 11 1006 90 0 3.84 249.088 01:39 09.10.2019
6296 Rain 11 1006 90 0 4.59 245.211 01:18 09.10.2019
6297 Rain 12 1006 89 0 4.59 245.211 00:41 09.10.2019
6298 Rain 12 1006 89 0 0.45 201 00:23 09.10.2019
6299 Rain 12 1005 88 0 5.17 244.401 23:58 08.10.2019
6300 Rain 12 1005 88 0 5.17 244.401 23:38 08.10.2019
6301 Rain 12 1005 88 0 5.17 244.401 23:18 08.10.2019
6302 Rain 12 1005 88 0 5.17 244.401 22:55 08.10.2019
6303 Rain 12 1005 88 0 5.17 244.401 22:36 08.10.2019
6304 Rain 12 1005 88 0 5.17 244.401 22:18 08.10.2019
6305 Rain 12 1005 88 0 5.17 244.401 21:55 08.10.2019
6306 Rain 12 1005 87 0 5.17 244.401 21:36 08.10.2019
6307 Rain 13 1005 87 0 3.12 225.845 21:18 08.10.2019
6308 Rain 13 1005 87 0 0.45 119 20:55 08.10.2019
6309 Rain 13 1005 87 0 1.34 359 20:36 08.10.2019
6310 Rain 13 1005 86 0 3.9 228.1 20:18 08.10.2019
6311 Rain 13 1005 87 0 3.9 228.1 19:42 08.10.2019
6312 Rain 13 1005 86 0 0.45 177 19:24 08.10.2019
6313 Rain 13 1005 86 0 3.9 228.1 18:59 08.10.2019
6314 Rain 13 1005 86 0 3.9 228.1 18:41 08.10.2019
6315 Clouds 13 1005 85 0 3.75 253.238 18:22 08.10.2019
6316 Clouds 14 1005 83 0 3.75 253.238 17:57 08.10.2019
6317 Clouds 14 1005 80 0 3.75 253.238 17:39 08.10.2019
6318 Clouds 14 1005 79 0 1.34 157 17:18 08.10.2019
6319 Clouds 14 1005 80 0 1.79 156 16:55 08.10.2019
6320 Clouds 14 1005 78 0 0.89 193 16:37 08.10.2019
6321 Clouds 14 1006 77 0 0.89 102 16:18 08.10.2019
6322 Clouds 14 1006 80 0 3.13 234 15:38 08.10.2019
6323 Rain 14 1005 80 0 1.34 279 15:20 08.10.2019
6324 Rain 14 1006 81 0 3.58 232 14:55 08.10.2019
6325 Rain 14 1006 83 0 0.45 219 14:37 08.10.2019
6326 Rain 13 1006 83 0 0.89 84 14:19 08.10.2019
6327 Rain 13 1006 82 0 4.95 253.789 13:55 08.10.2019
6328 Rain 13 1006 82 0 2.68 245 13:37 08.10.2019
6329 Rain 13 1001 92 0 4.92 250.778 13:18 08.10.2019
6330 Rain 13 1006 84 0 4.92 250.778 13:18 08.10.2019
6331 Rain 13 1001 92 0 4.92 250.778 13:18 08.10.2019
6332 Rain 12 1001 97 0 4.92 250.778 12:41 08.10.2019
6333 Rain 12 1006 85 0 1.34 167 12:20 08.10.2019
6334 Rain 11 1001 97 0 4.25 215.578 11:58 08.10.2019
6335 Rain 12 1006 86 0 1.34 190 11:39 08.10.2019
6336 Rain 11 1006 86 0 4.25 215.578 11:21 08.10.2019
6337 Rain 11 1006 87 0 0.45 115 10:42 08.10.2019
6338 Rain 11 1007 88 0 1.79 148 10:23 08.10.2019
6339 Rain 10 1007 88 0 2.24 191 09:59 08.10.2019
6340 Rain 10 1007 89 0 3.58 183 09:40 08.10.2019
6341 Rain 10 1007 89 0 1.79 125 09:22 08.10.2019
6342 Rain 10 1008 89 0 1.79 215 08:45 08.10.2019
6343 Rain 10 1008 88 0 0.45 115 08:25 08.10.2019
6344 Rain 9 1009 88 0 1.79 200 07:58 08.10.2019
6345 Rain 9 1009 87 0 0.45 93 07:40 08.10.2019
6346 Rain 9 1009 87 0 0.89 201 07:19 08.10.2019
6347 Rain 9 1010 86 0 3.51 203.523 06:46 08.10.2019
6348 Clouds 9 1010 85 0 3.47 177.276 06:23 08.10.2019
6349 Clouds 8 1011 85 0 0.45 145 05:43 08.10.2019
6350 Clouds 8 1011 85 0 0.45 177 05:43 08.10.2019
6351 Clouds 8 1011 85 0 0.89 83 05:19 08.10.2019
6352 Clouds 7 1013 84 0 0.45 160 03:32 08.10.2019
6353 Clouds 6 1013 84 0 1.34 170 02:44 08.10.2019
6354 Clouds 6 1013 84 0 1.34 74 02:25 08.10.2019
6355 Clouds 6 1014 83 0 4.13 171.842 01:42 08.10.2019
6356 Clouds 5 1015 84 0 0.89 81 00:57 08.10.2019
6357 Clouds 5 1015 85 0 2.48 171.203 00:25 08.10.2019
6358 Clouds 5 1016 85 0 2.48 171.203 23:58 07.10.2019
6359 Clouds 5 1016 85 0 2.48 171.203 23:38 07.10.2019
6360 Clouds 5 1012 95 0 2.48 171.203 23:19 07.10.2019
6361 Clouds 5 1017 87 0 2.48 171.203 22:55 07.10.2019
6362 Clouds 5 1017 86 0 2.48 171.203 22:37 07.10.2019
6363 Clouds 5 1018 86 0 2.48 171.203 22:19 07.10.2019
6364 Clouds 5 1018 87 0 2.48 171.203 21:55 07.10.2019
6365 Clouds 5 1018 87 0 2.48 171.203 21:37 07.10.2019
6366 Clouds 5 1018 87 0 2.08 148.539 21:18 07.10.2019
6367 Clouds 6 1018 87 0 1.98 144.934 20:56 07.10.2019
6368 Clouds 6 1018 86 0 1.98 144.934 20:38 07.10.2019
6369 Clouds 6 1018 86 0 1.98 144.934 20:18 07.10.2019
6370 Clouds 7 1018 84 0 1.98 144.934 19:54 07.10.2019
6371 Clouds 7 1018 83 0 1.98 144.934 19:36 07.10.2019
6372 Clouds 8 1018 81 0 1.98 144.934 19:18 07.10.2019
6373 Clouds 9 1018 76 0 1.98 144.934 18:42 07.10.2019
6374 Clouds 9 1018 73 0 2.1 174.991 18:19 07.10.2019
6375 Clouds 10 1019 69 0 2.1 174.991 17:59 07.10.2019
6376 Clouds 11 1019 68 0 2.1 174.991 17:41 07.10.2019
6377 Clouds 11 1019 62 0 2.1 174.991 17:19 07.10.2019
6378 Clouds 11 1019 57 0 1.79 163 16:55 07.10.2019
6379 Clouds 11 1019 55 0 2.1 174.991 16:37 07.10.2019
6380 Clouds 12 1019 52 0 2.1 174.991 16:18 07.10.2019
6381 Clouds 12 1020 53 0 1.79 207 15:41 07.10.2019
6382 Clouds 12 1020 53 0 1.79 207 15:41 07.10.2019
6383 Clear 12 1020 52 0 2.2 151.178 15:22 07.10.2019
6384 Clear 12 1020 51 0 2.2 151.178 14:42 07.10.2019
6385 Clear 12 1020 53 0 0.45 169 14:23 07.10.2019
6386 Clear 12 1020 55 0 0.45 143 13:59 07.10.2019
6387 Clear 12 1020 56 0 0.45 150 13:40 07.10.2019
6388 Clear 12 1021 58 0 0.89 197 13:18 07.10.2019
6389 Clear 12 1021 59 0 2.24 129 12:54 07.10.2019
6390 Clear 11 1021 62 0 1.34 166 12:36 07.10.2019
6391 Clear 11 1021 62 0 0.45 143 12:36 07.10.2019
6392 Clear 9 1022 65 0 2.24 90 12:18 07.10.2019
6393 Clear 9 1021 72 0 0.89 172 11:56 07.10.2019
6394 Clear 9 1021 75 0 1.45 107.607 11:36 07.10.2019
6395 Clear 9 1021 75 0 0.45 36 11:18 07.10.2019
6396 Clear 7 1021 82 0 1.45 107.607 10:40 07.10.2019
6397 Clear 7 1021 85 0 1.45 107.607 10:20 07.10.2019
6398 Clear 4 1021 87 0 1.45 107.607 09:42 07.10.2019
6399 Clouds 3 1017 95 0 1.73 96.559 09:23 07.10.2019
6400 Clouds 3 1021 83 0 1.73 96.559 08:55 07.10.2019
6401 Clouds 2 1020 91 0 1.57 93.647 08:37 07.10.2019
6402 Clouds 1 1020 90 0 1.57 93.647 08:18 07.10.2019
6403 Clouds 0 1020 91 0 1.57 93.647 07:40 07.10.2019
6404 Clouds 1 1020 91 0 1.57 93.647 07:20 07.10.2019
6405 Clouds 1 1020 91 0 1.57 93.647 06:44 07.10.2019
6406 Clear 1 1020 91 0 2.13 73.703 06:23 07.10.2019
6407 Clear 2 1020 91 0 2.13 73.703 05:42 07.10.2019
6408 Clear 2 1019 92 0 2.13 73.703 05:21 07.10.2019
6409 Clear 2 1019 92 0 2.13 73.703 04:23 07.10.2019
6410 Clear 3 1019 91 0 2.13 73.703 03:44 07.10.2019
6411 Clouds 3 1019 91 0 2.38 79.355 03:19 07.10.2019
6412 Clouds 3 1018 91 0 2.38 79.355 02:20 07.10.2019
6413 Clouds 3 1018 91 0 2.38 79.355 02:20 07.10.2019
6414 Clouds 4 1018 91 0 2.38 79.355 01:50 07.10.2019
6415 Clouds 4 1018 90 0 2.68 80.966 01:21 07.10.2019
6416 Clouds 5 1018 90 0 2.68 80.966 00:39 07.10.2019
6417 Clouds 5 1018 89 0 3.36 88.125 00:20 07.10.2019
6418 Clouds 5 1018 88 0 3.36 88.125 23:42 06.10.2019
6419 Clouds 5 1018 88 0 3.36 88.125 23:42 06.10.2019
6420 Clouds 6 1018 86 0 3.36 88.125 23:21 06.10.2019
6421 Clouds 6 1014 78 0 3.36 88.125 22:59 06.10.2019
6422 Clouds 6 1017 83 0 1.34 25 22:41 06.10.2019
6423 Clouds 7 1017 83 0 0.45 15 22:22 06.10.2019
6424 Clouds 7 1017 81 0 3.36 88.125 21:58 06.10.2019
6425 Clouds 7 1017 80 0 3.36 88.125 21:38 06.10.2019
6426 Clouds 7 1017 81 0 3.36 88.125 21:38 06.10.2019
6427 Clouds 7 1017 79 0 3.22 96.153 21:19 06.10.2019
6428 Clouds 7 1017 80 0 1.34 359 20:58 06.10.2019
6429 Clouds 7 1017 80 0 3.22 96.153 20:58 06.10.2019
6430 Clouds 7 1017 79 0 3.27 95.55 20:40 06.10.2019
6431 Clouds 7 1017 80 0 3.27 95.55 20:40 06.10.2019
6432 Clouds 7 1017 79 0 3.27 95.55 20:21 06.10.2019
6433 Clouds 7 1016 78 0 3.27 95.55 19:57 06.10.2019
6434 Clouds 7 1016 78 0 3.27 95.55 19:57 06.10.2019
6435 Clouds 8 1017 79 0 3.27 95.55 19:37 06.10.2019
6436 Clouds 8 1015 80 0 3.27 95.55 19:19 06.10.2019
6437 Clouds 8 1017 81 0 3.27 95.55 18:57 06.10.2019
6438 Clouds 9 1017 79 0 3.27 95.55 18:38 06.10.2019
6439 Clouds 9 1017 77 0 2.68 359 18:19 06.10.2019
6440 Clouds 9 1017 76 0 3.62 109.456 17:57 06.10.2019
6441 Clouds 10 1017 74 0 3.62 109.456 17:39 06.10.2019
6442 Clouds 10 1017 73 0 3.62 109.456 17:19 06.10.2019
6443 Clouds 10 1018 64 0 2.24 100 16:42 06.10.2019
6444 Clouds 10 1018 64 0 3.62 109.456 16:24 06.10.2019
6445 Clouds 11 1018 69 0 3.62 109.456 15:58 06.10.2019
6446 Clouds 11 1017 59 0 0.89 187 15:39 06.10.2019
6447 Clouds 11 1018 64 0 3.13 359 15:18 06.10.2019
6448 Clouds 10 1019 69 0 1.79 359 14:43 06.10.2019
6449 Clouds 10 1019 69 0 1.79 78 14:24 06.10.2019
6450 Clouds 10 1019 82 0 4.1 124.109 13:58 06.10.2019
6451 Clouds 9 1019 85 0 0.89 359 13:39 06.10.2019
6452 Clouds 9 1020 87 0 1.34 359 13:20 06.10.2019
6453 Clouds 9 1020 87 0 1.34 359 13:20 06.10.2019
6454 Clouds 8 1020 88 0 4.4 127.373 12:57 06.10.2019
6455 Clouds 9 1020 89 0 4.4 127.373 12:39 06.10.2019
6456 Clouds 8 1020 89 0 3.28 115.236 12:20 06.10.2019
6457 Clouds 8 1020 89 0 3.28 115.236 12:20 06.10.2019
6458 Clouds 8 1020 88 0 3.28 115.236 11:57 06.10.2019
6459 Clouds 7 1020 88 0 3.28 115.236 11:38 06.10.2019
6460 Clouds 6 1021 88 0 3.28 115.236 11:20 06.10.2019
6461 Clouds 6 1021 89 0 3.28 115.236 10:44 06.10.2019
6462 Clouds 6 1021 90 0 3.28 115.236 10:44 06.10.2019
6463 Clouds 5 1017 97 0 3.28 115.236 10:26 06.10.2019
6464 Clouds 5 1021 92 0 0.45 47 09:58 06.10.2019
6465 Clouds 5 1021 93 0 0.45 28 09:39 06.10.2019
6466 Clouds 4 1017 10 0 1.79 104.021 09:18 06.10.2019
6467 Clouds 4 1017 10 0 1.79 104.021 08:43 06.10.2019
6468 Clouds 4 1021 94 0 1.72 102.699 08:21 06.10.2019
6469 Clouds 4 1021 94 0 0.89 329 07:56 06.10.2019
6470 Clouds 4 1021 94 0 0.45 1 07:56 06.10.2019
6471 Clouds 3 1021 94 0 1.72 102.699 07:33 06.10.2019
6472 Clouds 2 1017 10 0 1.79 79.649 06:23 06.10.2019
6473 Clouds 3 1021 93 0 1.79 79.649 05:35 06.10.2019
6474 Clouds 3 1021 93 0 1.79 79.649 04:26 06.10.2019
6475 Clear 4 1021 93 0 1.84 64.577 02:46 06.10.2019
6476 Clear 4 1021 93 0 1.84 64.577 02:27 06.10.2019
6477 Clear 5 1021 92 0 1.84 64.577 01:46 06.10.2019
6478 Clear 5 1021 92 0 2.07 67.542 01:27 06.10.2019
6479 Clear 6 1021 92 0 2.07 67.542 00:57 06.10.2019
6480 Clear 6 1021 92 0 2.07 67.542 00:57 06.10.2019
6481 Clear 5 1021 92 0 2.07 67.542 00:28 06.10.2019
6482 Clear 6 1021 92 0 2.02 66.161 23:45 05.10.2019
6483 Clear 6 1021 91 0 2.02 66.161 23:23 05.10.2019
6484 Clear 6 1021 91 0 2.02 66.161 22:59 05.10.2019
6485 Clear 7 1021 91 0 2.02 66.161 22:40 05.10.2019
6486 Clear 7 1021 91 0 2.02 66.161 22:21 05.10.2019
6487 Clear 7 1021 90 0 2.02 66.161 21:57 05.10.2019
6488 Clear 7 1020 89 0 2.02 66.161 21:39 05.10.2019
6489 Clear 8 1020 88 0 0.45 352 21:21 05.10.2019
6490 Clear 8 1020 84 0 2.44 43.37 20:56 05.10.2019
6491 Clear 8 1016 95 0 1.83 58.337 20:38 05.10.2019
6492 Clear 8 1020 83 0 0.45 325 20:38 05.10.2019
6493 Clear 8 1020 85 0 0.45 232 20:19 05.10.2019
6494 Clear 8 1019 88 0 0.45 303 19:40 05.10.2019
6495 Clear 8 1019 87 0 1.83 58.337 19:22 05.10.2019
6496 Clear 9 1019 79 0 0.89 348 18:57 05.10.2019
6497 Clear 9 1019 80 0 0.45 325 18:39 05.10.2019
6498 Rain 10 1018 74 0 0.89 21 18:20 05.10.2019
6499 Rain 10 1018 76 0 0.45 331 17:56 05.10.2019
6500 Rain 11 1017 71 0 0.45 56 17:37 05.10.2019
6501 Rain 11 1017 71 0 3.15 40.151 17:19 05.10.2019
6502 Rain 12 1017 64 0 1.79 352 16:42 05.10.2019
6503 Rain 12 1017 65 0 2.68 346 16:22 05.10.2019
6504 Rain 12 1017 64 0 1.34 353 15:58 05.10.2019
6505 Rain 12 1016 66 0 1.34 311 15:40 05.10.2019
6506 Rain 12 1016 66 0 1.34 346 15:21 05.10.2019
6507 Rain 12 1016 67 0 2.24 0 14:58 05.10.2019
6508 Rain 12 1016 67 0 2.24 0 14:58 05.10.2019
6509 Rain 11 1016 67 0 1.34 336 14:40 05.10.2019
6510 Rain 11 1016 69 0 2.24 346 14:20 05.10.2019
6511 Rain 11 1015 68 0 1.79 325 13:42 05.10.2019
6512 Rain 11 1015 69 0 1.79 359 13:23 05.10.2019
6513 Rain 11 1015 69 0 2.24 325 12:57 05.10.2019
6514 Rain 11 1015 69 0 1.79 321 12:39 05.10.2019
6515 Clouds 10 1014 67 0 3.58 276 12:18 05.10.2019
6516 Clouds 10 1014 77 0 1.79 332 11:39 05.10.2019
6517 Clouds 9 1013 79 0 1.79 348 11:19 05.10.2019
6518 Clouds 9 1013 81 0 2.68 308 10:54 05.10.2019
6519 Clouds 9 1013 85 0 3.58 344 10:36 05.10.2019
6520 Clouds 9 1012 87 0 1.79 338 10:18 05.10.2019
6521 Clouds 9 1011 89 0 3.13 348 09:39 05.10.2019
6522 Rain 9 1011 90 0 1.79 355 09:20 05.10.2019
6523 Rain 8 1010 92 0 1.34 359 08:41 05.10.2019
6524 Rain 8 1010 92 0 0.45 322 08:21 05.10.2019
6525 Rain 8 1009 91 0 1.79 11 07:58 05.10.2019
6526 Rain 8 1009 91 0 4.92 321 07:38 05.10.2019
6527 Rain 8 1008 91 0 2.68 336 07:19 05.10.2019
6528 Rain 8 1007 91 0 1.79 355 06:29 05.10.2019
6529 Rain 8 1007 91 0 4.47 16 05:59 05.10.2019
6530 Rain 8 1005 100 0 2.68 7 04:44 05.10.2019
6531 Rain 9 1004 100 0 2.68 327 03:30 05.10.2019
6532 Rain 9 1004 95 0 3.58 56 01:59 05.10.2019
6533 Rain 9 1004 94 0 0.89 21 01:24 05.10.2019
6534 Rain 9 1004 93 0 1.79 26 00:46 05.10.2019
6535 Rain 9 1004 93 0 0.89 45 00:27 05.10.2019
6536 Rain 9 1004 93 0 1.79 83 23:55 04.10.2019
6537 Rain 9 1004 93 0 0.89 62 23:37 04.10.2019
6538 Rain 9 1004 94 0 1.34 87 23:18 04.10.2019
6539 Rain 9 1004 94 0 3.13 88 22:41 04.10.2019
6540 Rain 9 1004 93 0 1.34 90 22:23 04.10.2019
6541 Rain 9 1005 93 0 2.24 76 21:58 04.10.2019
6542 Rain 9 1005 93 0 4.69 95.873 21:40 04.10.2019
6543 Rain 9 1005 92 0 0.89 87 21:21 04.10.2019
6544 Rain 9 1005 92 0 3.13 60 20:58 04.10.2019
6545 Rain 9 1005 92 0 2.24 81 20:39 04.10.2019
6546 Rain 9 1005 91 0 1.34 90 20:21 04.10.2019
6547 Rain 9 1005 91 0 0.89 91 19:55 04.10.2019
6548 Rain 9 1005 91 0 1.34 94 19:37 04.10.2019
6549 Rain 9 1005 91 0 1.34 28 19:18 04.10.2019
6550 Rain 10 1006 89 0 4.01 122.236 18:40 04.10.2019
6551 Rain 10 1006 88 0 1.79 98 18:20 04.10.2019
6552 Rain 10 1006 88 0 0.45 112 17:59 04.10.2019
6553 Rain 10 1006 87 0 1.34 193 17:39 04.10.2019
6554 Rain 11 1006 87 0 0.45 169 17:21 04.10.2019
6555 Rain 11 1006 87 0 2.03 183.596 16:57 04.10.2019
6556 Rain 11 1006 87 0 2.24 146 16:39 04.10.2019
6557 Rain 11 1006 87 0 2.24 146 16:39 04.10.2019
6558 Rain 12 1006 82 0 0.45 78 16:18 04.10.2019
6559 Rain 12 1006 75 0 1.79 66 15:56 04.10.2019
6560 Rain 12 1003 91 0 2.03 183.596 15:37 04.10.2019
6561 Rain 12 1007 69 0 1.34 166 15:19 04.10.2019
6562 Rain 13 1007 69 0 2.68 156 14:55 04.10.2019
6563 Rain 13 1007 69 0 2.68 156 14:55 04.10.2019
6564 Rain 13 1007 72 0 3.07 202.611 14:36 04.10.2019
6565 Rain 13 1008 71 0 1.79 198 14:18 04.10.2019
6566 Rain 13 1008 73 0 1.34 136 13:43 04.10.2019
6567 Rain 13 1008 74 0 0.89 109 13:21 04.10.2019
6568 Rain 13 1009 75 0 0.45 166 12:47 04.10.2019
6569 Rain 13 1009 75 0 0.89 179 12:29 04.10.2019
6570 Rain 11 1008 81 0 0.45 113 11:59 04.10.2019
6571 Rain 11 1006 87 0 2.78 146.98 11:41 04.10.2019
6572 Rain 11 1010 80 0 0.45 139 11:20 04.10.2019
6573 Rain 11 1010 80 0 0.45 139 11:20 04.10.2019
6574 Rain 11 1010 80 0 0.45 139 11:20 04.10.2019
6575 Rain 10 1010 84 0 1.34 191 10:41 04.10.2019
6576 Rain 10 1010 85 0 0.45 166 10:21 04.10.2019
6577 Rain 10 1011 87 0 1.34 162 09:50 04.10.2019
6578 Rain 10 1011 87 0 0.45 87 09:31 04.10.2019
6579 Clouds 9 1007 92 0 1.45 163.486 08:57 04.10.2019
6580 Clouds 9 1011 91 0 0.89 156 08:38 04.10.2019
6581 Clouds 9 1011 91 0 0.45 155 08:38 04.10.2019
6582 Clouds 9 1011 91 0 1.45 163.486 08:20 04.10.2019
6583 Clouds 9 1012 92 0 1.45 163.486 07:46 04.10.2019
6584 Clouds 8 1012 92 0 0.45 146 07:23 04.10.2019
6585 Clouds 8 1012 92 0 1.45 163.486 06:47 04.10.2019
6586 Clouds 9 1012 92 0 1.92 153.154 06:27 04.10.2019
6587 Clouds 8 1012 92 0 1.92 153.154 06:27 04.10.2019
6588 Clouds 8 1012 91 0 1.92 153.154 05:52 04.10.2019
6589 Clouds 9 1012 90 0 1.92 153.154 05:19 04.10.2019
6590 Clouds 9 1013 91 0 1.92 153.154 03:56 04.10.2019
6591 Clouds 9 1014 91 0 1.71 130.003 02:54 04.10.2019
6592 Clouds 9 1014 91 0 1.71 130.003 02:54 04.10.2019
6593 Clouds 9 1014 91 0 1.71 130.003 02:21 04.10.2019
6594 Clouds 9 1014 89 0 1.71 130.003 01:43 04.10.2019
6595 -273 0 0 0 0 0 01:24 04.10.2019
6596 -273 0 0 0 0 0 00:24 04.10.2019
6597 Clear 10 1015 86 0 1.15 114.497 23:38 03.10.2019
6598 Clear 9 1015 85 0 1.15 114.497 23:19 03.10.2019
6599 Clear 10 1015 84 0 1.15 114.497 22:57 03.10.2019
6600 Clear 9 1011 95 0 1.15 114.497 22:39 03.10.2019
6601 Clear 10 1015 83 0 1.15 114.497 22:21 03.10.2019
6602 Clear 10 1015 84 0 1.15 114.497 21:56 03.10.2019
6603 Clear 10 1011 88 0 1.15 114.497 21:37 03.10.2019
6604 Clouds 10 1011 88 0 1.46 37.106 21:19 03.10.2019
6605 Clouds 10 1011 86 0 1.46 37.106 20:57 03.10.2019
6606 Clouds 10 1011 87 0 1.61 53.994 20:37 03.10.2019
6607 Clouds 11 1015 82 0 1.61 53.994 20:19 03.10.2019
6608 Clouds 11 1010 85 0 1.61 53.994 19:55 03.10.2019
6609 Clouds 11 1010 83 0 1.61 53.994 19:36 03.10.2019
6610 Clouds 11 1010 83 0 1.61 53.994 19:18 03.10.2019
6611 Clouds 12 1010 73 0 1.61 53.994 18:54 03.10.2019
6612 Clouds 12 1010 74 0 1.61 53.994 18:36 03.10.2019
6613 Clouds 13 1014 70 0 1.34 22 18:18 03.10.2019
6614 Clouds 13 1014 61 0 0.45 308 17:42 03.10.2019
6615 Clouds 13 1014 57 0 2.24 320 17:21 03.10.2019
6616 Clouds 14 1014 56 0 3.58 274 16:55 03.10.2019
6617 Clouds 14 1014 54 0 0.45 15 16:37 03.10.2019
6618 Clouds 14 1014 56 0 1.34 279 16:19 03.10.2019
6619 Clouds 13 1013 62 0 2.86 326.995 15:43 03.10.2019
6620 Rain 13 1014 57 0 1.79 32 15:23 03.10.2019
6621 Rain 14 1014 55 0 1.79 259 14:57 03.10.2019
6622 Rain 14 1014 53 0 1.34 329 14:36 03.10.2019
6623 Rain 15 1014 52 0 3.58 296 14:36 03.10.2019
6624 Rain 14 1014 53 0 1.34 329 14:36 03.10.2019
6625 Rain 14 1014 57 0 2.24 359 14:18 03.10.2019
6626 Rain 14 1014 59 0 1.79 252 13:43 03.10.2019
6627 Rain 14 1014 59 0 1.34 270 13:22 03.10.2019
6628 Rain 13 1014 57 0 0.45 297 12:58 03.10.2019
6629 Rain 13 1014 59 0 2.68 300 12:39 03.10.2019
6630 Clouds 13 1014 59 0 5.81 284 12:19 03.10.2019
6631 Clouds 13 1014 61 0 4.02 290 12:19 03.10.2019
6632 Clouds 12 1014 65 0 1.34 269 11:57 03.10.2019
6633 Clouds 12 1014 70 0 2.68 315 11:38 03.10.2019
6634 Clouds 11 1014 70 0 0.45 197 11:20 03.10.2019
6635 Clouds 11 1014 74 0 1.34 344 10:55 03.10.2019
6636 Clouds 11 1014 74 0 0.45 344 10:37 03.10.2019
6637 Clouds 10 1014 77 0 1.79 315 10:18 03.10.2019
6638 Clouds 10 1013 78 0 0.89 235 09:55 03.10.2019
6639 Clouds 10 1013 82 0 0.45 342 09:37 03.10.2019
6640 Clouds 9 1013 84 0 0.89 317 09:18 03.10.2019
6641 Clouds 9 1013 84 0 1.34 266 08:41 03.10.2019
6642 Clouds 9 1013 85 0 1.34 284 08:23 03.10.2019
6643 Clouds 9 1012 88 0 1.79 205 07:41 03.10.2019
6644 Clouds 9 1012 88 0 1.79 205 07:41 03.10.2019
6645 Clouds 9 1012 88 0 1.79 205 07:41 03.10.2019
6646 Clouds 8 1012 89 0 0.89 190 07:20 03.10.2019
6647 Clouds 8 1012 91 0 0.89 321 06:52 03.10.2019
6648 Clouds 8 1011 89 0 1.34 297 06:26 03.10.2019
6649 Rain 9 1011 87 0 1.79 283 05:47 03.10.2019
6650 Rain 9 1011 89 0 1.34 253 05:25 03.10.2019
6651 Rain 9 1010 89 0 0.45 335 04:40 03.10.2019
6652 Rain 9 1009 90 0 1.34 283 03:36 03.10.2019
6653 Rain 9 1010 88 0 1.34 204 03:18 03.10.2019
6654 Rain 9 1010 88 0 1.79 222 03:18 03.10.2019
6655 Rain 9 1010 84 0 1.79 241 02:21 03.10.2019
6656 Rain 9 1010 84 0 5.81 221 01:37 03.10.2019
6657 Rain 9 1010 82 0 0.45 176 00:52 03.10.2019
6658 Rain 8 1010 84 0 1.79 211 00:31 03.10.2019
6659 Clouds 8 1010 86 0 1.34 186 23:55 02.10.2019
6660 Clouds 8 1010 88 0 1.79 239 23:36 02.10.2019
6661 Clouds 8 1010 89 0 0.45 195 23:18 02.10.2019
6662 Clouds 8 1010 88 0 0.89 252 22:41 02.10.2019
6663 Clouds 8 1010 87 0 4.97 252.469 22:20 02.10.2019
6664 Clouds 8 1010 86 0 0.45 238 21:55 02.10.2019
6665 Clouds 8 1010 86 0 0.45 238 21:55 02.10.2019
6666 Clouds 8 1010 88 0 1.79 117 21:37 02.10.2019
6667 Clear 8 1010 88 0 1.34 238 21:18 02.10.2019
6668 Clouds 8 1010 89 0 1.79 236 20:55 02.10.2019
6669 Clouds 9 1010 89 0 0.45 225 20:55 02.10.2019
6670 -273 0 0 0 0 0 20:54 02.10.2019
6671 Clouds 9 1010 89 0 0.89 253 20:36 02.10.2019
6672 Clouds 9 1010 88 0 0.45 250 20:18 02.10.2019
6673 Clouds 9 1009 88 0 1.34 183 19:43 02.10.2019
6674 Clouds 10 1009 87 0 0.45 249 19:22 02.10.2019
6675 Clouds 10 1009 84 0 0.45 315 18:58 02.10.2019
6676 Clouds 11 1009 83 0 3.65 267.611 18:39 02.10.2019
6677 Rain 11 1009 84 0 4.55 282.727 18:21 02.10.2019
6678 Rain 12 1009 85 0 4.55 282.727 17:57 02.10.2019
6679 Rain 12 1009 85 0 4.55 282.727 17:57 02.10.2019
6680 Rain 12 1009 82 0 4.55 282.727 17:38 02.10.2019
6681 Rain 13 1008 66 0 0.45 269 17:20 02.10.2019
6682 Rain 13 1008 60 0 1.34 298 16:57 02.10.2019
6683 Rain 14 1008 61 0 0.45 280 16:37 02.10.2019
6684 Rain 14 1008 63 0 2.68 308 16:18 02.10.2019
6685 Rain 13 1008 53 0 2.68 280 15:55 02.10.2019
6686 Rain 14 1007 36 0 2.68 298 15:36 02.10.2019
6687 Rain 14 1007 43 0 1.34 300 15:18 02.10.2019
6688 Rain 13 1007 61 0 2.68 300 14:43 02.10.2019
6689 Rain 13 1007 51 0 1.79 344 14:22 02.10.2019
6690 -273 0 0 0 0 0 13:56 02.10.2019
6691 Rain 13 1007 63 0 0.89 169 13:37 02.10.2019
6692 Rain 13 1007 70 0 1.79 170 13:19 02.10.2019
6693 Rain 13 1007 71 0 0.45 142 13:19 02.10.2019
6694 Rain 12 1007 77 0 0.89 297 12:40 02.10.2019
6695 Clouds 11 1006 74 0 0.89 284 12:22 02.10.2019
6696 Clouds 11 1006 83 0 1.34 325 11:58 02.10.2019
6697 Clouds 11 1006 84 0 0.45 304 11:40 02.10.2019
6698 Clouds 10 1006 82 0 1.34 298 11:18 02.10.2019
6699 Clouds 10 1005 72 0 3.74 289.2 10:38 02.10.2019
6700 Clouds 10 1005 72 0 0.45 313 10:19 02.10.2019
6701 Clouds 9 1004 70 0 1.34 297 09:40 02.10.2019
6702 Rain 9 1004 67 0 0.45 310 09:20 02.10.2019
6703 -273 0 0 0 0 0 08:56 02.10.2019
6704 Rain 8 1003 42 0 0.89 307 08:37 02.10.2019
6705 Rain 8 1003 40 0 1.34 290 08:19 02.10.2019
6706 Rain 9 1002 81 0 0.89 303 07:39 02.10.2019
6707 Rain 9 1002 80 0 0.89 311 07:21 02.10.2019
6708 Rain 9 1001 79 0 0.89 301 06:54 02.10.2019
6709 Rain 10 1000 78 0 3.58 348 05:56 02.10.2019
6710 Rain 10 999 78 0 2.24 308 05:25 02.10.2019
6711 Rain 10 999 78 0 1.79 320 05:25 02.10.2019
6712 Rain 11 998 91 0 2.68 359 04:58 02.10.2019
6713 Rain 12 998 88 0 1.79 328 03:53 02.10.2019
6714 Rain 12 998 86 0 1.79 359 03:24 02.10.2019
6715 Rain 13 999 88 0 0.45 344 02:25 02.10.2019
6716 Rain 13 999 87 0 2.93 27.485 01:56 02.10.2019
6717 Rain 14 999 85 0 3.43 13.505 00:52 02.10.2019
6718 Rain 14 999 86 0 3.43 13.505 00:29 02.10.2019
6719 Rain 14 999 87 0 2.66 357.649 23:55 01.10.2019
6720 Rain 14 999 86 0 2.66 357.649 23:36 01.10.2019
6721 Rain 15 999 84 0 0.45 262 23:18 01.10.2019
6722 Rain 15 999 83 0 1.34 224 22:57 01.10.2019
6723 Rain 15 999 83 0 2.66 357.649 22:37 01.10.2019
6724 Rain 15 999 83 0 0.45 255 22:18 01.10.2019
6725 Rain 16 999 80 0 2.66 357.649 21:43 01.10.2019
6726 Rain 16 999 79 0 1.34 217 21:22 01.10.2019
6727 Rain 17 999 77 0 0.45 234 20:58 01.10.2019
6728 Rain 16 999 76 0 1.34 266 20:39 01.10.2019
6729 Rain 17 999 78 0 3.63 250.967 20:20 01.10.2019
6730 Rain 17 999 79 0 3.63 250.967 19:58 01.10.2019
6731 Rain 17 998 79 0 3.63 250.967 19:40 01.10.2019
6732 Rain 17 999 77 0 0.45 203 19:21 01.10.2019
6733 Rain 17 999 76 0 1.79 195 18:56 01.10.2019
6734 Rain 17 996 75 0 0.45 146 18:38 01.10.2019
6735 Rain 17 999 74 0 1.79 211 18:19 01.10.2019
6736 Rain 17 999 78 0 114 283 17:43 01.10.2019
6737 Rain 18 999 67 0 0.89 290 17:22 01.10.2019
6738 Rain 18 999 68 0 0.89 277 16:59 01.10.2019
6739 Rain 18 999 68 0 0.45 200 16:41 01.10.2019
6740 Rain 18 994 69 0 4.95 249.693 16:22 01.10.2019
6741 Rain 18 994 69 0 4.95 249.693 16:22 01.10.2019
6742 Rain 18 999 73 0 4.95 249.693 15:49 01.10.2019
6743 Rain 18 999 76 0 5.79 236.862 15:25 01.10.2019
6744 Rain 18 999 76 0 0.45 146 14:58 01.10.2019
6745 Rain 18 999 77 0 1.79 166 14:40 01.10.2019
6746 Rain 17 999 78 0 4.02 162 14:20 01.10.2019
6747 Rain 17 999 79 0 2.68 197 13:56 01.10.2019
6748 Rain 16 995 92 0 5.79 236.862 13:37 01.10.2019
6749 Rain 16 995 92 0 5.79 236.862 13:37 01.10.2019
6750 Rain 16 1000 84 0 0.45 139 13:18 01.10.2019
6751 Rain 16 1000 84 0 0.45 139 13:18 01.10.2019
6752 Rain 15 1000 87 0 0.45 301 12:55 01.10.2019
6753 Rain 15 1000 87 0 2.68 205 12:55 01.10.2019
6754 Rain 15 1001 83 0 3.13 212 12:37 01.10.2019
6755 Rain 15 1000 80 0 0.45 142 12:18 01.10.2019
6756 Rain 15 1000 84 0 1.34 138 11:55 01.10.2019
6757 Rain 15 1002 87 0 114 243 11:36 01.10.2019
6758 Rain 14 1000 82 0 0.89 228 11:18 01.10.2019
6759 Rain 14 996 97 0 3.58 218.22 10:46 01.10.2019
6760 Rain 14 999 92 0 2.68 0 10:28 01.10.2019
6761 Rain 13 997 98 0 3.58 218.22 09:45 01.10.2019
6762 Rain 13 997 98 0 3.58 218.22 09:26 01.10.2019
6763 Rain 12 997 97 0 3.99 200.035 08:45 01.10.2019
6764 Rain 12 1001 87 0 0.45 130 08:27 01.10.2019
6765 Rain 12 998 95 0 3.99 200.035 07:56 01.10.2019
6766 Rain 12 998 94 0 3.99 200.035 07:38 01.10.2019
6767 Rain 12 998 91 0 3.99 200.035 07:19 01.10.2019
6768 Rain 12 999 92 0 3.99 200.035 06:41 01.10.2019
6769 Rain 12 1000 93 0 2.85 216.753 06:18 01.10.2019
6770 Rain 12 1001 93 0 2.85 216.753 05:43 01.10.2019
6771 Rain 12 1002 87 0 2.85 216.753 04:42 01.10.2019
6772 Rain 11 1008 87 0 1.34 184 03:46 01.10.2019
6773 Clouds 11 1004 87 0 3.85 245.557 02:20 01.10.2019
6774 Clouds 11 1004 86 0 3.85 245.557 01:56 01.10.2019
6775 Clouds 12 1005 87 0 3.35 238.694 00:52 01.10.2019
6776 Clouds 12 1005 85 0 4.25 249.135 00:26 01.10.2019
6777 Clouds 12 1005 82 0 4.25 249.135 23:42 30.09.2019
6778 Clouds 12 1005 82 0 4.25 249.135 23:42 30.09.2019
6779 Clouds 12 1005 81 0 4.25 249.135 23:23 30.09.2019
6780 Clouds 13 1005 79 0 4.25 249.135 22:59 30.09.2019
6781 Clouds 13 1005 79 0 4.25 249.135 22:59 30.09.2019
6782 Clouds 13 1005 70 0 4.25 249.135 22:40 30.09.2019
6783 Clouds 13 1005 72 0 4.25 249.135 22:22 30.09.2019
6784 Clouds 13 1005 73 0 4.25 249.135 21:56 30.09.2019
6785 Clouds 13 1005 73 0 4.25 249.135 21:37 30.09.2019
6786 Rain 13 1005 74 0 4.44 271.715 21:19 30.09.2019
6787 Rain 14 1007 85 0 4.44 271.715 20:55 30.09.2019
6788 -273 0 0 0 0 0 20:55 30.09.2019
6789 Rain 14 1006 85 0 0.45 114 20:36 30.09.2019
6790 Rain 14 1006 85 0 0.45 114 20:36 30.09.2019
6791 Rain 14 1004 69 0 4.46 269.602 20:18 30.09.2019
6792 Rain 14 1004 70 0 4.46 269.602 19:54 30.09.2019
6793 Rain 14 1004 69 0 4.46 269.602 19:36 30.09.2019
6794 Rain 15 1004 66 0 4.46 269.602 19:18 30.09.2019
6795 Rain 15 1003 59 0 4.46 269.602 18:41 30.09.2019
6796 Rain 16 1005 78 0 0.89 205 18:21 30.09.2019
6797 Rain 16 1008 65 0 2.68 311 17:57 30.09.2019
6798 Rain 16 1008 65 0 2.68 311 17:57 30.09.2019
6799 Rain 17 1008 64 0 3.13 279 17:39 30.09.2019
6800 Rain 17 1008 62 0 3.13 324 17:20 30.09.2019
6801 Rain 17 1008 64 0 2.68 354 16:55 30.09.2019
6802 Rain 17 1003 63 0 1.79 288 16:36 30.09.2019
6803 Rain 17 1008 61 0 3.58 288 16:18 30.09.2019
6804 Rain 17 1003 62 0 8.05 0 16:18 30.09.2019
6805 Rain 17 1003 63 0 3.13 0 15:54 30.09.2019
6806 Rain 17 1001 59 0 7.14 282.738 15:36 30.09.2019
6807 Rain 16 1001 60 0 10.2 283.256 15:18 30.09.2019
6808 Rain 16 1003 69 0 7.15 0 14:54 30.09.2019
6809 Rain 17 1000 58 0 10.2 283.256 14:36 30.09.2019
6810 Rain 16 1000 63 0 10.2 283.256 14:18 30.09.2019
6811 Rain 16 999 64 0 10.2 283.256 13:43 30.09.2019
6812 Rain 16 999 60 0 10.19 279.962 13:22 30.09.2019
6813 Rain 16 999 62 0 10.19 279.962 12:57 30.09.2019
6814 Rain 16 999 64 0 10.19 279.962 12:39 30.09.2019
6815 Rain 15 998 77 0 8.81 282.068 12:19 30.09.2019
6816 Rain 15 997 77 0 8.81 282.068 11:43 30.09.2019
6817 Rain 14 998 81 0 4.92 0 11:22 30.09.2019
6818 Rain 14 997 80 0 1.79 70 10:59 30.09.2019
6819 Rain 14 996 81 0 1.79 346 10:39 30.09.2019
6820 Rain 14 995 94 0 8.81 282.068 10:19 30.09.2019
6821 Rain 14 994 93 0 8.81 282.068 09:58 30.09.2019
6822 Rain